<?xml version="1.0" encoding="UTF-8" standalone="no" ?>
<gpx xmlns="http://www.topografix.com/GPX/1/1" xmlns:xsi="http://www.w3.org/2001/XMLSchema-instance" xsi:schemaLocation="http://www.topografix.com/GPX/1/1 http://www.topografix.com/GPX/1/1/gpx.xsd" version="1.1" creator="VisuGPX - https://www.visugpx.com">
  <metadata>
    <name>Moret le canal retour par la foret</name>
    <desc><![CDATA[Un aller sympa par le canal, retour superbe en foret]]></desc>
  </metadata>
  <trk>
    <name><![CDATA[Sortie à vélo matinale]]></name>
    <trkseg>
      <trkpt lat="48.37111" lon="2.80364">
        <ele>79</ele>
        <time>2018-04-14T08:12:01Z</time>
      </trkpt>
      <trkpt lat="48.37108" lon="2.80359">
        <ele>79.3</ele>
        <time>2018-04-14T08:12:02Z</time>
      </trkpt>
      <trkpt lat="48.37103" lon="2.80358">
        <ele>79.5</ele>
        <time>2018-04-14T08:12:05Z</time>
      </trkpt>
      <trkpt lat="48.37105" lon="2.80356">
        <ele>79.5</ele>
        <time>2018-04-14T08:12:07Z</time>
      </trkpt>
      <trkpt lat="48.37109" lon="2.80355">
        <ele>79.4</ele>
        <time>2018-04-14T08:12:10Z</time>
      </trkpt>
      <trkpt lat="48.37114" lon="2.80357">
        <ele>79.3</ele>
        <time>2018-04-14T08:12:14Z</time>
      </trkpt>
      <trkpt lat="48.37114" lon="2.80362">
        <ele>79.1</ele>
        <time>2018-04-14T08:12:18Z</time>
      </trkpt>
      <trkpt lat="48.37117" lon="2.80361">
        <ele>79.1</ele>
        <time>2018-04-14T08:12:20Z</time>
      </trkpt>
      <trkpt lat="48.37121" lon="2.80363">
        <ele>78.9</ele>
        <time>2018-04-14T08:12:22Z</time>
      </trkpt>
      <trkpt lat="48.37125" lon="2.80369">
        <ele>78.7</ele>
        <time>2018-04-14T08:12:25Z</time>
      </trkpt>
      <trkpt lat="48.37121" lon="2.80364">
        <ele>78.9</ele>
        <time>2018-04-14T08:12:35Z</time>
      </trkpt>
      <trkpt lat="48.37121" lon="2.80369">
        <ele>78.8</ele>
        <time>2018-04-14T08:12:39Z</time>
      </trkpt>
      <trkpt lat="48.37112" lon="2.80368">
        <ele>78.9</ele>
        <time>2018-04-14T08:12:44Z</time>
      </trkpt>
      <trkpt lat="48.37103" lon="2.80376">
        <ele>78.9</ele>
        <time>2018-04-14T08:13:02Z</time>
      </trkpt>
      <trkpt lat="48.37105" lon="2.8038">
        <ele>78.8</ele>
        <time>2018-04-14T08:13:05Z</time>
      </trkpt>
      <trkpt lat="48.37107" lon="2.80382">
        <ele>78.8</ele>
        <time>2018-04-14T08:13:08Z</time>
      </trkpt>
      <trkpt lat="48.37101" lon="2.80373">
        <ele>79.1</ele>
        <time>2018-04-14T08:13:18Z</time>
      </trkpt>
      <trkpt lat="48.37104" lon="2.80376">
        <ele>78.9</ele>
        <time>2018-04-14T08:13:29Z</time>
      </trkpt>
      <trkpt lat="48.37105" lon="2.8038">
        <ele>78.8</ele>
        <time>2018-04-14T08:13:32Z</time>
      </trkpt>
      <trkpt lat="48.37106" lon="2.80385">
        <ele>78.7</ele>
        <time>2018-04-14T08:13:34Z</time>
      </trkpt>
      <trkpt lat="48.37108" lon="2.8039">
        <ele>78.6</ele>
        <time>2018-04-14T08:13:36Z</time>
      </trkpt>
      <trkpt lat="48.3711" lon="2.80392">
        <ele>78.6</ele>
        <time>2018-04-14T08:13:39Z</time>
      </trkpt>
      <trkpt lat="48.37112" lon="2.80396">
        <ele>78.5</ele>
        <time>2018-04-14T08:13:44Z</time>
      </trkpt>
      <trkpt lat="48.3711" lon="2.80401">
        <ele>78.5</ele>
        <time>2018-04-14T08:13:48Z</time>
      </trkpt>
      <trkpt lat="48.37109" lon="2.80409">
        <ele>78.5</ele>
        <time>2018-04-14T08:13:58Z</time>
      </trkpt>
      <trkpt lat="48.37112" lon="2.80412">
        <ele>78.4</ele>
        <time>2018-04-14T08:14:03Z</time>
      </trkpt>
      <trkpt lat="48.37115" lon="2.80415">
        <ele>78.2</ele>
        <time>2018-04-14T08:14:06Z</time>
      </trkpt>
      <trkpt lat="48.37116" lon="2.80418">
        <ele>78.2</ele>
        <time>2018-04-14T08:14:09Z</time>
      </trkpt>
      <trkpt lat="48.37116" lon="2.80423">
        <ele>78.1</ele>
        <time>2018-04-14T08:14:11Z</time>
      </trkpt>
      <trkpt lat="48.37117" lon="2.8043">
        <ele>77.9</ele>
        <time>2018-04-14T08:14:14Z</time>
      </trkpt>
      <trkpt lat="48.37119" lon="2.80433">
        <ele>77.9</ele>
        <time>2018-04-14T08:14:17Z</time>
      </trkpt>
      <trkpt lat="48.37116" lon="2.80439">
        <ele>78</ele>
        <time>2018-04-14T08:14:26Z</time>
      </trkpt>
      <trkpt lat="48.37113" lon="2.80435">
        <ele>78.2</ele>
        <time>2018-04-14T08:14:32Z</time>
      </trkpt>
      <trkpt lat="48.37114" lon="2.80421">
        <ele>78.2</ele>
        <time>2018-04-14T08:14:37Z</time>
      </trkpt>
      <trkpt lat="48.37119" lon="2.80414">
        <ele>78</ele>
        <time>2018-04-14T08:15:02Z</time>
      </trkpt>
      <trkpt lat="48.37118" lon="2.80418">
        <ele>78</ele>
        <time>2018-04-14T08:15:06Z</time>
      </trkpt>
      <trkpt lat="48.37122" lon="2.80417">
        <ele>77.9</ele>
        <time>2018-04-14T08:15:07Z</time>
      </trkpt>
      <trkpt lat="48.37101" lon="2.8037">
        <ele>79.3</ele>
        <time>2018-04-14T08:15:14Z</time>
      </trkpt>
      <trkpt lat="48.371" lon="2.80385">
        <ele>78.9</ele>
        <time>2018-04-14T08:15:15Z</time>
      </trkpt>
      <trkpt lat="48.371" lon="2.80389">
        <ele>78.9</ele>
        <time>2018-04-14T08:15:20Z</time>
      </trkpt>
      <trkpt lat="48.37101" lon="2.80386">
        <ele>78.9</ele>
        <time>2018-04-14T08:15:21Z</time>
      </trkpt>
      <trkpt lat="48.37118" lon="2.80355">
        <ele>79.2</ele>
        <time>2018-04-14T08:15:27Z</time>
      </trkpt>
      <trkpt lat="48.37115" lon="2.80352">
        <ele>79.5</ele>
        <time>2018-04-14T08:15:42Z</time>
      </trkpt>
      <trkpt lat="48.37109" lon="2.80339">
        <ele>80.3</ele>
        <time>2018-04-14T08:16:09Z</time>
      </trkpt>
      <trkpt lat="48.37101" lon="2.80376">
        <ele>79</ele>
        <time>2018-04-14T08:16:40Z</time>
      </trkpt>
      <trkpt lat="48.371" lon="2.80381">
        <ele>79</ele>
        <time>2018-04-14T08:16:43Z</time>
      </trkpt>
      <trkpt lat="48.371" lon="2.80376">
        <ele>79</ele>
        <time>2018-04-14T08:16:47Z</time>
      </trkpt>
      <trkpt lat="48.37102" lon="2.80372">
        <ele>79</ele>
        <time>2018-04-14T08:17:09Z</time>
      </trkpt>
      <trkpt lat="48.37104" lon="2.80376">
        <ele>78.9</ele>
        <time>2018-04-14T08:17:12Z</time>
      </trkpt>
      <trkpt lat="48.37106" lon="2.80381">
        <ele>78.8</ele>
        <time>2018-04-14T08:17:19Z</time>
      </trkpt>
      <trkpt lat="48.37107" lon="2.80388">
        <ele>78.7</ele>
        <time>2018-04-14T08:17:22Z</time>
      </trkpt>
      <trkpt lat="48.37108" lon="2.80394">
        <ele>78.6</ele>
        <time>2018-04-14T08:17:27Z</time>
      </trkpt>
      <trkpt lat="48.37107" lon="2.80383">
        <ele>78.8</ele>
        <time>2018-04-14T08:17:29Z</time>
      </trkpt>
      <trkpt lat="48.37098" lon="2.80368">
        <ele>79.4</ele>
        <time>2018-04-14T08:17:58Z</time>
      </trkpt>
      <trkpt lat="48.371" lon="2.80362">
        <ele>79.4</ele>
        <time>2018-04-14T08:18:07Z</time>
      </trkpt>
      <trkpt lat="48.37101" lon="2.80359">
        <ele>79.6</ele>
        <time>2018-04-14T08:18:10Z</time>
      </trkpt>
      <trkpt lat="48.37105" lon="2.80368">
        <ele>79.2</ele>
        <time>2018-04-14T08:18:35Z</time>
      </trkpt>
      <trkpt lat="48.37108" lon="2.8037">
        <ele>79.1</ele>
        <time>2018-04-14T08:18:39Z</time>
      </trkpt>
      <trkpt lat="48.3711" lon="2.80369">
        <ele>79</ele>
        <time>2018-04-14T08:18:40Z</time>
      </trkpt>
      <trkpt lat="48.37108" lon="2.8037">
        <ele>79.1</ele>
        <time>2018-04-14T08:18:41Z</time>
      </trkpt>
      <trkpt lat="48.37105" lon="2.80372">
        <ele>79</ele>
        <time>2018-04-14T08:18:50Z</time>
      </trkpt>
      <trkpt lat="48.37111" lon="2.80368">
        <ele>78.9</ele>
        <time>2018-04-14T08:18:58Z</time>
      </trkpt>
      <trkpt lat="48.37114" lon="2.80365">
        <ele>79</ele>
        <time>2018-04-14T08:19:00Z</time>
      </trkpt>
      <trkpt lat="48.37113" lon="2.80371">
        <ele>78.8</ele>
        <time>2018-04-14T08:19:09Z</time>
      </trkpt>
      <trkpt lat="48.37112" lon="2.80378">
        <ele>78.7</ele>
        <time>2018-04-14T08:19:11Z</time>
      </trkpt>
      <trkpt lat="48.37109" lon="2.8038">
        <ele>78.7</ele>
        <time>2018-04-14T08:19:15Z</time>
      </trkpt>
      <trkpt lat="48.37105" lon="2.8038">
        <ele>78.8</ele>
        <time>2018-04-14T08:19:18Z</time>
      </trkpt>
      <trkpt lat="48.37112" lon="2.80382">
        <ele>78.7</ele>
        <time>2018-04-14T08:19:33Z</time>
      </trkpt>
      <trkpt lat="48.37115" lon="2.80375">
        <ele>78.7</ele>
        <time>2018-04-14T08:19:40Z</time>
      </trkpt>
      <trkpt lat="48.37116" lon="2.80371">
        <ele>78.7</ele>
        <time>2018-04-14T08:19:44Z</time>
      </trkpt>
      <trkpt lat="48.37116" lon="2.80375">
        <ele>78.7</ele>
        <time>2018-04-14T08:19:46Z</time>
      </trkpt>
      <trkpt lat="48.37116" lon="2.80365">
        <ele>78.9</ele>
        <time>2018-04-14T08:19:53Z</time>
      </trkpt>
      <trkpt lat="48.37105" lon="2.80351">
        <ele>79.9</ele>
        <time>2018-04-14T08:20:47Z</time>
      </trkpt>
      <trkpt lat="48.37102" lon="2.80361">
        <ele>79.5</ele>
        <time>2018-04-14T08:20:49Z</time>
      </trkpt>
      <trkpt lat="48.37103" lon="2.80375">
        <ele>78.9</ele>
        <time>2018-04-14T08:20:50Z</time>
      </trkpt>
      <trkpt lat="48.37106" lon="2.8038">
        <ele>78.8</ele>
        <time>2018-04-14T08:20:51Z</time>
      </trkpt>
      <trkpt lat="48.37104" lon="2.80384">
        <ele>78.8</ele>
        <time>2018-04-14T08:20:56Z</time>
      </trkpt>
      <trkpt lat="48.37105" lon="2.80388">
        <ele>78.7</ele>
        <time>2018-04-14T08:20:57Z</time>
      </trkpt>
      <trkpt lat="48.37102" lon="2.80386">
        <ele>78.8</ele>
        <time>2018-04-14T08:21:00Z</time>
      </trkpt>
      <trkpt lat="48.37104" lon="2.80382">
        <ele>78.9</ele>
        <time>2018-04-14T08:21:11Z</time>
      </trkpt>
      <trkpt lat="48.37106" lon="2.80378">
        <ele>78.9</ele>
        <time>2018-04-14T08:21:16Z</time>
      </trkpt>
      <trkpt lat="48.37108" lon="2.80375">
        <ele>78.8</ele>
        <time>2018-04-14T08:22:11Z</time>
      </trkpt>
      <trkpt lat="48.3711" lon="2.8037">
        <ele>79</ele>
        <time>2018-04-14T08:22:15Z</time>
      </trkpt>
      <trkpt lat="48.3711" lon="2.80364">
        <ele>79.1</ele>
        <time>2018-04-14T08:22:17Z</time>
      </trkpt>
      <trkpt lat="48.37112" lon="2.80358">
        <ele>78.9</ele>
        <time>2018-04-14T08:22:19Z</time>
      </trkpt>
      <trkpt lat="48.37114" lon="2.80351">
        <ele>78.7</ele>
        <time>2018-04-14T08:22:21Z</time>
      </trkpt>
      <trkpt lat="48.37118" lon="2.80347">
        <ele>78.4</ele>
        <time>2018-04-14T08:22:23Z</time>
      </trkpt>
      <trkpt lat="48.37121" lon="2.80346">
        <ele>78.3</ele>
        <time>2018-04-14T08:22:24Z</time>
      </trkpt>
      <trkpt lat="48.37125" lon="2.80346">
        <ele>78.1</ele>
        <time>2018-04-14T08:22:25Z</time>
      </trkpt>
      <trkpt lat="48.3713" lon="2.80348">
        <ele>78</ele>
        <time>2018-04-14T08:22:26Z</time>
      </trkpt>
      <trkpt lat="48.37135" lon="2.8035">
        <ele>77.9</ele>
        <time>2018-04-14T08:22:27Z</time>
      </trkpt>
      <trkpt lat="48.3714" lon="2.80352">
        <ele>77.8</ele>
        <time>2018-04-14T08:22:28Z</time>
      </trkpt>
      <trkpt lat="48.37146" lon="2.80354">
        <ele>77.7</ele>
        <time>2018-04-14T08:22:29Z</time>
      </trkpt>
      <trkpt lat="48.37152" lon="2.80356">
        <ele>77.5</ele>
        <time>2018-04-14T08:22:30Z</time>
      </trkpt>
      <trkpt lat="48.37158" lon="2.80358">
        <ele>77.4</ele>
        <time>2018-04-14T08:22:31Z</time>
      </trkpt>
      <trkpt lat="48.37166" lon="2.8036">
        <ele>77.3</ele>
        <time>2018-04-14T08:22:32Z</time>
      </trkpt>
      <trkpt lat="48.37172" lon="2.80361">
        <ele>77.2</ele>
        <time>2018-04-14T08:22:33Z</time>
      </trkpt>
      <trkpt lat="48.37179" lon="2.80361">
        <ele>77.2</ele>
        <time>2018-04-14T08:22:34Z</time>
      </trkpt>
      <trkpt lat="48.37186" lon="2.8036">
        <ele>77.1</ele>
        <time>2018-04-14T08:22:35Z</time>
      </trkpt>
      <trkpt lat="48.37193" lon="2.80359">
        <ele>77.1</ele>
        <time>2018-04-14T08:22:36Z</time>
      </trkpt>
      <trkpt lat="48.37199" lon="2.80359">
        <ele>77.1</ele>
        <time>2018-04-14T08:22:37Z</time>
      </trkpt>
      <trkpt lat="48.37205" lon="2.80357">
        <ele>77.1</ele>
        <time>2018-04-14T08:22:38Z</time>
      </trkpt>
      <trkpt lat="48.37211" lon="2.80356">
        <ele>77.1</ele>
        <time>2018-04-14T08:22:39Z</time>
      </trkpt>
      <trkpt lat="48.37217" lon="2.80355">
        <ele>77.1</ele>
        <time>2018-04-14T08:22:40Z</time>
      </trkpt>
      <trkpt lat="48.37222" lon="2.80352">
        <ele>77.1</ele>
        <time>2018-04-14T08:22:41Z</time>
      </trkpt>
      <trkpt lat="48.37227" lon="2.80349">
        <ele>77.2</ele>
        <time>2018-04-14T08:22:42Z</time>
      </trkpt>
      <trkpt lat="48.37232" lon="2.80346">
        <ele>77.3</ele>
        <time>2018-04-14T08:22:43Z</time>
      </trkpt>
      <trkpt lat="48.37237" lon="2.80342">
        <ele>77.4</ele>
        <time>2018-04-14T08:22:44Z</time>
      </trkpt>
      <trkpt lat="48.37241" lon="2.80339">
        <ele>77.6</ele>
        <time>2018-04-14T08:22:45Z</time>
      </trkpt>
      <trkpt lat="48.37245" lon="2.80336">
        <ele>77.7</ele>
        <time>2018-04-14T08:22:46Z</time>
      </trkpt>
      <trkpt lat="48.3725" lon="2.80336">
        <ele>77.3</ele>
        <time>2018-04-14T08:22:47Z</time>
      </trkpt>
      <trkpt lat="48.37253" lon="2.80337">
        <ele>76.9</ele>
        <time>2018-04-14T08:22:48Z</time>
      </trkpt>
      <trkpt lat="48.37256" lon="2.80343">
        <ele>76.3</ele>
        <time>2018-04-14T08:22:50Z</time>
      </trkpt>
      <trkpt lat="48.37258" lon="2.80346">
        <ele>76</ele>
        <time>2018-04-14T08:22:51Z</time>
      </trkpt>
      <trkpt lat="48.3726" lon="2.8035">
        <ele>75.6</ele>
        <time>2018-04-14T08:22:52Z</time>
      </trkpt>
      <trkpt lat="48.37263" lon="2.80357">
        <ele>75</ele>
        <time>2018-04-14T08:22:54Z</time>
      </trkpt>
      <trkpt lat="48.37265" lon="2.80362">
        <ele>74.7</ele>
        <time>2018-04-14T08:22:55Z</time>
      </trkpt>
      <trkpt lat="48.37267" lon="2.80367">
        <ele>74.3</ele>
        <time>2018-04-14T08:22:56Z</time>
      </trkpt>
      <trkpt lat="48.37269" lon="2.80371">
        <ele>74</ele>
        <time>2018-04-14T08:22:57Z</time>
      </trkpt>
      <trkpt lat="48.37271" lon="2.80376">
        <ele>73.6</ele>
        <time>2018-04-14T08:22:58Z</time>
      </trkpt>
      <trkpt lat="48.37273" lon="2.80382">
        <ele>73.2</ele>
        <time>2018-04-14T08:22:59Z</time>
      </trkpt>
      <trkpt lat="48.37275" lon="2.80388">
        <ele>72.8</ele>
        <time>2018-04-14T08:23:00Z</time>
      </trkpt>
      <trkpt lat="48.37277" lon="2.80395">
        <ele>72.3</ele>
        <time>2018-04-14T08:23:01Z</time>
      </trkpt>
      <trkpt lat="48.37279" lon="2.80403">
        <ele>71.9</ele>
        <time>2018-04-14T08:23:02Z</time>
      </trkpt>
      <trkpt lat="48.3728" lon="2.8041">
        <ele>71.8</ele>
        <time>2018-04-14T08:23:03Z</time>
      </trkpt>
      <trkpt lat="48.37281" lon="2.80417">
        <ele>71.6</ele>
        <time>2018-04-14T08:23:04Z</time>
      </trkpt>
      <trkpt lat="48.37281" lon="2.80424">
        <ele>71.5</ele>
        <time>2018-04-14T08:23:05Z</time>
      </trkpt>
      <trkpt lat="48.37282" lon="2.8043">
        <ele>71.3</ele>
        <time>2018-04-14T08:23:06Z</time>
      </trkpt>
      <trkpt lat="48.37282" lon="2.80436">
        <ele>71.2</ele>
        <time>2018-04-14T08:23:07Z</time>
      </trkpt>
      <trkpt lat="48.37281" lon="2.80442">
        <ele>71.1</ele>
        <time>2018-04-14T08:23:08Z</time>
      </trkpt>
      <trkpt lat="48.37281" lon="2.80448">
        <ele>71</ele>
        <time>2018-04-14T08:23:09Z</time>
      </trkpt>
      <trkpt lat="48.37281" lon="2.80455">
        <ele>71</ele>
        <time>2018-04-14T08:23:10Z</time>
      </trkpt>
      <trkpt lat="48.37281" lon="2.80462">
        <ele>71</ele>
        <time>2018-04-14T08:23:11Z</time>
      </trkpt>
      <trkpt lat="48.37282" lon="2.80468">
        <ele>71</ele>
        <time>2018-04-14T08:23:12Z</time>
      </trkpt>
      <trkpt lat="48.37282" lon="2.80475">
        <ele>71</ele>
        <time>2018-04-14T08:23:13Z</time>
      </trkpt>
      <trkpt lat="48.37282" lon="2.80482">
        <ele>71</ele>
        <time>2018-04-14T08:23:14Z</time>
      </trkpt>
      <trkpt lat="48.37282" lon="2.80489">
        <ele>71</ele>
        <time>2018-04-14T08:23:15Z</time>
      </trkpt>
      <trkpt lat="48.37283" lon="2.80497">
        <ele>71</ele>
        <time>2018-04-14T08:23:16Z</time>
      </trkpt>
      <trkpt lat="48.37282" lon="2.80504">
        <ele>71</ele>
        <time>2018-04-14T08:23:17Z</time>
      </trkpt>
      <trkpt lat="48.37282" lon="2.80512">
        <ele>71</ele>
        <time>2018-04-14T08:23:18Z</time>
      </trkpt>
      <trkpt lat="48.37282" lon="2.80521">
        <ele>70.9</ele>
        <time>2018-04-14T08:23:19Z</time>
      </trkpt>
      <trkpt lat="48.37282" lon="2.8053">
        <ele>70.9</ele>
        <time>2018-04-14T08:23:20Z</time>
      </trkpt>
      <trkpt lat="48.37282" lon="2.80538">
        <ele>70.9</ele>
        <time>2018-04-14T08:23:21Z</time>
      </trkpt>
      <trkpt lat="48.37282" lon="2.80546">
        <ele>70.8</ele>
        <time>2018-04-14T08:23:22Z</time>
      </trkpt>
      <trkpt lat="48.37283" lon="2.80554">
        <ele>70.8</ele>
        <time>2018-04-14T08:23:23Z</time>
      </trkpt>
      <trkpt lat="48.37283" lon="2.80562">
        <ele>70.8</ele>
        <time>2018-04-14T08:23:24Z</time>
      </trkpt>
      <trkpt lat="48.37283" lon="2.80569">
        <ele>70.8</ele>
        <time>2018-04-14T08:23:25Z</time>
      </trkpt>
      <trkpt lat="48.37284" lon="2.80577">
        <ele>70.7</ele>
        <time>2018-04-14T08:23:26Z</time>
      </trkpt>
      <trkpt lat="48.37285" lon="2.80585">
        <ele>70.7</ele>
        <time>2018-04-14T08:23:27Z</time>
      </trkpt>
      <trkpt lat="48.37286" lon="2.80593">
        <ele>70.6</ele>
        <time>2018-04-14T08:23:28Z</time>
      </trkpt>
      <trkpt lat="48.37287" lon="2.80601">
        <ele>70.4</ele>
        <time>2018-04-14T08:23:29Z</time>
      </trkpt>
      <trkpt lat="48.37288" lon="2.80609">
        <ele>70.2</ele>
        <time>2018-04-14T08:23:30Z</time>
      </trkpt>
      <trkpt lat="48.3729" lon="2.80617">
        <ele>69.9</ele>
        <time>2018-04-14T08:23:31Z</time>
      </trkpt>
      <trkpt lat="48.37292" lon="2.80624">
        <ele>69.6</ele>
        <time>2018-04-14T08:23:32Z</time>
      </trkpt>
      <trkpt lat="48.37295" lon="2.80632">
        <ele>69.2</ele>
        <time>2018-04-14T08:23:33Z</time>
      </trkpt>
      <trkpt lat="48.37297" lon="2.80639">
        <ele>68.8</ele>
        <time>2018-04-14T08:23:34Z</time>
      </trkpt>
      <trkpt lat="48.373" lon="2.80646">
        <ele>68.3</ele>
        <time>2018-04-14T08:23:35Z</time>
      </trkpt>
      <trkpt lat="48.37303" lon="2.80654">
        <ele>67.9</ele>
        <time>2018-04-14T08:23:36Z</time>
      </trkpt>
      <trkpt lat="48.37307" lon="2.80661">
        <ele>67.5</ele>
        <time>2018-04-14T08:23:37Z</time>
      </trkpt>
      <trkpt lat="48.37311" lon="2.80668">
        <ele>67.1</ele>
        <time>2018-04-14T08:23:38Z</time>
      </trkpt>
      <trkpt lat="48.37316" lon="2.80675">
        <ele>66.8</ele>
        <time>2018-04-14T08:23:39Z</time>
      </trkpt>
      <trkpt lat="48.37321" lon="2.80683">
        <ele>66.4</ele>
        <time>2018-04-14T08:23:40Z</time>
      </trkpt>
      <trkpt lat="48.37326" lon="2.8069">
        <ele>66.2</ele>
        <time>2018-04-14T08:23:41Z</time>
      </trkpt>
      <trkpt lat="48.37332" lon="2.80699">
        <ele>65.9</ele>
        <time>2018-04-14T08:23:42Z</time>
      </trkpt>
      <trkpt lat="48.37338" lon="2.80708">
        <ele>65.7</ele>
        <time>2018-04-14T08:23:43Z</time>
      </trkpt>
      <trkpt lat="48.37344" lon="2.80715">
        <ele>65.5</ele>
        <time>2018-04-14T08:23:44Z</time>
      </trkpt>
      <trkpt lat="48.37349" lon="2.8072">
        <ele>65.4</ele>
        <time>2018-04-14T08:23:45Z</time>
      </trkpt>
      <trkpt lat="48.37353" lon="2.80724">
        <ele>65.3</ele>
        <time>2018-04-14T08:23:46Z</time>
      </trkpt>
      <trkpt lat="48.37357" lon="2.80727">
        <ele>65.2</ele>
        <time>2018-04-14T08:23:47Z</time>
      </trkpt>
      <trkpt lat="48.3736" lon="2.80728">
        <ele>65.2</ele>
        <time>2018-04-14T08:23:48Z</time>
      </trkpt>
      <trkpt lat="48.37364" lon="2.8073">
        <ele>65.1</ele>
        <time>2018-04-14T08:23:50Z</time>
      </trkpt>
      <trkpt lat="48.37367" lon="2.80731">
        <ele>65.1</ele>
        <time>2018-04-14T08:23:53Z</time>
      </trkpt>
      <trkpt lat="48.3737" lon="2.80729">
        <ele>65.1</ele>
        <time>2018-04-14T08:23:58Z</time>
      </trkpt>
      <trkpt lat="48.37373" lon="2.8073">
        <ele>65</ele>
        <time>2018-04-14T08:24:02Z</time>
      </trkpt>
      <trkpt lat="48.37377" lon="2.8073">
        <ele>65</ele>
        <time>2018-04-14T08:24:04Z</time>
      </trkpt>
      <trkpt lat="48.37382" lon="2.80727">
        <ele>65</ele>
        <time>2018-04-14T08:24:06Z</time>
      </trkpt>
      <trkpt lat="48.37385" lon="2.80725">
        <ele>65</ele>
        <time>2018-04-14T08:24:07Z</time>
      </trkpt>
      <trkpt lat="48.37388" lon="2.80726">
        <ele>65</ele>
        <time>2018-04-14T08:24:08Z</time>
      </trkpt>
      <trkpt lat="48.3739" lon="2.80729">
        <ele>64.9</ele>
        <time>2018-04-14T08:24:09Z</time>
      </trkpt>
      <trkpt lat="48.37392" lon="2.80733">
        <ele>64.8</ele>
        <time>2018-04-14T08:24:10Z</time>
      </trkpt>
      <trkpt lat="48.37394" lon="2.80738">
        <ele>64.7</ele>
        <time>2018-04-14T08:24:11Z</time>
      </trkpt>
      <trkpt lat="48.37396" lon="2.80742">
        <ele>64.6</ele>
        <time>2018-04-14T08:24:12Z</time>
      </trkpt>
      <trkpt lat="48.374" lon="2.80748">
        <ele>64.5</ele>
        <time>2018-04-14T08:24:13Z</time>
      </trkpt>
      <trkpt lat="48.37401" lon="2.80757">
        <ele>64.4</ele>
        <time>2018-04-14T08:24:14Z</time>
      </trkpt>
      <trkpt lat="48.37402" lon="2.80769">
        <ele>64.2</ele>
        <time>2018-04-14T08:24:15Z</time>
      </trkpt>
      <trkpt lat="48.37404" lon="2.80781">
        <ele>64</ele>
        <time>2018-04-14T08:24:16Z</time>
      </trkpt>
      <trkpt lat="48.37406" lon="2.80791">
        <ele>64</ele>
        <time>2018-04-14T08:24:17Z</time>
      </trkpt>
      <trkpt lat="48.37408" lon="2.80802">
        <ele>64</ele>
        <time>2018-04-14T08:24:18Z</time>
      </trkpt>
      <trkpt lat="48.3741" lon="2.80812">
        <ele>64</ele>
        <time>2018-04-14T08:24:19Z</time>
      </trkpt>
      <trkpt lat="48.37411" lon="2.80822">
        <ele>64</ele>
        <time>2018-04-14T08:24:20Z</time>
      </trkpt>
      <trkpt lat="48.37413" lon="2.80833">
        <ele>63.9</ele>
        <time>2018-04-14T08:24:21Z</time>
      </trkpt>
      <trkpt lat="48.37415" lon="2.80843">
        <ele>63.7</ele>
        <time>2018-04-14T08:24:22Z</time>
      </trkpt>
      <trkpt lat="48.37417" lon="2.80853">
        <ele>63.5</ele>
        <time>2018-04-14T08:24:23Z</time>
      </trkpt>
      <trkpt lat="48.37419" lon="2.80863">
        <ele>63.3</ele>
        <time>2018-04-14T08:24:24Z</time>
      </trkpt>
      <trkpt lat="48.37421" lon="2.80874">
        <ele>63.1</ele>
        <time>2018-04-14T08:24:25Z</time>
      </trkpt>
      <trkpt lat="48.37422" lon="2.80884">
        <ele>62.7</ele>
        <time>2018-04-14T08:24:26Z</time>
      </trkpt>
      <trkpt lat="48.37424" lon="2.80894">
        <ele>62.1</ele>
        <time>2018-04-14T08:24:27Z</time>
      </trkpt>
      <trkpt lat="48.37426" lon="2.80905">
        <ele>61.5</ele>
        <time>2018-04-14T08:24:28Z</time>
      </trkpt>
      <trkpt lat="48.37428" lon="2.80915">
        <ele>60.9</ele>
        <time>2018-04-14T08:24:29Z</time>
      </trkpt>
      <trkpt lat="48.3743" lon="2.80926">
        <ele>60.3</ele>
        <time>2018-04-14T08:24:30Z</time>
      </trkpt>
      <trkpt lat="48.37432" lon="2.80937">
        <ele>59.8</ele>
        <time>2018-04-14T08:24:31Z</time>
      </trkpt>
      <trkpt lat="48.37434" lon="2.80948">
        <ele>59.4</ele>
        <time>2018-04-14T08:24:32Z</time>
      </trkpt>
      <trkpt lat="48.37437" lon="2.80959">
        <ele>59</ele>
        <time>2018-04-14T08:24:33Z</time>
      </trkpt>
      <trkpt lat="48.37439" lon="2.8097">
        <ele>58.7</ele>
        <time>2018-04-14T08:24:34Z</time>
      </trkpt>
      <trkpt lat="48.37441" lon="2.8098">
        <ele>58.4</ele>
        <time>2018-04-14T08:24:35Z</time>
      </trkpt>
      <trkpt lat="48.37444" lon="2.8099">
        <ele>58.1</ele>
        <time>2018-04-14T08:24:36Z</time>
      </trkpt>
      <trkpt lat="48.37446" lon="2.81">
        <ele>57.5</ele>
        <time>2018-04-14T08:24:37Z</time>
      </trkpt>
      <trkpt lat="48.37448" lon="2.81009">
        <ele>57</ele>
        <time>2018-04-14T08:24:38Z</time>
      </trkpt>
      <trkpt lat="48.37449" lon="2.81017">
        <ele>56.4</ele>
        <time>2018-04-14T08:24:39Z</time>
      </trkpt>
      <trkpt lat="48.3745" lon="2.81025">
        <ele>56</ele>
        <time>2018-04-14T08:24:40Z</time>
      </trkpt>
      <trkpt lat="48.3745" lon="2.81034">
        <ele>56</ele>
        <time>2018-04-14T08:24:41Z</time>
      </trkpt>
      <trkpt lat="48.37451" lon="2.81041">
        <ele>56</ele>
        <time>2018-04-14T08:24:42Z</time>
      </trkpt>
      <trkpt lat="48.37452" lon="2.81048">
        <ele>56</ele>
        <time>2018-04-14T08:24:43Z</time>
      </trkpt>
      <trkpt lat="48.37453" lon="2.81054">
        <ele>56</ele>
        <time>2018-04-14T08:24:44Z</time>
      </trkpt>
      <trkpt lat="48.37454" lon="2.81061">
        <ele>56</ele>
        <time>2018-04-14T08:24:45Z</time>
      </trkpt>
      <trkpt lat="48.37455" lon="2.81067">
        <ele>56</ele>
        <time>2018-04-14T08:24:46Z</time>
      </trkpt>
      <trkpt lat="48.37456" lon="2.81073">
        <ele>56</ele>
        <time>2018-04-14T08:24:47Z</time>
      </trkpt>
      <trkpt lat="48.37456" lon="2.81079">
        <ele>56</ele>
        <time>2018-04-14T08:24:48Z</time>
      </trkpt>
      <trkpt lat="48.37457" lon="2.81087">
        <ele>54.9</ele>
        <time>2018-04-14T08:24:49Z</time>
      </trkpt>
      <trkpt lat="48.37459" lon="2.81095">
        <ele>54</ele>
        <time>2018-04-14T08:24:50Z</time>
      </trkpt>
      <trkpt lat="48.3746" lon="2.81103">
        <ele>54</ele>
        <time>2018-04-14T08:24:51Z</time>
      </trkpt>
      <trkpt lat="48.37461" lon="2.81111">
        <ele>54</ele>
        <time>2018-04-14T08:24:52Z</time>
      </trkpt>
      <trkpt lat="48.3746" lon="2.81119">
        <ele>54</ele>
        <time>2018-04-14T08:24:53Z</time>
      </trkpt>
      <trkpt lat="48.37459" lon="2.81126">
        <ele>54</ele>
        <time>2018-04-14T08:24:54Z</time>
      </trkpt>
      <trkpt lat="48.37459" lon="2.81134">
        <ele>54</ele>
        <time>2018-04-14T08:24:55Z</time>
      </trkpt>
      <trkpt lat="48.37457" lon="2.81141">
        <ele>54</ele>
        <time>2018-04-14T08:24:56Z</time>
      </trkpt>
      <trkpt lat="48.37454" lon="2.81148">
        <ele>54</ele>
        <time>2018-04-14T08:24:57Z</time>
      </trkpt>
      <trkpt lat="48.37452" lon="2.81154">
        <ele>54.1</ele>
        <time>2018-04-14T08:24:58Z</time>
      </trkpt>
      <trkpt lat="48.37451" lon="2.81161">
        <ele>54.1</ele>
        <time>2018-04-14T08:24:59Z</time>
      </trkpt>
      <trkpt lat="48.37449" lon="2.81166">
        <ele>54.1</ele>
        <time>2018-04-14T08:25:00Z</time>
      </trkpt>
      <trkpt lat="48.37448" lon="2.81172">
        <ele>54.1</ele>
        <time>2018-04-14T08:25:01Z</time>
      </trkpt>
      <trkpt lat="48.37447" lon="2.81179">
        <ele>54.1</ele>
        <time>2018-04-14T08:25:02Z</time>
      </trkpt>
      <trkpt lat="48.37445" lon="2.81185">
        <ele>54.1</ele>
        <time>2018-04-14T08:25:03Z</time>
      </trkpt>
      <trkpt lat="48.37442" lon="2.8119">
        <ele>54.1</ele>
        <time>2018-04-14T08:25:04Z</time>
      </trkpt>
      <trkpt lat="48.37438" lon="2.81197">
        <ele>54</ele>
        <time>2018-04-14T08:25:05Z</time>
      </trkpt>
      <trkpt lat="48.37436" lon="2.81203">
        <ele>53.9</ele>
        <time>2018-04-14T08:25:06Z</time>
      </trkpt>
      <trkpt lat="48.37434" lon="2.8121">
        <ele>53.8</ele>
        <time>2018-04-14T08:25:07Z</time>
      </trkpt>
      <trkpt lat="48.37433" lon="2.81217">
        <ele>53.6</ele>
        <time>2018-04-14T08:25:08Z</time>
      </trkpt>
      <trkpt lat="48.37431" lon="2.81225">
        <ele>53.5</ele>
        <time>2018-04-14T08:25:09Z</time>
      </trkpt>
      <trkpt lat="48.37429" lon="2.81231">
        <ele>53.4</ele>
        <time>2018-04-14T08:25:10Z</time>
      </trkpt>
      <trkpt lat="48.37427" lon="2.81237">
        <ele>53.3</ele>
        <time>2018-04-14T08:25:11Z</time>
      </trkpt>
      <trkpt lat="48.37424" lon="2.81245">
        <ele>53.1</ele>
        <time>2018-04-14T08:25:12Z</time>
      </trkpt>
      <trkpt lat="48.37422" lon="2.81252">
        <ele>53</ele>
        <time>2018-04-14T08:25:13Z</time>
      </trkpt>
      <trkpt lat="48.37419" lon="2.81258">
        <ele>53</ele>
        <time>2018-04-14T08:25:14Z</time>
      </trkpt>
      <trkpt lat="48.37417" lon="2.81265">
        <ele>53</ele>
        <time>2018-04-14T08:25:15Z</time>
      </trkpt>
      <trkpt lat="48.37415" lon="2.81273">
        <ele>53.1</ele>
        <time>2018-04-14T08:25:16Z</time>
      </trkpt>
      <trkpt lat="48.37413" lon="2.8128">
        <ele>53.3</ele>
        <time>2018-04-14T08:25:17Z</time>
      </trkpt>
      <trkpt lat="48.37411" lon="2.81287">
        <ele>53.4</ele>
        <time>2018-04-14T08:25:18Z</time>
      </trkpt>
      <trkpt lat="48.37409" lon="2.81293">
        <ele>53.5</ele>
        <time>2018-04-14T08:25:19Z</time>
      </trkpt>
      <trkpt lat="48.37407" lon="2.813">
        <ele>53.6</ele>
        <time>2018-04-14T08:25:20Z</time>
      </trkpt>
      <trkpt lat="48.37406" lon="2.81307">
        <ele>53.7</ele>
        <time>2018-04-14T08:25:21Z</time>
      </trkpt>
      <trkpt lat="48.37404" lon="2.81313">
        <ele>53.8</ele>
        <time>2018-04-14T08:25:22Z</time>
      </trkpt>
      <trkpt lat="48.37401" lon="2.81318">
        <ele>53.8</ele>
        <time>2018-04-14T08:25:23Z</time>
      </trkpt>
      <trkpt lat="48.37398" lon="2.81323">
        <ele>53.9</ele>
        <time>2018-04-14T08:25:24Z</time>
      </trkpt>
      <trkpt lat="48.37395" lon="2.81328">
        <ele>54</ele>
        <time>2018-04-14T08:25:25Z</time>
      </trkpt>
      <trkpt lat="48.37392" lon="2.81333">
        <ele>54.1</ele>
        <time>2018-04-14T08:25:26Z</time>
      </trkpt>
      <trkpt lat="48.37391" lon="2.8134">
        <ele>54.2</ele>
        <time>2018-04-14T08:25:27Z</time>
      </trkpt>
      <trkpt lat="48.3739" lon="2.81348">
        <ele>54.3</ele>
        <time>2018-04-14T08:25:28Z</time>
      </trkpt>
      <trkpt lat="48.37388" lon="2.81355">
        <ele>54.3</ele>
        <time>2018-04-14T08:25:29Z</time>
      </trkpt>
      <trkpt lat="48.37387" lon="2.81361">
        <ele>54.4</ele>
        <time>2018-04-14T08:25:30Z</time>
      </trkpt>
      <trkpt lat="48.37386" lon="2.81368">
        <ele>54.5</ele>
        <time>2018-04-14T08:25:31Z</time>
      </trkpt>
      <trkpt lat="48.37385" lon="2.81376">
        <ele>54.6</ele>
        <time>2018-04-14T08:25:32Z</time>
      </trkpt>
      <trkpt lat="48.37383" lon="2.81385">
        <ele>54.7</ele>
        <time>2018-04-14T08:25:33Z</time>
      </trkpt>
      <trkpt lat="48.37382" lon="2.81393">
        <ele>54.8</ele>
        <time>2018-04-14T08:25:34Z</time>
      </trkpt>
      <trkpt lat="48.37381" lon="2.81399">
        <ele>54.9</ele>
        <time>2018-04-14T08:25:35Z</time>
      </trkpt>
      <trkpt lat="48.3738" lon="2.81407">
        <ele>55</ele>
        <time>2018-04-14T08:25:36Z</time>
      </trkpt>
      <trkpt lat="48.37379" lon="2.81414">
        <ele>55.1</ele>
        <time>2018-04-14T08:25:37Z</time>
      </trkpt>
      <trkpt lat="48.37377" lon="2.81421">
        <ele>55.4</ele>
        <time>2018-04-14T08:25:38Z</time>
      </trkpt>
      <trkpt lat="48.37376" lon="2.81428">
        <ele>55.6</ele>
        <time>2018-04-14T08:25:39Z</time>
      </trkpt>
      <trkpt lat="48.37374" lon="2.81434">
        <ele>55.8</ele>
        <time>2018-04-14T08:25:40Z</time>
      </trkpt>
      <trkpt lat="48.37373" lon="2.8144">
        <ele>56</ele>
        <time>2018-04-14T08:25:41Z</time>
      </trkpt>
      <trkpt lat="48.37371" lon="2.81446">
        <ele>56</ele>
        <time>2018-04-14T08:25:42Z</time>
      </trkpt>
      <trkpt lat="48.3737" lon="2.81451">
        <ele>56</ele>
        <time>2018-04-14T08:25:43Z</time>
      </trkpt>
      <trkpt lat="48.37368" lon="2.81457">
        <ele>56</ele>
        <time>2018-04-14T08:25:44Z</time>
      </trkpt>
      <trkpt lat="48.37367" lon="2.81463">
        <ele>56</ele>
        <time>2018-04-14T08:25:45Z</time>
      </trkpt>
      <trkpt lat="48.37366" lon="2.81468">
        <ele>56</ele>
        <time>2018-04-14T08:25:46Z</time>
      </trkpt>
      <trkpt lat="48.37364" lon="2.81473">
        <ele>56</ele>
        <time>2018-04-14T08:25:47Z</time>
      </trkpt>
      <trkpt lat="48.37363" lon="2.81479">
        <ele>56</ele>
        <time>2018-04-14T08:25:48Z</time>
      </trkpt>
      <trkpt lat="48.37362" lon="2.81485">
        <ele>56</ele>
        <time>2018-04-14T08:25:49Z</time>
      </trkpt>
      <trkpt lat="48.37361" lon="2.8149">
        <ele>56</ele>
        <time>2018-04-14T08:25:50Z</time>
      </trkpt>
      <trkpt lat="48.3736" lon="2.81496">
        <ele>56</ele>
        <time>2018-04-14T08:25:51Z</time>
      </trkpt>
      <trkpt lat="48.37358" lon="2.81501">
        <ele>56</ele>
        <time>2018-04-14T08:25:52Z</time>
      </trkpt>
      <trkpt lat="48.37356" lon="2.81506">
        <ele>56</ele>
        <time>2018-04-14T08:25:53Z</time>
      </trkpt>
      <trkpt lat="48.37355" lon="2.81512">
        <ele>56</ele>
        <time>2018-04-14T08:25:54Z</time>
      </trkpt>
      <trkpt lat="48.37353" lon="2.81517">
        <ele>56</ele>
        <time>2018-04-14T08:25:55Z</time>
      </trkpt>
      <trkpt lat="48.37353" lon="2.81522">
        <ele>56</ele>
        <time>2018-04-14T08:25:56Z</time>
      </trkpt>
      <trkpt lat="48.37351" lon="2.81526">
        <ele>56</ele>
        <time>2018-04-14T08:25:57Z</time>
      </trkpt>
      <trkpt lat="48.37351" lon="2.81531">
        <ele>56</ele>
        <time>2018-04-14T08:25:58Z</time>
      </trkpt>
      <trkpt lat="48.37351" lon="2.81536">
        <ele>56.1</ele>
        <time>2018-04-14T08:25:59Z</time>
      </trkpt>
      <trkpt lat="48.3735" lon="2.81542">
        <ele>56.2</ele>
        <time>2018-04-14T08:26:00Z</time>
      </trkpt>
      <trkpt lat="48.37348" lon="2.81547">
        <ele>56.3</ele>
        <time>2018-04-14T08:26:01Z</time>
      </trkpt>
      <trkpt lat="48.37346" lon="2.81553">
        <ele>56.4</ele>
        <time>2018-04-14T08:26:02Z</time>
      </trkpt>
      <trkpt lat="48.37345" lon="2.81558">
        <ele>56.5</ele>
        <time>2018-04-14T08:26:03Z</time>
      </trkpt>
      <trkpt lat="48.37343" lon="2.81563">
        <ele>56.6</ele>
        <time>2018-04-14T08:26:04Z</time>
      </trkpt>
      <trkpt lat="48.37341" lon="2.81568">
        <ele>56.7</ele>
        <time>2018-04-14T08:26:05Z</time>
      </trkpt>
      <trkpt lat="48.37339" lon="2.81572">
        <ele>56.8</ele>
        <time>2018-04-14T08:26:06Z</time>
      </trkpt>
      <trkpt lat="48.37338" lon="2.81577">
        <ele>56.9</ele>
        <time>2018-04-14T08:26:07Z</time>
      </trkpt>
      <trkpt lat="48.37338" lon="2.81583">
        <ele>57</ele>
        <time>2018-04-14T08:26:08Z</time>
      </trkpt>
      <trkpt lat="48.37336" lon="2.81589">
        <ele>57.1</ele>
        <time>2018-04-14T08:26:09Z</time>
      </trkpt>
      <trkpt lat="48.37334" lon="2.81596">
        <ele>57.3</ele>
        <time>2018-04-14T08:26:10Z</time>
      </trkpt>
      <trkpt lat="48.37333" lon="2.81601">
        <ele>57.4</ele>
        <time>2018-04-14T08:26:11Z</time>
      </trkpt>
      <trkpt lat="48.37331" lon="2.81608">
        <ele>57.6</ele>
        <time>2018-04-14T08:26:12Z</time>
      </trkpt>
      <trkpt lat="48.3733" lon="2.81617">
        <ele>57.8</ele>
        <time>2018-04-14T08:26:13Z</time>
      </trkpt>
      <trkpt lat="48.3733" lon="2.81624">
        <ele>58</ele>
        <time>2018-04-14T08:26:14Z</time>
      </trkpt>
      <trkpt lat="48.37329" lon="2.81629">
        <ele>58.1</ele>
        <time>2018-04-14T08:26:15Z</time>
      </trkpt>
      <trkpt lat="48.37329" lon="2.81635">
        <ele>58.3</ele>
        <time>2018-04-14T08:26:16Z</time>
      </trkpt>
      <trkpt lat="48.37329" lon="2.8164">
        <ele>58.4</ele>
        <time>2018-04-14T08:26:17Z</time>
      </trkpt>
      <trkpt lat="48.37329" lon="2.81646">
        <ele>58.7</ele>
        <time>2018-04-14T08:26:18Z</time>
      </trkpt>
      <trkpt lat="48.37328" lon="2.81652">
        <ele>58.9</ele>
        <time>2018-04-14T08:26:19Z</time>
      </trkpt>
      <trkpt lat="48.37327" lon="2.81658">
        <ele>59</ele>
        <time>2018-04-14T08:26:20Z</time>
      </trkpt>
      <trkpt lat="48.37326" lon="2.81666">
        <ele>58.9</ele>
        <time>2018-04-14T08:26:21Z</time>
      </trkpt>
      <trkpt lat="48.37325" lon="2.81672">
        <ele>58.9</ele>
        <time>2018-04-14T08:26:22Z</time>
      </trkpt>
      <trkpt lat="48.37324" lon="2.81676">
        <ele>58.9</ele>
        <time>2018-04-14T08:26:23Z</time>
      </trkpt>
      <trkpt lat="48.37323" lon="2.81681">
        <ele>58.8</ele>
        <time>2018-04-14T08:26:24Z</time>
      </trkpt>
      <trkpt lat="48.37321" lon="2.81686">
        <ele>58.8</ele>
        <time>2018-04-14T08:26:25Z</time>
      </trkpt>
      <trkpt lat="48.3732" lon="2.8169">
        <ele>58.7</ele>
        <time>2018-04-14T08:26:26Z</time>
      </trkpt>
      <trkpt lat="48.37317" lon="2.81697">
        <ele>58.6</ele>
        <time>2018-04-14T08:26:28Z</time>
      </trkpt>
      <trkpt lat="48.37311" lon="2.81704">
        <ele>58.4</ele>
        <time>2018-04-14T08:26:30Z</time>
      </trkpt>
      <trkpt lat="48.37307" lon="2.81706">
        <ele>58.2</ele>
        <time>2018-04-14T08:26:31Z</time>
      </trkpt>
      <trkpt lat="48.37303" lon="2.81709">
        <ele>58.1</ele>
        <time>2018-04-14T08:26:33Z</time>
      </trkpt>
      <trkpt lat="48.37303" lon="2.81713">
        <ele>58.1</ele>
        <time>2018-04-14T08:26:58Z</time>
      </trkpt>
      <trkpt lat="48.37302" lon="2.81719">
        <ele>58</ele>
        <time>2018-04-14T08:27:01Z</time>
      </trkpt>
      <trkpt lat="48.37302" lon="2.81724">
        <ele>58</ele>
        <time>2018-04-14T08:27:02Z</time>
      </trkpt>
      <trkpt lat="48.37301" lon="2.81729">
        <ele>58</ele>
        <time>2018-04-14T08:27:03Z</time>
      </trkpt>
      <trkpt lat="48.373" lon="2.81736">
        <ele>58</ele>
        <time>2018-04-14T08:27:04Z</time>
      </trkpt>
      <trkpt lat="48.37298" lon="2.81744">
        <ele>57.1</ele>
        <time>2018-04-14T08:27:05Z</time>
      </trkpt>
      <trkpt lat="48.37297" lon="2.81753">
        <ele>56.1</ele>
        <time>2018-04-14T08:27:06Z</time>
      </trkpt>
      <trkpt lat="48.37296" lon="2.81762">
        <ele>55.1</ele>
        <time>2018-04-14T08:27:07Z</time>
      </trkpt>
      <trkpt lat="48.37295" lon="2.81771">
        <ele>55</ele>
        <time>2018-04-14T08:27:08Z</time>
      </trkpt>
      <trkpt lat="48.37293" lon="2.81778">
        <ele>55</ele>
        <time>2018-04-14T08:27:09Z</time>
      </trkpt>
      <trkpt lat="48.3729" lon="2.81787">
        <ele>55</ele>
        <time>2018-04-14T08:27:10Z</time>
      </trkpt>
      <trkpt lat="48.37286" lon="2.81798">
        <ele>55</ele>
        <time>2018-04-14T08:27:11Z</time>
      </trkpt>
      <trkpt lat="48.37281" lon="2.81807">
        <ele>55</ele>
        <time>2018-04-14T08:27:12Z</time>
      </trkpt>
      <trkpt lat="48.37279" lon="2.81815">
        <ele>55</ele>
        <time>2018-04-14T08:27:13Z</time>
      </trkpt>
      <trkpt lat="48.37276" lon="2.81821">
        <ele>54.9</ele>
        <time>2018-04-14T08:27:14Z</time>
      </trkpt>
      <trkpt lat="48.37274" lon="2.81827">
        <ele>54.2</ele>
        <time>2018-04-14T08:27:15Z</time>
      </trkpt>
      <trkpt lat="48.37272" lon="2.81835">
        <ele>53.2</ele>
        <time>2018-04-14T08:27:16Z</time>
      </trkpt>
      <trkpt lat="48.37269" lon="2.8184">
        <ele>52.5</ele>
        <time>2018-04-14T08:27:17Z</time>
      </trkpt>
      <trkpt lat="48.37267" lon="2.81844">
        <ele>52</ele>
        <time>2018-04-14T08:27:18Z</time>
      </trkpt>
      <trkpt lat="48.37264" lon="2.81851">
        <ele>52</ele>
        <time>2018-04-14T08:27:19Z</time>
      </trkpt>
      <trkpt lat="48.37261" lon="2.81857">
        <ele>52</ele>
        <time>2018-04-14T08:27:20Z</time>
      </trkpt>
      <trkpt lat="48.37259" lon="2.81865">
        <ele>52</ele>
        <time>2018-04-14T08:27:21Z</time>
      </trkpt>
      <trkpt lat="48.37258" lon="2.81874">
        <ele>52</ele>
        <time>2018-04-14T08:27:22Z</time>
      </trkpt>
      <trkpt lat="48.37257" lon="2.81883">
        <ele>52</ele>
        <time>2018-04-14T08:27:23Z</time>
      </trkpt>
      <trkpt lat="48.37256" lon="2.81894">
        <ele>50.8</ele>
        <time>2018-04-14T08:27:24Z</time>
      </trkpt>
      <trkpt lat="48.37255" lon="2.81903">
        <ele>50.2</ele>
        <time>2018-04-14T08:27:25Z</time>
      </trkpt>
      <trkpt lat="48.37253" lon="2.81911">
        <ele>49.6</ele>
        <time>2018-04-14T08:27:26Z</time>
      </trkpt>
      <trkpt lat="48.37252" lon="2.81919">
        <ele>49</ele>
        <time>2018-04-14T08:27:27Z</time>
      </trkpt>
      <trkpt lat="48.37251" lon="2.81927">
        <ele>48.5</ele>
        <time>2018-04-14T08:27:28Z</time>
      </trkpt>
      <trkpt lat="48.3725" lon="2.81935">
        <ele>48</ele>
        <time>2018-04-14T08:27:29Z</time>
      </trkpt>
      <trkpt lat="48.3725" lon="2.81941">
        <ele>48</ele>
        <time>2018-04-14T08:27:30Z</time>
      </trkpt>
      <trkpt lat="48.37249" lon="2.81946">
        <ele>48</ele>
        <time>2018-04-14T08:27:31Z</time>
      </trkpt>
      <trkpt lat="48.37249" lon="2.81952">
        <ele>48</ele>
        <time>2018-04-14T08:27:32Z</time>
      </trkpt>
      <trkpt lat="48.37249" lon="2.81958">
        <ele>48.1</ele>
        <time>2018-04-14T08:27:33Z</time>
      </trkpt>
      <trkpt lat="48.37248" lon="2.81964">
        <ele>48.4</ele>
        <time>2018-04-14T08:27:34Z</time>
      </trkpt>
      <trkpt lat="48.37248" lon="2.8197">
        <ele>48.7</ele>
        <time>2018-04-14T08:27:35Z</time>
      </trkpt>
      <trkpt lat="48.37248" lon="2.81976">
        <ele>49.1</ele>
        <time>2018-04-14T08:27:36Z</time>
      </trkpt>
      <trkpt lat="48.37248" lon="2.81983">
        <ele>49.4</ele>
        <time>2018-04-14T08:27:37Z</time>
      </trkpt>
      <trkpt lat="48.37248" lon="2.81989">
        <ele>49.7</ele>
        <time>2018-04-14T08:27:38Z</time>
      </trkpt>
      <trkpt lat="48.37248" lon="2.81995">
        <ele>50</ele>
        <time>2018-04-14T08:27:39Z</time>
      </trkpt>
      <trkpt lat="48.37248" lon="2.82">
        <ele>50.3</ele>
        <time>2018-04-14T08:27:40Z</time>
      </trkpt>
      <trkpt lat="48.37248" lon="2.82005">
        <ele>50.6</ele>
        <time>2018-04-14T08:27:41Z</time>
      </trkpt>
      <trkpt lat="48.37247" lon="2.82012">
        <ele>51</ele>
        <time>2018-04-14T08:27:42Z</time>
      </trkpt>
      <trkpt lat="48.37247" lon="2.82018">
        <ele>51.4</ele>
        <time>2018-04-14T08:27:43Z</time>
      </trkpt>
      <trkpt lat="48.37247" lon="2.82025">
        <ele>51.8</ele>
        <time>2018-04-14T08:27:44Z</time>
      </trkpt>
      <trkpt lat="48.37247" lon="2.82032">
        <ele>52</ele>
        <time>2018-04-14T08:27:45Z</time>
      </trkpt>
      <trkpt lat="48.37247" lon="2.82038">
        <ele>52</ele>
        <time>2018-04-14T08:27:46Z</time>
      </trkpt>
      <trkpt lat="48.37247" lon="2.82046">
        <ele>52</ele>
        <time>2018-04-14T08:27:47Z</time>
      </trkpt>
      <trkpt lat="48.37245" lon="2.82053">
        <ele>52</ele>
        <time>2018-04-14T08:27:48Z</time>
      </trkpt>
      <trkpt lat="48.37243" lon="2.8206">
        <ele>52</ele>
        <time>2018-04-14T08:27:49Z</time>
      </trkpt>
      <trkpt lat="48.37242" lon="2.82066">
        <ele>52</ele>
        <time>2018-04-14T08:27:50Z</time>
      </trkpt>
      <trkpt lat="48.3724" lon="2.82073">
        <ele>51.9</ele>
        <time>2018-04-14T08:27:51Z</time>
      </trkpt>
      <trkpt lat="48.37238" lon="2.8208">
        <ele>51.3</ele>
        <time>2018-04-14T08:27:52Z</time>
      </trkpt>
      <trkpt lat="48.37237" lon="2.82086">
        <ele>50.8</ele>
        <time>2018-04-14T08:27:53Z</time>
      </trkpt>
      <trkpt lat="48.37235" lon="2.82091">
        <ele>50.3</ele>
        <time>2018-04-14T08:27:54Z</time>
      </trkpt>
      <trkpt lat="48.37233" lon="2.82095">
        <ele>50</ele>
        <time>2018-04-14T08:27:55Z</time>
      </trkpt>
      <trkpt lat="48.37231" lon="2.82099">
        <ele>50</ele>
        <time>2018-04-14T08:27:56Z</time>
      </trkpt>
      <trkpt lat="48.37229" lon="2.82103">
        <ele>50</ele>
        <time>2018-04-14T08:27:57Z</time>
      </trkpt>
      <trkpt lat="48.37226" lon="2.82109">
        <ele>50</ele>
        <time>2018-04-14T08:27:58Z</time>
      </trkpt>
      <trkpt lat="48.37223" lon="2.82116">
        <ele>50</ele>
        <time>2018-04-14T08:27:59Z</time>
      </trkpt>
      <trkpt lat="48.3722" lon="2.82122">
        <ele>50</ele>
        <time>2018-04-14T08:28:00Z</time>
      </trkpt>
      <trkpt lat="48.37218" lon="2.82129">
        <ele>50</ele>
        <time>2018-04-14T08:28:01Z</time>
      </trkpt>
      <trkpt lat="48.37216" lon="2.82135">
        <ele>49.9</ele>
        <time>2018-04-14T08:28:02Z</time>
      </trkpt>
      <trkpt lat="48.37214" lon="2.82142">
        <ele>49.9</ele>
        <time>2018-04-14T08:28:03Z</time>
      </trkpt>
      <trkpt lat="48.37212" lon="2.82149">
        <ele>49.9</ele>
        <time>2018-04-14T08:28:04Z</time>
      </trkpt>
      <trkpt lat="48.37211" lon="2.82157">
        <ele>49.8</ele>
        <time>2018-04-14T08:28:05Z</time>
      </trkpt>
      <trkpt lat="48.3721" lon="2.82165">
        <ele>49.8</ele>
        <time>2018-04-14T08:28:06Z</time>
      </trkpt>
      <trkpt lat="48.37209" lon="2.82174">
        <ele>49.7</ele>
        <time>2018-04-14T08:28:07Z</time>
      </trkpt>
      <trkpt lat="48.37207" lon="2.82183">
        <ele>49.7</ele>
        <time>2018-04-14T08:28:08Z</time>
      </trkpt>
      <trkpt lat="48.37205" lon="2.82191">
        <ele>49.6</ele>
        <time>2018-04-14T08:28:09Z</time>
      </trkpt>
      <trkpt lat="48.37204" lon="2.822">
        <ele>49.5</ele>
        <time>2018-04-14T08:28:10Z</time>
      </trkpt>
      <trkpt lat="48.37203" lon="2.82209">
        <ele>49.4</ele>
        <time>2018-04-14T08:28:11Z</time>
      </trkpt>
      <trkpt lat="48.372" lon="2.82217">
        <ele>49.3</ele>
        <time>2018-04-14T08:28:12Z</time>
      </trkpt>
      <trkpt lat="48.37199" lon="2.82225">
        <ele>49.1</ele>
        <time>2018-04-14T08:28:13Z</time>
      </trkpt>
      <trkpt lat="48.37197" lon="2.82232">
        <ele>49</ele>
        <time>2018-04-14T08:28:14Z</time>
      </trkpt>
      <trkpt lat="48.37194" lon="2.82239">
        <ele>49</ele>
        <time>2018-04-14T08:28:15Z</time>
      </trkpt>
      <trkpt lat="48.3719" lon="2.82246">
        <ele>48.9</ele>
        <time>2018-04-14T08:28:16Z</time>
      </trkpt>
      <trkpt lat="48.37187" lon="2.82252">
        <ele>48.7</ele>
        <time>2018-04-14T08:28:17Z</time>
      </trkpt>
      <trkpt lat="48.37184" lon="2.82258">
        <ele>48.6</ele>
        <time>2018-04-14T08:28:18Z</time>
      </trkpt>
      <trkpt lat="48.37181" lon="2.82265">
        <ele>48.4</ele>
        <time>2018-04-14T08:28:19Z</time>
      </trkpt>
      <trkpt lat="48.37178" lon="2.82271">
        <ele>48.3</ele>
        <time>2018-04-14T08:28:20Z</time>
      </trkpt>
      <trkpt lat="48.37176" lon="2.82276">
        <ele>48.2</ele>
        <time>2018-04-14T08:28:21Z</time>
      </trkpt>
      <trkpt lat="48.37175" lon="2.82283">
        <ele>48</ele>
        <time>2018-04-14T08:28:22Z</time>
      </trkpt>
      <trkpt lat="48.37173" lon="2.82288">
        <ele>48.3</ele>
        <time>2018-04-14T08:28:23Z</time>
      </trkpt>
      <trkpt lat="48.37172" lon="2.82294">
        <ele>48.8</ele>
        <time>2018-04-14T08:28:24Z</time>
      </trkpt>
      <trkpt lat="48.37171" lon="2.82299">
        <ele>49.4</ele>
        <time>2018-04-14T08:28:25Z</time>
      </trkpt>
      <trkpt lat="48.37169" lon="2.82303">
        <ele>49.8</ele>
        <time>2018-04-14T08:28:26Z</time>
      </trkpt>
      <trkpt lat="48.3717" lon="2.82296">
        <ele>49.1</ele>
        <time>2018-04-14T08:28:34Z</time>
      </trkpt>
      <trkpt lat="48.37171" lon="2.8229">
        <ele>48.6</ele>
        <time>2018-04-14T08:28:35Z</time>
      </trkpt>
      <trkpt lat="48.37173" lon="2.82284">
        <ele>48</ele>
        <time>2018-04-14T08:28:36Z</time>
      </trkpt>
      <trkpt lat="48.37176" lon="2.82277">
        <ele>48.2</ele>
        <time>2018-04-14T08:28:37Z</time>
      </trkpt>
      <trkpt lat="48.37178" lon="2.82271">
        <ele>48.3</ele>
        <time>2018-04-14T08:28:38Z</time>
      </trkpt>
      <trkpt lat="48.37179" lon="2.82264">
        <ele>48.4</ele>
        <time>2018-04-14T08:28:39Z</time>
      </trkpt>
      <trkpt lat="48.37181" lon="2.82257">
        <ele>48.6</ele>
        <time>2018-04-14T08:28:40Z</time>
      </trkpt>
      <trkpt lat="48.37183" lon="2.8225">
        <ele>48.7</ele>
        <time>2018-04-14T08:28:41Z</time>
      </trkpt>
      <trkpt lat="48.37185" lon="2.82244">
        <ele>48.9</ele>
        <time>2018-04-14T08:28:42Z</time>
      </trkpt>
      <trkpt lat="48.37188" lon="2.82237">
        <ele>49</ele>
        <time>2018-04-14T08:28:43Z</time>
      </trkpt>
      <trkpt lat="48.3719" lon="2.82231">
        <ele>49</ele>
        <time>2018-04-14T08:28:44Z</time>
      </trkpt>
      <trkpt lat="48.37192" lon="2.82223">
        <ele>49.1</ele>
        <time>2018-04-14T08:28:45Z</time>
      </trkpt>
      <trkpt lat="48.37195" lon="2.82216">
        <ele>49.3</ele>
        <time>2018-04-14T08:28:46Z</time>
      </trkpt>
      <trkpt lat="48.37196" lon="2.82209">
        <ele>49.4</ele>
        <time>2018-04-14T08:28:47Z</time>
      </trkpt>
      <trkpt lat="48.37198" lon="2.82202">
        <ele>49.5</ele>
        <time>2018-04-14T08:28:48Z</time>
      </trkpt>
      <trkpt lat="48.372" lon="2.82194">
        <ele>49.6</ele>
        <time>2018-04-14T08:28:49Z</time>
      </trkpt>
      <trkpt lat="48.37202" lon="2.82188">
        <ele>49.6</ele>
        <time>2018-04-14T08:28:50Z</time>
      </trkpt>
      <trkpt lat="48.37204" lon="2.82181">
        <ele>49.7</ele>
        <time>2018-04-14T08:28:51Z</time>
      </trkpt>
      <trkpt lat="48.37206" lon="2.82175">
        <ele>49.7</ele>
        <time>2018-04-14T08:28:52Z</time>
      </trkpt>
      <trkpt lat="48.37208" lon="2.82168">
        <ele>49.7</ele>
        <time>2018-04-14T08:28:53Z</time>
      </trkpt>
      <trkpt lat="48.3721" lon="2.82161">
        <ele>49.8</ele>
        <time>2018-04-14T08:28:54Z</time>
      </trkpt>
      <trkpt lat="48.37212" lon="2.82155">
        <ele>49.8</ele>
        <time>2018-04-14T08:28:55Z</time>
      </trkpt>
      <trkpt lat="48.37214" lon="2.82149">
        <ele>49.9</ele>
        <time>2018-04-14T08:28:56Z</time>
      </trkpt>
      <trkpt lat="48.37216" lon="2.82143">
        <ele>49.9</ele>
        <time>2018-04-14T08:28:57Z</time>
      </trkpt>
      <trkpt lat="48.37217" lon="2.82137">
        <ele>49.9</ele>
        <time>2018-04-14T08:28:58Z</time>
      </trkpt>
      <trkpt lat="48.37218" lon="2.82131">
        <ele>50</ele>
        <time>2018-04-14T08:28:59Z</time>
      </trkpt>
      <trkpt lat="48.37219" lon="2.82127">
        <ele>50</ele>
        <time>2018-04-14T08:29:00Z</time>
      </trkpt>
      <trkpt lat="48.37222" lon="2.82121">
        <ele>50</ele>
        <time>2018-04-14T08:29:02Z</time>
      </trkpt>
      <trkpt lat="48.37226" lon="2.82119">
        <ele>50</ele>
        <time>2018-04-14T08:29:03Z</time>
      </trkpt>
      <trkpt lat="48.3723" lon="2.82118">
        <ele>50</ele>
        <time>2018-04-14T08:29:04Z</time>
      </trkpt>
      <trkpt lat="48.37233" lon="2.82118">
        <ele>50</ele>
        <time>2018-04-14T08:29:05Z</time>
      </trkpt>
      <trkpt lat="48.37237" lon="2.82117">
        <ele>50</ele>
        <time>2018-04-14T08:29:06Z</time>
      </trkpt>
      <trkpt lat="48.3724" lon="2.82114">
        <ele>50</ele>
        <time>2018-04-14T08:29:07Z</time>
      </trkpt>
      <trkpt lat="48.37241" lon="2.82109">
        <ele>50</ele>
        <time>2018-04-14T08:29:08Z</time>
      </trkpt>
      <trkpt lat="48.37242" lon="2.82105">
        <ele>50</ele>
        <time>2018-04-14T08:29:09Z</time>
      </trkpt>
      <trkpt lat="48.37242" lon="2.82097">
        <ele>50.1</ele>
        <time>2018-04-14T08:29:11Z</time>
      </trkpt>
      <trkpt lat="48.37242" lon="2.82091">
        <ele>50.5</ele>
        <time>2018-04-14T08:29:12Z</time>
      </trkpt>
      <trkpt lat="48.37243" lon="2.82087">
        <ele>50.9</ele>
        <time>2018-04-14T08:29:13Z</time>
      </trkpt>
      <trkpt lat="48.37245" lon="2.82081">
        <ele>51.4</ele>
        <time>2018-04-14T08:29:14Z</time>
      </trkpt>
      <trkpt lat="48.37246" lon="2.82075">
        <ele>51.9</ele>
        <time>2018-04-14T08:29:15Z</time>
      </trkpt>
      <trkpt lat="48.37248" lon="2.82068">
        <ele>52</ele>
        <time>2018-04-14T08:29:16Z</time>
      </trkpt>
      <trkpt lat="48.37249" lon="2.82063">
        <ele>52</ele>
        <time>2018-04-14T08:29:17Z</time>
      </trkpt>
      <trkpt lat="48.37251" lon="2.82057">
        <ele>52</ele>
        <time>2018-04-14T08:29:18Z</time>
      </trkpt>
      <trkpt lat="48.37251" lon="2.82053">
        <ele>52</ele>
        <time>2018-04-14T08:29:19Z</time>
      </trkpt>
      <trkpt lat="48.37251" lon="2.82044">
        <ele>52</ele>
        <time>2018-04-14T08:29:21Z</time>
      </trkpt>
      <trkpt lat="48.37251" lon="2.82039">
        <ele>52</ele>
        <time>2018-04-14T08:29:22Z</time>
      </trkpt>
      <trkpt lat="48.37251" lon="2.82033">
        <ele>52</ele>
        <time>2018-04-14T08:29:23Z</time>
      </trkpt>
      <trkpt lat="48.37251" lon="2.82028">
        <ele>52</ele>
        <time>2018-04-14T08:29:24Z</time>
      </trkpt>
      <trkpt lat="48.37251" lon="2.82024">
        <ele>51.7</ele>
        <time>2018-04-14T08:29:25Z</time>
      </trkpt>
      <trkpt lat="48.37251" lon="2.82018">
        <ele>51.3</ele>
        <time>2018-04-14T08:29:26Z</time>
      </trkpt>
      <trkpt lat="48.3725" lon="2.82012">
        <ele>51</ele>
        <time>2018-04-14T08:29:27Z</time>
      </trkpt>
      <trkpt lat="48.3725" lon="2.82007">
        <ele>50.7</ele>
        <time>2018-04-14T08:29:28Z</time>
      </trkpt>
      <trkpt lat="48.3725" lon="2.82003">
        <ele>50.4</ele>
        <time>2018-04-14T08:29:29Z</time>
      </trkpt>
      <trkpt lat="48.3725" lon="2.81998">
        <ele>50.2</ele>
        <time>2018-04-14T08:29:30Z</time>
      </trkpt>
      <trkpt lat="48.3725" lon="2.81991">
        <ele>49.8</ele>
        <time>2018-04-14T08:29:32Z</time>
      </trkpt>
      <trkpt lat="48.37251" lon="2.81986">
        <ele>49.6</ele>
        <time>2018-04-14T08:29:33Z</time>
      </trkpt>
      <trkpt lat="48.37251" lon="2.81982">
        <ele>49.3</ele>
        <time>2018-04-14T08:29:34Z</time>
      </trkpt>
      <trkpt lat="48.37252" lon="2.81978">
        <ele>49.1</ele>
        <time>2018-04-14T08:29:35Z</time>
      </trkpt>
      <trkpt lat="48.37252" lon="2.81974">
        <ele>48.9</ele>
        <time>2018-04-14T08:29:36Z</time>
      </trkpt>
      <trkpt lat="48.37252" lon="2.81966">
        <ele>48.5</ele>
        <time>2018-04-14T08:29:38Z</time>
      </trkpt>
      <trkpt lat="48.37253" lon="2.81962">
        <ele>48.2</ele>
        <time>2018-04-14T08:29:39Z</time>
      </trkpt>
      <trkpt lat="48.37255" lon="2.81955">
        <ele>48</ele>
        <time>2018-04-14T08:29:41Z</time>
      </trkpt>
      <trkpt lat="48.37258" lon="2.81955">
        <ele>48</ele>
        <time>2018-04-14T08:29:52Z</time>
      </trkpt>
      <trkpt lat="48.3726" lon="2.81951">
        <ele>48</ele>
        <time>2018-04-14T08:29:57Z</time>
      </trkpt>
      <trkpt lat="48.37259" lon="2.81955">
        <ele>48</ele>
        <time>2018-04-14T08:30:02Z</time>
      </trkpt>
      <trkpt lat="48.37262" lon="2.81954">
        <ele>48</ele>
        <time>2018-04-14T08:30:25Z</time>
      </trkpt>
      <trkpt lat="48.37265" lon="2.81954">
        <ele>48</ele>
        <time>2018-04-14T08:30:29Z</time>
      </trkpt>
      <trkpt lat="48.37267" lon="2.81957">
        <ele>48</ele>
        <time>2018-04-14T08:30:39Z</time>
      </trkpt>
      <trkpt lat="48.37263" lon="2.81956">
        <ele>48</ele>
        <time>2018-04-14T08:31:12Z</time>
      </trkpt>
      <trkpt lat="48.37261" lon="2.81954">
        <ele>48</ele>
        <time>2018-04-14T08:31:14Z</time>
      </trkpt>
      <trkpt lat="48.37257" lon="2.81955">
        <ele>48</ele>
        <time>2018-04-14T08:31:16Z</time>
      </trkpt>
      <trkpt lat="48.37256" lon="2.81959">
        <ele>48</ele>
        <time>2018-04-14T08:31:24Z</time>
      </trkpt>
      <trkpt lat="48.37259" lon="2.81959">
        <ele>48</ele>
        <time>2018-04-14T08:31:27Z</time>
      </trkpt>
      <trkpt lat="48.37264" lon="2.81958">
        <ele>48</ele>
        <time>2018-04-14T08:31:31Z</time>
      </trkpt>
      <trkpt lat="48.37268" lon="2.81957">
        <ele>48</ele>
        <time>2018-04-14T08:31:32Z</time>
      </trkpt>
      <trkpt lat="48.37265" lon="2.81958">
        <ele>48</ele>
        <time>2018-04-14T08:31:35Z</time>
      </trkpt>
      <trkpt lat="48.37262" lon="2.81962">
        <ele>48</ele>
        <time>2018-04-14T08:31:37Z</time>
      </trkpt>
      <trkpt lat="48.37261" lon="2.81965">
        <ele>48</ele>
        <time>2018-04-14T08:31:38Z</time>
      </trkpt>
      <trkpt lat="48.3726" lon="2.81972">
        <ele>48.7</ele>
        <time>2018-04-14T08:31:40Z</time>
      </trkpt>
      <trkpt lat="48.37259" lon="2.81976">
        <ele>49</ele>
        <time>2018-04-14T08:31:41Z</time>
      </trkpt>
      <trkpt lat="48.37257" lon="2.81983">
        <ele>49.3</ele>
        <time>2018-04-14T08:31:43Z</time>
      </trkpt>
      <trkpt lat="48.37256" lon="2.81987">
        <ele>49.5</ele>
        <time>2018-04-14T08:31:44Z</time>
      </trkpt>
      <trkpt lat="48.37255" lon="2.81997">
        <ele>50.1</ele>
        <time>2018-04-14T08:31:46Z</time>
      </trkpt>
      <trkpt lat="48.37254" lon="2.82004">
        <ele>50.5</ele>
        <time>2018-04-14T08:31:47Z</time>
      </trkpt>
      <trkpt lat="48.37253" lon="2.82009">
        <ele>50.8</ele>
        <time>2018-04-14T08:31:48Z</time>
      </trkpt>
      <trkpt lat="48.37252" lon="2.82017">
        <ele>51.3</ele>
        <time>2018-04-14T08:31:49Z</time>
      </trkpt>
      <trkpt lat="48.37252" lon="2.82024">
        <ele>51.8</ele>
        <time>2018-04-14T08:31:50Z</time>
      </trkpt>
      <trkpt lat="48.37252" lon="2.8203">
        <ele>52</ele>
        <time>2018-04-14T08:31:51Z</time>
      </trkpt>
      <trkpt lat="48.37251" lon="2.82037">
        <ele>52</ele>
        <time>2018-04-14T08:31:52Z</time>
      </trkpt>
      <trkpt lat="48.37251" lon="2.82044">
        <ele>52</ele>
        <time>2018-04-14T08:31:53Z</time>
      </trkpt>
      <trkpt lat="48.3725" lon="2.82053">
        <ele>52</ele>
        <time>2018-04-14T08:31:54Z</time>
      </trkpt>
      <trkpt lat="48.37248" lon="2.82062">
        <ele>52</ele>
        <time>2018-04-14T08:31:55Z</time>
      </trkpt>
      <trkpt lat="48.37246" lon="2.82069">
        <ele>52</ele>
        <time>2018-04-14T08:31:56Z</time>
      </trkpt>
      <trkpt lat="48.37244" lon="2.82076">
        <ele>51.8</ele>
        <time>2018-04-14T08:31:57Z</time>
      </trkpt>
      <trkpt lat="48.37243" lon="2.82081">
        <ele>51.4</ele>
        <time>2018-04-14T08:31:58Z</time>
      </trkpt>
      <trkpt lat="48.37242" lon="2.82086">
        <ele>51</ele>
        <time>2018-04-14T08:31:59Z</time>
      </trkpt>
      <trkpt lat="48.37238" lon="2.82094">
        <ele>50</ele>
        <time>2018-04-14T08:32:01Z</time>
      </trkpt>
      <trkpt lat="48.37235" lon="2.82097">
        <ele>50</ele>
        <time>2018-04-14T08:32:02Z</time>
      </trkpt>
      <trkpt lat="48.37231" lon="2.82102">
        <ele>50</ele>
        <time>2018-04-14T08:32:03Z</time>
      </trkpt>
      <trkpt lat="48.37228" lon="2.82108">
        <ele>50</ele>
        <time>2018-04-14T08:32:04Z</time>
      </trkpt>
      <trkpt lat="48.37225" lon="2.82115">
        <ele>50</ele>
        <time>2018-04-14T08:32:05Z</time>
      </trkpt>
      <trkpt lat="48.37222" lon="2.82122">
        <ele>50</ele>
        <time>2018-04-14T08:32:06Z</time>
      </trkpt>
      <trkpt lat="48.37219" lon="2.82127">
        <ele>50</ele>
        <time>2018-04-14T08:32:07Z</time>
      </trkpt>
      <trkpt lat="48.37216" lon="2.82134">
        <ele>49.9</ele>
        <time>2018-04-14T08:32:08Z</time>
      </trkpt>
      <trkpt lat="48.37212" lon="2.82142">
        <ele>49.9</ele>
        <time>2018-04-14T08:32:09Z</time>
      </trkpt>
      <trkpt lat="48.3721" lon="2.82151">
        <ele>49.8</ele>
        <time>2018-04-14T08:32:10Z</time>
      </trkpt>
      <trkpt lat="48.37207" lon="2.82159">
        <ele>49.8</ele>
        <time>2018-04-14T08:32:11Z</time>
      </trkpt>
      <trkpt lat="48.37205" lon="2.82167">
        <ele>49.7</ele>
        <time>2018-04-14T08:32:12Z</time>
      </trkpt>
      <trkpt lat="48.37203" lon="2.82175">
        <ele>49.7</ele>
        <time>2018-04-14T08:32:13Z</time>
      </trkpt>
      <trkpt lat="48.37201" lon="2.82184">
        <ele>49.6</ele>
        <time>2018-04-14T08:32:14Z</time>
      </trkpt>
      <trkpt lat="48.37199" lon="2.82192">
        <ele>49.6</ele>
        <time>2018-04-14T08:32:15Z</time>
      </trkpt>
      <trkpt lat="48.37197" lon="2.822">
        <ele>49.5</ele>
        <time>2018-04-14T08:32:16Z</time>
      </trkpt>
      <trkpt lat="48.37194" lon="2.8221">
        <ele>49.3</ele>
        <time>2018-04-14T08:32:17Z</time>
      </trkpt>
      <trkpt lat="48.37192" lon="2.82218">
        <ele>49.2</ele>
        <time>2018-04-14T08:32:18Z</time>
      </trkpt>
      <trkpt lat="48.3719" lon="2.82228">
        <ele>49</ele>
        <time>2018-04-14T08:32:19Z</time>
      </trkpt>
      <trkpt lat="48.37187" lon="2.82235">
        <ele>49</ele>
        <time>2018-04-14T08:32:20Z</time>
      </trkpt>
      <trkpt lat="48.37184" lon="2.82242">
        <ele>48.9</ele>
        <time>2018-04-14T08:32:21Z</time>
      </trkpt>
      <trkpt lat="48.37182" lon="2.82248">
        <ele>48.8</ele>
        <time>2018-04-14T08:32:22Z</time>
      </trkpt>
      <trkpt lat="48.37178" lon="2.82256">
        <ele>48.6</ele>
        <time>2018-04-14T08:32:23Z</time>
      </trkpt>
      <trkpt lat="48.37175" lon="2.82263">
        <ele>48.4</ele>
        <time>2018-04-14T08:32:24Z</time>
      </trkpt>
      <trkpt lat="48.37173" lon="2.8227">
        <ele>48.3</ele>
        <time>2018-04-14T08:32:25Z</time>
      </trkpt>
      <trkpt lat="48.37171" lon="2.82279">
        <ele>48.1</ele>
        <time>2018-04-14T08:32:26Z</time>
      </trkpt>
      <trkpt lat="48.3717" lon="2.82288">
        <ele>48.4</ele>
        <time>2018-04-14T08:32:27Z</time>
      </trkpt>
      <trkpt lat="48.37167" lon="2.82294">
        <ele>49.2</ele>
        <time>2018-04-14T08:32:28Z</time>
      </trkpt>
      <trkpt lat="48.37164" lon="2.82301">
        <ele>49.9</ele>
        <time>2018-04-14T08:32:29Z</time>
      </trkpt>
      <trkpt lat="48.37163" lon="2.82308">
        <ele>49.8</ele>
        <time>2018-04-14T08:32:30Z</time>
      </trkpt>
      <trkpt lat="48.37162" lon="2.82314">
        <ele>49.6</ele>
        <time>2018-04-14T08:32:31Z</time>
      </trkpt>
      <trkpt lat="48.3716" lon="2.8232">
        <ele>49.3</ele>
        <time>2018-04-14T08:32:32Z</time>
      </trkpt>
      <trkpt lat="48.37157" lon="2.82328">
        <ele>49</ele>
        <time>2018-04-14T08:32:33Z</time>
      </trkpt>
      <trkpt lat="48.37155" lon="2.82334">
        <ele>48.7</ele>
        <time>2018-04-14T08:32:34Z</time>
      </trkpt>
      <trkpt lat="48.37154" lon="2.8234">
        <ele>48.5</ele>
        <time>2018-04-14T08:32:35Z</time>
      </trkpt>
      <trkpt lat="48.37151" lon="2.82348">
        <ele>48.2</ele>
        <time>2018-04-14T08:32:36Z</time>
      </trkpt>
      <trkpt lat="48.37147" lon="2.82354">
        <ele>48</ele>
        <time>2018-04-14T08:32:37Z</time>
      </trkpt>
      <trkpt lat="48.37145" lon="2.82362">
        <ele>48</ele>
        <time>2018-04-14T08:32:38Z</time>
      </trkpt>
      <trkpt lat="48.37143" lon="2.82368">
        <ele>48</ele>
        <time>2018-04-14T08:32:39Z</time>
      </trkpt>
      <trkpt lat="48.37142" lon="2.82375">
        <ele>48</ele>
        <time>2018-04-14T08:32:40Z</time>
      </trkpt>
      <trkpt lat="48.37141" lon="2.82382">
        <ele>48</ele>
        <time>2018-04-14T08:32:41Z</time>
      </trkpt>
      <trkpt lat="48.3714" lon="2.82387">
        <ele>48</ele>
        <time>2018-04-14T08:32:42Z</time>
      </trkpt>
      <trkpt lat="48.37138" lon="2.82395">
        <ele>48</ele>
        <time>2018-04-14T08:32:43Z</time>
      </trkpt>
      <trkpt lat="48.37137" lon="2.824">
        <ele>48</ele>
        <time>2018-04-14T08:32:44Z</time>
      </trkpt>
      <trkpt lat="48.37138" lon="2.82406">
        <ele>48.3</ele>
        <time>2018-04-14T08:32:45Z</time>
      </trkpt>
      <trkpt lat="48.37137" lon="2.82415">
        <ele>48.9</ele>
        <time>2018-04-14T08:32:46Z</time>
      </trkpt>
      <trkpt lat="48.37136" lon="2.82421">
        <ele>49.1</ele>
        <time>2018-04-14T08:32:47Z</time>
      </trkpt>
      <trkpt lat="48.37135" lon="2.82426">
        <ele>49.2</ele>
        <time>2018-04-14T08:32:48Z</time>
      </trkpt>
      <trkpt lat="48.37133" lon="2.82433">
        <ele>49.4</ele>
        <time>2018-04-14T08:32:49Z</time>
      </trkpt>
      <trkpt lat="48.37131" lon="2.82439">
        <ele>49.5</ele>
        <time>2018-04-14T08:32:50Z</time>
      </trkpt>
      <trkpt lat="48.3713" lon="2.82447">
        <ele>49.7</ele>
        <time>2018-04-14T08:32:51Z</time>
      </trkpt>
      <trkpt lat="48.37128" lon="2.82452">
        <ele>49.9</ele>
        <time>2018-04-14T08:32:52Z</time>
      </trkpt>
      <trkpt lat="48.37128" lon="2.82457">
        <ele>50</ele>
        <time>2018-04-14T08:32:53Z</time>
      </trkpt>
      <trkpt lat="48.37126" lon="2.82463">
        <ele>50.1</ele>
        <time>2018-04-14T08:32:54Z</time>
      </trkpt>
      <trkpt lat="48.37124" lon="2.82471">
        <ele>50.3</ele>
        <time>2018-04-14T08:32:55Z</time>
      </trkpt>
      <trkpt lat="48.37123" lon="2.82476">
        <ele>50.5</ele>
        <time>2018-04-14T08:32:56Z</time>
      </trkpt>
      <trkpt lat="48.37121" lon="2.82483">
        <ele>50.7</ele>
        <time>2018-04-14T08:32:57Z</time>
      </trkpt>
      <trkpt lat="48.37119" lon="2.8249">
        <ele>50.8</ele>
        <time>2018-04-14T08:32:58Z</time>
      </trkpt>
      <trkpt lat="48.37117" lon="2.82496">
        <ele>50.9</ele>
        <time>2018-04-14T08:32:59Z</time>
      </trkpt>
      <trkpt lat="48.37114" lon="2.82501">
        <ele>51.1</ele>
        <time>2018-04-14T08:33:00Z</time>
      </trkpt>
      <trkpt lat="48.37112" lon="2.82508">
        <ele>51.2</ele>
        <time>2018-04-14T08:33:01Z</time>
      </trkpt>
      <trkpt lat="48.37111" lon="2.82513">
        <ele>51.3</ele>
        <time>2018-04-14T08:33:02Z</time>
      </trkpt>
      <trkpt lat="48.37111" lon="2.82523">
        <ele>51.5</ele>
        <time>2018-04-14T08:33:03Z</time>
      </trkpt>
      <trkpt lat="48.3711" lon="2.82531">
        <ele>51.6</ele>
        <time>2018-04-14T08:33:04Z</time>
      </trkpt>
      <trkpt lat="48.37109" lon="2.82536">
        <ele>51.7</ele>
        <time>2018-04-14T08:33:05Z</time>
      </trkpt>
      <trkpt lat="48.37108" lon="2.82542">
        <ele>51.8</ele>
        <time>2018-04-14T08:33:06Z</time>
      </trkpt>
      <trkpt lat="48.37105" lon="2.82546">
        <ele>51.9</ele>
        <time>2018-04-14T08:33:07Z</time>
      </trkpt>
      <trkpt lat="48.37102" lon="2.8255">
        <ele>52</ele>
        <time>2018-04-14T08:33:08Z</time>
      </trkpt>
      <trkpt lat="48.371" lon="2.82552">
        <ele>52</ele>
        <time>2018-04-14T08:33:09Z</time>
      </trkpt>
      <trkpt lat="48.37096" lon="2.82554">
        <ele>52</ele>
        <time>2018-04-14T08:33:12Z</time>
      </trkpt>
      <trkpt lat="48.37093" lon="2.82554">
        <ele>52</ele>
        <time>2018-04-14T08:33:13Z</time>
      </trkpt>
      <trkpt lat="48.37088" lon="2.82558">
        <ele>52</ele>
        <time>2018-04-14T08:33:15Z</time>
      </trkpt>
      <trkpt lat="48.37085" lon="2.82561">
        <ele>52</ele>
        <time>2018-04-14T08:33:16Z</time>
      </trkpt>
      <trkpt lat="48.37081" lon="2.82565">
        <ele>52</ele>
        <time>2018-04-14T08:33:17Z</time>
      </trkpt>
      <trkpt lat="48.37078" lon="2.82568">
        <ele>52</ele>
        <time>2018-04-14T08:33:18Z</time>
      </trkpt>
      <trkpt lat="48.37074" lon="2.82569">
        <ele>52</ele>
        <time>2018-04-14T08:33:19Z</time>
      </trkpt>
      <trkpt lat="48.37071" lon="2.8257">
        <ele>52</ele>
        <time>2018-04-14T08:33:20Z</time>
      </trkpt>
      <trkpt lat="48.37067" lon="2.82571">
        <ele>52</ele>
        <time>2018-04-14T08:33:21Z</time>
      </trkpt>
      <trkpt lat="48.37063" lon="2.82572">
        <ele>52</ele>
        <time>2018-04-14T08:33:22Z</time>
      </trkpt>
      <trkpt lat="48.3706" lon="2.82573">
        <ele>52</ele>
        <time>2018-04-14T08:33:23Z</time>
      </trkpt>
      <trkpt lat="48.37057" lon="2.82575">
        <ele>52</ele>
        <time>2018-04-14T08:33:24Z</time>
      </trkpt>
      <trkpt lat="48.37052" lon="2.82576">
        <ele>52</ele>
        <time>2018-04-14T08:33:25Z</time>
      </trkpt>
      <trkpt lat="48.37048" lon="2.82578">
        <ele>51.9</ele>
        <time>2018-04-14T08:33:26Z</time>
      </trkpt>
      <trkpt lat="48.37044" lon="2.8258">
        <ele>51.8</ele>
        <time>2018-04-14T08:33:27Z</time>
      </trkpt>
      <trkpt lat="48.3704" lon="2.82581">
        <ele>51.8</ele>
        <time>2018-04-14T08:33:28Z</time>
      </trkpt>
      <trkpt lat="48.37035" lon="2.82584">
        <ele>51.7</ele>
        <time>2018-04-14T08:33:29Z</time>
      </trkpt>
      <trkpt lat="48.3703" lon="2.82587">
        <ele>51.6</ele>
        <time>2018-04-14T08:33:30Z</time>
      </trkpt>
      <trkpt lat="48.37025" lon="2.82588">
        <ele>51.5</ele>
        <time>2018-04-14T08:33:31Z</time>
      </trkpt>
      <trkpt lat="48.37022" lon="2.82589">
        <ele>51.4</ele>
        <time>2018-04-14T08:33:32Z</time>
      </trkpt>
      <trkpt lat="48.37018" lon="2.8259">
        <ele>51.4</ele>
        <time>2018-04-14T08:33:33Z</time>
      </trkpt>
      <trkpt lat="48.37014" lon="2.82592">
        <ele>51.3</ele>
        <time>2018-04-14T08:33:34Z</time>
      </trkpt>
      <trkpt lat="48.37008" lon="2.82594">
        <ele>51.3</ele>
        <time>2018-04-14T08:33:35Z</time>
      </trkpt>
      <trkpt lat="48.37004" lon="2.82596">
        <ele>51.2</ele>
        <time>2018-04-14T08:33:36Z</time>
      </trkpt>
      <trkpt lat="48.37" lon="2.82598">
        <ele>51.2</ele>
        <time>2018-04-14T08:33:37Z</time>
      </trkpt>
      <trkpt lat="48.36995" lon="2.82599">
        <ele>51.1</ele>
        <time>2018-04-14T08:33:38Z</time>
      </trkpt>
      <trkpt lat="48.3699" lon="2.82601">
        <ele>51.1</ele>
        <time>2018-04-14T08:33:39Z</time>
      </trkpt>
      <trkpt lat="48.36985" lon="2.82603">
        <ele>51</ele>
        <time>2018-04-14T08:33:40Z</time>
      </trkpt>
      <trkpt lat="48.36981" lon="2.82604">
        <ele>51</ele>
        <time>2018-04-14T08:33:41Z</time>
      </trkpt>
      <trkpt lat="48.36977" lon="2.82605">
        <ele>51</ele>
        <time>2018-04-14T08:33:42Z</time>
      </trkpt>
      <trkpt lat="48.3697" lon="2.82608">
        <ele>50.9</ele>
        <time>2018-04-14T08:33:44Z</time>
      </trkpt>
      <trkpt lat="48.36966" lon="2.82609">
        <ele>50.9</ele>
        <time>2018-04-14T08:33:45Z</time>
      </trkpt>
      <trkpt lat="48.36961" lon="2.82612">
        <ele>50.8</ele>
        <time>2018-04-14T08:33:46Z</time>
      </trkpt>
      <trkpt lat="48.36957" lon="2.82613">
        <ele>50.8</ele>
        <time>2018-04-14T08:33:47Z</time>
      </trkpt>
      <trkpt lat="48.36953" lon="2.82615">
        <ele>50.7</ele>
        <time>2018-04-14T08:33:48Z</time>
      </trkpt>
      <trkpt lat="48.36948" lon="2.82617">
        <ele>50.7</ele>
        <time>2018-04-14T08:33:49Z</time>
      </trkpt>
      <trkpt lat="48.36944" lon="2.82618">
        <ele>50.7</ele>
        <time>2018-04-14T08:33:50Z</time>
      </trkpt>
      <trkpt lat="48.36939" lon="2.82619">
        <ele>50.6</ele>
        <time>2018-04-14T08:33:51Z</time>
      </trkpt>
      <trkpt lat="48.36933" lon="2.82621">
        <ele>50.6</ele>
        <time>2018-04-14T08:33:52Z</time>
      </trkpt>
      <trkpt lat="48.36928" lon="2.82623">
        <ele>50.5</ele>
        <time>2018-04-14T08:33:53Z</time>
      </trkpt>
      <trkpt lat="48.36924" lon="2.82625">
        <ele>50.5</ele>
        <time>2018-04-14T08:33:54Z</time>
      </trkpt>
      <trkpt lat="48.36919" lon="2.82627">
        <ele>50.5</ele>
        <time>2018-04-14T08:33:55Z</time>
      </trkpt>
      <trkpt lat="48.36914" lon="2.82628">
        <ele>50.4</ele>
        <time>2018-04-14T08:33:56Z</time>
      </trkpt>
      <trkpt lat="48.3691" lon="2.8263">
        <ele>50.3</ele>
        <time>2018-04-14T08:33:57Z</time>
      </trkpt>
      <trkpt lat="48.36905" lon="2.82632">
        <ele>50.3</ele>
        <time>2018-04-14T08:33:58Z</time>
      </trkpt>
      <trkpt lat="48.369" lon="2.82633">
        <ele>50.2</ele>
        <time>2018-04-14T08:33:59Z</time>
      </trkpt>
      <trkpt lat="48.36896" lon="2.82635">
        <ele>50.1</ele>
        <time>2018-04-14T08:34:00Z</time>
      </trkpt>
      <trkpt lat="48.36892" lon="2.82636">
        <ele>50.1</ele>
        <time>2018-04-14T08:34:01Z</time>
      </trkpt>
      <trkpt lat="48.36889" lon="2.82638">
        <ele>50</ele>
        <time>2018-04-14T08:34:02Z</time>
      </trkpt>
      <trkpt lat="48.36885" lon="2.8264">
        <ele>49.9</ele>
        <time>2018-04-14T08:34:03Z</time>
      </trkpt>
      <trkpt lat="48.36881" lon="2.82642">
        <ele>49.8</ele>
        <time>2018-04-14T08:34:04Z</time>
      </trkpt>
      <trkpt lat="48.36877" lon="2.82644">
        <ele>49.8</ele>
        <time>2018-04-14T08:34:05Z</time>
      </trkpt>
      <trkpt lat="48.36872" lon="2.82645">
        <ele>49.7</ele>
        <time>2018-04-14T08:34:06Z</time>
      </trkpt>
      <trkpt lat="48.36867" lon="2.82647">
        <ele>49.6</ele>
        <time>2018-04-14T08:34:07Z</time>
      </trkpt>
      <trkpt lat="48.36864" lon="2.82648">
        <ele>49.5</ele>
        <time>2018-04-14T08:34:08Z</time>
      </trkpt>
      <trkpt lat="48.36862" lon="2.8265">
        <ele>49.4</ele>
        <time>2018-04-14T08:34:09Z</time>
      </trkpt>
      <trkpt lat="48.36857" lon="2.82652">
        <ele>49.4</ele>
        <time>2018-04-14T08:34:10Z</time>
      </trkpt>
      <trkpt lat="48.36854" lon="2.82653">
        <ele>49.3</ele>
        <time>2018-04-14T08:34:11Z</time>
      </trkpt>
      <trkpt lat="48.36851" lon="2.82655">
        <ele>49.2</ele>
        <time>2018-04-14T08:34:13Z</time>
      </trkpt>
      <trkpt lat="48.36846" lon="2.82655">
        <ele>49.1</ele>
        <time>2018-04-14T08:34:15Z</time>
      </trkpt>
      <trkpt lat="48.36842" lon="2.82657">
        <ele>49</ele>
        <time>2018-04-14T08:34:17Z</time>
      </trkpt>
      <trkpt lat="48.36837" lon="2.82659">
        <ele>49.2</ele>
        <time>2018-04-14T08:34:19Z</time>
      </trkpt>
      <trkpt lat="48.36834" lon="2.8266">
        <ele>49.3</ele>
        <time>2018-04-14T08:34:20Z</time>
      </trkpt>
      <trkpt lat="48.3683" lon="2.82662">
        <ele>49.4</ele>
        <time>2018-04-14T08:34:21Z</time>
      </trkpt>
      <trkpt lat="48.36828" lon="2.82664">
        <ele>49.5</ele>
        <time>2018-04-14T08:34:22Z</time>
      </trkpt>
      <trkpt lat="48.36823" lon="2.82667">
        <ele>49.7</ele>
        <time>2018-04-14T08:34:24Z</time>
      </trkpt>
      <trkpt lat="48.36819" lon="2.8267">
        <ele>49.9</ele>
        <time>2018-04-14T08:34:26Z</time>
      </trkpt>
      <trkpt lat="48.36815" lon="2.82673">
        <ele>50.1</ele>
        <time>2018-04-14T08:34:28Z</time>
      </trkpt>
      <trkpt lat="48.3681" lon="2.82675">
        <ele>50.3</ele>
        <time>2018-04-14T08:34:30Z</time>
      </trkpt>
      <trkpt lat="48.36805" lon="2.82674">
        <ele>50.6</ele>
        <time>2018-04-14T08:34:32Z</time>
      </trkpt>
      <trkpt lat="48.36802" lon="2.82673">
        <ele>50.7</ele>
        <time>2018-04-14T08:34:34Z</time>
      </trkpt>
      <trkpt lat="48.36799" lon="2.82673">
        <ele>50.9</ele>
        <time>2018-04-14T08:34:35Z</time>
      </trkpt>
      <trkpt lat="48.36795" lon="2.82674">
        <ele>51.1</ele>
        <time>2018-04-14T08:34:36Z</time>
      </trkpt>
      <trkpt lat="48.36791" lon="2.82675">
        <ele>51.3</ele>
        <time>2018-04-14T08:34:37Z</time>
      </trkpt>
      <trkpt lat="48.36787" lon="2.82677">
        <ele>51.6</ele>
        <time>2018-04-14T08:34:38Z</time>
      </trkpt>
      <trkpt lat="48.36783" lon="2.82679">
        <ele>51.9</ele>
        <time>2018-04-14T08:34:39Z</time>
      </trkpt>
      <trkpt lat="48.36779" lon="2.82681">
        <ele>52.1</ele>
        <time>2018-04-14T08:34:40Z</time>
      </trkpt>
      <trkpt lat="48.36775" lon="2.82682">
        <ele>52.3</ele>
        <time>2018-04-14T08:34:41Z</time>
      </trkpt>
      <trkpt lat="48.36771" lon="2.82683">
        <ele>52.5</ele>
        <time>2018-04-14T08:34:42Z</time>
      </trkpt>
      <trkpt lat="48.36768" lon="2.82684">
        <ele>52.6</ele>
        <time>2018-04-14T08:34:43Z</time>
      </trkpt>
      <trkpt lat="48.36763" lon="2.82686">
        <ele>52.9</ele>
        <time>2018-04-14T08:34:44Z</time>
      </trkpt>
      <trkpt lat="48.36759" lon="2.82687">
        <ele>53.1</ele>
        <time>2018-04-14T08:34:46Z</time>
      </trkpt>
      <trkpt lat="48.36756" lon="2.82688">
        <ele>53.3</ele>
        <time>2018-04-14T08:34:47Z</time>
      </trkpt>
      <trkpt lat="48.36752" lon="2.82691">
        <ele>53.5</ele>
        <time>2018-04-14T08:34:48Z</time>
      </trkpt>
      <trkpt lat="48.3675" lon="2.82693">
        <ele>53.7</ele>
        <time>2018-04-14T08:34:49Z</time>
      </trkpt>
      <trkpt lat="48.36746" lon="2.82695">
        <ele>53.9</ele>
        <time>2018-04-14T08:34:50Z</time>
      </trkpt>
      <trkpt lat="48.36741" lon="2.82697">
        <ele>54.1</ele>
        <time>2018-04-14T08:34:51Z</time>
      </trkpt>
      <trkpt lat="48.36737" lon="2.82699">
        <ele>54.4</ele>
        <time>2018-04-14T08:34:52Z</time>
      </trkpt>
      <trkpt lat="48.36733" lon="2.82701">
        <ele>54.6</ele>
        <time>2018-04-14T08:34:53Z</time>
      </trkpt>
      <trkpt lat="48.3673" lon="2.82702">
        <ele>54.8</ele>
        <time>2018-04-14T08:34:54Z</time>
      </trkpt>
      <trkpt lat="48.36726" lon="2.82704">
        <ele>54.9</ele>
        <time>2018-04-14T08:34:55Z</time>
      </trkpt>
      <trkpt lat="48.36723" lon="2.82705">
        <ele>55.2</ele>
        <time>2018-04-14T08:34:56Z</time>
      </trkpt>
      <trkpt lat="48.36718" lon="2.82706">
        <ele>55.4</ele>
        <time>2018-04-14T08:34:57Z</time>
      </trkpt>
      <trkpt lat="48.36713" lon="2.82708">
        <ele>55.7</ele>
        <time>2018-04-14T08:34:58Z</time>
      </trkpt>
      <trkpt lat="48.36708" lon="2.8271">
        <ele>56</ele>
        <time>2018-04-14T08:34:59Z</time>
      </trkpt>
      <trkpt lat="48.36704" lon="2.82712">
        <ele>56.2</ele>
        <time>2018-04-14T08:35:00Z</time>
      </trkpt>
      <trkpt lat="48.36699" lon="2.82713">
        <ele>56.5</ele>
        <time>2018-04-14T08:35:01Z</time>
      </trkpt>
      <trkpt lat="48.36694" lon="2.82715">
        <ele>56.8</ele>
        <time>2018-04-14T08:35:02Z</time>
      </trkpt>
      <trkpt lat="48.36691" lon="2.82717">
        <ele>57</ele>
        <time>2018-04-14T08:35:03Z</time>
      </trkpt>
      <trkpt lat="48.36687" lon="2.82719">
        <ele>57</ele>
        <time>2018-04-14T08:35:04Z</time>
      </trkpt>
      <trkpt lat="48.36685" lon="2.8272">
        <ele>57</ele>
        <time>2018-04-14T08:35:05Z</time>
      </trkpt>
      <trkpt lat="48.36681" lon="2.8272">
        <ele>57</ele>
        <time>2018-04-14T08:35:06Z</time>
      </trkpt>
      <trkpt lat="48.36679" lon="2.82721">
        <ele>57</ele>
        <time>2018-04-14T08:35:07Z</time>
      </trkpt>
      <trkpt lat="48.36675" lon="2.82722">
        <ele>57</ele>
        <time>2018-04-14T08:35:08Z</time>
      </trkpt>
      <trkpt lat="48.36672" lon="2.82723">
        <ele>57</ele>
        <time>2018-04-14T08:35:09Z</time>
      </trkpt>
      <trkpt lat="48.36669" lon="2.82723">
        <ele>57</ele>
        <time>2018-04-14T08:35:10Z</time>
      </trkpt>
      <trkpt lat="48.36666" lon="2.82725">
        <ele>57</ele>
        <time>2018-04-14T08:35:11Z</time>
      </trkpt>
      <trkpt lat="48.36663" lon="2.82727">
        <ele>57</ele>
        <time>2018-04-14T08:35:12Z</time>
      </trkpt>
      <trkpt lat="48.36658" lon="2.82728">
        <ele>57</ele>
        <time>2018-04-14T08:35:13Z</time>
      </trkpt>
      <trkpt lat="48.36653" lon="2.8273">
        <ele>57</ele>
        <time>2018-04-14T08:35:14Z</time>
      </trkpt>
      <trkpt lat="48.36648" lon="2.82732">
        <ele>57</ele>
        <time>2018-04-14T08:35:15Z</time>
      </trkpt>
      <trkpt lat="48.36643" lon="2.82734">
        <ele>56.8</ele>
        <time>2018-04-14T08:35:16Z</time>
      </trkpt>
      <trkpt lat="48.36638" lon="2.82735">
        <ele>56.7</ele>
        <time>2018-04-14T08:35:17Z</time>
      </trkpt>
      <trkpt lat="48.36634" lon="2.82737">
        <ele>56.6</ele>
        <time>2018-04-14T08:35:18Z</time>
      </trkpt>
      <trkpt lat="48.36629" lon="2.82738">
        <ele>56.5</ele>
        <time>2018-04-14T08:35:19Z</time>
      </trkpt>
      <trkpt lat="48.36625" lon="2.8274">
        <ele>56.3</ele>
        <time>2018-04-14T08:35:20Z</time>
      </trkpt>
      <trkpt lat="48.36621" lon="2.82742">
        <ele>56.2</ele>
        <time>2018-04-14T08:35:21Z</time>
      </trkpt>
      <trkpt lat="48.36616" lon="2.82743">
        <ele>56.1</ele>
        <time>2018-04-14T08:35:22Z</time>
      </trkpt>
      <trkpt lat="48.36613" lon="2.82744">
        <ele>55.9</ele>
        <time>2018-04-14T08:35:23Z</time>
      </trkpt>
      <trkpt lat="48.36609" lon="2.82745">
        <ele>55.8</ele>
        <time>2018-04-14T08:35:24Z</time>
      </trkpt>
      <trkpt lat="48.36605" lon="2.82746">
        <ele>55.7</ele>
        <time>2018-04-14T08:35:25Z</time>
      </trkpt>
      <trkpt lat="48.36601" lon="2.82747">
        <ele>55.6</ele>
        <time>2018-04-14T08:35:26Z</time>
      </trkpt>
      <trkpt lat="48.36597" lon="2.82749">
        <ele>55.5</ele>
        <time>2018-04-14T08:35:27Z</time>
      </trkpt>
      <trkpt lat="48.36592" lon="2.8275">
        <ele>55.4</ele>
        <time>2018-04-14T08:35:28Z</time>
      </trkpt>
      <trkpt lat="48.36585" lon="2.8275">
        <ele>55.3</ele>
        <time>2018-04-14T08:35:29Z</time>
      </trkpt>
      <trkpt lat="48.36579" lon="2.8275">
        <ele>55.2</ele>
        <time>2018-04-14T08:35:30Z</time>
      </trkpt>
      <trkpt lat="48.36574" lon="2.8275">
        <ele>55.1</ele>
        <time>2018-04-14T08:35:31Z</time>
      </trkpt>
      <trkpt lat="48.36568" lon="2.8275">
        <ele>55</ele>
        <time>2018-04-14T08:35:32Z</time>
      </trkpt>
      <trkpt lat="48.3656" lon="2.82748">
        <ele>54.8</ele>
        <time>2018-04-14T08:35:33Z</time>
      </trkpt>
      <trkpt lat="48.36554" lon="2.82747">
        <ele>54.7</ele>
        <time>2018-04-14T08:35:34Z</time>
      </trkpt>
      <trkpt lat="48.36548" lon="2.82746">
        <ele>54.5</ele>
        <time>2018-04-14T08:35:35Z</time>
      </trkpt>
      <trkpt lat="48.36542" lon="2.82744">
        <ele>54.4</ele>
        <time>2018-04-14T08:35:36Z</time>
      </trkpt>
      <trkpt lat="48.36537" lon="2.82742">
        <ele>54.3</ele>
        <time>2018-04-14T08:35:37Z</time>
      </trkpt>
      <trkpt lat="48.3653" lon="2.82739">
        <ele>53.9</ele>
        <time>2018-04-14T08:35:38Z</time>
      </trkpt>
      <trkpt lat="48.36524" lon="2.82735">
        <ele>53.8</ele>
        <time>2018-04-14T08:35:39Z</time>
      </trkpt>
      <trkpt lat="48.36518" lon="2.82732">
        <ele>53.6</ele>
        <time>2018-04-14T08:35:40Z</time>
      </trkpt>
      <trkpt lat="48.36513" lon="2.8273">
        <ele>53.5</ele>
        <time>2018-04-14T08:35:41Z</time>
      </trkpt>
      <trkpt lat="48.36507" lon="2.82727">
        <ele>53.4</ele>
        <time>2018-04-14T08:35:42Z</time>
      </trkpt>
      <trkpt lat="48.36502" lon="2.82724">
        <ele>53.3</ele>
        <time>2018-04-14T08:35:43Z</time>
      </trkpt>
      <trkpt lat="48.36497" lon="2.82721">
        <ele>53.1</ele>
        <time>2018-04-14T08:35:44Z</time>
      </trkpt>
      <trkpt lat="48.36492" lon="2.82718">
        <ele>53</ele>
        <time>2018-04-14T08:35:45Z</time>
      </trkpt>
      <trkpt lat="48.36487" lon="2.82715">
        <ele>53</ele>
        <time>2018-04-14T08:35:46Z</time>
      </trkpt>
      <trkpt lat="48.36482" lon="2.82712">
        <ele>53</ele>
        <time>2018-04-14T08:35:47Z</time>
      </trkpt>
      <trkpt lat="48.36477" lon="2.82709">
        <ele>53</ele>
        <time>2018-04-14T08:35:48Z</time>
      </trkpt>
      <trkpt lat="48.36473" lon="2.82707">
        <ele>53</ele>
        <time>2018-04-14T08:35:49Z</time>
      </trkpt>
      <trkpt lat="48.36469" lon="2.82704">
        <ele>53</ele>
        <time>2018-04-14T08:35:50Z</time>
      </trkpt>
      <trkpt lat="48.36465" lon="2.82701">
        <ele>53</ele>
        <time>2018-04-14T08:35:51Z</time>
      </trkpt>
      <trkpt lat="48.36462" lon="2.82699">
        <ele>53</ele>
        <time>2018-04-14T08:35:52Z</time>
      </trkpt>
      <trkpt lat="48.36459" lon="2.82697">
        <ele>53</ele>
        <time>2018-04-14T08:35:53Z</time>
      </trkpt>
      <trkpt lat="48.36456" lon="2.82695">
        <ele>53</ele>
        <time>2018-04-14T08:35:54Z</time>
      </trkpt>
      <trkpt lat="48.36451" lon="2.82693">
        <ele>53</ele>
        <time>2018-04-14T08:35:55Z</time>
      </trkpt>
      <trkpt lat="48.36447" lon="2.8269">
        <ele>53</ele>
        <time>2018-04-14T08:35:56Z</time>
      </trkpt>
      <trkpt lat="48.36444" lon="2.82687">
        <ele>53</ele>
        <time>2018-04-14T08:35:57Z</time>
      </trkpt>
      <trkpt lat="48.3644" lon="2.82685">
        <ele>53</ele>
        <time>2018-04-14T08:35:58Z</time>
      </trkpt>
      <trkpt lat="48.36436" lon="2.82683">
        <ele>53</ele>
        <time>2018-04-14T08:35:59Z</time>
      </trkpt>
      <trkpt lat="48.36432" lon="2.8268">
        <ele>53</ele>
        <time>2018-04-14T08:36:00Z</time>
      </trkpt>
      <trkpt lat="48.36428" lon="2.82678">
        <ele>53</ele>
        <time>2018-04-14T08:36:01Z</time>
      </trkpt>
      <trkpt lat="48.36424" lon="2.82676">
        <ele>53</ele>
        <time>2018-04-14T08:36:02Z</time>
      </trkpt>
      <trkpt lat="48.36421" lon="2.82673">
        <ele>53</ele>
        <time>2018-04-14T08:36:03Z</time>
      </trkpt>
      <trkpt lat="48.36417" lon="2.82671">
        <ele>53</ele>
        <time>2018-04-14T08:36:04Z</time>
      </trkpt>
      <trkpt lat="48.36414" lon="2.82668">
        <ele>52.9</ele>
        <time>2018-04-14T08:36:05Z</time>
      </trkpt>
      <trkpt lat="48.3641" lon="2.82667">
        <ele>52.9</ele>
        <time>2018-04-14T08:36:06Z</time>
      </trkpt>
      <trkpt lat="48.36407" lon="2.82665">
        <ele>52.9</ele>
        <time>2018-04-14T08:36:07Z</time>
      </trkpt>
      <trkpt lat="48.36404" lon="2.82663">
        <ele>52.9</ele>
        <time>2018-04-14T08:36:08Z</time>
      </trkpt>
      <trkpt lat="48.364" lon="2.82661">
        <ele>52.9</ele>
        <time>2018-04-14T08:36:09Z</time>
      </trkpt>
      <trkpt lat="48.36397" lon="2.82659">
        <ele>52.9</ele>
        <time>2018-04-14T08:36:10Z</time>
      </trkpt>
      <trkpt lat="48.36394" lon="2.82658">
        <ele>52.9</ele>
        <time>2018-04-14T08:36:11Z</time>
      </trkpt>
      <trkpt lat="48.3639" lon="2.82656">
        <ele>52.9</ele>
        <time>2018-04-14T08:36:12Z</time>
      </trkpt>
      <trkpt lat="48.36387" lon="2.82653">
        <ele>52.9</ele>
        <time>2018-04-14T08:36:13Z</time>
      </trkpt>
      <trkpt lat="48.36383" lon="2.82651">
        <ele>52.9</ele>
        <time>2018-04-14T08:36:14Z</time>
      </trkpt>
      <trkpt lat="48.36379" lon="2.82649">
        <ele>52.9</ele>
        <time>2018-04-14T08:36:15Z</time>
      </trkpt>
      <trkpt lat="48.36376" lon="2.82647">
        <ele>52.9</ele>
        <time>2018-04-14T08:36:16Z</time>
      </trkpt>
      <trkpt lat="48.36372" lon="2.82645">
        <ele>52.9</ele>
        <time>2018-04-14T08:36:17Z</time>
      </trkpt>
      <trkpt lat="48.36369" lon="2.82644">
        <ele>52.9</ele>
        <time>2018-04-14T08:36:18Z</time>
      </trkpt>
      <trkpt lat="48.36365" lon="2.82642">
        <ele>52.9</ele>
        <time>2018-04-14T08:36:19Z</time>
      </trkpt>
      <trkpt lat="48.36362" lon="2.8264">
        <ele>52.9</ele>
        <time>2018-04-14T08:36:20Z</time>
      </trkpt>
      <trkpt lat="48.36358" lon="2.82638">
        <ele>52.9</ele>
        <time>2018-04-14T08:36:21Z</time>
      </trkpt>
      <trkpt lat="48.36354" lon="2.82636">
        <ele>52.9</ele>
        <time>2018-04-14T08:36:22Z</time>
      </trkpt>
      <trkpt lat="48.36351" lon="2.82633">
        <ele>52.9</ele>
        <time>2018-04-14T08:36:23Z</time>
      </trkpt>
      <trkpt lat="48.36347" lon="2.8263">
        <ele>52.9</ele>
        <time>2018-04-14T08:36:24Z</time>
      </trkpt>
      <trkpt lat="48.36344" lon="2.82628">
        <ele>52.9</ele>
        <time>2018-04-14T08:36:25Z</time>
      </trkpt>
      <trkpt lat="48.3634" lon="2.82626">
        <ele>52.9</ele>
        <time>2018-04-14T08:36:26Z</time>
      </trkpt>
      <trkpt lat="48.36336" lon="2.82623">
        <ele>52.9</ele>
        <time>2018-04-14T08:36:27Z</time>
      </trkpt>
      <trkpt lat="48.36332" lon="2.82621">
        <ele>52.9</ele>
        <time>2018-04-14T08:36:28Z</time>
      </trkpt>
      <trkpt lat="48.36328" lon="2.82618">
        <ele>52.9</ele>
        <time>2018-04-14T08:36:29Z</time>
      </trkpt>
      <trkpt lat="48.36324" lon="2.82616">
        <ele>52.9</ele>
        <time>2018-04-14T08:36:30Z</time>
      </trkpt>
      <trkpt lat="48.3632" lon="2.82613">
        <ele>52.9</ele>
        <time>2018-04-14T08:36:31Z</time>
      </trkpt>
      <trkpt lat="48.36316" lon="2.82611">
        <ele>52.9</ele>
        <time>2018-04-14T08:36:32Z</time>
      </trkpt>
      <trkpt lat="48.36312" lon="2.82609">
        <ele>52.9</ele>
        <time>2018-04-14T08:36:33Z</time>
      </trkpt>
      <trkpt lat="48.36309" lon="2.82607">
        <ele>52.9</ele>
        <time>2018-04-14T08:36:34Z</time>
      </trkpt>
      <trkpt lat="48.36306" lon="2.82605">
        <ele>52.9</ele>
        <time>2018-04-14T08:36:35Z</time>
      </trkpt>
      <trkpt lat="48.36302" lon="2.82603">
        <ele>52.9</ele>
        <time>2018-04-14T08:36:36Z</time>
      </trkpt>
      <trkpt lat="48.36299" lon="2.826">
        <ele>52.9</ele>
        <time>2018-04-14T08:36:37Z</time>
      </trkpt>
      <trkpt lat="48.36296" lon="2.82598">
        <ele>52.9</ele>
        <time>2018-04-14T08:36:38Z</time>
      </trkpt>
      <trkpt lat="48.36292" lon="2.82596">
        <ele>52.9</ele>
        <time>2018-04-14T08:36:39Z</time>
      </trkpt>
      <trkpt lat="48.36289" lon="2.82593">
        <ele>52.9</ele>
        <time>2018-04-14T08:36:40Z</time>
      </trkpt>
      <trkpt lat="48.36286" lon="2.82591">
        <ele>52.9</ele>
        <time>2018-04-14T08:36:41Z</time>
      </trkpt>
      <trkpt lat="48.36282" lon="2.82589">
        <ele>52.9</ele>
        <time>2018-04-14T08:36:42Z</time>
      </trkpt>
      <trkpt lat="48.36279" lon="2.82586">
        <ele>52.8</ele>
        <time>2018-04-14T08:36:43Z</time>
      </trkpt>
      <trkpt lat="48.36276" lon="2.82584">
        <ele>52.8</ele>
        <time>2018-04-14T08:36:44Z</time>
      </trkpt>
      <trkpt lat="48.36272" lon="2.82581">
        <ele>52.8</ele>
        <time>2018-04-14T08:36:45Z</time>
      </trkpt>
      <trkpt lat="48.36269" lon="2.82579">
        <ele>52.8</ele>
        <time>2018-04-14T08:36:46Z</time>
      </trkpt>
      <trkpt lat="48.36265" lon="2.82577">
        <ele>52.8</ele>
        <time>2018-04-14T08:36:47Z</time>
      </trkpt>
      <trkpt lat="48.36261" lon="2.82575">
        <ele>52.8</ele>
        <time>2018-04-14T08:36:48Z</time>
      </trkpt>
      <trkpt lat="48.36257" lon="2.82573">
        <ele>52.8</ele>
        <time>2018-04-14T08:36:49Z</time>
      </trkpt>
      <trkpt lat="48.36253" lon="2.82572">
        <ele>52.8</ele>
        <time>2018-04-14T08:36:50Z</time>
      </trkpt>
      <trkpt lat="48.36248" lon="2.82569">
        <ele>52.8</ele>
        <time>2018-04-14T08:36:51Z</time>
      </trkpt>
      <trkpt lat="48.36244" lon="2.82566">
        <ele>52.8</ele>
        <time>2018-04-14T08:36:52Z</time>
      </trkpt>
      <trkpt lat="48.36239" lon="2.82563">
        <ele>52.8</ele>
        <time>2018-04-14T08:36:53Z</time>
      </trkpt>
      <trkpt lat="48.36235" lon="2.8256">
        <ele>52.8</ele>
        <time>2018-04-14T08:36:54Z</time>
      </trkpt>
      <trkpt lat="48.36231" lon="2.82558">
        <ele>52.8</ele>
        <time>2018-04-14T08:36:55Z</time>
      </trkpt>
      <trkpt lat="48.36227" lon="2.82555">
        <ele>52.8</ele>
        <time>2018-04-14T08:36:56Z</time>
      </trkpt>
      <trkpt lat="48.36223" lon="2.82553">
        <ele>52.8</ele>
        <time>2018-04-14T08:36:57Z</time>
      </trkpt>
      <trkpt lat="48.3622" lon="2.8255">
        <ele>52.8</ele>
        <time>2018-04-14T08:36:58Z</time>
      </trkpt>
      <trkpt lat="48.36216" lon="2.82548">
        <ele>52.8</ele>
        <time>2018-04-14T08:36:59Z</time>
      </trkpt>
      <trkpt lat="48.36212" lon="2.82545">
        <ele>52.8</ele>
        <time>2018-04-14T08:37:00Z</time>
      </trkpt>
      <trkpt lat="48.36208" lon="2.82543">
        <ele>52.8</ele>
        <time>2018-04-14T08:37:01Z</time>
      </trkpt>
      <trkpt lat="48.36204" lon="2.8254">
        <ele>52.8</ele>
        <time>2018-04-14T08:37:02Z</time>
      </trkpt>
      <trkpt lat="48.36201" lon="2.82537">
        <ele>52.8</ele>
        <time>2018-04-14T08:37:03Z</time>
      </trkpt>
      <trkpt lat="48.36196" lon="2.82535">
        <ele>52.8</ele>
        <time>2018-04-14T08:37:04Z</time>
      </trkpt>
      <trkpt lat="48.36192" lon="2.82532">
        <ele>52.8</ele>
        <time>2018-04-14T08:37:05Z</time>
      </trkpt>
      <trkpt lat="48.36188" lon="2.82529">
        <ele>52.8</ele>
        <time>2018-04-14T08:37:06Z</time>
      </trkpt>
      <trkpt lat="48.36183" lon="2.82527">
        <ele>52.8</ele>
        <time>2018-04-14T08:37:07Z</time>
      </trkpt>
      <trkpt lat="48.36179" lon="2.82524">
        <ele>52.8</ele>
        <time>2018-04-14T08:37:08Z</time>
      </trkpt>
      <trkpt lat="48.36174" lon="2.8252">
        <ele>52.8</ele>
        <time>2018-04-14T08:37:09Z</time>
      </trkpt>
      <trkpt lat="48.36169" lon="2.82517">
        <ele>52.8</ele>
        <time>2018-04-14T08:37:10Z</time>
      </trkpt>
      <trkpt lat="48.36165" lon="2.82515">
        <ele>52.8</ele>
        <time>2018-04-14T08:37:11Z</time>
      </trkpt>
      <trkpt lat="48.3616" lon="2.82512">
        <ele>52.8</ele>
        <time>2018-04-14T08:37:12Z</time>
      </trkpt>
      <trkpt lat="48.36156" lon="2.82509">
        <ele>52.8</ele>
        <time>2018-04-14T08:37:13Z</time>
      </trkpt>
      <trkpt lat="48.36151" lon="2.82506">
        <ele>52.8</ele>
        <time>2018-04-14T08:37:14Z</time>
      </trkpt>
      <trkpt lat="48.36146" lon="2.82502">
        <ele>52.8</ele>
        <time>2018-04-14T08:37:15Z</time>
      </trkpt>
      <trkpt lat="48.36141" lon="2.82499">
        <ele>52.8</ele>
        <time>2018-04-14T08:37:16Z</time>
      </trkpt>
      <trkpt lat="48.36135" lon="2.82496">
        <ele>52.8</ele>
        <time>2018-04-14T08:37:17Z</time>
      </trkpt>
      <trkpt lat="48.3613" lon="2.82492">
        <ele>52.8</ele>
        <time>2018-04-14T08:37:18Z</time>
      </trkpt>
      <trkpt lat="48.36125" lon="2.82489">
        <ele>52.8</ele>
        <time>2018-04-14T08:37:19Z</time>
      </trkpt>
      <trkpt lat="48.36121" lon="2.82486">
        <ele>52.8</ele>
        <time>2018-04-14T08:37:20Z</time>
      </trkpt>
      <trkpt lat="48.36116" lon="2.82483">
        <ele>52.8</ele>
        <time>2018-04-14T08:37:21Z</time>
      </trkpt>
      <trkpt lat="48.36112" lon="2.8248">
        <ele>52.8</ele>
        <time>2018-04-14T08:37:22Z</time>
      </trkpt>
      <trkpt lat="48.36108" lon="2.82477">
        <ele>52.8</ele>
        <time>2018-04-14T08:37:23Z</time>
      </trkpt>
      <trkpt lat="48.36104" lon="2.82475">
        <ele>52.8</ele>
        <time>2018-04-14T08:37:24Z</time>
      </trkpt>
      <trkpt lat="48.36099" lon="2.82472">
        <ele>52.8</ele>
        <time>2018-04-14T08:37:25Z</time>
      </trkpt>
      <trkpt lat="48.36095" lon="2.82469">
        <ele>52.8</ele>
        <time>2018-04-14T08:37:26Z</time>
      </trkpt>
      <trkpt lat="48.36091" lon="2.82467">
        <ele>52.8</ele>
        <time>2018-04-14T08:37:27Z</time>
      </trkpt>
      <trkpt lat="48.36087" lon="2.82464">
        <ele>52.7</ele>
        <time>2018-04-14T08:37:28Z</time>
      </trkpt>
      <trkpt lat="48.36083" lon="2.82462">
        <ele>52.7</ele>
        <time>2018-04-14T08:37:29Z</time>
      </trkpt>
      <trkpt lat="48.36078" lon="2.82459">
        <ele>52.7</ele>
        <time>2018-04-14T08:37:30Z</time>
      </trkpt>
      <trkpt lat="48.36074" lon="2.82456">
        <ele>52.7</ele>
        <time>2018-04-14T08:37:31Z</time>
      </trkpt>
      <trkpt lat="48.36069" lon="2.82453">
        <ele>52.7</ele>
        <time>2018-04-14T08:37:32Z</time>
      </trkpt>
      <trkpt lat="48.36064" lon="2.82449">
        <ele>52.7</ele>
        <time>2018-04-14T08:37:33Z</time>
      </trkpt>
      <trkpt lat="48.36059" lon="2.82446">
        <ele>52.7</ele>
        <time>2018-04-14T08:37:34Z</time>
      </trkpt>
      <trkpt lat="48.36055" lon="2.82443">
        <ele>52.7</ele>
        <time>2018-04-14T08:37:35Z</time>
      </trkpt>
      <trkpt lat="48.36051" lon="2.8244">
        <ele>52.7</ele>
        <time>2018-04-14T08:37:36Z</time>
      </trkpt>
      <trkpt lat="48.36047" lon="2.82437">
        <ele>52.7</ele>
        <time>2018-04-14T08:37:37Z</time>
      </trkpt>
      <trkpt lat="48.36043" lon="2.82434">
        <ele>52.7</ele>
        <time>2018-04-14T08:37:38Z</time>
      </trkpt>
      <trkpt lat="48.36038" lon="2.82431">
        <ele>52.7</ele>
        <time>2018-04-14T08:37:39Z</time>
      </trkpt>
      <trkpt lat="48.36034" lon="2.82427">
        <ele>52.7</ele>
        <time>2018-04-14T08:37:40Z</time>
      </trkpt>
      <trkpt lat="48.3603" lon="2.82424">
        <ele>52.7</ele>
        <time>2018-04-14T08:37:41Z</time>
      </trkpt>
      <trkpt lat="48.36026" lon="2.82421">
        <ele>52.7</ele>
        <time>2018-04-14T08:37:42Z</time>
      </trkpt>
      <trkpt lat="48.36022" lon="2.82418">
        <ele>52.7</ele>
        <time>2018-04-14T08:37:43Z</time>
      </trkpt>
      <trkpt lat="48.36018" lon="2.82413">
        <ele>52.7</ele>
        <time>2018-04-14T08:37:44Z</time>
      </trkpt>
      <trkpt lat="48.36015" lon="2.82408">
        <ele>52.7</ele>
        <time>2018-04-14T08:37:45Z</time>
      </trkpt>
      <trkpt lat="48.36011" lon="2.82405">
        <ele>52.7</ele>
        <time>2018-04-14T08:37:46Z</time>
      </trkpt>
      <trkpt lat="48.36007" lon="2.82402">
        <ele>52.7</ele>
        <time>2018-04-14T08:37:47Z</time>
      </trkpt>
      <trkpt lat="48.36003" lon="2.82399">
        <ele>52.7</ele>
        <time>2018-04-14T08:37:48Z</time>
      </trkpt>
      <trkpt lat="48.35999" lon="2.82396">
        <ele>52.7</ele>
        <time>2018-04-14T08:37:49Z</time>
      </trkpt>
      <trkpt lat="48.35996" lon="2.82393">
        <ele>52.7</ele>
        <time>2018-04-14T08:37:50Z</time>
      </trkpt>
      <trkpt lat="48.35992" lon="2.8239">
        <ele>52.7</ele>
        <time>2018-04-14T08:37:51Z</time>
      </trkpt>
      <trkpt lat="48.35989" lon="2.82388">
        <ele>52.7</ele>
        <time>2018-04-14T08:37:52Z</time>
      </trkpt>
      <trkpt lat="48.35985" lon="2.82384">
        <ele>52.7</ele>
        <time>2018-04-14T08:37:53Z</time>
      </trkpt>
      <trkpt lat="48.35982" lon="2.82381">
        <ele>52.7</ele>
        <time>2018-04-14T08:37:54Z</time>
      </trkpt>
      <trkpt lat="48.35978" lon="2.82378">
        <ele>52.7</ele>
        <time>2018-04-14T08:37:55Z</time>
      </trkpt>
      <trkpt lat="48.35975" lon="2.82374">
        <ele>52.7</ele>
        <time>2018-04-14T08:37:56Z</time>
      </trkpt>
      <trkpt lat="48.35971" lon="2.8237">
        <ele>52.7</ele>
        <time>2018-04-14T08:37:57Z</time>
      </trkpt>
      <trkpt lat="48.35967" lon="2.82367">
        <ele>52.7</ele>
        <time>2018-04-14T08:37:58Z</time>
      </trkpt>
      <trkpt lat="48.35964" lon="2.82364">
        <ele>52.7</ele>
        <time>2018-04-14T08:37:59Z</time>
      </trkpt>
      <trkpt lat="48.35961" lon="2.82359">
        <ele>52.7</ele>
        <time>2018-04-14T08:38:00Z</time>
      </trkpt>
      <trkpt lat="48.35957" lon="2.82355">
        <ele>52.7</ele>
        <time>2018-04-14T08:38:01Z</time>
      </trkpt>
      <trkpt lat="48.35953" lon="2.82351">
        <ele>52.7</ele>
        <time>2018-04-14T08:38:02Z</time>
      </trkpt>
      <trkpt lat="48.35949" lon="2.82347">
        <ele>52.7</ele>
        <time>2018-04-14T08:38:03Z</time>
      </trkpt>
      <trkpt lat="48.35946" lon="2.82343">
        <ele>52.7</ele>
        <time>2018-04-14T08:38:04Z</time>
      </trkpt>
      <trkpt lat="48.35942" lon="2.8234">
        <ele>52.7</ele>
        <time>2018-04-14T08:38:05Z</time>
      </trkpt>
      <trkpt lat="48.35938" lon="2.82336">
        <ele>52.7</ele>
        <time>2018-04-14T08:38:06Z</time>
      </trkpt>
      <trkpt lat="48.35933" lon="2.82332">
        <ele>52.7</ele>
        <time>2018-04-14T08:38:07Z</time>
      </trkpt>
      <trkpt lat="48.35929" lon="2.82328">
        <ele>52.6</ele>
        <time>2018-04-14T08:38:08Z</time>
      </trkpt>
      <trkpt lat="48.35926" lon="2.82324">
        <ele>52.6</ele>
        <time>2018-04-14T08:38:09Z</time>
      </trkpt>
      <trkpt lat="48.35922" lon="2.82318">
        <ele>52.6</ele>
        <time>2018-04-14T08:38:10Z</time>
      </trkpt>
      <trkpt lat="48.35918" lon="2.82315">
        <ele>52.6</ele>
        <time>2018-04-14T08:38:11Z</time>
      </trkpt>
      <trkpt lat="48.35914" lon="2.82309">
        <ele>52.6</ele>
        <time>2018-04-14T08:38:12Z</time>
      </trkpt>
      <trkpt lat="48.35909" lon="2.82306">
        <ele>52.6</ele>
        <time>2018-04-14T08:38:13Z</time>
      </trkpt>
      <trkpt lat="48.35904" lon="2.823">
        <ele>52.6</ele>
        <time>2018-04-14T08:38:14Z</time>
      </trkpt>
      <trkpt lat="48.35898" lon="2.82295">
        <ele>52.6</ele>
        <time>2018-04-14T08:38:15Z</time>
      </trkpt>
      <trkpt lat="48.35893" lon="2.82292">
        <ele>52.6</ele>
        <time>2018-04-14T08:38:16Z</time>
      </trkpt>
      <trkpt lat="48.35889" lon="2.82289">
        <ele>52.6</ele>
        <time>2018-04-14T08:38:17Z</time>
      </trkpt>
      <trkpt lat="48.35885" lon="2.82286">
        <ele>52.6</ele>
        <time>2018-04-14T08:38:18Z</time>
      </trkpt>
      <trkpt lat="48.35882" lon="2.82283">
        <ele>52.6</ele>
        <time>2018-04-14T08:38:19Z</time>
      </trkpt>
      <trkpt lat="48.35878" lon="2.82279">
        <ele>52.6</ele>
        <time>2018-04-14T08:38:20Z</time>
      </trkpt>
      <trkpt lat="48.35874" lon="2.82275">
        <ele>52.6</ele>
        <time>2018-04-14T08:38:21Z</time>
      </trkpt>
      <trkpt lat="48.35871" lon="2.8227">
        <ele>52.6</ele>
        <time>2018-04-14T08:38:22Z</time>
      </trkpt>
      <trkpt lat="48.35868" lon="2.82266">
        <ele>52.6</ele>
        <time>2018-04-14T08:38:23Z</time>
      </trkpt>
      <trkpt lat="48.35864" lon="2.82262">
        <ele>52.6</ele>
        <time>2018-04-14T08:38:24Z</time>
      </trkpt>
      <trkpt lat="48.35861" lon="2.82259">
        <ele>52.6</ele>
        <time>2018-04-14T08:38:25Z</time>
      </trkpt>
      <trkpt lat="48.35858" lon="2.82256">
        <ele>52.6</ele>
        <time>2018-04-14T08:38:26Z</time>
      </trkpt>
      <trkpt lat="48.35854" lon="2.82253">
        <ele>52.6</ele>
        <time>2018-04-14T08:38:27Z</time>
      </trkpt>
      <trkpt lat="48.35851" lon="2.8225">
        <ele>52.6</ele>
        <time>2018-04-14T08:38:28Z</time>
      </trkpt>
      <trkpt lat="48.35848" lon="2.82247">
        <ele>52.6</ele>
        <time>2018-04-14T08:38:29Z</time>
      </trkpt>
      <trkpt lat="48.35845" lon="2.82244">
        <ele>52.6</ele>
        <time>2018-04-14T08:38:30Z</time>
      </trkpt>
      <trkpt lat="48.35841" lon="2.82241">
        <ele>52.6</ele>
        <time>2018-04-14T08:38:31Z</time>
      </trkpt>
      <trkpt lat="48.35838" lon="2.82237">
        <ele>52.6</ele>
        <time>2018-04-14T08:38:32Z</time>
      </trkpt>
      <trkpt lat="48.35834" lon="2.82234">
        <ele>52.6</ele>
        <time>2018-04-14T08:38:33Z</time>
      </trkpt>
      <trkpt lat="48.35831" lon="2.82231">
        <ele>52.6</ele>
        <time>2018-04-14T08:38:34Z</time>
      </trkpt>
      <trkpt lat="48.35828" lon="2.82226">
        <ele>52.6</ele>
        <time>2018-04-14T08:38:35Z</time>
      </trkpt>
      <trkpt lat="48.35824" lon="2.82223">
        <ele>52.6</ele>
        <time>2018-04-14T08:38:36Z</time>
      </trkpt>
      <trkpt lat="48.3582" lon="2.82219">
        <ele>52.6</ele>
        <time>2018-04-14T08:38:37Z</time>
      </trkpt>
      <trkpt lat="48.35816" lon="2.82217">
        <ele>52.6</ele>
        <time>2018-04-14T08:38:38Z</time>
      </trkpt>
      <trkpt lat="48.35812" lon="2.82213">
        <ele>52.6</ele>
        <time>2018-04-14T08:38:39Z</time>
      </trkpt>
      <trkpt lat="48.35808" lon="2.8221">
        <ele>52.6</ele>
        <time>2018-04-14T08:38:40Z</time>
      </trkpt>
      <trkpt lat="48.35804" lon="2.82205">
        <ele>52.6</ele>
        <time>2018-04-14T08:38:41Z</time>
      </trkpt>
      <trkpt lat="48.35799" lon="2.82202">
        <ele>52.6</ele>
        <time>2018-04-14T08:38:42Z</time>
      </trkpt>
      <trkpt lat="48.35795" lon="2.82198">
        <ele>52.6</ele>
        <time>2018-04-14T08:38:43Z</time>
      </trkpt>
      <trkpt lat="48.35791" lon="2.82193">
        <ele>52.6</ele>
        <time>2018-04-14T08:38:44Z</time>
      </trkpt>
      <trkpt lat="48.35787" lon="2.82188">
        <ele>52.6</ele>
        <time>2018-04-14T08:38:45Z</time>
      </trkpt>
      <trkpt lat="48.35783" lon="2.82183">
        <ele>52.5</ele>
        <time>2018-04-14T08:38:46Z</time>
      </trkpt>
      <trkpt lat="48.35779" lon="2.82178">
        <ele>52.5</ele>
        <time>2018-04-14T08:38:47Z</time>
      </trkpt>
      <trkpt lat="48.35775" lon="2.82173">
        <ele>52.5</ele>
        <time>2018-04-14T08:38:48Z</time>
      </trkpt>
      <trkpt lat="48.35772" lon="2.82167">
        <ele>52.5</ele>
        <time>2018-04-14T08:38:49Z</time>
      </trkpt>
      <trkpt lat="48.35768" lon="2.82163">
        <ele>52.5</ele>
        <time>2018-04-14T08:38:50Z</time>
      </trkpt>
      <trkpt lat="48.35764" lon="2.82159">
        <ele>52.5</ele>
        <time>2018-04-14T08:38:51Z</time>
      </trkpt>
      <trkpt lat="48.35761" lon="2.82155">
        <ele>52.5</ele>
        <time>2018-04-14T08:38:52Z</time>
      </trkpt>
      <trkpt lat="48.35758" lon="2.82151">
        <ele>52.5</ele>
        <time>2018-04-14T08:38:53Z</time>
      </trkpt>
      <trkpt lat="48.35754" lon="2.82147">
        <ele>52.5</ele>
        <time>2018-04-14T08:38:54Z</time>
      </trkpt>
      <trkpt lat="48.35751" lon="2.82142">
        <ele>52.5</ele>
        <time>2018-04-14T08:38:55Z</time>
      </trkpt>
      <trkpt lat="48.35747" lon="2.82137">
        <ele>52.5</ele>
        <time>2018-04-14T08:38:56Z</time>
      </trkpt>
      <trkpt lat="48.35744" lon="2.82133">
        <ele>52.5</ele>
        <time>2018-04-14T08:38:57Z</time>
      </trkpt>
      <trkpt lat="48.35741" lon="2.82128">
        <ele>52.5</ele>
        <time>2018-04-14T08:38:58Z</time>
      </trkpt>
      <trkpt lat="48.35737" lon="2.82125">
        <ele>52.5</ele>
        <time>2018-04-14T08:38:59Z</time>
      </trkpt>
      <trkpt lat="48.35734" lon="2.82122">
        <ele>52.5</ele>
        <time>2018-04-14T08:39:00Z</time>
      </trkpt>
      <trkpt lat="48.3573" lon="2.82118">
        <ele>52.5</ele>
        <time>2018-04-14T08:39:01Z</time>
      </trkpt>
      <trkpt lat="48.35727" lon="2.82115">
        <ele>52.5</ele>
        <time>2018-04-14T08:39:02Z</time>
      </trkpt>
      <trkpt lat="48.35723" lon="2.82112">
        <ele>52.5</ele>
        <time>2018-04-14T08:39:03Z</time>
      </trkpt>
      <trkpt lat="48.35719" lon="2.82107">
        <ele>52.5</ele>
        <time>2018-04-14T08:39:04Z</time>
      </trkpt>
      <trkpt lat="48.35716" lon="2.82101">
        <ele>52.5</ele>
        <time>2018-04-14T08:39:05Z</time>
      </trkpt>
      <trkpt lat="48.35712" lon="2.82096">
        <ele>52.5</ele>
        <time>2018-04-14T08:39:06Z</time>
      </trkpt>
      <trkpt lat="48.35707" lon="2.82092">
        <ele>52.5</ele>
        <time>2018-04-14T08:39:07Z</time>
      </trkpt>
      <trkpt lat="48.35703" lon="2.82089">
        <ele>52.5</ele>
        <time>2018-04-14T08:39:08Z</time>
      </trkpt>
      <trkpt lat="48.35699" lon="2.82085">
        <ele>52.5</ele>
        <time>2018-04-14T08:39:09Z</time>
      </trkpt>
      <trkpt lat="48.35695" lon="2.82081">
        <ele>52.5</ele>
        <time>2018-04-14T08:39:10Z</time>
      </trkpt>
      <trkpt lat="48.35691" lon="2.82078">
        <ele>52.5</ele>
        <time>2018-04-14T08:39:11Z</time>
      </trkpt>
      <trkpt lat="48.35687" lon="2.82074">
        <ele>52.5</ele>
        <time>2018-04-14T08:39:12Z</time>
      </trkpt>
      <trkpt lat="48.35683" lon="2.8207">
        <ele>52.5</ele>
        <time>2018-04-14T08:39:13Z</time>
      </trkpt>
      <trkpt lat="48.35679" lon="2.82067">
        <ele>52.5</ele>
        <time>2018-04-14T08:39:14Z</time>
      </trkpt>
      <trkpt lat="48.35675" lon="2.82063">
        <ele>52.5</ele>
        <time>2018-04-14T08:39:15Z</time>
      </trkpt>
      <trkpt lat="48.35671" lon="2.82059">
        <ele>52.5</ele>
        <time>2018-04-14T08:39:16Z</time>
      </trkpt>
      <trkpt lat="48.35668" lon="2.82055">
        <ele>52.5</ele>
        <time>2018-04-14T08:39:17Z</time>
      </trkpt>
      <trkpt lat="48.35664" lon="2.82052">
        <ele>52.5</ele>
        <time>2018-04-14T08:39:18Z</time>
      </trkpt>
      <trkpt lat="48.3566" lon="2.82048">
        <ele>52.5</ele>
        <time>2018-04-14T08:39:19Z</time>
      </trkpt>
      <trkpt lat="48.35656" lon="2.82044">
        <ele>52.5</ele>
        <time>2018-04-14T08:39:20Z</time>
      </trkpt>
      <trkpt lat="48.35652" lon="2.8204">
        <ele>52.5</ele>
        <time>2018-04-14T08:39:21Z</time>
      </trkpt>
      <trkpt lat="48.35649" lon="2.82037">
        <ele>52.5</ele>
        <time>2018-04-14T08:39:22Z</time>
      </trkpt>
      <trkpt lat="48.35644" lon="2.82033">
        <ele>52.5</ele>
        <time>2018-04-14T08:39:23Z</time>
      </trkpt>
      <trkpt lat="48.3564" lon="2.82028">
        <ele>52.5</ele>
        <time>2018-04-14T08:39:24Z</time>
      </trkpt>
      <trkpt lat="48.35637" lon="2.82022">
        <ele>52.5</ele>
        <time>2018-04-14T08:39:25Z</time>
      </trkpt>
      <trkpt lat="48.35633" lon="2.82017">
        <ele>52.5</ele>
        <time>2018-04-14T08:39:26Z</time>
      </trkpt>
      <trkpt lat="48.3563" lon="2.82014">
        <ele>52.5</ele>
        <time>2018-04-14T08:39:27Z</time>
      </trkpt>
      <trkpt lat="48.35626" lon="2.82011">
        <ele>52.5</ele>
        <time>2018-04-14T08:39:28Z</time>
      </trkpt>
      <trkpt lat="48.35623" lon="2.82006">
        <ele>52.5</ele>
        <time>2018-04-14T08:39:29Z</time>
      </trkpt>
      <trkpt lat="48.35619" lon="2.82002">
        <ele>52.5</ele>
        <time>2018-04-14T08:39:30Z</time>
      </trkpt>
      <trkpt lat="48.35616" lon="2.82">
        <ele>52.5</ele>
        <time>2018-04-14T08:39:31Z</time>
      </trkpt>
      <trkpt lat="48.35612" lon="2.81997">
        <ele>52.5</ele>
        <time>2018-04-14T08:39:32Z</time>
      </trkpt>
      <trkpt lat="48.35609" lon="2.81993">
        <ele>52.5</ele>
        <time>2018-04-14T08:39:33Z</time>
      </trkpt>
      <trkpt lat="48.35606" lon="2.81987">
        <ele>52.5</ele>
        <time>2018-04-14T08:39:34Z</time>
      </trkpt>
      <trkpt lat="48.35603" lon="2.81983">
        <ele>52.5</ele>
        <time>2018-04-14T08:39:35Z</time>
      </trkpt>
      <trkpt lat="48.356" lon="2.8198">
        <ele>52.4</ele>
        <time>2018-04-14T08:39:36Z</time>
      </trkpt>
      <trkpt lat="48.35596" lon="2.81977">
        <ele>52.4</ele>
        <time>2018-04-14T08:39:37Z</time>
      </trkpt>
      <trkpt lat="48.35592" lon="2.81973">
        <ele>52.4</ele>
        <time>2018-04-14T08:39:38Z</time>
      </trkpt>
      <trkpt lat="48.35588" lon="2.81968">
        <ele>52.4</ele>
        <time>2018-04-14T08:39:39Z</time>
      </trkpt>
      <trkpt lat="48.35585" lon="2.81965">
        <ele>52.4</ele>
        <time>2018-04-14T08:39:40Z</time>
      </trkpt>
      <trkpt lat="48.35581" lon="2.8196">
        <ele>52.4</ele>
        <time>2018-04-14T08:39:41Z</time>
      </trkpt>
      <trkpt lat="48.35577" lon="2.81956">
        <ele>52.4</ele>
        <time>2018-04-14T08:39:42Z</time>
      </trkpt>
      <trkpt lat="48.35574" lon="2.81953">
        <ele>52.4</ele>
        <time>2018-04-14T08:39:43Z</time>
      </trkpt>
      <trkpt lat="48.3557" lon="2.81949">
        <ele>52.4</ele>
        <time>2018-04-14T08:39:44Z</time>
      </trkpt>
      <trkpt lat="48.35567" lon="2.81945">
        <ele>52.4</ele>
        <time>2018-04-14T08:39:45Z</time>
      </trkpt>
      <trkpt lat="48.35563" lon="2.81941">
        <ele>52.4</ele>
        <time>2018-04-14T08:39:46Z</time>
      </trkpt>
      <trkpt lat="48.35558" lon="2.81936">
        <ele>52.4</ele>
        <time>2018-04-14T08:39:47Z</time>
      </trkpt>
      <trkpt lat="48.35554" lon="2.81932">
        <ele>52.4</ele>
        <time>2018-04-14T08:39:48Z</time>
      </trkpt>
      <trkpt lat="48.3555" lon="2.81925">
        <ele>52.4</ele>
        <time>2018-04-14T08:39:49Z</time>
      </trkpt>
      <trkpt lat="48.35547" lon="2.81918">
        <ele>52.4</ele>
        <time>2018-04-14T08:39:50Z</time>
      </trkpt>
      <trkpt lat="48.35544" lon="2.8191">
        <ele>52.4</ele>
        <time>2018-04-14T08:39:51Z</time>
      </trkpt>
      <trkpt lat="48.35541" lon="2.81904">
        <ele>52.4</ele>
        <time>2018-04-14T08:39:52Z</time>
      </trkpt>
      <trkpt lat="48.35538" lon="2.81898">
        <ele>52.4</ele>
        <time>2018-04-14T08:39:53Z</time>
      </trkpt>
      <trkpt lat="48.35535" lon="2.81893">
        <ele>52.4</ele>
        <time>2018-04-14T08:39:54Z</time>
      </trkpt>
      <trkpt lat="48.35531" lon="2.81887">
        <ele>52.4</ele>
        <time>2018-04-14T08:39:55Z</time>
      </trkpt>
      <trkpt lat="48.35528" lon="2.81881">
        <ele>52.4</ele>
        <time>2018-04-14T08:39:56Z</time>
      </trkpt>
      <trkpt lat="48.35525" lon="2.81876">
        <ele>52.4</ele>
        <time>2018-04-14T08:39:57Z</time>
      </trkpt>
      <trkpt lat="48.35522" lon="2.81871">
        <ele>52.4</ele>
        <time>2018-04-14T08:39:58Z</time>
      </trkpt>
      <trkpt lat="48.35519" lon="2.81865">
        <ele>52.4</ele>
        <time>2018-04-14T08:39:59Z</time>
      </trkpt>
      <trkpt lat="48.35517" lon="2.81857">
        <ele>52.4</ele>
        <time>2018-04-14T08:40:00Z</time>
      </trkpt>
      <trkpt lat="48.35514" lon="2.8185">
        <ele>52.4</ele>
        <time>2018-04-14T08:40:01Z</time>
      </trkpt>
      <trkpt lat="48.35511" lon="2.81846">
        <ele>52.4</ele>
        <time>2018-04-14T08:40:02Z</time>
      </trkpt>
      <trkpt lat="48.35507" lon="2.81843">
        <ele>52.4</ele>
        <time>2018-04-14T08:40:03Z</time>
      </trkpt>
      <trkpt lat="48.35504" lon="2.81838">
        <ele>52.4</ele>
        <time>2018-04-14T08:40:04Z</time>
      </trkpt>
      <trkpt lat="48.35501" lon="2.81834">
        <ele>52.4</ele>
        <time>2018-04-14T08:40:05Z</time>
      </trkpt>
      <trkpt lat="48.35497" lon="2.81828">
        <ele>52.4</ele>
        <time>2018-04-14T08:40:06Z</time>
      </trkpt>
      <trkpt lat="48.35494" lon="2.81823">
        <ele>52.4</ele>
        <time>2018-04-14T08:40:07Z</time>
      </trkpt>
      <trkpt lat="48.35491" lon="2.81818">
        <ele>52.4</ele>
        <time>2018-04-14T08:40:08Z</time>
      </trkpt>
      <trkpt lat="48.35488" lon="2.81812">
        <ele>52.4</ele>
        <time>2018-04-14T08:40:09Z</time>
      </trkpt>
      <trkpt lat="48.35484" lon="2.81806">
        <ele>52.4</ele>
        <time>2018-04-14T08:40:10Z</time>
      </trkpt>
      <trkpt lat="48.35479" lon="2.81799">
        <ele>52.4</ele>
        <time>2018-04-14T08:40:11Z</time>
      </trkpt>
      <trkpt lat="48.35474" lon="2.81793">
        <ele>52.4</ele>
        <time>2018-04-14T08:40:12Z</time>
      </trkpt>
      <trkpt lat="48.3547" lon="2.81788">
        <ele>52.4</ele>
        <time>2018-04-14T08:40:13Z</time>
      </trkpt>
      <trkpt lat="48.35468" lon="2.81785">
        <ele>52.4</ele>
        <time>2018-04-14T08:40:14Z</time>
      </trkpt>
      <trkpt lat="48.35464" lon="2.81781">
        <ele>52.4</ele>
        <time>2018-04-14T08:40:15Z</time>
      </trkpt>
      <trkpt lat="48.3546" lon="2.81774">
        <ele>52.4</ele>
        <time>2018-04-14T08:40:16Z</time>
      </trkpt>
      <trkpt lat="48.35456" lon="2.81769">
        <ele>52.4</ele>
        <time>2018-04-14T08:40:17Z</time>
      </trkpt>
      <trkpt lat="48.35452" lon="2.81763">
        <ele>52.4</ele>
        <time>2018-04-14T08:40:18Z</time>
      </trkpt>
      <trkpt lat="48.35449" lon="2.81757">
        <ele>52.4</ele>
        <time>2018-04-14T08:40:19Z</time>
      </trkpt>
      <trkpt lat="48.35446" lon="2.81751">
        <ele>52.4</ele>
        <time>2018-04-14T08:40:20Z</time>
      </trkpt>
      <trkpt lat="48.35442" lon="2.81744">
        <ele>52.4</ele>
        <time>2018-04-14T08:40:21Z</time>
      </trkpt>
      <trkpt lat="48.35439" lon="2.81737">
        <ele>52.3</ele>
        <time>2018-04-14T08:40:22Z</time>
      </trkpt>
      <trkpt lat="48.35436" lon="2.81731">
        <ele>52.3</ele>
        <time>2018-04-14T08:40:23Z</time>
      </trkpt>
      <trkpt lat="48.35434" lon="2.81724">
        <ele>52.3</ele>
        <time>2018-04-14T08:40:24Z</time>
      </trkpt>
      <trkpt lat="48.35431" lon="2.81717">
        <ele>52.3</ele>
        <time>2018-04-14T08:40:25Z</time>
      </trkpt>
      <trkpt lat="48.35427" lon="2.81712">
        <ele>52.3</ele>
        <time>2018-04-14T08:40:26Z</time>
      </trkpt>
      <trkpt lat="48.35424" lon="2.81707">
        <ele>52.3</ele>
        <time>2018-04-14T08:40:27Z</time>
      </trkpt>
      <trkpt lat="48.35421" lon="2.81703">
        <ele>52.3</ele>
        <time>2018-04-14T08:40:28Z</time>
      </trkpt>
      <trkpt lat="48.35418" lon="2.81698">
        <ele>52.3</ele>
        <time>2018-04-14T08:40:29Z</time>
      </trkpt>
      <trkpt lat="48.35414" lon="2.81693">
        <ele>52.3</ele>
        <time>2018-04-14T08:40:30Z</time>
      </trkpt>
      <trkpt lat="48.3541" lon="2.81688">
        <ele>52.3</ele>
        <time>2018-04-14T08:40:31Z</time>
      </trkpt>
      <trkpt lat="48.35407" lon="2.81684">
        <ele>52.3</ele>
        <time>2018-04-14T08:40:32Z</time>
      </trkpt>
      <trkpt lat="48.35403" lon="2.81679">
        <ele>52.3</ele>
        <time>2018-04-14T08:40:33Z</time>
      </trkpt>
      <trkpt lat="48.35399" lon="2.81674">
        <ele>52.3</ele>
        <time>2018-04-14T08:40:34Z</time>
      </trkpt>
      <trkpt lat="48.35395" lon="2.81669">
        <ele>52.3</ele>
        <time>2018-04-14T08:40:35Z</time>
      </trkpt>
      <trkpt lat="48.35391" lon="2.81664">
        <ele>52.3</ele>
        <time>2018-04-14T08:40:36Z</time>
      </trkpt>
      <trkpt lat="48.35388" lon="2.81659">
        <ele>52.3</ele>
        <time>2018-04-14T08:40:37Z</time>
      </trkpt>
      <trkpt lat="48.35385" lon="2.81654">
        <ele>52.3</ele>
        <time>2018-04-14T08:40:38Z</time>
      </trkpt>
      <trkpt lat="48.35381" lon="2.81648">
        <ele>52.3</ele>
        <time>2018-04-14T08:40:39Z</time>
      </trkpt>
      <trkpt lat="48.35378" lon="2.81644">
        <ele>52.3</ele>
        <time>2018-04-14T08:40:40Z</time>
      </trkpt>
      <trkpt lat="48.35375" lon="2.81638">
        <ele>52.3</ele>
        <time>2018-04-14T08:40:41Z</time>
      </trkpt>
      <trkpt lat="48.35371" lon="2.81633">
        <ele>52.3</ele>
        <time>2018-04-14T08:40:42Z</time>
      </trkpt>
      <trkpt lat="48.35367" lon="2.81628">
        <ele>52.3</ele>
        <time>2018-04-14T08:40:43Z</time>
      </trkpt>
      <trkpt lat="48.35364" lon="2.81622">
        <ele>52.3</ele>
        <time>2018-04-14T08:40:44Z</time>
      </trkpt>
      <trkpt lat="48.35362" lon="2.81617">
        <ele>52.3</ele>
        <time>2018-04-14T08:40:45Z</time>
      </trkpt>
      <trkpt lat="48.35358" lon="2.81611">
        <ele>52.3</ele>
        <time>2018-04-14T08:40:46Z</time>
      </trkpt>
      <trkpt lat="48.35355" lon="2.81606">
        <ele>52.3</ele>
        <time>2018-04-14T08:40:47Z</time>
      </trkpt>
      <trkpt lat="48.35352" lon="2.81601">
        <ele>52.3</ele>
        <time>2018-04-14T08:40:48Z</time>
      </trkpt>
      <trkpt lat="48.35349" lon="2.81596">
        <ele>52.3</ele>
        <time>2018-04-14T08:40:49Z</time>
      </trkpt>
      <trkpt lat="48.35346" lon="2.81591">
        <ele>52.3</ele>
        <time>2018-04-14T08:40:50Z</time>
      </trkpt>
      <trkpt lat="48.35342" lon="2.81587">
        <ele>52.3</ele>
        <time>2018-04-14T08:40:51Z</time>
      </trkpt>
      <trkpt lat="48.35338" lon="2.81582">
        <ele>52.3</ele>
        <time>2018-04-14T08:40:52Z</time>
      </trkpt>
      <trkpt lat="48.35334" lon="2.81579">
        <ele>52.3</ele>
        <time>2018-04-14T08:40:53Z</time>
      </trkpt>
      <trkpt lat="48.3533" lon="2.81573">
        <ele>52.3</ele>
        <time>2018-04-14T08:40:54Z</time>
      </trkpt>
      <trkpt lat="48.35326" lon="2.8157">
        <ele>52.3</ele>
        <time>2018-04-14T08:40:55Z</time>
      </trkpt>
      <trkpt lat="48.35323" lon="2.81566">
        <ele>52.3</ele>
        <time>2018-04-14T08:40:56Z</time>
      </trkpt>
      <trkpt lat="48.35319" lon="2.81561">
        <ele>52.3</ele>
        <time>2018-04-14T08:40:57Z</time>
      </trkpt>
      <trkpt lat="48.35314" lon="2.81557">
        <ele>52.3</ele>
        <time>2018-04-14T08:40:58Z</time>
      </trkpt>
      <trkpt lat="48.35311" lon="2.81551">
        <ele>52.3</ele>
        <time>2018-04-14T08:40:59Z</time>
      </trkpt>
      <trkpt lat="48.35308" lon="2.81545">
        <ele>52.3</ele>
        <time>2018-04-14T08:41:00Z</time>
      </trkpt>
      <trkpt lat="48.35305" lon="2.81537">
        <ele>52.2</ele>
        <time>2018-04-14T08:41:01Z</time>
      </trkpt>
      <trkpt lat="48.35302" lon="2.81529">
        <ele>52.2</ele>
        <time>2018-04-14T08:41:02Z</time>
      </trkpt>
      <trkpt lat="48.35299" lon="2.81522">
        <ele>52.2</ele>
        <time>2018-04-14T08:41:03Z</time>
      </trkpt>
      <trkpt lat="48.35296" lon="2.81515">
        <ele>52.2</ele>
        <time>2018-04-14T08:41:04Z</time>
      </trkpt>
      <trkpt lat="48.35293" lon="2.81509">
        <ele>52.2</ele>
        <time>2018-04-14T08:41:05Z</time>
      </trkpt>
      <trkpt lat="48.3529" lon="2.81504">
        <ele>52.2</ele>
        <time>2018-04-14T08:41:06Z</time>
      </trkpt>
      <trkpt lat="48.35287" lon="2.81499">
        <ele>52.2</ele>
        <time>2018-04-14T08:41:07Z</time>
      </trkpt>
      <trkpt lat="48.35284" lon="2.81492">
        <ele>52.2</ele>
        <time>2018-04-14T08:41:08Z</time>
      </trkpt>
      <trkpt lat="48.35281" lon="2.81484">
        <ele>52.2</ele>
        <time>2018-04-14T08:41:09Z</time>
      </trkpt>
      <trkpt lat="48.35277" lon="2.81477">
        <ele>52.2</ele>
        <time>2018-04-14T08:41:10Z</time>
      </trkpt>
      <trkpt lat="48.35275" lon="2.81471">
        <ele>52.2</ele>
        <time>2018-04-14T08:41:11Z</time>
      </trkpt>
      <trkpt lat="48.35272" lon="2.81466">
        <ele>52.2</ele>
        <time>2018-04-14T08:41:12Z</time>
      </trkpt>
      <trkpt lat="48.35269" lon="2.81461">
        <ele>52.2</ele>
        <time>2018-04-14T08:41:13Z</time>
      </trkpt>
      <trkpt lat="48.35266" lon="2.81455">
        <ele>52.2</ele>
        <time>2018-04-14T08:41:14Z</time>
      </trkpt>
      <trkpt lat="48.35262" lon="2.81448">
        <ele>52.2</ele>
        <time>2018-04-14T08:41:15Z</time>
      </trkpt>
      <trkpt lat="48.35259" lon="2.81443">
        <ele>52.2</ele>
        <time>2018-04-14T08:41:16Z</time>
      </trkpt>
      <trkpt lat="48.35256" lon="2.81437">
        <ele>52.2</ele>
        <time>2018-04-14T08:41:17Z</time>
      </trkpt>
      <trkpt lat="48.35253" lon="2.81433">
        <ele>52.2</ele>
        <time>2018-04-14T08:41:18Z</time>
      </trkpt>
      <trkpt lat="48.35249" lon="2.81429">
        <ele>52.2</ele>
        <time>2018-04-14T08:41:19Z</time>
      </trkpt>
      <trkpt lat="48.35245" lon="2.81424">
        <ele>52.2</ele>
        <time>2018-04-14T08:41:20Z</time>
      </trkpt>
      <trkpt lat="48.35241" lon="2.81419">
        <ele>52.2</ele>
        <time>2018-04-14T08:41:21Z</time>
      </trkpt>
      <trkpt lat="48.35238" lon="2.81415">
        <ele>52.2</ele>
        <time>2018-04-14T08:41:22Z</time>
      </trkpt>
      <trkpt lat="48.35235" lon="2.81409">
        <ele>52.2</ele>
        <time>2018-04-14T08:41:23Z</time>
      </trkpt>
      <trkpt lat="48.35231" lon="2.81402">
        <ele>52.2</ele>
        <time>2018-04-14T08:41:24Z</time>
      </trkpt>
      <trkpt lat="48.35228" lon="2.81395">
        <ele>52.2</ele>
        <time>2018-04-14T08:41:25Z</time>
      </trkpt>
      <trkpt lat="48.35225" lon="2.81388">
        <ele>52.2</ele>
        <time>2018-04-14T08:41:26Z</time>
      </trkpt>
      <trkpt lat="48.35222" lon="2.81383">
        <ele>52.2</ele>
        <time>2018-04-14T08:41:27Z</time>
      </trkpt>
      <trkpt lat="48.35219" lon="2.81374">
        <ele>52.2</ele>
        <time>2018-04-14T08:41:28Z</time>
      </trkpt>
      <trkpt lat="48.35217" lon="2.81365">
        <ele>52.2</ele>
        <time>2018-04-14T08:41:29Z</time>
      </trkpt>
      <trkpt lat="48.35216" lon="2.81359">
        <ele>52.2</ele>
        <time>2018-04-14T08:41:30Z</time>
      </trkpt>
      <trkpt lat="48.35214" lon="2.81353">
        <ele>52.2</ele>
        <time>2018-04-14T08:41:31Z</time>
      </trkpt>
      <trkpt lat="48.35211" lon="2.81346">
        <ele>52.2</ele>
        <time>2018-04-14T08:41:32Z</time>
      </trkpt>
      <trkpt lat="48.35208" lon="2.81338">
        <ele>52.2</ele>
        <time>2018-04-14T08:41:33Z</time>
      </trkpt>
      <trkpt lat="48.35205" lon="2.8133">
        <ele>52.2</ele>
        <time>2018-04-14T08:41:34Z</time>
      </trkpt>
      <trkpt lat="48.35203" lon="2.81322">
        <ele>52.1</ele>
        <time>2018-04-14T08:41:35Z</time>
      </trkpt>
      <trkpt lat="48.35201" lon="2.81315">
        <ele>52.1</ele>
        <time>2018-04-14T08:41:36Z</time>
      </trkpt>
      <trkpt lat="48.35199" lon="2.81309">
        <ele>52.1</ele>
        <time>2018-04-14T08:41:37Z</time>
      </trkpt>
      <trkpt lat="48.35197" lon="2.81303">
        <ele>52.1</ele>
        <time>2018-04-14T08:41:38Z</time>
      </trkpt>
      <trkpt lat="48.35195" lon="2.81297">
        <ele>52.1</ele>
        <time>2018-04-14T08:41:39Z</time>
      </trkpt>
      <trkpt lat="48.35192" lon="2.81291">
        <ele>52.1</ele>
        <time>2018-04-14T08:41:40Z</time>
      </trkpt>
      <trkpt lat="48.3519" lon="2.81286">
        <ele>52.1</ele>
        <time>2018-04-14T08:41:41Z</time>
      </trkpt>
      <trkpt lat="48.35187" lon="2.8128">
        <ele>52.1</ele>
        <time>2018-04-14T08:41:42Z</time>
      </trkpt>
      <trkpt lat="48.35184" lon="2.81274">
        <ele>52.1</ele>
        <time>2018-04-14T08:41:43Z</time>
      </trkpt>
      <trkpt lat="48.35182" lon="2.81268">
        <ele>52.1</ele>
        <time>2018-04-14T08:41:44Z</time>
      </trkpt>
      <trkpt lat="48.35179" lon="2.81263">
        <ele>52.1</ele>
        <time>2018-04-14T08:41:45Z</time>
      </trkpt>
      <trkpt lat="48.35177" lon="2.81256">
        <ele>52.1</ele>
        <time>2018-04-14T08:41:46Z</time>
      </trkpt>
      <trkpt lat="48.35175" lon="2.8125">
        <ele>52.1</ele>
        <time>2018-04-14T08:41:47Z</time>
      </trkpt>
      <trkpt lat="48.35172" lon="2.81243">
        <ele>52.1</ele>
        <time>2018-04-14T08:41:48Z</time>
      </trkpt>
      <trkpt lat="48.3517" lon="2.81236">
        <ele>52.1</ele>
        <time>2018-04-14T08:41:49Z</time>
      </trkpt>
      <trkpt lat="48.35167" lon="2.8123">
        <ele>52.1</ele>
        <time>2018-04-14T08:41:50Z</time>
      </trkpt>
      <trkpt lat="48.35164" lon="2.81223">
        <ele>52.1</ele>
        <time>2018-04-14T08:41:51Z</time>
      </trkpt>
      <trkpt lat="48.35162" lon="2.81218">
        <ele>52.1</ele>
        <time>2018-04-14T08:41:52Z</time>
      </trkpt>
      <trkpt lat="48.35159" lon="2.81211">
        <ele>52.1</ele>
        <time>2018-04-14T08:41:53Z</time>
      </trkpt>
      <trkpt lat="48.35157" lon="2.81204">
        <ele>52.1</ele>
        <time>2018-04-14T08:41:54Z</time>
      </trkpt>
      <trkpt lat="48.35154" lon="2.81196">
        <ele>52.1</ele>
        <time>2018-04-14T08:41:55Z</time>
      </trkpt>
      <trkpt lat="48.35152" lon="2.81189">
        <ele>52.1</ele>
        <time>2018-04-14T08:41:56Z</time>
      </trkpt>
      <trkpt lat="48.35149" lon="2.81184">
        <ele>52.1</ele>
        <time>2018-04-14T08:41:57Z</time>
      </trkpt>
      <trkpt lat="48.35147" lon="2.81179">
        <ele>52.1</ele>
        <time>2018-04-14T08:41:58Z</time>
      </trkpt>
      <trkpt lat="48.35143" lon="2.81172">
        <ele>52.1</ele>
        <time>2018-04-14T08:41:59Z</time>
      </trkpt>
      <trkpt lat="48.3514" lon="2.81164">
        <ele>52.1</ele>
        <time>2018-04-14T08:42:00Z</time>
      </trkpt>
      <trkpt lat="48.35138" lon="2.81157">
        <ele>52.1</ele>
        <time>2018-04-14T08:42:01Z</time>
      </trkpt>
      <trkpt lat="48.35136" lon="2.81149">
        <ele>52.1</ele>
        <time>2018-04-14T08:42:02Z</time>
      </trkpt>
      <trkpt lat="48.35133" lon="2.81142">
        <ele>52.1</ele>
        <time>2018-04-14T08:42:03Z</time>
      </trkpt>
      <trkpt lat="48.3513" lon="2.81136">
        <ele>52.1</ele>
        <time>2018-04-14T08:42:04Z</time>
      </trkpt>
      <trkpt lat="48.35128" lon="2.81131">
        <ele>52.1</ele>
        <time>2018-04-14T08:42:05Z</time>
      </trkpt>
      <trkpt lat="48.35126" lon="2.81126">
        <ele>52.1</ele>
        <time>2018-04-14T08:42:06Z</time>
      </trkpt>
      <trkpt lat="48.35123" lon="2.8112">
        <ele>52.1</ele>
        <time>2018-04-14T08:42:07Z</time>
      </trkpt>
      <trkpt lat="48.3512" lon="2.81115">
        <ele>52</ele>
        <time>2018-04-14T08:42:08Z</time>
      </trkpt>
      <trkpt lat="48.35117" lon="2.81108">
        <ele>52</ele>
        <time>2018-04-14T08:42:09Z</time>
      </trkpt>
      <trkpt lat="48.35115" lon="2.81102">
        <ele>52</ele>
        <time>2018-04-14T08:42:10Z</time>
      </trkpt>
      <trkpt lat="48.35113" lon="2.81095">
        <ele>52</ele>
        <time>2018-04-14T08:42:11Z</time>
      </trkpt>
      <trkpt lat="48.35111" lon="2.8109">
        <ele>52</ele>
        <time>2018-04-14T08:42:12Z</time>
      </trkpt>
      <trkpt lat="48.3511" lon="2.81086">
        <ele>52</ele>
        <time>2018-04-14T08:42:13Z</time>
      </trkpt>
      <trkpt lat="48.35108" lon="2.81081">
        <ele>52</ele>
        <time>2018-04-14T08:42:14Z</time>
      </trkpt>
      <trkpt lat="48.35106" lon="2.81078">
        <ele>52</ele>
        <time>2018-04-14T08:42:15Z</time>
      </trkpt>
      <trkpt lat="48.35104" lon="2.81075">
        <ele>52</ele>
        <time>2018-04-14T08:42:16Z</time>
      </trkpt>
      <trkpt lat="48.35102" lon="2.8107">
        <ele>52</ele>
        <time>2018-04-14T08:42:18Z</time>
      </trkpt>
      <trkpt lat="48.35099" lon="2.81064">
        <ele>52</ele>
        <time>2018-04-14T08:42:20Z</time>
      </trkpt>
      <trkpt lat="48.35096" lon="2.8106">
        <ele>52</ele>
        <time>2018-04-14T08:42:22Z</time>
      </trkpt>
      <trkpt lat="48.35094" lon="2.81054">
        <ele>52</ele>
        <time>2018-04-14T08:42:24Z</time>
      </trkpt>
      <trkpt lat="48.35093" lon="2.8105">
        <ele>52</ele>
        <time>2018-04-14T08:42:25Z</time>
      </trkpt>
      <trkpt lat="48.35091" lon="2.81046">
        <ele>52</ele>
        <time>2018-04-14T08:42:26Z</time>
      </trkpt>
      <trkpt lat="48.35089" lon="2.81041">
        <ele>52</ele>
        <time>2018-04-14T08:42:27Z</time>
      </trkpt>
      <trkpt lat="48.35087" lon="2.81037">
        <ele>52</ele>
        <time>2018-04-14T08:42:28Z</time>
      </trkpt>
      <trkpt lat="48.35085" lon="2.81033">
        <ele>52</ele>
        <time>2018-04-14T08:42:29Z</time>
      </trkpt>
      <trkpt lat="48.35082" lon="2.81027">
        <ele>52.2</ele>
        <time>2018-04-14T08:42:30Z</time>
      </trkpt>
      <trkpt lat="48.35079" lon="2.81018">
        <ele>52.4</ele>
        <time>2018-04-14T08:42:31Z</time>
      </trkpt>
      <trkpt lat="48.35077" lon="2.81008">
        <ele>52.6</ele>
        <time>2018-04-14T08:42:32Z</time>
      </trkpt>
      <trkpt lat="48.35075" lon="2.80999">
        <ele>52.7</ele>
        <time>2018-04-14T08:42:33Z</time>
      </trkpt>
      <trkpt lat="48.35072" lon="2.80993">
        <ele>52.7</ele>
        <time>2018-04-14T08:42:34Z</time>
      </trkpt>
      <trkpt lat="48.3507" lon="2.80988">
        <ele>52.8</ele>
        <time>2018-04-14T08:42:35Z</time>
      </trkpt>
      <trkpt lat="48.35066" lon="2.80982">
        <ele>52.9</ele>
        <time>2018-04-14T08:42:36Z</time>
      </trkpt>
      <trkpt lat="48.35063" lon="2.80974">
        <ele>52.9</ele>
        <time>2018-04-14T08:42:37Z</time>
      </trkpt>
      <trkpt lat="48.3506" lon="2.80965">
        <ele>53</ele>
        <time>2018-04-14T08:42:38Z</time>
      </trkpt>
      <trkpt lat="48.35057" lon="2.80957">
        <ele>53.1</ele>
        <time>2018-04-14T08:42:39Z</time>
      </trkpt>
      <trkpt lat="48.35054" lon="2.80951">
        <ele>53.1</ele>
        <time>2018-04-14T08:42:40Z</time>
      </trkpt>
      <trkpt lat="48.35051" lon="2.80946">
        <ele>53.1</ele>
        <time>2018-04-14T08:42:41Z</time>
      </trkpt>
      <trkpt lat="48.35048" lon="2.80939">
        <ele>53.2</ele>
        <time>2018-04-14T08:42:42Z</time>
      </trkpt>
      <trkpt lat="48.35045" lon="2.80931">
        <ele>53.3</ele>
        <time>2018-04-14T08:42:43Z</time>
      </trkpt>
      <trkpt lat="48.35043" lon="2.80922">
        <ele>53.3</ele>
        <time>2018-04-14T08:42:44Z</time>
      </trkpt>
      <trkpt lat="48.35041" lon="2.80914">
        <ele>53.4</ele>
        <time>2018-04-14T08:42:45Z</time>
      </trkpt>
      <trkpt lat="48.35039" lon="2.80906">
        <ele>53.5</ele>
        <time>2018-04-14T08:42:46Z</time>
      </trkpt>
      <trkpt lat="48.35036" lon="2.809">
        <ele>53.6</ele>
        <time>2018-04-14T08:42:47Z</time>
      </trkpt>
      <trkpt lat="48.35034" lon="2.80895">
        <ele>53.7</ele>
        <time>2018-04-14T08:42:48Z</time>
      </trkpt>
      <trkpt lat="48.35032" lon="2.8089">
        <ele>53.8</ele>
        <time>2018-04-14T08:42:49Z</time>
      </trkpt>
      <trkpt lat="48.35029" lon="2.80885">
        <ele>54</ele>
        <time>2018-04-14T08:42:50Z</time>
      </trkpt>
      <trkpt lat="48.35026" lon="2.8088">
        <ele>54.1</ele>
        <time>2018-04-14T08:42:51Z</time>
      </trkpt>
      <trkpt lat="48.35024" lon="2.80871">
        <ele>54.3</ele>
        <time>2018-04-14T08:42:52Z</time>
      </trkpt>
      <trkpt lat="48.35021" lon="2.80865">
        <ele>54.4</ele>
        <time>2018-04-14T08:42:53Z</time>
      </trkpt>
      <trkpt lat="48.35018" lon="2.80859">
        <ele>54.5</ele>
        <time>2018-04-14T08:42:54Z</time>
      </trkpt>
      <trkpt lat="48.35015" lon="2.80852">
        <ele>54.6</ele>
        <time>2018-04-14T08:42:55Z</time>
      </trkpt>
      <trkpt lat="48.35013" lon="2.80844">
        <ele>54.6</ele>
        <time>2018-04-14T08:42:56Z</time>
      </trkpt>
      <trkpt lat="48.35011" lon="2.80836">
        <ele>54.7</ele>
        <time>2018-04-14T08:42:57Z</time>
      </trkpt>
      <trkpt lat="48.35009" lon="2.8083">
        <ele>54.8</ele>
        <time>2018-04-14T08:42:58Z</time>
      </trkpt>
      <trkpt lat="48.35006" lon="2.80824">
        <ele>54.9</ele>
        <time>2018-04-14T08:42:59Z</time>
      </trkpt>
      <trkpt lat="48.35004" lon="2.80817">
        <ele>55</ele>
        <time>2018-04-14T08:43:00Z</time>
      </trkpt>
      <trkpt lat="48.35003" lon="2.80808">
        <ele>55.2</ele>
        <time>2018-04-14T08:43:01Z</time>
      </trkpt>
      <trkpt lat="48.35001" lon="2.808">
        <ele>55.4</ele>
        <time>2018-04-14T08:43:02Z</time>
      </trkpt>
      <trkpt lat="48.34999" lon="2.80795">
        <ele>55.5</ele>
        <time>2018-04-14T08:43:03Z</time>
      </trkpt>
      <trkpt lat="48.34996" lon="2.80789">
        <ele>55.6</ele>
        <time>2018-04-14T08:43:04Z</time>
      </trkpt>
      <trkpt lat="48.34994" lon="2.80782">
        <ele>55.6</ele>
        <time>2018-04-14T08:43:05Z</time>
      </trkpt>
      <trkpt lat="48.34991" lon="2.80775">
        <ele>55.7</ele>
        <time>2018-04-14T08:43:06Z</time>
      </trkpt>
      <trkpt lat="48.34987" lon="2.80768">
        <ele>55.7</ele>
        <time>2018-04-14T08:43:07Z</time>
      </trkpt>
      <trkpt lat="48.34984" lon="2.80759">
        <ele>55.6</ele>
        <time>2018-04-14T08:43:08Z</time>
      </trkpt>
      <trkpt lat="48.34981" lon="2.80753">
        <ele>55.5</ele>
        <time>2018-04-14T08:43:09Z</time>
      </trkpt>
      <trkpt lat="48.34979" lon="2.80747">
        <ele>55.3</ele>
        <time>2018-04-14T08:43:10Z</time>
      </trkpt>
      <trkpt lat="48.34976" lon="2.8074">
        <ele>55.2</ele>
        <time>2018-04-14T08:43:11Z</time>
      </trkpt>
      <trkpt lat="48.34974" lon="2.80734">
        <ele>55</ele>
        <time>2018-04-14T08:43:12Z</time>
      </trkpt>
      <trkpt lat="48.34971" lon="2.80727">
        <ele>54.9</ele>
        <time>2018-04-14T08:43:13Z</time>
      </trkpt>
      <trkpt lat="48.34969" lon="2.8072">
        <ele>54.7</ele>
        <time>2018-04-14T08:43:14Z</time>
      </trkpt>
      <trkpt lat="48.34967" lon="2.80713">
        <ele>54.5</ele>
        <time>2018-04-14T08:43:15Z</time>
      </trkpt>
      <trkpt lat="48.34965" lon="2.80707">
        <ele>54.4</ele>
        <time>2018-04-14T08:43:16Z</time>
      </trkpt>
      <trkpt lat="48.34962" lon="2.80702">
        <ele>54.2</ele>
        <time>2018-04-14T08:43:17Z</time>
      </trkpt>
      <trkpt lat="48.3496" lon="2.80695">
        <ele>54.1</ele>
        <time>2018-04-14T08:43:18Z</time>
      </trkpt>
      <trkpt lat="48.34958" lon="2.80689">
        <ele>54</ele>
        <time>2018-04-14T08:43:19Z</time>
      </trkpt>
      <trkpt lat="48.34956" lon="2.80683">
        <ele>53.9</ele>
        <time>2018-04-14T08:43:20Z</time>
      </trkpt>
      <trkpt lat="48.34953" lon="2.80675">
        <ele>53.7</ele>
        <time>2018-04-14T08:43:21Z</time>
      </trkpt>
      <trkpt lat="48.34951" lon="2.80668">
        <ele>53.6</ele>
        <time>2018-04-14T08:43:22Z</time>
      </trkpt>
      <trkpt lat="48.34949" lon="2.80661">
        <ele>53.5</ele>
        <time>2018-04-14T08:43:23Z</time>
      </trkpt>
      <trkpt lat="48.34946" lon="2.80654">
        <ele>53.3</ele>
        <time>2018-04-14T08:43:24Z</time>
      </trkpt>
      <trkpt lat="48.34945" lon="2.80647">
        <ele>53.2</ele>
        <time>2018-04-14T08:43:25Z</time>
      </trkpt>
      <trkpt lat="48.34942" lon="2.8064">
        <ele>53.1</ele>
        <time>2018-04-14T08:43:26Z</time>
      </trkpt>
      <trkpt lat="48.3494" lon="2.80633">
        <ele>53</ele>
        <time>2018-04-14T08:43:27Z</time>
      </trkpt>
      <trkpt lat="48.34938" lon="2.80625">
        <ele>52.9</ele>
        <time>2018-04-14T08:43:28Z</time>
      </trkpt>
      <trkpt lat="48.34935" lon="2.80618">
        <ele>52.9</ele>
        <time>2018-04-14T08:43:29Z</time>
      </trkpt>
      <trkpt lat="48.34932" lon="2.80611">
        <ele>52.8</ele>
        <time>2018-04-14T08:43:30Z</time>
      </trkpt>
      <trkpt lat="48.3493" lon="2.80603">
        <ele>52.7</ele>
        <time>2018-04-14T08:43:31Z</time>
      </trkpt>
      <trkpt lat="48.34927" lon="2.80594">
        <ele>52.6</ele>
        <time>2018-04-14T08:43:32Z</time>
      </trkpt>
      <trkpt lat="48.34924" lon="2.80586">
        <ele>52.5</ele>
        <time>2018-04-14T08:43:33Z</time>
      </trkpt>
      <trkpt lat="48.34921" lon="2.8058">
        <ele>52.5</ele>
        <time>2018-04-14T08:43:34Z</time>
      </trkpt>
      <trkpt lat="48.34917" lon="2.80573">
        <ele>52.5</ele>
        <time>2018-04-14T08:43:35Z</time>
      </trkpt>
      <trkpt lat="48.34914" lon="2.80567">
        <ele>52.5</ele>
        <time>2018-04-14T08:43:36Z</time>
      </trkpt>
      <trkpt lat="48.34912" lon="2.8056">
        <ele>52.4</ele>
        <time>2018-04-14T08:43:37Z</time>
      </trkpt>
      <trkpt lat="48.34909" lon="2.80554">
        <ele>52.5</ele>
        <time>2018-04-14T08:43:38Z</time>
      </trkpt>
      <trkpt lat="48.34906" lon="2.80549">
        <ele>52.5</ele>
        <time>2018-04-14T08:43:39Z</time>
      </trkpt>
      <trkpt lat="48.34902" lon="2.80543">
        <ele>52.5</ele>
        <time>2018-04-14T08:43:40Z</time>
      </trkpt>
      <trkpt lat="48.34899" lon="2.80538">
        <ele>52.5</ele>
        <time>2018-04-14T08:43:41Z</time>
      </trkpt>
      <trkpt lat="48.34895" lon="2.80532">
        <ele>52.5</ele>
        <time>2018-04-14T08:43:42Z</time>
      </trkpt>
      <trkpt lat="48.34892" lon="2.80526">
        <ele>52.4</ele>
        <time>2018-04-14T08:43:43Z</time>
      </trkpt>
      <trkpt lat="48.3489" lon="2.80518">
        <ele>52.4</ele>
        <time>2018-04-14T08:43:44Z</time>
      </trkpt>
      <trkpt lat="48.34888" lon="2.8051">
        <ele>52.3</ele>
        <time>2018-04-14T08:43:45Z</time>
      </trkpt>
      <trkpt lat="48.34886" lon="2.80502">
        <ele>52.2</ele>
        <time>2018-04-14T08:43:46Z</time>
      </trkpt>
      <trkpt lat="48.34884" lon="2.80494">
        <ele>52</ele>
        <time>2018-04-14T08:43:47Z</time>
      </trkpt>
      <trkpt lat="48.34881" lon="2.80489">
        <ele>52</ele>
        <time>2018-04-14T08:43:48Z</time>
      </trkpt>
      <trkpt lat="48.34879" lon="2.80482">
        <ele>52</ele>
        <time>2018-04-14T08:43:49Z</time>
      </trkpt>
      <trkpt lat="48.34877" lon="2.80474">
        <ele>52</ele>
        <time>2018-04-14T08:43:50Z</time>
      </trkpt>
      <trkpt lat="48.34875" lon="2.80468">
        <ele>52</ele>
        <time>2018-04-14T08:43:51Z</time>
      </trkpt>
      <trkpt lat="48.34872" lon="2.80461">
        <ele>52</ele>
        <time>2018-04-14T08:43:52Z</time>
      </trkpt>
      <trkpt lat="48.34869" lon="2.80453">
        <ele>52</ele>
        <time>2018-04-14T08:43:53Z</time>
      </trkpt>
      <trkpt lat="48.34867" lon="2.80443">
        <ele>52</ele>
        <time>2018-04-14T08:43:54Z</time>
      </trkpt>
      <trkpt lat="48.34865" lon="2.80436">
        <ele>52</ele>
        <time>2018-04-14T08:43:55Z</time>
      </trkpt>
      <trkpt lat="48.34863" lon="2.8043">
        <ele>52</ele>
        <time>2018-04-14T08:43:56Z</time>
      </trkpt>
      <trkpt lat="48.3486" lon="2.80426">
        <ele>52</ele>
        <time>2018-04-14T08:43:57Z</time>
      </trkpt>
      <trkpt lat="48.34858" lon="2.80418">
        <ele>52</ele>
        <time>2018-04-14T08:43:58Z</time>
      </trkpt>
      <trkpt lat="48.34855" lon="2.8041">
        <ele>52.1</ele>
        <time>2018-04-14T08:43:59Z</time>
      </trkpt>
      <trkpt lat="48.34853" lon="2.80402">
        <ele>52.1</ele>
        <time>2018-04-14T08:44:00Z</time>
      </trkpt>
      <trkpt lat="48.3485" lon="2.80394">
        <ele>52.1</ele>
        <time>2018-04-14T08:44:01Z</time>
      </trkpt>
      <trkpt lat="48.34848" lon="2.80386">
        <ele>52.1</ele>
        <time>2018-04-14T08:44:02Z</time>
      </trkpt>
      <trkpt lat="48.34845" lon="2.80378">
        <ele>52</ele>
        <time>2018-04-14T08:44:03Z</time>
      </trkpt>
      <trkpt lat="48.34843" lon="2.80372">
        <ele>52</ele>
        <time>2018-04-14T08:44:04Z</time>
      </trkpt>
      <trkpt lat="48.34841" lon="2.80364">
        <ele>52</ele>
        <time>2018-04-14T08:44:05Z</time>
      </trkpt>
      <trkpt lat="48.34838" lon="2.80356">
        <ele>52</ele>
        <time>2018-04-14T08:44:06Z</time>
      </trkpt>
      <trkpt lat="48.34836" lon="2.80349">
        <ele>52</ele>
        <time>2018-04-14T08:44:07Z</time>
      </trkpt>
      <trkpt lat="48.34834" lon="2.80342">
        <ele>52</ele>
        <time>2018-04-14T08:44:08Z</time>
      </trkpt>
      <trkpt lat="48.34832" lon="2.80336">
        <ele>52</ele>
        <time>2018-04-14T08:44:09Z</time>
      </trkpt>
      <trkpt lat="48.34829" lon="2.80329">
        <ele>52</ele>
        <time>2018-04-14T08:44:10Z</time>
      </trkpt>
      <trkpt lat="48.34826" lon="2.80322">
        <ele>51.9</ele>
        <time>2018-04-14T08:44:11Z</time>
      </trkpt>
      <trkpt lat="48.34824" lon="2.80314">
        <ele>51.9</ele>
        <time>2018-04-14T08:44:12Z</time>
      </trkpt>
      <trkpt lat="48.34821" lon="2.80306">
        <ele>51.9</ele>
        <time>2018-04-14T08:44:13Z</time>
      </trkpt>
      <trkpt lat="48.34818" lon="2.80299">
        <ele>51.8</ele>
        <time>2018-04-14T08:44:14Z</time>
      </trkpt>
      <trkpt lat="48.34816" lon="2.80292">
        <ele>51.8</ele>
        <time>2018-04-14T08:44:15Z</time>
      </trkpt>
      <trkpt lat="48.34813" lon="2.80285">
        <ele>51.7</ele>
        <time>2018-04-14T08:44:16Z</time>
      </trkpt>
      <trkpt lat="48.34811" lon="2.80278">
        <ele>51.7</ele>
        <time>2018-04-14T08:44:17Z</time>
      </trkpt>
      <trkpt lat="48.34808" lon="2.80271">
        <ele>51.6</ele>
        <time>2018-04-14T08:44:18Z</time>
      </trkpt>
      <trkpt lat="48.34806" lon="2.80265">
        <ele>51.5</ele>
        <time>2018-04-14T08:44:19Z</time>
      </trkpt>
      <trkpt lat="48.34804" lon="2.80257">
        <ele>51.4</ele>
        <time>2018-04-14T08:44:20Z</time>
      </trkpt>
      <trkpt lat="48.34801" lon="2.80251">
        <ele>51.2</ele>
        <time>2018-04-14T08:44:21Z</time>
      </trkpt>
      <trkpt lat="48.34799" lon="2.80243">
        <ele>51</ele>
        <time>2018-04-14T08:44:22Z</time>
      </trkpt>
      <trkpt lat="48.34796" lon="2.80236">
        <ele>50.9</ele>
        <time>2018-04-14T08:44:23Z</time>
      </trkpt>
      <trkpt lat="48.34794" lon="2.80229">
        <ele>50.8</ele>
        <time>2018-04-14T08:44:24Z</time>
      </trkpt>
      <trkpt lat="48.34791" lon="2.80224">
        <ele>50.8</ele>
        <time>2018-04-14T08:44:25Z</time>
      </trkpt>
      <trkpt lat="48.34789" lon="2.80217">
        <ele>50.7</ele>
        <time>2018-04-14T08:44:26Z</time>
      </trkpt>
      <trkpt lat="48.34786" lon="2.8021">
        <ele>50.6</ele>
        <time>2018-04-14T08:44:27Z</time>
      </trkpt>
      <trkpt lat="48.34783" lon="2.80203">
        <ele>50.6</ele>
        <time>2018-04-14T08:44:28Z</time>
      </trkpt>
      <trkpt lat="48.34781" lon="2.80198">
        <ele>50.6</ele>
        <time>2018-04-14T08:44:29Z</time>
      </trkpt>
      <trkpt lat="48.34778" lon="2.80192">
        <ele>50.6</ele>
        <time>2018-04-14T08:44:30Z</time>
      </trkpt>
      <trkpt lat="48.34775" lon="2.80185">
        <ele>50.6</ele>
        <time>2018-04-14T08:44:31Z</time>
      </trkpt>
      <trkpt lat="48.34772" lon="2.80178">
        <ele>50.6</ele>
        <time>2018-04-14T08:44:32Z</time>
      </trkpt>
      <trkpt lat="48.3477" lon="2.80171">
        <ele>50.6</ele>
        <time>2018-04-14T08:44:33Z</time>
      </trkpt>
      <trkpt lat="48.34767" lon="2.80162">
        <ele>50.5</ele>
        <time>2018-04-14T08:44:34Z</time>
      </trkpt>
      <trkpt lat="48.34764" lon="2.80155">
        <ele>50.5</ele>
        <time>2018-04-14T08:44:35Z</time>
      </trkpt>
      <trkpt lat="48.34761" lon="2.80149">
        <ele>50.5</ele>
        <time>2018-04-14T08:44:36Z</time>
      </trkpt>
      <trkpt lat="48.34758" lon="2.80144">
        <ele>50.5</ele>
        <time>2018-04-14T08:44:37Z</time>
      </trkpt>
      <trkpt lat="48.34755" lon="2.80137">
        <ele>50.5</ele>
        <time>2018-04-14T08:44:38Z</time>
      </trkpt>
      <trkpt lat="48.34752" lon="2.80131">
        <ele>50.5</ele>
        <time>2018-04-14T08:44:39Z</time>
      </trkpt>
      <trkpt lat="48.34749" lon="2.80125">
        <ele>50.5</ele>
        <time>2018-04-14T08:44:40Z</time>
      </trkpt>
      <trkpt lat="48.34746" lon="2.80119">
        <ele>50.5</ele>
        <time>2018-04-14T08:44:41Z</time>
      </trkpt>
      <trkpt lat="48.34744" lon="2.80114">
        <ele>50.5</ele>
        <time>2018-04-14T08:44:42Z</time>
      </trkpt>
      <trkpt lat="48.34741" lon="2.80107">
        <ele>50.5</ele>
        <time>2018-04-14T08:44:43Z</time>
      </trkpt>
      <trkpt lat="48.34737" lon="2.80102">
        <ele>50.5</ele>
        <time>2018-04-14T08:44:44Z</time>
      </trkpt>
      <trkpt lat="48.34734" lon="2.80097">
        <ele>50.5</ele>
        <time>2018-04-14T08:44:45Z</time>
      </trkpt>
      <trkpt lat="48.34731" lon="2.80092">
        <ele>50.5</ele>
        <time>2018-04-14T08:44:46Z</time>
      </trkpt>
      <trkpt lat="48.34727" lon="2.80087">
        <ele>50.5</ele>
        <time>2018-04-14T08:44:47Z</time>
      </trkpt>
      <trkpt lat="48.34724" lon="2.80082">
        <ele>50.5</ele>
        <time>2018-04-14T08:44:48Z</time>
      </trkpt>
      <trkpt lat="48.3472" lon="2.80076">
        <ele>50.5</ele>
        <time>2018-04-14T08:44:49Z</time>
      </trkpt>
      <trkpt lat="48.34716" lon="2.80071">
        <ele>50.5</ele>
        <time>2018-04-14T08:44:50Z</time>
      </trkpt>
      <trkpt lat="48.34713" lon="2.80065">
        <ele>50.5</ele>
        <time>2018-04-14T08:44:51Z</time>
      </trkpt>
      <trkpt lat="48.3471" lon="2.80059">
        <ele>50.5</ele>
        <time>2018-04-14T08:44:52Z</time>
      </trkpt>
      <trkpt lat="48.34706" lon="2.80054">
        <ele>50.5</ele>
        <time>2018-04-14T08:44:53Z</time>
      </trkpt>
      <trkpt lat="48.34703" lon="2.80048">
        <ele>50.5</ele>
        <time>2018-04-14T08:44:54Z</time>
      </trkpt>
      <trkpt lat="48.347" lon="2.80042">
        <ele>50.6</ele>
        <time>2018-04-14T08:44:55Z</time>
      </trkpt>
      <trkpt lat="48.34697" lon="2.80036">
        <ele>50.6</ele>
        <time>2018-04-14T08:44:56Z</time>
      </trkpt>
      <trkpt lat="48.34693" lon="2.8003">
        <ele>50.6</ele>
        <time>2018-04-14T08:44:57Z</time>
      </trkpt>
      <trkpt lat="48.34689" lon="2.80024">
        <ele>50.6</ele>
        <time>2018-04-14T08:44:58Z</time>
      </trkpt>
      <trkpt lat="48.34685" lon="2.80018">
        <ele>50.6</ele>
        <time>2018-04-14T08:44:59Z</time>
      </trkpt>
      <trkpt lat="48.34681" lon="2.80011">
        <ele>50.6</ele>
        <time>2018-04-14T08:45:00Z</time>
      </trkpt>
      <trkpt lat="48.34677" lon="2.80004">
        <ele>50.6</ele>
        <time>2018-04-14T08:45:01Z</time>
      </trkpt>
      <trkpt lat="48.34673" lon="2.79998">
        <ele>50.6</ele>
        <time>2018-04-14T08:45:02Z</time>
      </trkpt>
      <trkpt lat="48.34669" lon="2.79992">
        <ele>50.6</ele>
        <time>2018-04-14T08:45:03Z</time>
      </trkpt>
      <trkpt lat="48.34665" lon="2.79986">
        <ele>50.6</ele>
        <time>2018-04-14T08:45:04Z</time>
      </trkpt>
      <trkpt lat="48.34661" lon="2.7998">
        <ele>50.6</ele>
        <time>2018-04-14T08:45:05Z</time>
      </trkpt>
      <trkpt lat="48.34657" lon="2.79973">
        <ele>50.6</ele>
        <time>2018-04-14T08:45:06Z</time>
      </trkpt>
      <trkpt lat="48.34653" lon="2.79967">
        <ele>50.6</ele>
        <time>2018-04-14T08:45:07Z</time>
      </trkpt>
      <trkpt lat="48.3465" lon="2.7996">
        <ele>50.6</ele>
        <time>2018-04-14T08:45:08Z</time>
      </trkpt>
      <trkpt lat="48.34646" lon="2.79953">
        <ele>50.6</ele>
        <time>2018-04-14T08:45:09Z</time>
      </trkpt>
      <trkpt lat="48.34643" lon="2.79946">
        <ele>50.7</ele>
        <time>2018-04-14T08:45:10Z</time>
      </trkpt>
      <trkpt lat="48.34638" lon="2.79938">
        <ele>50.7</ele>
        <time>2018-04-14T08:45:11Z</time>
      </trkpt>
      <trkpt lat="48.34634" lon="2.79932">
        <ele>50.7</ele>
        <time>2018-04-14T08:45:12Z</time>
      </trkpt>
      <trkpt lat="48.3463" lon="2.79925">
        <ele>50.7</ele>
        <time>2018-04-14T08:45:13Z</time>
      </trkpt>
      <trkpt lat="48.34626" lon="2.79918">
        <ele>50.7</ele>
        <time>2018-04-14T08:45:14Z</time>
      </trkpt>
      <trkpt lat="48.34622" lon="2.79912">
        <ele>50.7</ele>
        <time>2018-04-14T08:45:15Z</time>
      </trkpt>
      <trkpt lat="48.34619" lon="2.79906">
        <ele>50.7</ele>
        <time>2018-04-14T08:45:16Z</time>
      </trkpt>
      <trkpt lat="48.34615" lon="2.79899">
        <ele>50.7</ele>
        <time>2018-04-14T08:45:17Z</time>
      </trkpt>
      <trkpt lat="48.34613" lon="2.79893">
        <ele>50.7</ele>
        <time>2018-04-14T08:45:18Z</time>
      </trkpt>
      <trkpt lat="48.34609" lon="2.79887">
        <ele>50.7</ele>
        <time>2018-04-14T08:45:19Z</time>
      </trkpt>
      <trkpt lat="48.34605" lon="2.7988">
        <ele>50.7</ele>
        <time>2018-04-14T08:45:20Z</time>
      </trkpt>
      <trkpt lat="48.346" lon="2.79873">
        <ele>50.7</ele>
        <time>2018-04-14T08:45:21Z</time>
      </trkpt>
      <trkpt lat="48.34596" lon="2.79867">
        <ele>50.8</ele>
        <time>2018-04-14T08:45:22Z</time>
      </trkpt>
      <trkpt lat="48.34592" lon="2.7986">
        <ele>50.8</ele>
        <time>2018-04-14T08:45:23Z</time>
      </trkpt>
      <trkpt lat="48.34588" lon="2.79852">
        <ele>50.8</ele>
        <time>2018-04-14T08:45:24Z</time>
      </trkpt>
      <trkpt lat="48.34585" lon="2.79843">
        <ele>50.8</ele>
        <time>2018-04-14T08:45:25Z</time>
      </trkpt>
      <trkpt lat="48.34582" lon="2.79837">
        <ele>50.8</ele>
        <time>2018-04-14T08:45:26Z</time>
      </trkpt>
      <trkpt lat="48.34579" lon="2.79831">
        <ele>50.8</ele>
        <time>2018-04-14T08:45:27Z</time>
      </trkpt>
      <trkpt lat="48.34576" lon="2.79826">
        <ele>50.8</ele>
        <time>2018-04-14T08:45:28Z</time>
      </trkpt>
      <trkpt lat="48.34572" lon="2.7982">
        <ele>50.8</ele>
        <time>2018-04-14T08:45:29Z</time>
      </trkpt>
      <trkpt lat="48.34568" lon="2.79814">
        <ele>50.8</ele>
        <time>2018-04-14T08:45:30Z</time>
      </trkpt>
      <trkpt lat="48.34564" lon="2.79807">
        <ele>50.8</ele>
        <time>2018-04-14T08:45:31Z</time>
      </trkpt>
      <trkpt lat="48.3456" lon="2.798">
        <ele>50.8</ele>
        <time>2018-04-14T08:45:32Z</time>
      </trkpt>
      <trkpt lat="48.34556" lon="2.7979">
        <ele>50.8</ele>
        <time>2018-04-14T08:45:33Z</time>
      </trkpt>
      <trkpt lat="48.34553" lon="2.79782">
        <ele>50.8</ele>
        <time>2018-04-14T08:45:34Z</time>
      </trkpt>
      <trkpt lat="48.3455" lon="2.79776">
        <ele>50.9</ele>
        <time>2018-04-14T08:45:35Z</time>
      </trkpt>
      <trkpt lat="48.34546" lon="2.79769">
        <ele>50.9</ele>
        <time>2018-04-14T08:45:36Z</time>
      </trkpt>
      <trkpt lat="48.34542" lon="2.79762">
        <ele>50.9</ele>
        <time>2018-04-14T08:45:37Z</time>
      </trkpt>
      <trkpt lat="48.34539" lon="2.79754">
        <ele>50.9</ele>
        <time>2018-04-14T08:45:38Z</time>
      </trkpt>
      <trkpt lat="48.34536" lon="2.79746">
        <ele>50.9</ele>
        <time>2018-04-14T08:45:39Z</time>
      </trkpt>
      <trkpt lat="48.34531" lon="2.79737">
        <ele>50.9</ele>
        <time>2018-04-14T08:45:40Z</time>
      </trkpt>
      <trkpt lat="48.34528" lon="2.79732">
        <ele>50.9</ele>
        <time>2018-04-14T08:45:41Z</time>
      </trkpt>
      <trkpt lat="48.34524" lon="2.79724">
        <ele>50.9</ele>
        <time>2018-04-14T08:45:42Z</time>
      </trkpt>
      <trkpt lat="48.3452" lon="2.79717">
        <ele>50.9</ele>
        <time>2018-04-14T08:45:43Z</time>
      </trkpt>
      <trkpt lat="48.34516" lon="2.7971">
        <ele>50.9</ele>
        <time>2018-04-14T08:45:44Z</time>
      </trkpt>
      <trkpt lat="48.34512" lon="2.79704">
        <ele>50.9</ele>
        <time>2018-04-14T08:45:45Z</time>
      </trkpt>
      <trkpt lat="48.34509" lon="2.79699">
        <ele>50.9</ele>
        <time>2018-04-14T08:45:46Z</time>
      </trkpt>
      <trkpt lat="48.34505" lon="2.79692">
        <ele>50.9</ele>
        <time>2018-04-14T08:45:47Z</time>
      </trkpt>
      <trkpt lat="48.34501" lon="2.79685">
        <ele>50.9</ele>
        <time>2018-04-14T08:45:48Z</time>
      </trkpt>
      <trkpt lat="48.34497" lon="2.79678">
        <ele>51</ele>
        <time>2018-04-14T08:45:49Z</time>
      </trkpt>
      <trkpt lat="48.34493" lon="2.7967">
        <ele>51</ele>
        <time>2018-04-14T08:45:50Z</time>
      </trkpt>
      <trkpt lat="48.34487" lon="2.79661">
        <ele>51</ele>
        <time>2018-04-14T08:45:51Z</time>
      </trkpt>
      <trkpt lat="48.34483" lon="2.79653">
        <ele>51</ele>
        <time>2018-04-14T08:45:52Z</time>
      </trkpt>
      <trkpt lat="48.34479" lon="2.79644">
        <ele>51</ele>
        <time>2018-04-14T08:45:53Z</time>
      </trkpt>
      <trkpt lat="48.34475" lon="2.79638">
        <ele>51</ele>
        <time>2018-04-14T08:45:54Z</time>
      </trkpt>
      <trkpt lat="48.34472" lon="2.79631">
        <ele>51</ele>
        <time>2018-04-14T08:45:55Z</time>
      </trkpt>
      <trkpt lat="48.34468" lon="2.79626">
        <ele>51</ele>
        <time>2018-04-14T08:45:56Z</time>
      </trkpt>
      <trkpt lat="48.34464" lon="2.79619">
        <ele>51</ele>
        <time>2018-04-14T08:45:57Z</time>
      </trkpt>
      <trkpt lat="48.34459" lon="2.79612">
        <ele>51</ele>
        <time>2018-04-14T08:45:58Z</time>
      </trkpt>
      <trkpt lat="48.34454" lon="2.79606">
        <ele>51</ele>
        <time>2018-04-14T08:45:59Z</time>
      </trkpt>
      <trkpt lat="48.34451" lon="2.796">
        <ele>51.1</ele>
        <time>2018-04-14T08:46:00Z</time>
      </trkpt>
      <trkpt lat="48.34445" lon="2.79592">
        <ele>51.1</ele>
        <time>2018-04-14T08:46:01Z</time>
      </trkpt>
      <trkpt lat="48.34441" lon="2.79585">
        <ele>51.1</ele>
        <time>2018-04-14T08:46:02Z</time>
      </trkpt>
      <trkpt lat="48.34437" lon="2.79579">
        <ele>51.1</ele>
        <time>2018-04-14T08:46:03Z</time>
      </trkpt>
      <trkpt lat="48.34433" lon="2.79574">
        <ele>51.1</ele>
        <time>2018-04-14T08:46:04Z</time>
      </trkpt>
      <trkpt lat="48.34429" lon="2.79568">
        <ele>51.2</ele>
        <time>2018-04-14T08:46:05Z</time>
      </trkpt>
      <trkpt lat="48.34423" lon="2.79561">
        <ele>51.2</ele>
        <time>2018-04-14T08:46:06Z</time>
      </trkpt>
      <trkpt lat="48.34418" lon="2.79554">
        <ele>51.2</ele>
        <time>2018-04-14T08:46:07Z</time>
      </trkpt>
      <trkpt lat="48.34413" lon="2.79548">
        <ele>51.2</ele>
        <time>2018-04-14T08:46:08Z</time>
      </trkpt>
      <trkpt lat="48.34409" lon="2.7954">
        <ele>51.2</ele>
        <time>2018-04-14T08:46:09Z</time>
      </trkpt>
      <trkpt lat="48.34403" lon="2.79534">
        <ele>51.2</ele>
        <time>2018-04-14T08:46:10Z</time>
      </trkpt>
      <trkpt lat="48.34399" lon="2.79529">
        <ele>51.3</ele>
        <time>2018-04-14T08:46:11Z</time>
      </trkpt>
      <trkpt lat="48.34394" lon="2.79525">
        <ele>51.3</ele>
        <time>2018-04-14T08:46:12Z</time>
      </trkpt>
      <trkpt lat="48.34389" lon="2.79519">
        <ele>51.3</ele>
        <time>2018-04-14T08:46:13Z</time>
      </trkpt>
      <trkpt lat="48.34385" lon="2.79514">
        <ele>51.3</ele>
        <time>2018-04-14T08:46:14Z</time>
      </trkpt>
      <trkpt lat="48.3438" lon="2.79509">
        <ele>51.3</ele>
        <time>2018-04-14T08:46:15Z</time>
      </trkpt>
      <trkpt lat="48.34376" lon="2.79503">
        <ele>51.3</ele>
        <time>2018-04-14T08:46:16Z</time>
      </trkpt>
      <trkpt lat="48.34371" lon="2.79498">
        <ele>51.3</ele>
        <time>2018-04-14T08:46:17Z</time>
      </trkpt>
      <trkpt lat="48.34367" lon="2.79492">
        <ele>51.3</ele>
        <time>2018-04-14T08:46:18Z</time>
      </trkpt>
      <trkpt lat="48.34362" lon="2.79487">
        <ele>51.3</ele>
        <time>2018-04-14T08:46:19Z</time>
      </trkpt>
      <trkpt lat="48.34357" lon="2.79481">
        <ele>51.3</ele>
        <time>2018-04-14T08:46:20Z</time>
      </trkpt>
      <trkpt lat="48.34353" lon="2.79476">
        <ele>51.3</ele>
        <time>2018-04-14T08:46:21Z</time>
      </trkpt>
      <trkpt lat="48.34349" lon="2.7947">
        <ele>51.3</ele>
        <time>2018-04-14T08:46:22Z</time>
      </trkpt>
      <trkpt lat="48.34344" lon="2.79464">
        <ele>51.3</ele>
        <time>2018-04-14T08:46:23Z</time>
      </trkpt>
      <trkpt lat="48.3434" lon="2.79459">
        <ele>51.4</ele>
        <time>2018-04-14T08:46:24Z</time>
      </trkpt>
      <trkpt lat="48.34335" lon="2.79453">
        <ele>51.4</ele>
        <time>2018-04-14T08:46:25Z</time>
      </trkpt>
      <trkpt lat="48.34331" lon="2.79447">
        <ele>51.4</ele>
        <time>2018-04-14T08:46:26Z</time>
      </trkpt>
      <trkpt lat="48.34326" lon="2.79441">
        <ele>51.4</ele>
        <time>2018-04-14T08:46:27Z</time>
      </trkpt>
      <trkpt lat="48.34321" lon="2.79435">
        <ele>51.4</ele>
        <time>2018-04-14T08:46:28Z</time>
      </trkpt>
      <trkpt lat="48.34316" lon="2.79429">
        <ele>51.4</ele>
        <time>2018-04-14T08:46:29Z</time>
      </trkpt>
      <trkpt lat="48.34312" lon="2.79423">
        <ele>51.4</ele>
        <time>2018-04-14T08:46:30Z</time>
      </trkpt>
      <trkpt lat="48.34307" lon="2.79417">
        <ele>51.4</ele>
        <time>2018-04-14T08:46:31Z</time>
      </trkpt>
      <trkpt lat="48.34303" lon="2.79411">
        <ele>51.4</ele>
        <time>2018-04-14T08:46:32Z</time>
      </trkpt>
      <trkpt lat="48.34298" lon="2.79406">
        <ele>51.4</ele>
        <time>2018-04-14T08:46:33Z</time>
      </trkpt>
      <trkpt lat="48.34294" lon="2.794">
        <ele>51.4</ele>
        <time>2018-04-14T08:46:34Z</time>
      </trkpt>
      <trkpt lat="48.34289" lon="2.79394">
        <ele>51.4</ele>
        <time>2018-04-14T08:46:35Z</time>
      </trkpt>
      <trkpt lat="48.34285" lon="2.79388">
        <ele>51.4</ele>
        <time>2018-04-14T08:46:36Z</time>
      </trkpt>
      <trkpt lat="48.3428" lon="2.79381">
        <ele>51.5</ele>
        <time>2018-04-14T08:46:37Z</time>
      </trkpt>
      <trkpt lat="48.34275" lon="2.79376">
        <ele>51.5</ele>
        <time>2018-04-14T08:46:38Z</time>
      </trkpt>
      <trkpt lat="48.34272" lon="2.79369">
        <ele>51.5</ele>
        <time>2018-04-14T08:46:39Z</time>
      </trkpt>
      <trkpt lat="48.34267" lon="2.79365">
        <ele>51.5</ele>
        <time>2018-04-14T08:46:40Z</time>
      </trkpt>
      <trkpt lat="48.34263" lon="2.79361">
        <ele>51.5</ele>
        <time>2018-04-14T08:46:41Z</time>
      </trkpt>
      <trkpt lat="48.34259" lon="2.79355">
        <ele>51.5</ele>
        <time>2018-04-14T08:46:42Z</time>
      </trkpt>
      <trkpt lat="48.34254" lon="2.79349">
        <ele>51.5</ele>
        <time>2018-04-14T08:46:43Z</time>
      </trkpt>
      <trkpt lat="48.34249" lon="2.79344">
        <ele>51.5</ele>
        <time>2018-04-14T08:46:44Z</time>
      </trkpt>
      <trkpt lat="48.34244" lon="2.79339">
        <ele>51.5</ele>
        <time>2018-04-14T08:46:45Z</time>
      </trkpt>
      <trkpt lat="48.34239" lon="2.79335">
        <ele>51.5</ele>
        <time>2018-04-14T08:46:46Z</time>
      </trkpt>
      <trkpt lat="48.34234" lon="2.7933">
        <ele>51.6</ele>
        <time>2018-04-14T08:46:47Z</time>
      </trkpt>
      <trkpt lat="48.34229" lon="2.79326">
        <ele>51.6</ele>
        <time>2018-04-14T08:46:48Z</time>
      </trkpt>
      <trkpt lat="48.34223" lon="2.79322">
        <ele>51.6</ele>
        <time>2018-04-14T08:46:49Z</time>
      </trkpt>
      <trkpt lat="48.34218" lon="2.79316">
        <ele>51.6</ele>
        <time>2018-04-14T08:46:50Z</time>
      </trkpt>
      <trkpt lat="48.34214" lon="2.79313">
        <ele>51.6</ele>
        <time>2018-04-14T08:46:51Z</time>
      </trkpt>
      <trkpt lat="48.34209" lon="2.79308">
        <ele>51.6</ele>
        <time>2018-04-14T08:46:52Z</time>
      </trkpt>
      <trkpt lat="48.34205" lon="2.79302">
        <ele>51.7</ele>
        <time>2018-04-14T08:46:53Z</time>
      </trkpt>
      <trkpt lat="48.342" lon="2.79297">
        <ele>51.7</ele>
        <time>2018-04-14T08:46:54Z</time>
      </trkpt>
      <trkpt lat="48.34195" lon="2.79293">
        <ele>51.7</ele>
        <time>2018-04-14T08:46:55Z</time>
      </trkpt>
      <trkpt lat="48.3419" lon="2.79288">
        <ele>51.7</ele>
        <time>2018-04-14T08:46:56Z</time>
      </trkpt>
      <trkpt lat="48.34186" lon="2.79283">
        <ele>51.8</ele>
        <time>2018-04-14T08:46:57Z</time>
      </trkpt>
      <trkpt lat="48.34181" lon="2.79277">
        <ele>51.8</ele>
        <time>2018-04-14T08:46:58Z</time>
      </trkpt>
      <trkpt lat="48.34177" lon="2.79271">
        <ele>51.8</ele>
        <time>2018-04-14T08:46:59Z</time>
      </trkpt>
      <trkpt lat="48.34171" lon="2.79266">
        <ele>51.8</ele>
        <time>2018-04-14T08:47:00Z</time>
      </trkpt>
      <trkpt lat="48.34166" lon="2.79262">
        <ele>51.8</ele>
        <time>2018-04-14T08:47:01Z</time>
      </trkpt>
      <trkpt lat="48.34161" lon="2.79257">
        <ele>51.9</ele>
        <time>2018-04-14T08:47:02Z</time>
      </trkpt>
      <trkpt lat="48.34157" lon="2.79252">
        <ele>51.9</ele>
        <time>2018-04-14T08:47:03Z</time>
      </trkpt>
      <trkpt lat="48.34152" lon="2.79247">
        <ele>51.9</ele>
        <time>2018-04-14T08:47:04Z</time>
      </trkpt>
      <trkpt lat="48.34147" lon="2.79242">
        <ele>51.9</ele>
        <time>2018-04-14T08:47:05Z</time>
      </trkpt>
      <trkpt lat="48.34141" lon="2.79236">
        <ele>52</ele>
        <time>2018-04-14T08:47:06Z</time>
      </trkpt>
      <trkpt lat="48.34136" lon="2.79232">
        <ele>52</ele>
        <time>2018-04-14T08:47:07Z</time>
      </trkpt>
      <trkpt lat="48.34131" lon="2.79228">
        <ele>52</ele>
        <time>2018-04-14T08:47:08Z</time>
      </trkpt>
      <trkpt lat="48.34126" lon="2.79223">
        <ele>52</ele>
        <time>2018-04-14T08:47:09Z</time>
      </trkpt>
      <trkpt lat="48.34121" lon="2.79218">
        <ele>52</ele>
        <time>2018-04-14T08:47:10Z</time>
      </trkpt>
      <trkpt lat="48.34116" lon="2.79214">
        <ele>52</ele>
        <time>2018-04-14T08:47:11Z</time>
      </trkpt>
      <trkpt lat="48.34111" lon="2.79208">
        <ele>52</ele>
        <time>2018-04-14T08:47:12Z</time>
      </trkpt>
      <trkpt lat="48.34105" lon="2.79202">
        <ele>52.1</ele>
        <time>2018-04-14T08:47:13Z</time>
      </trkpt>
      <trkpt lat="48.341" lon="2.79196">
        <ele>52.1</ele>
        <time>2018-04-14T08:47:14Z</time>
      </trkpt>
      <trkpt lat="48.34095" lon="2.79191">
        <ele>52.1</ele>
        <time>2018-04-14T08:47:15Z</time>
      </trkpt>
      <trkpt lat="48.34089" lon="2.79187">
        <ele>52.1</ele>
        <time>2018-04-14T08:47:16Z</time>
      </trkpt>
      <trkpt lat="48.34084" lon="2.79182">
        <ele>52.1</ele>
        <time>2018-04-14T08:47:17Z</time>
      </trkpt>
      <trkpt lat="48.3408" lon="2.79176">
        <ele>52.1</ele>
        <time>2018-04-14T08:47:18Z</time>
      </trkpt>
      <trkpt lat="48.34075" lon="2.79171">
        <ele>52.1</ele>
        <time>2018-04-14T08:47:19Z</time>
      </trkpt>
      <trkpt lat="48.34071" lon="2.79165">
        <ele>52.1</ele>
        <time>2018-04-14T08:47:20Z</time>
      </trkpt>
      <trkpt lat="48.34065" lon="2.7916">
        <ele>52.1</ele>
        <time>2018-04-14T08:47:21Z</time>
      </trkpt>
      <trkpt lat="48.3406" lon="2.79154">
        <ele>52.1</ele>
        <time>2018-04-14T08:47:22Z</time>
      </trkpt>
      <trkpt lat="48.34055" lon="2.7915">
        <ele>52.1</ele>
        <time>2018-04-14T08:47:23Z</time>
      </trkpt>
      <trkpt lat="48.3405" lon="2.79146">
        <ele>52.1</ele>
        <time>2018-04-14T08:47:24Z</time>
      </trkpt>
      <trkpt lat="48.34044" lon="2.79142">
        <ele>52.2</ele>
        <time>2018-04-14T08:47:25Z</time>
      </trkpt>
      <trkpt lat="48.34039" lon="2.79137">
        <ele>52.2</ele>
        <time>2018-04-14T08:47:26Z</time>
      </trkpt>
      <trkpt lat="48.34034" lon="2.79132">
        <ele>52.2</ele>
        <time>2018-04-14T08:47:27Z</time>
      </trkpt>
      <trkpt lat="48.34029" lon="2.79127">
        <ele>52.2</ele>
        <time>2018-04-14T08:47:28Z</time>
      </trkpt>
      <trkpt lat="48.34024" lon="2.79123">
        <ele>52.2</ele>
        <time>2018-04-14T08:47:29Z</time>
      </trkpt>
      <trkpt lat="48.34018" lon="2.79119">
        <ele>52.2</ele>
        <time>2018-04-14T08:47:30Z</time>
      </trkpt>
      <trkpt lat="48.34013" lon="2.79114">
        <ele>52.2</ele>
        <time>2018-04-14T08:47:31Z</time>
      </trkpt>
      <trkpt lat="48.34009" lon="2.79109">
        <ele>52.2</ele>
        <time>2018-04-14T08:47:32Z</time>
      </trkpt>
      <trkpt lat="48.34004" lon="2.79104">
        <ele>52.2</ele>
        <time>2018-04-14T08:47:33Z</time>
      </trkpt>
      <trkpt lat="48.33998" lon="2.79099">
        <ele>52.2</ele>
        <time>2018-04-14T08:47:34Z</time>
      </trkpt>
      <trkpt lat="48.33993" lon="2.79094">
        <ele>52.2</ele>
        <time>2018-04-14T08:47:35Z</time>
      </trkpt>
      <trkpt lat="48.33988" lon="2.79089">
        <ele>52.2</ele>
        <time>2018-04-14T08:47:36Z</time>
      </trkpt>
      <trkpt lat="48.33983" lon="2.79084">
        <ele>52.2</ele>
        <time>2018-04-14T08:47:37Z</time>
      </trkpt>
      <trkpt lat="48.33978" lon="2.7908">
        <ele>52.3</ele>
        <time>2018-04-14T08:47:38Z</time>
      </trkpt>
      <trkpt lat="48.33973" lon="2.79075">
        <ele>52.3</ele>
        <time>2018-04-14T08:47:39Z</time>
      </trkpt>
      <trkpt lat="48.33968" lon="2.7907">
        <ele>52.3</ele>
        <time>2018-04-14T08:47:40Z</time>
      </trkpt>
      <trkpt lat="48.33963" lon="2.79066">
        <ele>52.3</ele>
        <time>2018-04-14T08:47:41Z</time>
      </trkpt>
      <trkpt lat="48.33957" lon="2.79062">
        <ele>52.3</ele>
        <time>2018-04-14T08:47:42Z</time>
      </trkpt>
      <trkpt lat="48.33952" lon="2.79059">
        <ele>52.3</ele>
        <time>2018-04-14T08:47:43Z</time>
      </trkpt>
      <trkpt lat="48.33947" lon="2.79055">
        <ele>52.3</ele>
        <time>2018-04-14T08:47:44Z</time>
      </trkpt>
      <trkpt lat="48.33942" lon="2.79052">
        <ele>52.3</ele>
        <time>2018-04-14T08:47:45Z</time>
      </trkpt>
      <trkpt lat="48.33937" lon="2.79049">
        <ele>52.3</ele>
        <time>2018-04-14T08:47:46Z</time>
      </trkpt>
      <trkpt lat="48.33931" lon="2.79045">
        <ele>52.3</ele>
        <time>2018-04-14T08:47:47Z</time>
      </trkpt>
      <trkpt lat="48.33926" lon="2.79041">
        <ele>52.3</ele>
        <time>2018-04-14T08:47:48Z</time>
      </trkpt>
      <trkpt lat="48.33921" lon="2.79038">
        <ele>52.4</ele>
        <time>2018-04-14T08:47:49Z</time>
      </trkpt>
      <trkpt lat="48.33915" lon="2.79035">
        <ele>52.4</ele>
        <time>2018-04-14T08:47:50Z</time>
      </trkpt>
      <trkpt lat="48.3391" lon="2.79032">
        <ele>52.4</ele>
        <time>2018-04-14T08:47:51Z</time>
      </trkpt>
      <trkpt lat="48.33904" lon="2.79028">
        <ele>52.4</ele>
        <time>2018-04-14T08:47:52Z</time>
      </trkpt>
      <trkpt lat="48.33899" lon="2.79025">
        <ele>52.4</ele>
        <time>2018-04-14T08:47:53Z</time>
      </trkpt>
      <trkpt lat="48.33893" lon="2.79021">
        <ele>52.4</ele>
        <time>2018-04-14T08:47:54Z</time>
      </trkpt>
      <trkpt lat="48.33888" lon="2.79018">
        <ele>52.4</ele>
        <time>2018-04-14T08:47:55Z</time>
      </trkpt>
      <trkpt lat="48.33882" lon="2.79015">
        <ele>52.4</ele>
        <time>2018-04-14T08:47:56Z</time>
      </trkpt>
      <trkpt lat="48.33877" lon="2.79012">
        <ele>52.4</ele>
        <time>2018-04-14T08:47:57Z</time>
      </trkpt>
      <trkpt lat="48.33872" lon="2.79009">
        <ele>52.4</ele>
        <time>2018-04-14T08:47:58Z</time>
      </trkpt>
      <trkpt lat="48.33867" lon="2.79006">
        <ele>52.4</ele>
        <time>2018-04-14T08:47:59Z</time>
      </trkpt>
      <trkpt lat="48.33862" lon="2.79002">
        <ele>52.4</ele>
        <time>2018-04-14T08:48:00Z</time>
      </trkpt>
      <trkpt lat="48.33857" lon="2.78999">
        <ele>52.5</ele>
        <time>2018-04-14T08:48:01Z</time>
      </trkpt>
      <trkpt lat="48.33851" lon="2.78995">
        <ele>52.5</ele>
        <time>2018-04-14T08:48:02Z</time>
      </trkpt>
      <trkpt lat="48.33846" lon="2.78992">
        <ele>52.5</ele>
        <time>2018-04-14T08:48:03Z</time>
      </trkpt>
      <trkpt lat="48.33841" lon="2.78988">
        <ele>52.5</ele>
        <time>2018-04-14T08:48:04Z</time>
      </trkpt>
      <trkpt lat="48.33836" lon="2.78985">
        <ele>52.5</ele>
        <time>2018-04-14T08:48:05Z</time>
      </trkpt>
      <trkpt lat="48.3383" lon="2.7898">
        <ele>52.6</ele>
        <time>2018-04-14T08:48:06Z</time>
      </trkpt>
      <trkpt lat="48.33825" lon="2.78976">
        <ele>52.6</ele>
        <time>2018-04-14T08:48:07Z</time>
      </trkpt>
      <trkpt lat="48.3382" lon="2.78972">
        <ele>52.6</ele>
        <time>2018-04-14T08:48:08Z</time>
      </trkpt>
      <trkpt lat="48.33815" lon="2.78968">
        <ele>52.7</ele>
        <time>2018-04-14T08:48:09Z</time>
      </trkpt>
      <trkpt lat="48.33809" lon="2.78965">
        <ele>52.7</ele>
        <time>2018-04-14T08:48:10Z</time>
      </trkpt>
      <trkpt lat="48.33804" lon="2.78962">
        <ele>52.7</ele>
        <time>2018-04-14T08:48:11Z</time>
      </trkpt>
      <trkpt lat="48.33799" lon="2.78958">
        <ele>52.7</ele>
        <time>2018-04-14T08:48:12Z</time>
      </trkpt>
      <trkpt lat="48.33793" lon="2.78955">
        <ele>52.7</ele>
        <time>2018-04-14T08:48:13Z</time>
      </trkpt>
      <trkpt lat="48.33787" lon="2.78951">
        <ele>52.8</ele>
        <time>2018-04-14T08:48:14Z</time>
      </trkpt>
      <trkpt lat="48.33782" lon="2.78947">
        <ele>52.8</ele>
        <time>2018-04-14T08:48:15Z</time>
      </trkpt>
      <trkpt lat="48.33776" lon="2.78943">
        <ele>52.8</ele>
        <time>2018-04-14T08:48:16Z</time>
      </trkpt>
      <trkpt lat="48.33771" lon="2.78939">
        <ele>52.8</ele>
        <time>2018-04-14T08:48:17Z</time>
      </trkpt>
      <trkpt lat="48.33766" lon="2.78935">
        <ele>52.8</ele>
        <time>2018-04-14T08:48:18Z</time>
      </trkpt>
      <trkpt lat="48.3376" lon="2.78932">
        <ele>52.8</ele>
        <time>2018-04-14T08:48:19Z</time>
      </trkpt>
      <trkpt lat="48.33754" lon="2.78928">
        <ele>52.9</ele>
        <time>2018-04-14T08:48:20Z</time>
      </trkpt>
      <trkpt lat="48.33749" lon="2.78924">
        <ele>52.9</ele>
        <time>2018-04-14T08:48:21Z</time>
      </trkpt>
      <trkpt lat="48.33745" lon="2.78919">
        <ele>52.9</ele>
        <time>2018-04-14T08:48:22Z</time>
      </trkpt>
      <trkpt lat="48.3374" lon="2.78913">
        <ele>52.9</ele>
        <time>2018-04-14T08:48:23Z</time>
      </trkpt>
      <trkpt lat="48.33737" lon="2.78906">
        <ele>52.9</ele>
        <time>2018-04-14T08:48:24Z</time>
      </trkpt>
      <trkpt lat="48.33734" lon="2.78899">
        <ele>52.9</ele>
        <time>2018-04-14T08:48:25Z</time>
      </trkpt>
      <trkpt lat="48.33731" lon="2.78894">
        <ele>53</ele>
        <time>2018-04-14T08:48:26Z</time>
      </trkpt>
      <trkpt lat="48.3373" lon="2.7889">
        <ele>53</ele>
        <time>2018-04-14T08:48:27Z</time>
      </trkpt>
      <trkpt lat="48.33727" lon="2.78887">
        <ele>53</ele>
        <time>2018-04-14T08:48:28Z</time>
      </trkpt>
      <trkpt lat="48.33723" lon="2.78884">
        <ele>53</ele>
        <time>2018-04-14T08:48:29Z</time>
      </trkpt>
      <trkpt lat="48.33719" lon="2.78879">
        <ele>52.9</ele>
        <time>2018-04-14T08:48:30Z</time>
      </trkpt>
      <trkpt lat="48.33716" lon="2.78875">
        <ele>52.9</ele>
        <time>2018-04-14T08:48:31Z</time>
      </trkpt>
      <trkpt lat="48.33713" lon="2.78869">
        <ele>52.9</ele>
        <time>2018-04-14T08:48:32Z</time>
      </trkpt>
      <trkpt lat="48.3371" lon="2.78864">
        <ele>52.9</ele>
        <time>2018-04-14T08:48:33Z</time>
      </trkpt>
      <trkpt lat="48.33706" lon="2.78858">
        <ele>52.9</ele>
        <time>2018-04-14T08:48:34Z</time>
      </trkpt>
      <trkpt lat="48.33703" lon="2.7885">
        <ele>52.9</ele>
        <time>2018-04-14T08:48:35Z</time>
      </trkpt>
      <trkpt lat="48.33699" lon="2.78842">
        <ele>52.8</ele>
        <time>2018-04-14T08:48:36Z</time>
      </trkpt>
      <trkpt lat="48.33696" lon="2.78835">
        <ele>52.8</ele>
        <time>2018-04-14T08:48:37Z</time>
      </trkpt>
      <trkpt lat="48.33693" lon="2.78828">
        <ele>52.8</ele>
        <time>2018-04-14T08:48:38Z</time>
      </trkpt>
      <trkpt lat="48.33689" lon="2.78822">
        <ele>52.8</ele>
        <time>2018-04-14T08:48:39Z</time>
      </trkpt>
      <trkpt lat="48.33686" lon="2.78816">
        <ele>52.8</ele>
        <time>2018-04-14T08:48:40Z</time>
      </trkpt>
      <trkpt lat="48.33683" lon="2.78809">
        <ele>52.8</ele>
        <time>2018-04-14T08:48:41Z</time>
      </trkpt>
      <trkpt lat="48.3368" lon="2.78803">
        <ele>52.7</ele>
        <time>2018-04-14T08:48:42Z</time>
      </trkpt>
      <trkpt lat="48.33677" lon="2.78796">
        <ele>52.7</ele>
        <time>2018-04-14T08:48:43Z</time>
      </trkpt>
      <trkpt lat="48.33674" lon="2.78789">
        <ele>52.7</ele>
        <time>2018-04-14T08:48:44Z</time>
      </trkpt>
      <trkpt lat="48.33671" lon="2.78783">
        <ele>52.7</ele>
        <time>2018-04-14T08:48:45Z</time>
      </trkpt>
      <trkpt lat="48.33668" lon="2.78776">
        <ele>52.7</ele>
        <time>2018-04-14T08:48:46Z</time>
      </trkpt>
      <trkpt lat="48.33664" lon="2.7877">
        <ele>52.7</ele>
        <time>2018-04-14T08:48:47Z</time>
      </trkpt>
      <trkpt lat="48.33661" lon="2.78764">
        <ele>52.7</ele>
        <time>2018-04-14T08:48:48Z</time>
      </trkpt>
      <trkpt lat="48.33658" lon="2.78758">
        <ele>52.7</ele>
        <time>2018-04-14T08:48:49Z</time>
      </trkpt>
      <trkpt lat="48.33655" lon="2.78752">
        <ele>52.7</ele>
        <time>2018-04-14T08:48:50Z</time>
      </trkpt>
      <trkpt lat="48.33652" lon="2.78746">
        <ele>52.7</ele>
        <time>2018-04-14T08:48:51Z</time>
      </trkpt>
      <trkpt lat="48.33649" lon="2.7874">
        <ele>52.7</ele>
        <time>2018-04-14T08:48:52Z</time>
      </trkpt>
      <trkpt lat="48.33647" lon="2.78734">
        <ele>52.6</ele>
        <time>2018-04-14T08:48:53Z</time>
      </trkpt>
      <trkpt lat="48.33644" lon="2.78728">
        <ele>52.6</ele>
        <time>2018-04-14T08:48:54Z</time>
      </trkpt>
      <trkpt lat="48.33641" lon="2.78723">
        <ele>52.6</ele>
        <time>2018-04-14T08:48:55Z</time>
      </trkpt>
      <trkpt lat="48.33638" lon="2.78717">
        <ele>52.6</ele>
        <time>2018-04-14T08:48:56Z</time>
      </trkpt>
      <trkpt lat="48.33635" lon="2.78712">
        <ele>52.6</ele>
        <time>2018-04-14T08:48:57Z</time>
      </trkpt>
      <trkpt lat="48.33632" lon="2.78707">
        <ele>52.6</ele>
        <time>2018-04-14T08:48:58Z</time>
      </trkpt>
      <trkpt lat="48.33629" lon="2.78701">
        <ele>52.6</ele>
        <time>2018-04-14T08:48:59Z</time>
      </trkpt>
      <trkpt lat="48.33626" lon="2.78695">
        <ele>52.6</ele>
        <time>2018-04-14T08:49:00Z</time>
      </trkpt>
      <trkpt lat="48.33623" lon="2.7869">
        <ele>52.6</ele>
        <time>2018-04-14T08:49:01Z</time>
      </trkpt>
      <trkpt lat="48.3362" lon="2.78684">
        <ele>52.6</ele>
        <time>2018-04-14T08:49:02Z</time>
      </trkpt>
      <trkpt lat="48.33618" lon="2.78679">
        <ele>52.6</ele>
        <time>2018-04-14T08:49:03Z</time>
      </trkpt>
      <trkpt lat="48.33615" lon="2.78673">
        <ele>52.5</ele>
        <time>2018-04-14T08:49:04Z</time>
      </trkpt>
      <trkpt lat="48.33612" lon="2.78668">
        <ele>52.5</ele>
        <time>2018-04-14T08:49:05Z</time>
      </trkpt>
      <trkpt lat="48.33609" lon="2.78662">
        <ele>52.5</ele>
        <time>2018-04-14T08:49:06Z</time>
      </trkpt>
      <trkpt lat="48.33606" lon="2.78656">
        <ele>52.5</ele>
        <time>2018-04-14T08:49:07Z</time>
      </trkpt>
      <trkpt lat="48.33604" lon="2.7865">
        <ele>52.5</ele>
        <time>2018-04-14T08:49:08Z</time>
      </trkpt>
      <trkpt lat="48.33601" lon="2.78644">
        <ele>52.5</ele>
        <time>2018-04-14T08:49:09Z</time>
      </trkpt>
      <trkpt lat="48.33598" lon="2.78638">
        <ele>52.5</ele>
        <time>2018-04-14T08:49:10Z</time>
      </trkpt>
      <trkpt lat="48.33596" lon="2.78632">
        <ele>52.4</ele>
        <time>2018-04-14T08:49:11Z</time>
      </trkpt>
      <trkpt lat="48.33594" lon="2.78626">
        <ele>52.4</ele>
        <time>2018-04-14T08:49:12Z</time>
      </trkpt>
      <trkpt lat="48.33591" lon="2.7862">
        <ele>52.4</ele>
        <time>2018-04-14T08:49:13Z</time>
      </trkpt>
      <trkpt lat="48.33589" lon="2.78615">
        <ele>52.4</ele>
        <time>2018-04-14T08:49:14Z</time>
      </trkpt>
      <trkpt lat="48.33587" lon="2.78608">
        <ele>52.4</ele>
        <time>2018-04-14T08:49:15Z</time>
      </trkpt>
      <trkpt lat="48.33585" lon="2.78602">
        <ele>52.4</ele>
        <time>2018-04-14T08:49:16Z</time>
      </trkpt>
      <trkpt lat="48.33582" lon="2.78596">
        <ele>52.4</ele>
        <time>2018-04-14T08:49:17Z</time>
      </trkpt>
      <trkpt lat="48.3358" lon="2.7859">
        <ele>52.4</ele>
        <time>2018-04-14T08:49:18Z</time>
      </trkpt>
      <trkpt lat="48.33578" lon="2.78583">
        <ele>52.4</ele>
        <time>2018-04-14T08:49:19Z</time>
      </trkpt>
      <trkpt lat="48.33576" lon="2.78577">
        <ele>52.4</ele>
        <time>2018-04-14T08:49:20Z</time>
      </trkpt>
      <trkpt lat="48.33573" lon="2.7857">
        <ele>52.4</ele>
        <time>2018-04-14T08:49:21Z</time>
      </trkpt>
      <trkpt lat="48.3357" lon="2.78564">
        <ele>52.4</ele>
        <time>2018-04-14T08:49:22Z</time>
      </trkpt>
      <trkpt lat="48.33568" lon="2.78557">
        <ele>52.3</ele>
        <time>2018-04-14T08:49:23Z</time>
      </trkpt>
      <trkpt lat="48.33566" lon="2.7855">
        <ele>52.3</ele>
        <time>2018-04-14T08:49:24Z</time>
      </trkpt>
      <trkpt lat="48.33563" lon="2.78543">
        <ele>52.3</ele>
        <time>2018-04-14T08:49:25Z</time>
      </trkpt>
      <trkpt lat="48.3356" lon="2.78537">
        <ele>52.3</ele>
        <time>2018-04-14T08:49:26Z</time>
      </trkpt>
      <trkpt lat="48.33558" lon="2.7853">
        <ele>52.3</ele>
        <time>2018-04-14T08:49:27Z</time>
      </trkpt>
      <trkpt lat="48.33556" lon="2.78523">
        <ele>52.3</ele>
        <time>2018-04-14T08:49:28Z</time>
      </trkpt>
      <trkpt lat="48.33553" lon="2.78516">
        <ele>52.3</ele>
        <time>2018-04-14T08:49:29Z</time>
      </trkpt>
      <trkpt lat="48.33551" lon="2.7851">
        <ele>52.3</ele>
        <time>2018-04-14T08:49:30Z</time>
      </trkpt>
      <trkpt lat="48.33549" lon="2.78505">
        <ele>52.3</ele>
        <time>2018-04-14T08:49:31Z</time>
      </trkpt>
      <trkpt lat="48.33546" lon="2.78499">
        <ele>52.3</ele>
        <time>2018-04-14T08:49:32Z</time>
      </trkpt>
      <trkpt lat="48.33544" lon="2.78493">
        <ele>52.2</ele>
        <time>2018-04-14T08:49:33Z</time>
      </trkpt>
      <trkpt lat="48.33542" lon="2.78488">
        <ele>52.2</ele>
        <time>2018-04-14T08:49:34Z</time>
      </trkpt>
      <trkpt lat="48.3354" lon="2.78481">
        <ele>52.2</ele>
        <time>2018-04-14T08:49:35Z</time>
      </trkpt>
      <trkpt lat="48.33537" lon="2.78475">
        <ele>52.2</ele>
        <time>2018-04-14T08:49:36Z</time>
      </trkpt>
      <trkpt lat="48.33535" lon="2.78469">
        <ele>52.2</ele>
        <time>2018-04-14T08:49:37Z</time>
      </trkpt>
      <trkpt lat="48.33533" lon="2.78463">
        <ele>52.1</ele>
        <time>2018-04-14T08:49:38Z</time>
      </trkpt>
      <trkpt lat="48.33531" lon="2.78455">
        <ele>52.1</ele>
        <time>2018-04-14T08:49:39Z</time>
      </trkpt>
      <trkpt lat="48.33529" lon="2.78449">
        <ele>52.1</ele>
        <time>2018-04-14T08:49:40Z</time>
      </trkpt>
      <trkpt lat="48.33527" lon="2.78442">
        <ele>52.1</ele>
        <time>2018-04-14T08:49:41Z</time>
      </trkpt>
      <trkpt lat="48.33525" lon="2.78435">
        <ele>52.1</ele>
        <time>2018-04-14T08:49:42Z</time>
      </trkpt>
      <trkpt lat="48.33523" lon="2.78426">
        <ele>52</ele>
        <time>2018-04-14T08:49:43Z</time>
      </trkpt>
      <trkpt lat="48.33521" lon="2.78419">
        <ele>52.1</ele>
        <time>2018-04-14T08:49:44Z</time>
      </trkpt>
      <trkpt lat="48.33519" lon="2.78412">
        <ele>52.2</ele>
        <time>2018-04-14T08:49:45Z</time>
      </trkpt>
      <trkpt lat="48.33517" lon="2.78405">
        <ele>52.3</ele>
        <time>2018-04-14T08:49:46Z</time>
      </trkpt>
      <trkpt lat="48.33516" lon="2.78398">
        <ele>52.5</ele>
        <time>2018-04-14T08:49:47Z</time>
      </trkpt>
      <trkpt lat="48.33514" lon="2.7839">
        <ele>52.6</ele>
        <time>2018-04-14T08:49:48Z</time>
      </trkpt>
      <trkpt lat="48.33512" lon="2.78384">
        <ele>52.7</ele>
        <time>2018-04-14T08:49:49Z</time>
      </trkpt>
      <trkpt lat="48.3351" lon="2.78378">
        <ele>52.8</ele>
        <time>2018-04-14T08:49:50Z</time>
      </trkpt>
      <trkpt lat="48.33507" lon="2.78372">
        <ele>52.9</ele>
        <time>2018-04-14T08:49:51Z</time>
      </trkpt>
      <trkpt lat="48.33505" lon="2.78368">
        <ele>53</ele>
        <time>2018-04-14T08:49:52Z</time>
      </trkpt>
      <trkpt lat="48.33504" lon="2.78363">
        <ele>53</ele>
        <time>2018-04-14T08:49:53Z</time>
      </trkpt>
      <trkpt lat="48.33502" lon="2.78357">
        <ele>53</ele>
        <time>2018-04-14T08:49:54Z</time>
      </trkpt>
      <trkpt lat="48.335" lon="2.78351">
        <ele>52.9</ele>
        <time>2018-04-14T08:49:55Z</time>
      </trkpt>
      <trkpt lat="48.33499" lon="2.78345">
        <ele>52.9</ele>
        <time>2018-04-14T08:49:56Z</time>
      </trkpt>
      <trkpt lat="48.33497" lon="2.78338">
        <ele>52.9</ele>
        <time>2018-04-14T08:49:57Z</time>
      </trkpt>
      <trkpt lat="48.33496" lon="2.78331">
        <ele>52.9</ele>
        <time>2018-04-14T08:49:58Z</time>
      </trkpt>
      <trkpt lat="48.33493" lon="2.78325">
        <ele>52.9</ele>
        <time>2018-04-14T08:49:59Z</time>
      </trkpt>
      <trkpt lat="48.33491" lon="2.78318">
        <ele>52.8</ele>
        <time>2018-04-14T08:50:00Z</time>
      </trkpt>
      <trkpt lat="48.33489" lon="2.78309">
        <ele>52.8</ele>
        <time>2018-04-14T08:50:01Z</time>
      </trkpt>
      <trkpt lat="48.33487" lon="2.78304">
        <ele>52.8</ele>
        <time>2018-04-14T08:50:02Z</time>
      </trkpt>
      <trkpt lat="48.33485" lon="2.78298">
        <ele>52.8</ele>
        <time>2018-04-14T08:50:03Z</time>
      </trkpt>
      <trkpt lat="48.33483" lon="2.78291">
        <ele>52.7</ele>
        <time>2018-04-14T08:50:04Z</time>
      </trkpt>
      <trkpt lat="48.33481" lon="2.78283">
        <ele>52.7</ele>
        <time>2018-04-14T08:50:05Z</time>
      </trkpt>
      <trkpt lat="48.33479" lon="2.78275">
        <ele>52.7</ele>
        <time>2018-04-14T08:50:06Z</time>
      </trkpt>
      <trkpt lat="48.33477" lon="2.78268">
        <ele>52.6</ele>
        <time>2018-04-14T08:50:07Z</time>
      </trkpt>
      <trkpt lat="48.33476" lon="2.7826">
        <ele>52.6</ele>
        <time>2018-04-14T08:50:08Z</time>
      </trkpt>
      <trkpt lat="48.33475" lon="2.78253">
        <ele>52.6</ele>
        <time>2018-04-14T08:50:09Z</time>
      </trkpt>
      <trkpt lat="48.33473" lon="2.78245">
        <ele>52.5</ele>
        <time>2018-04-14T08:50:10Z</time>
      </trkpt>
      <trkpt lat="48.33472" lon="2.78238">
        <ele>52.5</ele>
        <time>2018-04-14T08:50:11Z</time>
      </trkpt>
      <trkpt lat="48.3347" lon="2.78232">
        <ele>52.5</ele>
        <time>2018-04-14T08:50:12Z</time>
      </trkpt>
      <trkpt lat="48.33468" lon="2.78225">
        <ele>52.5</ele>
        <time>2018-04-14T08:50:13Z</time>
      </trkpt>
      <trkpt lat="48.33467" lon="2.78219">
        <ele>52.4</ele>
        <time>2018-04-14T08:50:14Z</time>
      </trkpt>
      <trkpt lat="48.33465" lon="2.78213">
        <ele>52.4</ele>
        <time>2018-04-14T08:50:15Z</time>
      </trkpt>
      <trkpt lat="48.33463" lon="2.78208">
        <ele>52.4</ele>
        <time>2018-04-14T08:50:16Z</time>
      </trkpt>
      <trkpt lat="48.33462" lon="2.78201">
        <ele>52.4</ele>
        <time>2018-04-14T08:50:17Z</time>
      </trkpt>
      <trkpt lat="48.3346" lon="2.78195">
        <ele>52.3</ele>
        <time>2018-04-14T08:50:18Z</time>
      </trkpt>
      <trkpt lat="48.33458" lon="2.78189">
        <ele>52.3</ele>
        <time>2018-04-14T08:50:19Z</time>
      </trkpt>
      <trkpt lat="48.33457" lon="2.78183">
        <ele>52.3</ele>
        <time>2018-04-14T08:50:20Z</time>
      </trkpt>
      <trkpt lat="48.33457" lon="2.78176">
        <ele>52.3</ele>
        <time>2018-04-14T08:50:21Z</time>
      </trkpt>
      <trkpt lat="48.33456" lon="2.78171">
        <ele>52.2</ele>
        <time>2018-04-14T08:50:22Z</time>
      </trkpt>
      <trkpt lat="48.33454" lon="2.78166">
        <ele>52.2</ele>
        <time>2018-04-14T08:50:23Z</time>
      </trkpt>
      <trkpt lat="48.33453" lon="2.7816">
        <ele>52.2</ele>
        <time>2018-04-14T08:50:24Z</time>
      </trkpt>
      <trkpt lat="48.33452" lon="2.78155">
        <ele>52.2</ele>
        <time>2018-04-14T08:50:25Z</time>
      </trkpt>
      <trkpt lat="48.33451" lon="2.7815">
        <ele>52.1</ele>
        <time>2018-04-14T08:50:26Z</time>
      </trkpt>
      <trkpt lat="48.3345" lon="2.78145">
        <ele>52.1</ele>
        <time>2018-04-14T08:50:27Z</time>
      </trkpt>
      <trkpt lat="48.33449" lon="2.78141">
        <ele>52.1</ele>
        <time>2018-04-14T08:50:28Z</time>
      </trkpt>
      <trkpt lat="48.33447" lon="2.78134">
        <ele>52</ele>
        <time>2018-04-14T08:50:30Z</time>
      </trkpt>
      <trkpt lat="48.33447" lon="2.78129">
        <ele>52</ele>
        <time>2018-04-14T08:50:32Z</time>
      </trkpt>
      <trkpt lat="48.3345" lon="2.78123">
        <ele>52.2</ele>
        <time>2018-04-14T08:50:34Z</time>
      </trkpt>
      <trkpt lat="48.33453" lon="2.7812">
        <ele>52.3</ele>
        <time>2018-04-14T08:50:35Z</time>
      </trkpt>
      <trkpt lat="48.33456" lon="2.78116">
        <ele>52.5</ele>
        <time>2018-04-14T08:50:36Z</time>
      </trkpt>
      <trkpt lat="48.3346" lon="2.78111">
        <ele>52.6</ele>
        <time>2018-04-14T08:50:37Z</time>
      </trkpt>
      <trkpt lat="48.33465" lon="2.78106">
        <ele>52.9</ele>
        <time>2018-04-14T08:50:38Z</time>
      </trkpt>
      <trkpt lat="48.3347" lon="2.78102">
        <ele>53</ele>
        <time>2018-04-14T08:50:39Z</time>
      </trkpt>
      <trkpt lat="48.33475" lon="2.78097">
        <ele>53.2</ele>
        <time>2018-04-14T08:50:40Z</time>
      </trkpt>
      <trkpt lat="48.3348" lon="2.78093">
        <ele>53.4</ele>
        <time>2018-04-14T08:50:41Z</time>
      </trkpt>
      <trkpt lat="48.33485" lon="2.78089">
        <ele>53.5</ele>
        <time>2018-04-14T08:50:42Z</time>
      </trkpt>
      <trkpt lat="48.3349" lon="2.78085">
        <ele>53.7</ele>
        <time>2018-04-14T08:50:43Z</time>
      </trkpt>
      <trkpt lat="48.33495" lon="2.78081">
        <ele>53.9</ele>
        <time>2018-04-14T08:50:44Z</time>
      </trkpt>
      <trkpt lat="48.33499" lon="2.78077">
        <ele>54</ele>
        <time>2018-04-14T08:50:45Z</time>
      </trkpt>
      <trkpt lat="48.33503" lon="2.78073">
        <ele>54</ele>
        <time>2018-04-14T08:50:46Z</time>
      </trkpt>
      <trkpt lat="48.33507" lon="2.78068">
        <ele>54</ele>
        <time>2018-04-14T08:50:47Z</time>
      </trkpt>
      <trkpt lat="48.33512" lon="2.78062">
        <ele>54</ele>
        <time>2018-04-14T08:50:48Z</time>
      </trkpt>
      <trkpt lat="48.33516" lon="2.78056">
        <ele>54</ele>
        <time>2018-04-14T08:50:49Z</time>
      </trkpt>
      <trkpt lat="48.3352" lon="2.7805">
        <ele>54</ele>
        <time>2018-04-14T08:50:50Z</time>
      </trkpt>
      <trkpt lat="48.33523" lon="2.78044">
        <ele>54</ele>
        <time>2018-04-14T08:50:51Z</time>
      </trkpt>
      <trkpt lat="48.33527" lon="2.78038">
        <ele>54</ele>
        <time>2018-04-14T08:50:52Z</time>
      </trkpt>
      <trkpt lat="48.33531" lon="2.78032">
        <ele>54</ele>
        <time>2018-04-14T08:50:53Z</time>
      </trkpt>
      <trkpt lat="48.33535" lon="2.78024">
        <ele>54</ele>
        <time>2018-04-14T08:50:54Z</time>
      </trkpt>
      <trkpt lat="48.33539" lon="2.78017">
        <ele>54</ele>
        <time>2018-04-14T08:50:55Z</time>
      </trkpt>
      <trkpt lat="48.33543" lon="2.78011">
        <ele>54</ele>
        <time>2018-04-14T08:50:56Z</time>
      </trkpt>
      <trkpt lat="48.33547" lon="2.78006">
        <ele>54</ele>
        <time>2018-04-14T08:50:57Z</time>
      </trkpt>
      <trkpt lat="48.33551" lon="2.78">
        <ele>54</ele>
        <time>2018-04-14T08:50:58Z</time>
      </trkpt>
      <trkpt lat="48.33556" lon="2.77994">
        <ele>54</ele>
        <time>2018-04-14T08:50:59Z</time>
      </trkpt>
      <trkpt lat="48.33561" lon="2.77988">
        <ele>54</ele>
        <time>2018-04-14T08:51:00Z</time>
      </trkpt>
      <trkpt lat="48.33566" lon="2.77983">
        <ele>54</ele>
        <time>2018-04-14T08:51:01Z</time>
      </trkpt>
      <trkpt lat="48.3357" lon="2.77978">
        <ele>54</ele>
        <time>2018-04-14T08:51:02Z</time>
      </trkpt>
      <trkpt lat="48.33576" lon="2.77974">
        <ele>54</ele>
        <time>2018-04-14T08:51:03Z</time>
      </trkpt>
      <trkpt lat="48.33582" lon="2.77971">
        <ele>53.8</ele>
        <time>2018-04-14T08:51:04Z</time>
      </trkpt>
      <trkpt lat="48.33588" lon="2.77969">
        <ele>53.7</ele>
        <time>2018-04-14T08:51:05Z</time>
      </trkpt>
      <trkpt lat="48.33593" lon="2.77968">
        <ele>53.6</ele>
        <time>2018-04-14T08:51:06Z</time>
      </trkpt>
      <trkpt lat="48.33599" lon="2.77967">
        <ele>53.5</ele>
        <time>2018-04-14T08:51:07Z</time>
      </trkpt>
      <trkpt lat="48.33606" lon="2.77966">
        <ele>53.4</ele>
        <time>2018-04-14T08:51:08Z</time>
      </trkpt>
      <trkpt lat="48.33612" lon="2.77965">
        <ele>53.3</ele>
        <time>2018-04-14T08:51:09Z</time>
      </trkpt>
      <trkpt lat="48.33618" lon="2.77965">
        <ele>53.2</ele>
        <time>2018-04-14T08:51:10Z</time>
      </trkpt>
      <trkpt lat="48.33624" lon="2.77964">
        <ele>53.2</ele>
        <time>2018-04-14T08:51:11Z</time>
      </trkpt>
      <trkpt lat="48.3363" lon="2.77964">
        <ele>53.1</ele>
        <time>2018-04-14T08:51:12Z</time>
      </trkpt>
      <trkpt lat="48.33635" lon="2.77963">
        <ele>53</ele>
        <time>2018-04-14T08:51:13Z</time>
      </trkpt>
      <trkpt lat="48.33641" lon="2.77962">
        <ele>53</ele>
        <time>2018-04-14T08:51:14Z</time>
      </trkpt>
      <trkpt lat="48.33647" lon="2.77961">
        <ele>52.9</ele>
        <time>2018-04-14T08:51:15Z</time>
      </trkpt>
      <trkpt lat="48.33653" lon="2.7796">
        <ele>52.8</ele>
        <time>2018-04-14T08:51:16Z</time>
      </trkpt>
      <trkpt lat="48.33659" lon="2.7796">
        <ele>52.8</ele>
        <time>2018-04-14T08:51:17Z</time>
      </trkpt>
      <trkpt lat="48.33665" lon="2.7796">
        <ele>52.7</ele>
        <time>2018-04-14T08:51:18Z</time>
      </trkpt>
      <trkpt lat="48.3367" lon="2.77959">
        <ele>52.6</ele>
        <time>2018-04-14T08:51:19Z</time>
      </trkpt>
      <trkpt lat="48.33676" lon="2.77958">
        <ele>52.5</ele>
        <time>2018-04-14T08:51:20Z</time>
      </trkpt>
      <trkpt lat="48.33682" lon="2.77958">
        <ele>52.5</ele>
        <time>2018-04-14T08:51:21Z</time>
      </trkpt>
      <trkpt lat="48.33687" lon="2.77956">
        <ele>52.4</ele>
        <time>2018-04-14T08:51:22Z</time>
      </trkpt>
      <trkpt lat="48.33693" lon="2.77955">
        <ele>52.3</ele>
        <time>2018-04-14T08:51:23Z</time>
      </trkpt>
      <trkpt lat="48.33699" lon="2.77953">
        <ele>52.2</ele>
        <time>2018-04-14T08:51:24Z</time>
      </trkpt>
      <trkpt lat="48.33705" lon="2.77951">
        <ele>52.1</ele>
        <time>2018-04-14T08:51:25Z</time>
      </trkpt>
      <trkpt lat="48.33711" lon="2.77948">
        <ele>52</ele>
        <time>2018-04-14T08:51:26Z</time>
      </trkpt>
      <trkpt lat="48.33717" lon="2.77946">
        <ele>51.9</ele>
        <time>2018-04-14T08:51:27Z</time>
      </trkpt>
      <trkpt lat="48.33722" lon="2.77943">
        <ele>51.8</ele>
        <time>2018-04-14T08:51:28Z</time>
      </trkpt>
      <trkpt lat="48.33728" lon="2.7794">
        <ele>51.7</ele>
        <time>2018-04-14T08:51:29Z</time>
      </trkpt>
      <trkpt lat="48.33734" lon="2.77936">
        <ele>51.5</ele>
        <time>2018-04-14T08:51:30Z</time>
      </trkpt>
      <trkpt lat="48.3374" lon="2.77932">
        <ele>51.4</ele>
        <time>2018-04-14T08:51:31Z</time>
      </trkpt>
      <trkpt lat="48.33745" lon="2.77928">
        <ele>51.3</ele>
        <time>2018-04-14T08:51:32Z</time>
      </trkpt>
      <trkpt lat="48.33751" lon="2.77924">
        <ele>51.2</ele>
        <time>2018-04-14T08:51:33Z</time>
      </trkpt>
      <trkpt lat="48.33755" lon="2.77919">
        <ele>51.1</ele>
        <time>2018-04-14T08:51:34Z</time>
      </trkpt>
      <trkpt lat="48.3376" lon="2.77913">
        <ele>51</ele>
        <time>2018-04-14T08:51:35Z</time>
      </trkpt>
      <trkpt lat="48.33765" lon="2.77908">
        <ele>50.9</ele>
        <time>2018-04-14T08:51:36Z</time>
      </trkpt>
      <trkpt lat="48.3377" lon="2.779">
        <ele>50.9</ele>
        <time>2018-04-14T08:51:37Z</time>
      </trkpt>
      <trkpt lat="48.33774" lon="2.77894">
        <ele>50.8</ele>
        <time>2018-04-14T08:51:38Z</time>
      </trkpt>
      <trkpt lat="48.33778" lon="2.77888">
        <ele>50.7</ele>
        <time>2018-04-14T08:51:39Z</time>
      </trkpt>
      <trkpt lat="48.33783" lon="2.77881">
        <ele>50.7</ele>
        <time>2018-04-14T08:51:40Z</time>
      </trkpt>
      <trkpt lat="48.33787" lon="2.77875">
        <ele>50.6</ele>
        <time>2018-04-14T08:51:41Z</time>
      </trkpt>
      <trkpt lat="48.33791" lon="2.77869">
        <ele>50.6</ele>
        <time>2018-04-14T08:51:42Z</time>
      </trkpt>
      <trkpt lat="48.33795" lon="2.77863">
        <ele>50.5</ele>
        <time>2018-04-14T08:51:43Z</time>
      </trkpt>
      <trkpt lat="48.33799" lon="2.77857">
        <ele>50.5</ele>
        <time>2018-04-14T08:51:44Z</time>
      </trkpt>
      <trkpt lat="48.33803" lon="2.7785">
        <ele>50.4</ele>
        <time>2018-04-14T08:51:45Z</time>
      </trkpt>
      <trkpt lat="48.33808" lon="2.77844">
        <ele>50.4</ele>
        <time>2018-04-14T08:51:46Z</time>
      </trkpt>
      <trkpt lat="48.33812" lon="2.77838">
        <ele>50.3</ele>
        <time>2018-04-14T08:51:47Z</time>
      </trkpt>
      <trkpt lat="48.33816" lon="2.77832">
        <ele>50.3</ele>
        <time>2018-04-14T08:51:48Z</time>
      </trkpt>
      <trkpt lat="48.33821" lon="2.77825">
        <ele>50.2</ele>
        <time>2018-04-14T08:51:49Z</time>
      </trkpt>
      <trkpt lat="48.33825" lon="2.77819">
        <ele>50.1</ele>
        <time>2018-04-14T08:51:50Z</time>
      </trkpt>
      <trkpt lat="48.33829" lon="2.77813">
        <ele>50.1</ele>
        <time>2018-04-14T08:51:51Z</time>
      </trkpt>
      <trkpt lat="48.33834" lon="2.77806">
        <ele>50</ele>
        <time>2018-04-14T08:51:52Z</time>
      </trkpt>
      <trkpt lat="48.33839" lon="2.77799">
        <ele>50</ele>
        <time>2018-04-14T08:51:53Z</time>
      </trkpt>
      <trkpt lat="48.33843" lon="2.77793">
        <ele>49.9</ele>
        <time>2018-04-14T08:51:54Z</time>
      </trkpt>
      <trkpt lat="48.33847" lon="2.77787">
        <ele>49.9</ele>
        <time>2018-04-14T08:51:55Z</time>
      </trkpt>
      <trkpt lat="48.33851" lon="2.77781">
        <ele>49.8</ele>
        <time>2018-04-14T08:51:56Z</time>
      </trkpt>
      <trkpt lat="48.33855" lon="2.77775">
        <ele>49.7</ele>
        <time>2018-04-14T08:51:57Z</time>
      </trkpt>
      <trkpt lat="48.33859" lon="2.77769">
        <ele>49.7</ele>
        <time>2018-04-14T08:51:58Z</time>
      </trkpt>
      <trkpt lat="48.33863" lon="2.77763">
        <ele>49.6</ele>
        <time>2018-04-14T08:51:59Z</time>
      </trkpt>
      <trkpt lat="48.33867" lon="2.77756">
        <ele>49.6</ele>
        <time>2018-04-14T08:52:00Z</time>
      </trkpt>
      <trkpt lat="48.33871" lon="2.7775">
        <ele>49.5</ele>
        <time>2018-04-14T08:52:01Z</time>
      </trkpt>
      <trkpt lat="48.33876" lon="2.77743">
        <ele>49.4</ele>
        <time>2018-04-14T08:52:02Z</time>
      </trkpt>
      <trkpt lat="48.3388" lon="2.77737">
        <ele>49.3</ele>
        <time>2018-04-14T08:52:03Z</time>
      </trkpt>
      <trkpt lat="48.33884" lon="2.7773">
        <ele>49.3</ele>
        <time>2018-04-14T08:52:04Z</time>
      </trkpt>
      <trkpt lat="48.33888" lon="2.77724">
        <ele>49.2</ele>
        <time>2018-04-14T08:52:05Z</time>
      </trkpt>
      <trkpt lat="48.33892" lon="2.77718">
        <ele>49.1</ele>
        <time>2018-04-14T08:52:06Z</time>
      </trkpt>
      <trkpt lat="48.33896" lon="2.77711">
        <ele>49</ele>
        <time>2018-04-14T08:52:07Z</time>
      </trkpt>
      <trkpt lat="48.339" lon="2.77705">
        <ele>49.1</ele>
        <time>2018-04-14T08:52:08Z</time>
      </trkpt>
      <trkpt lat="48.33904" lon="2.77699">
        <ele>49.2</ele>
        <time>2018-04-14T08:52:09Z</time>
      </trkpt>
      <trkpt lat="48.33908" lon="2.77692">
        <ele>49.3</ele>
        <time>2018-04-14T08:52:10Z</time>
      </trkpt>
      <trkpt lat="48.33912" lon="2.77687">
        <ele>49.5</ele>
        <time>2018-04-14T08:52:11Z</time>
      </trkpt>
      <trkpt lat="48.33916" lon="2.77681">
        <ele>49.6</ele>
        <time>2018-04-14T08:52:12Z</time>
      </trkpt>
      <trkpt lat="48.3392" lon="2.77675">
        <ele>49.7</ele>
        <time>2018-04-14T08:52:13Z</time>
      </trkpt>
      <trkpt lat="48.33923" lon="2.77669">
        <ele>49.8</ele>
        <time>2018-04-14T08:52:14Z</time>
      </trkpt>
      <trkpt lat="48.33928" lon="2.77663">
        <ele>50</ele>
        <time>2018-04-14T08:52:15Z</time>
      </trkpt>
      <trkpt lat="48.33932" lon="2.77657">
        <ele>50.1</ele>
        <time>2018-04-14T08:52:16Z</time>
      </trkpt>
      <trkpt lat="48.33936" lon="2.77651">
        <ele>50.3</ele>
        <time>2018-04-14T08:52:17Z</time>
      </trkpt>
      <trkpt lat="48.3394" lon="2.77645">
        <ele>50.4</ele>
        <time>2018-04-14T08:52:18Z</time>
      </trkpt>
      <trkpt lat="48.33944" lon="2.77639">
        <ele>50.5</ele>
        <time>2018-04-14T08:52:19Z</time>
      </trkpt>
      <trkpt lat="48.33948" lon="2.77633">
        <ele>50.7</ele>
        <time>2018-04-14T08:52:20Z</time>
      </trkpt>
      <trkpt lat="48.33951" lon="2.77627">
        <ele>50.8</ele>
        <time>2018-04-14T08:52:21Z</time>
      </trkpt>
      <trkpt lat="48.33954" lon="2.77621">
        <ele>50.9</ele>
        <time>2018-04-14T08:52:22Z</time>
      </trkpt>
      <trkpt lat="48.33958" lon="2.77615">
        <ele>51</ele>
        <time>2018-04-14T08:52:23Z</time>
      </trkpt>
      <trkpt lat="48.33962" lon="2.7761">
        <ele>51.1</ele>
        <time>2018-04-14T08:52:24Z</time>
      </trkpt>
      <trkpt lat="48.33966" lon="2.77604">
        <ele>51.3</ele>
        <time>2018-04-14T08:52:25Z</time>
      </trkpt>
      <trkpt lat="48.3397" lon="2.77598">
        <ele>51.4</ele>
        <time>2018-04-14T08:52:26Z</time>
      </trkpt>
      <trkpt lat="48.33973" lon="2.77592">
        <ele>51.5</ele>
        <time>2018-04-14T08:52:27Z</time>
      </trkpt>
      <trkpt lat="48.33977" lon="2.77586">
        <ele>51.7</ele>
        <time>2018-04-14T08:52:28Z</time>
      </trkpt>
      <trkpt lat="48.3398" lon="2.7758">
        <ele>51.8</ele>
        <time>2018-04-14T08:52:29Z</time>
      </trkpt>
      <trkpt lat="48.33984" lon="2.77575">
        <ele>51.9</ele>
        <time>2018-04-14T08:52:30Z</time>
      </trkpt>
      <trkpt lat="48.33987" lon="2.77569">
        <ele>52</ele>
        <time>2018-04-14T08:52:31Z</time>
      </trkpt>
      <trkpt lat="48.3399" lon="2.77564">
        <ele>52.1</ele>
        <time>2018-04-14T08:52:32Z</time>
      </trkpt>
      <trkpt lat="48.33994" lon="2.77558">
        <ele>52.2</ele>
        <time>2018-04-14T08:52:33Z</time>
      </trkpt>
      <trkpt lat="48.33997" lon="2.77553">
        <ele>52.4</ele>
        <time>2018-04-14T08:52:34Z</time>
      </trkpt>
      <trkpt lat="48.34" lon="2.77548">
        <ele>52.5</ele>
        <time>2018-04-14T08:52:35Z</time>
      </trkpt>
      <trkpt lat="48.34004" lon="2.77543">
        <ele>52.6</ele>
        <time>2018-04-14T08:52:36Z</time>
      </trkpt>
      <trkpt lat="48.34007" lon="2.77538">
        <ele>52.7</ele>
        <time>2018-04-14T08:52:37Z</time>
      </trkpt>
      <trkpt lat="48.3401" lon="2.77534">
        <ele>52.8</ele>
        <time>2018-04-14T08:52:38Z</time>
      </trkpt>
      <trkpt lat="48.34013" lon="2.77529">
        <ele>52.9</ele>
        <time>2018-04-14T08:52:39Z</time>
      </trkpt>
      <trkpt lat="48.34016" lon="2.77523">
        <ele>53</ele>
        <time>2018-04-14T08:52:40Z</time>
      </trkpt>
      <trkpt lat="48.34019" lon="2.77518">
        <ele>53.1</ele>
        <time>2018-04-14T08:52:41Z</time>
      </trkpt>
      <trkpt lat="48.34023" lon="2.77513">
        <ele>53.2</ele>
        <time>2018-04-14T08:52:42Z</time>
      </trkpt>
      <trkpt lat="48.34026" lon="2.77508">
        <ele>53.4</ele>
        <time>2018-04-14T08:52:43Z</time>
      </trkpt>
      <trkpt lat="48.3403" lon="2.77503">
        <ele>53.5</ele>
        <time>2018-04-14T08:52:44Z</time>
      </trkpt>
      <trkpt lat="48.34034" lon="2.77499">
        <ele>53.7</ele>
        <time>2018-04-14T08:52:45Z</time>
      </trkpt>
      <trkpt lat="48.34038" lon="2.77495">
        <ele>53.8</ele>
        <time>2018-04-14T08:52:46Z</time>
      </trkpt>
      <trkpt lat="48.34042" lon="2.7749">
        <ele>54</ele>
        <time>2018-04-14T08:52:47Z</time>
      </trkpt>
      <trkpt lat="48.34046" lon="2.77486">
        <ele>54.2</ele>
        <time>2018-04-14T08:52:48Z</time>
      </trkpt>
      <trkpt lat="48.3405" lon="2.77483">
        <ele>54.5</ele>
        <time>2018-04-14T08:52:49Z</time>
      </trkpt>
      <trkpt lat="48.34054" lon="2.7748">
        <ele>54.7</ele>
        <time>2018-04-14T08:52:50Z</time>
      </trkpt>
      <trkpt lat="48.34059" lon="2.77477">
        <ele>55.1</ele>
        <time>2018-04-14T08:52:51Z</time>
      </trkpt>
      <trkpt lat="48.34063" lon="2.77474">
        <ele>55.4</ele>
        <time>2018-04-14T08:52:52Z</time>
      </trkpt>
      <trkpt lat="48.34067" lon="2.77472">
        <ele>55.7</ele>
        <time>2018-04-14T08:52:53Z</time>
      </trkpt>
      <trkpt lat="48.34072" lon="2.77471">
        <ele>56.1</ele>
        <time>2018-04-14T08:52:54Z</time>
      </trkpt>
      <trkpt lat="48.34076" lon="2.77469">
        <ele>56.5</ele>
        <time>2018-04-14T08:52:55Z</time>
      </trkpt>
      <trkpt lat="48.34081" lon="2.77467">
        <ele>56.9</ele>
        <time>2018-04-14T08:52:56Z</time>
      </trkpt>
      <trkpt lat="48.34085" lon="2.77466">
        <ele>56.8</ele>
        <time>2018-04-14T08:52:57Z</time>
      </trkpt>
      <trkpt lat="48.3409" lon="2.77465">
        <ele>56.3</ele>
        <time>2018-04-14T08:52:58Z</time>
      </trkpt>
      <trkpt lat="48.34095" lon="2.77464">
        <ele>56</ele>
        <time>2018-04-14T08:52:59Z</time>
      </trkpt>
      <trkpt lat="48.34099" lon="2.77463">
        <ele>55.7</ele>
        <time>2018-04-14T08:53:00Z</time>
      </trkpt>
      <trkpt lat="48.34103" lon="2.77462">
        <ele>55.6</ele>
        <time>2018-04-14T08:53:01Z</time>
      </trkpt>
      <trkpt lat="48.34107" lon="2.77461">
        <ele>55.4</ele>
        <time>2018-04-14T08:53:02Z</time>
      </trkpt>
      <trkpt lat="48.34112" lon="2.7746">
        <ele>55.2</ele>
        <time>2018-04-14T08:53:03Z</time>
      </trkpt>
      <trkpt lat="48.34117" lon="2.77459">
        <ele>54.9</ele>
        <time>2018-04-14T08:53:04Z</time>
      </trkpt>
      <trkpt lat="48.34122" lon="2.77458">
        <ele>54.7</ele>
        <time>2018-04-14T08:53:05Z</time>
      </trkpt>
      <trkpt lat="48.34127" lon="2.77458">
        <ele>54.5</ele>
        <time>2018-04-14T08:53:06Z</time>
      </trkpt>
      <trkpt lat="48.34132" lon="2.77457">
        <ele>54.3</ele>
        <time>2018-04-14T08:53:07Z</time>
      </trkpt>
      <trkpt lat="48.34137" lon="2.77456">
        <ele>54</ele>
        <time>2018-04-14T08:53:08Z</time>
      </trkpt>
      <trkpt lat="48.34142" lon="2.77455">
        <ele>54.1</ele>
        <time>2018-04-14T08:53:09Z</time>
      </trkpt>
      <trkpt lat="48.34147" lon="2.77454">
        <ele>54.1</ele>
        <time>2018-04-14T08:53:10Z</time>
      </trkpt>
      <trkpt lat="48.34152" lon="2.77453">
        <ele>54.2</ele>
        <time>2018-04-14T08:53:11Z</time>
      </trkpt>
      <trkpt lat="48.34158" lon="2.77451">
        <ele>54.3</ele>
        <time>2018-04-14T08:53:12Z</time>
      </trkpt>
      <trkpt lat="48.34163" lon="2.7745">
        <ele>54.4</ele>
        <time>2018-04-14T08:53:13Z</time>
      </trkpt>
      <trkpt lat="48.34168" lon="2.77448">
        <ele>54.4</ele>
        <time>2018-04-14T08:53:14Z</time>
      </trkpt>
      <trkpt lat="48.34173" lon="2.77446">
        <ele>54.5</ele>
        <time>2018-04-14T08:53:15Z</time>
      </trkpt>
      <trkpt lat="48.34179" lon="2.77443">
        <ele>54.6</ele>
        <time>2018-04-14T08:53:16Z</time>
      </trkpt>
      <trkpt lat="48.34184" lon="2.7744">
        <ele>54.7</ele>
        <time>2018-04-14T08:53:17Z</time>
      </trkpt>
      <trkpt lat="48.34189" lon="2.77437">
        <ele>54.8</ele>
        <time>2018-04-14T08:53:18Z</time>
      </trkpt>
      <trkpt lat="48.34194" lon="2.77435">
        <ele>54.9</ele>
        <time>2018-04-14T08:53:19Z</time>
      </trkpt>
      <trkpt lat="48.34199" lon="2.77432">
        <ele>55</ele>
        <time>2018-04-14T08:53:20Z</time>
      </trkpt>
      <trkpt lat="48.34204" lon="2.7743">
        <ele>55.1</ele>
        <time>2018-04-14T08:53:21Z</time>
      </trkpt>
      <trkpt lat="48.3421" lon="2.77427">
        <ele>55.3</ele>
        <time>2018-04-14T08:53:22Z</time>
      </trkpt>
      <trkpt lat="48.34214" lon="2.77423">
        <ele>55.5</ele>
        <time>2018-04-14T08:53:23Z</time>
      </trkpt>
      <trkpt lat="48.34219" lon="2.7742">
        <ele>55.7</ele>
        <time>2018-04-14T08:53:24Z</time>
      </trkpt>
      <trkpt lat="48.34224" lon="2.77416">
        <ele>55.8</ele>
        <time>2018-04-14T08:53:25Z</time>
      </trkpt>
      <trkpt lat="48.34229" lon="2.77413">
        <ele>56</ele>
        <time>2018-04-14T08:53:26Z</time>
      </trkpt>
      <trkpt lat="48.34233" lon="2.7741">
        <ele>56</ele>
        <time>2018-04-14T08:53:27Z</time>
      </trkpt>
      <trkpt lat="48.34238" lon="2.77406">
        <ele>55.9</ele>
        <time>2018-04-14T08:53:28Z</time>
      </trkpt>
      <trkpt lat="48.34243" lon="2.77403">
        <ele>55.8</ele>
        <time>2018-04-14T08:53:29Z</time>
      </trkpt>
      <trkpt lat="48.34247" lon="2.77398">
        <ele>55.8</ele>
        <time>2018-04-14T08:53:30Z</time>
      </trkpt>
      <trkpt lat="48.34252" lon="2.77395">
        <ele>55.7</ele>
        <time>2018-04-14T08:53:31Z</time>
      </trkpt>
      <trkpt lat="48.34257" lon="2.77391">
        <ele>55.6</ele>
        <time>2018-04-14T08:53:32Z</time>
      </trkpt>
      <trkpt lat="48.34262" lon="2.77386">
        <ele>55.5</ele>
        <time>2018-04-14T08:53:33Z</time>
      </trkpt>
      <trkpt lat="48.34267" lon="2.77382">
        <ele>55.5</ele>
        <time>2018-04-14T08:53:34Z</time>
      </trkpt>
      <trkpt lat="48.34271" lon="2.77378">
        <ele>55.4</ele>
        <time>2018-04-14T08:53:35Z</time>
      </trkpt>
      <trkpt lat="48.34276" lon="2.77375">
        <ele>55.3</ele>
        <time>2018-04-14T08:53:36Z</time>
      </trkpt>
      <trkpt lat="48.34281" lon="2.77372">
        <ele>55.3</ele>
        <time>2018-04-14T08:53:37Z</time>
      </trkpt>
      <trkpt lat="48.34285" lon="2.77369">
        <ele>55.2</ele>
        <time>2018-04-14T08:53:38Z</time>
      </trkpt>
      <trkpt lat="48.34289" lon="2.77365">
        <ele>55.1</ele>
        <time>2018-04-14T08:53:39Z</time>
      </trkpt>
      <trkpt lat="48.34293" lon="2.77363">
        <ele>55</ele>
        <time>2018-04-14T08:53:40Z</time>
      </trkpt>
      <trkpt lat="48.34296" lon="2.7736">
        <ele>55</ele>
        <time>2018-04-14T08:53:41Z</time>
      </trkpt>
      <trkpt lat="48.343" lon="2.77358">
        <ele>54.9</ele>
        <time>2018-04-14T08:53:42Z</time>
      </trkpt>
      <trkpt lat="48.34303" lon="2.77356">
        <ele>54.8</ele>
        <time>2018-04-14T08:53:43Z</time>
      </trkpt>
      <trkpt lat="48.34306" lon="2.77354">
        <ele>54.8</ele>
        <time>2018-04-14T08:53:44Z</time>
      </trkpt>
      <trkpt lat="48.3431" lon="2.77352">
        <ele>54.7</ele>
        <time>2018-04-14T08:53:45Z</time>
      </trkpt>
      <trkpt lat="48.34312" lon="2.77351">
        <ele>54.7</ele>
        <time>2018-04-14T08:53:46Z</time>
      </trkpt>
      <trkpt lat="48.34317" lon="2.77348">
        <ele>54.6</ele>
        <time>2018-04-14T08:53:48Z</time>
      </trkpt>
      <trkpt lat="48.34322" lon="2.77351">
        <ele>54.4</ele>
        <time>2018-04-14T08:55:47Z</time>
      </trkpt>
      <trkpt lat="48.34324" lon="2.77347">
        <ele>54.3</ele>
        <time>2018-04-14T08:55:49Z</time>
      </trkpt>
      <trkpt lat="48.34327" lon="2.77344">
        <ele>54.2</ele>
        <time>2018-04-14T08:55:51Z</time>
      </trkpt>
      <trkpt lat="48.34329" lon="2.77341">
        <ele>54.1</ele>
        <time>2018-04-14T08:55:52Z</time>
      </trkpt>
      <trkpt lat="48.34331" lon="2.77338">
        <ele>54</ele>
        <time>2018-04-14T08:55:53Z</time>
      </trkpt>
      <trkpt lat="48.34333" lon="2.77334">
        <ele>54</ele>
        <time>2018-04-14T08:55:54Z</time>
      </trkpt>
      <trkpt lat="48.34335" lon="2.7733">
        <ele>54</ele>
        <time>2018-04-14T08:55:55Z</time>
      </trkpt>
      <trkpt lat="48.34337" lon="2.77327">
        <ele>54</ele>
        <time>2018-04-14T08:55:56Z</time>
      </trkpt>
      <trkpt lat="48.3434" lon="2.77324">
        <ele>54</ele>
        <time>2018-04-14T08:55:57Z</time>
      </trkpt>
      <trkpt lat="48.34342" lon="2.77321">
        <ele>54</ele>
        <time>2018-04-14T08:55:58Z</time>
      </trkpt>
      <trkpt lat="48.34346" lon="2.77318">
        <ele>54</ele>
        <time>2018-04-14T08:56:00Z</time>
      </trkpt>
      <trkpt lat="48.3435" lon="2.77313">
        <ele>54</ele>
        <time>2018-04-14T08:56:02Z</time>
      </trkpt>
      <trkpt lat="48.34354" lon="2.77309">
        <ele>54</ele>
        <time>2018-04-14T08:56:04Z</time>
      </trkpt>
      <trkpt lat="48.34358" lon="2.77304">
        <ele>54</ele>
        <time>2018-04-14T08:56:06Z</time>
      </trkpt>
      <trkpt lat="48.34362" lon="2.77301">
        <ele>54</ele>
        <time>2018-04-14T08:56:08Z</time>
      </trkpt>
      <trkpt lat="48.34367" lon="2.77297">
        <ele>54</ele>
        <time>2018-04-14T08:56:10Z</time>
      </trkpt>
      <trkpt lat="48.34369" lon="2.77294">
        <ele>54</ele>
        <time>2018-04-14T08:56:11Z</time>
      </trkpt>
      <trkpt lat="48.34373" lon="2.7729">
        <ele>54</ele>
        <time>2018-04-14T08:56:13Z</time>
      </trkpt>
      <trkpt lat="48.34377" lon="2.77286">
        <ele>54.1</ele>
        <time>2018-04-14T08:56:15Z</time>
      </trkpt>
      <trkpt lat="48.3438" lon="2.77284">
        <ele>54.3</ele>
        <time>2018-04-14T08:56:16Z</time>
      </trkpt>
      <trkpt lat="48.34384" lon="2.7728">
        <ele>54.6</ele>
        <time>2018-04-14T08:56:18Z</time>
      </trkpt>
      <trkpt lat="48.34386" lon="2.77278">
        <ele>54.7</ele>
        <time>2018-04-14T08:56:19Z</time>
      </trkpt>
      <trkpt lat="48.34391" lon="2.77273">
        <ele>55.1</ele>
        <time>2018-04-14T08:56:21Z</time>
      </trkpt>
      <trkpt lat="48.34395" lon="2.77269">
        <ele>55.4</ele>
        <time>2018-04-14T08:56:23Z</time>
      </trkpt>
      <trkpt lat="48.344" lon="2.77266">
        <ele>55.7</ele>
        <time>2018-04-14T08:56:25Z</time>
      </trkpt>
      <trkpt lat="48.34405" lon="2.77262">
        <ele>56.2</ele>
        <time>2018-04-14T08:56:27Z</time>
      </trkpt>
      <trkpt lat="48.34407" lon="2.7726">
        <ele>56.4</ele>
        <time>2018-04-14T08:56:28Z</time>
      </trkpt>
      <trkpt lat="48.34411" lon="2.77256">
        <ele>56.9</ele>
        <time>2018-04-14T08:56:30Z</time>
      </trkpt>
      <trkpt lat="48.34416" lon="2.77252">
        <ele>57.4</ele>
        <time>2018-04-14T08:56:32Z</time>
      </trkpt>
      <trkpt lat="48.3442" lon="2.77248">
        <ele>57.8</ele>
        <time>2018-04-14T08:56:34Z</time>
      </trkpt>
      <trkpt lat="48.34424" lon="2.77244">
        <ele>58.2</ele>
        <time>2018-04-14T08:56:36Z</time>
      </trkpt>
      <trkpt lat="48.34428" lon="2.77239">
        <ele>58.6</ele>
        <time>2018-04-14T08:56:38Z</time>
      </trkpt>
      <trkpt lat="48.3443" lon="2.77236">
        <ele>58.8</ele>
        <time>2018-04-14T08:56:39Z</time>
      </trkpt>
      <trkpt lat="48.34435" lon="2.77232">
        <ele>59.3</ele>
        <time>2018-04-14T08:56:41Z</time>
      </trkpt>
      <trkpt lat="48.34437" lon="2.7723">
        <ele>59.5</ele>
        <time>2018-04-14T08:56:42Z</time>
      </trkpt>
      <trkpt lat="48.34442" lon="2.77225">
        <ele>59.9</ele>
        <time>2018-04-14T08:56:44Z</time>
      </trkpt>
      <trkpt lat="48.34447" lon="2.77222">
        <ele>60.2</ele>
        <time>2018-04-14T08:56:46Z</time>
      </trkpt>
      <trkpt lat="48.34451" lon="2.77218">
        <ele>60.6</ele>
        <time>2018-04-14T08:56:48Z</time>
      </trkpt>
      <trkpt lat="48.34456" lon="2.77213">
        <ele>61</ele>
        <time>2018-04-14T08:56:50Z</time>
      </trkpt>
      <trkpt lat="48.3446" lon="2.77209">
        <ele>61</ele>
        <time>2018-04-14T08:56:52Z</time>
      </trkpt>
      <trkpt lat="48.34463" lon="2.77207">
        <ele>61</ele>
        <time>2018-04-14T08:56:53Z</time>
      </trkpt>
      <trkpt lat="48.34465" lon="2.77204">
        <ele>61</ele>
        <time>2018-04-14T08:56:54Z</time>
      </trkpt>
      <trkpt lat="48.34467" lon="2.77202">
        <ele>61</ele>
        <time>2018-04-14T08:56:55Z</time>
      </trkpt>
      <trkpt lat="48.34471" lon="2.77198">
        <ele>61</ele>
        <time>2018-04-14T08:56:57Z</time>
      </trkpt>
      <trkpt lat="48.34475" lon="2.77193">
        <ele>61</ele>
        <time>2018-04-14T08:56:59Z</time>
      </trkpt>
      <trkpt lat="48.34479" lon="2.77189">
        <ele>61</ele>
        <time>2018-04-14T08:57:01Z</time>
      </trkpt>
      <trkpt lat="48.34483" lon="2.77186">
        <ele>61</ele>
        <time>2018-04-14T08:57:03Z</time>
      </trkpt>
      <trkpt lat="48.34487" lon="2.77182">
        <ele>61</ele>
        <time>2018-04-14T08:57:05Z</time>
      </trkpt>
      <trkpt lat="48.34491" lon="2.77178">
        <ele>61.9</ele>
        <time>2018-04-14T08:57:07Z</time>
      </trkpt>
      <trkpt lat="48.34495" lon="2.77175">
        <ele>62.9</ele>
        <time>2018-04-14T08:57:09Z</time>
      </trkpt>
      <trkpt lat="48.34499" lon="2.77171">
        <ele>63.8</ele>
        <time>2018-04-14T08:57:11Z</time>
      </trkpt>
      <trkpt lat="48.34503" lon="2.77167">
        <ele>64.8</ele>
        <time>2018-04-14T08:57:13Z</time>
      </trkpt>
      <trkpt lat="48.34507" lon="2.77164">
        <ele>65.8</ele>
        <time>2018-04-14T08:57:15Z</time>
      </trkpt>
      <trkpt lat="48.34511" lon="2.7716">
        <ele>66.8</ele>
        <time>2018-04-14T08:57:17Z</time>
      </trkpt>
      <trkpt lat="48.34515" lon="2.77156">
        <ele>67.9</ele>
        <time>2018-04-14T08:57:19Z</time>
      </trkpt>
      <trkpt lat="48.34519" lon="2.77152">
        <ele>68</ele>
        <time>2018-04-14T08:57:21Z</time>
      </trkpt>
      <trkpt lat="48.34523" lon="2.77148">
        <ele>68</ele>
        <time>2018-04-14T08:57:23Z</time>
      </trkpt>
      <trkpt lat="48.34527" lon="2.77144">
        <ele>68</ele>
        <time>2018-04-14T08:57:25Z</time>
      </trkpt>
      <trkpt lat="48.34531" lon="2.7714">
        <ele>68</ele>
        <time>2018-04-14T08:57:27Z</time>
      </trkpt>
      <trkpt lat="48.34535" lon="2.77136">
        <ele>68</ele>
        <time>2018-04-14T08:57:29Z</time>
      </trkpt>
      <trkpt lat="48.34539" lon="2.77133">
        <ele>68</ele>
        <time>2018-04-14T08:57:31Z</time>
      </trkpt>
      <trkpt lat="48.34542" lon="2.7713">
        <ele>68</ele>
        <time>2018-04-14T08:57:33Z</time>
      </trkpt>
      <trkpt lat="48.34546" lon="2.77126">
        <ele>68</ele>
        <time>2018-04-14T08:57:35Z</time>
      </trkpt>
      <trkpt lat="48.34549" lon="2.77123">
        <ele>68</ele>
        <time>2018-04-14T08:57:36Z</time>
      </trkpt>
      <trkpt lat="48.34551" lon="2.7712">
        <ele>68</ele>
        <time>2018-04-14T08:57:37Z</time>
      </trkpt>
      <trkpt lat="48.34555" lon="2.77117">
        <ele>68</ele>
        <time>2018-04-14T08:57:39Z</time>
      </trkpt>
      <trkpt lat="48.34558" lon="2.77115">
        <ele>68</ele>
        <time>2018-04-14T08:57:40Z</time>
      </trkpt>
      <trkpt lat="48.3456" lon="2.77112">
        <ele>68</ele>
        <time>2018-04-14T08:57:41Z</time>
      </trkpt>
      <trkpt lat="48.34562" lon="2.7711">
        <ele>68</ele>
        <time>2018-04-14T08:57:42Z</time>
      </trkpt>
      <trkpt lat="48.34565" lon="2.77105">
        <ele>68.5</ele>
        <time>2018-04-14T08:57:44Z</time>
      </trkpt>
      <trkpt lat="48.3457" lon="2.77101">
        <ele>69.1</ele>
        <time>2018-04-14T08:57:46Z</time>
      </trkpt>
      <trkpt lat="48.34574" lon="2.77097">
        <ele>69.6</ele>
        <time>2018-04-14T08:57:48Z</time>
      </trkpt>
      <trkpt lat="48.34577" lon="2.77094">
        <ele>70</ele>
        <time>2018-04-14T08:57:50Z</time>
      </trkpt>
      <trkpt lat="48.34582" lon="2.7709">
        <ele>70.5</ele>
        <time>2018-04-14T08:57:52Z</time>
      </trkpt>
      <trkpt lat="48.34585" lon="2.77088">
        <ele>70.8</ele>
        <time>2018-04-14T08:57:54Z</time>
      </trkpt>
      <trkpt lat="48.34589" lon="2.77083">
        <ele>71.4</ele>
        <time>2018-04-14T08:57:56Z</time>
      </trkpt>
      <trkpt lat="48.34593" lon="2.7708">
        <ele>71.9</ele>
        <time>2018-04-14T08:57:58Z</time>
      </trkpt>
      <trkpt lat="48.34597" lon="2.77076">
        <ele>72.5</ele>
        <time>2018-04-14T08:58:00Z</time>
      </trkpt>
      <trkpt lat="48.34602" lon="2.77072">
        <ele>73.1</ele>
        <time>2018-04-14T08:58:02Z</time>
      </trkpt>
      <trkpt lat="48.34604" lon="2.7707">
        <ele>73.4</ele>
        <time>2018-04-14T08:58:03Z</time>
      </trkpt>
      <trkpt lat="48.34608" lon="2.77066">
        <ele>74</ele>
        <time>2018-04-14T08:58:05Z</time>
      </trkpt>
      <trkpt lat="48.34612" lon="2.77061">
        <ele>74.5</ele>
        <time>2018-04-14T08:58:07Z</time>
      </trkpt>
      <trkpt lat="48.34616" lon="2.77057">
        <ele>75</ele>
        <time>2018-04-14T08:58:09Z</time>
      </trkpt>
      <trkpt lat="48.3462" lon="2.77053">
        <ele>75.5</ele>
        <time>2018-04-14T08:58:11Z</time>
      </trkpt>
      <trkpt lat="48.34624" lon="2.77049">
        <ele>76</ele>
        <time>2018-04-14T08:58:13Z</time>
      </trkpt>
      <trkpt lat="48.34627" lon="2.77045">
        <ele>76.4</ele>
        <time>2018-04-14T08:58:15Z</time>
      </trkpt>
      <trkpt lat="48.34631" lon="2.77042">
        <ele>76.8</ele>
        <time>2018-04-14T08:58:17Z</time>
      </trkpt>
      <trkpt lat="48.34635" lon="2.77039">
        <ele>77.3</ele>
        <time>2018-04-14T08:58:19Z</time>
      </trkpt>
      <trkpt lat="48.34637" lon="2.77036">
        <ele>77.5</ele>
        <time>2018-04-14T08:58:20Z</time>
      </trkpt>
      <trkpt lat="48.3464" lon="2.77033">
        <ele>77.9</ele>
        <time>2018-04-14T08:58:22Z</time>
      </trkpt>
      <trkpt lat="48.34644" lon="2.77029">
        <ele>78.4</ele>
        <time>2018-04-14T08:58:24Z</time>
      </trkpt>
      <trkpt lat="48.34648" lon="2.77024">
        <ele>78.9</ele>
        <time>2018-04-14T08:58:26Z</time>
      </trkpt>
      <trkpt lat="48.34651" lon="2.77021">
        <ele>79.3</ele>
        <time>2018-04-14T08:58:28Z</time>
      </trkpt>
      <trkpt lat="48.34655" lon="2.77017">
        <ele>79.8</ele>
        <time>2018-04-14T08:58:30Z</time>
      </trkpt>
      <trkpt lat="48.34659" lon="2.77012">
        <ele>80.4</ele>
        <time>2018-04-14T08:58:32Z</time>
      </trkpt>
      <trkpt lat="48.34661" lon="2.7701">
        <ele>80.7</ele>
        <time>2018-04-14T08:58:33Z</time>
      </trkpt>
      <trkpt lat="48.34664" lon="2.77007">
        <ele>81</ele>
        <time>2018-04-14T08:58:34Z</time>
      </trkpt>
      <trkpt lat="48.34666" lon="2.77004">
        <ele>81.3</ele>
        <time>2018-04-14T08:58:35Z</time>
      </trkpt>
      <trkpt lat="48.34669" lon="2.77002">
        <ele>81.7</ele>
        <time>2018-04-14T08:58:36Z</time>
      </trkpt>
      <trkpt lat="48.34671" lon="2.77">
        <ele>82</ele>
        <time>2018-04-14T08:58:37Z</time>
      </trkpt>
      <trkpt lat="48.34676" lon="2.76996">
        <ele>82.5</ele>
        <time>2018-04-14T08:58:39Z</time>
      </trkpt>
      <trkpt lat="48.34678" lon="2.76994">
        <ele>82.7</ele>
        <time>2018-04-14T08:58:40Z</time>
      </trkpt>
      <trkpt lat="48.34681" lon="2.76992">
        <ele>83</ele>
        <time>2018-04-14T08:58:41Z</time>
      </trkpt>
      <trkpt lat="48.34683" lon="2.76989">
        <ele>83.2</ele>
        <time>2018-04-14T08:58:42Z</time>
      </trkpt>
      <trkpt lat="48.34685" lon="2.76987">
        <ele>83.5</ele>
        <time>2018-04-14T08:58:43Z</time>
      </trkpt>
      <trkpt lat="48.34689" lon="2.76982">
        <ele>84</ele>
        <time>2018-04-14T08:58:45Z</time>
      </trkpt>
      <trkpt lat="48.34694" lon="2.76978">
        <ele>84.5</ele>
        <time>2018-04-14T08:58:47Z</time>
      </trkpt>
      <trkpt lat="48.34697" lon="2.76973">
        <ele>85</ele>
        <time>2018-04-14T08:58:49Z</time>
      </trkpt>
      <trkpt lat="48.347" lon="2.7697">
        <ele>85.4</ele>
        <time>2018-04-14T08:58:51Z</time>
      </trkpt>
      <trkpt lat="48.34704" lon="2.76965">
        <ele>85.9</ele>
        <time>2018-04-14T08:58:53Z</time>
      </trkpt>
      <trkpt lat="48.34707" lon="2.76962">
        <ele>86.2</ele>
        <time>2018-04-14T08:58:55Z</time>
      </trkpt>
      <trkpt lat="48.3471" lon="2.76959">
        <ele>86.6</ele>
        <time>2018-04-14T08:58:57Z</time>
      </trkpt>
      <trkpt lat="48.34714" lon="2.76954">
        <ele>87.1</ele>
        <time>2018-04-14T08:58:59Z</time>
      </trkpt>
      <trkpt lat="48.34718" lon="2.7695">
        <ele>87.5</ele>
        <time>2018-04-14T08:59:01Z</time>
      </trkpt>
      <trkpt lat="48.34721" lon="2.76948">
        <ele>87.9</ele>
        <time>2018-04-14T08:59:03Z</time>
      </trkpt>
      <trkpt lat="48.34724" lon="2.76947">
        <ele>88.2</ele>
        <time>2018-04-14T08:59:06Z</time>
      </trkpt>
      <trkpt lat="48.34727" lon="2.76944">
        <ele>88.4</ele>
        <time>2018-04-14T08:59:09Z</time>
      </trkpt>
      <trkpt lat="48.34728" lon="2.7694">
        <ele>88.7</ele>
        <time>2018-04-14T08:59:13Z</time>
      </trkpt>
      <trkpt lat="48.34728" lon="2.76932">
        <ele>89.1</ele>
        <time>2018-04-14T08:59:15Z</time>
      </trkpt>
      <trkpt lat="48.34727" lon="2.76928">
        <ele>89.1</ele>
        <time>2018-04-14T08:59:16Z</time>
      </trkpt>
      <trkpt lat="48.34726" lon="2.76922">
        <ele>89.2</ele>
        <time>2018-04-14T08:59:18Z</time>
      </trkpt>
      <trkpt lat="48.34725" lon="2.76918">
        <ele>89.3</ele>
        <time>2018-04-14T08:59:20Z</time>
      </trkpt>
      <trkpt lat="48.34725" lon="2.76914">
        <ele>89.3</ele>
        <time>2018-04-14T08:59:21Z</time>
      </trkpt>
      <trkpt lat="48.34723" lon="2.76909">
        <ele>89.4</ele>
        <time>2018-04-14T08:59:22Z</time>
      </trkpt>
      <trkpt lat="48.34722" lon="2.76906">
        <ele>89.4</ele>
        <time>2018-04-14T08:59:23Z</time>
      </trkpt>
      <trkpt lat="48.34719" lon="2.76899">
        <ele>89.6</ele>
        <time>2018-04-14T08:59:25Z</time>
      </trkpt>
      <trkpt lat="48.34718" lon="2.76895">
        <ele>89.7</ele>
        <time>2018-04-14T08:59:26Z</time>
      </trkpt>
      <trkpt lat="48.34716" lon="2.7689">
        <ele>89.9</ele>
        <time>2018-04-14T08:59:27Z</time>
      </trkpt>
      <trkpt lat="48.34715" lon="2.76886">
        <ele>90.1</ele>
        <time>2018-04-14T08:59:28Z</time>
      </trkpt>
      <trkpt lat="48.34714" lon="2.76882">
        <ele>90.3</ele>
        <time>2018-04-14T08:59:29Z</time>
      </trkpt>
      <trkpt lat="48.34711" lon="2.76875">
        <ele>90.8</ele>
        <time>2018-04-14T08:59:31Z</time>
      </trkpt>
      <trkpt lat="48.3471" lon="2.76871">
        <ele>90.9</ele>
        <time>2018-04-14T08:59:32Z</time>
      </trkpt>
      <trkpt lat="48.34708" lon="2.76866">
        <ele>91</ele>
        <time>2018-04-14T08:59:33Z</time>
      </trkpt>
      <trkpt lat="48.34706" lon="2.76862">
        <ele>91.1</ele>
        <time>2018-04-14T08:59:34Z</time>
      </trkpt>
      <trkpt lat="48.34705" lon="2.76857">
        <ele>91.2</ele>
        <time>2018-04-14T08:59:35Z</time>
      </trkpt>
      <trkpt lat="48.34703" lon="2.76852">
        <ele>91.2</ele>
        <time>2018-04-14T08:59:36Z</time>
      </trkpt>
      <trkpt lat="48.34702" lon="2.76848">
        <ele>91.3</ele>
        <time>2018-04-14T08:59:37Z</time>
      </trkpt>
      <trkpt lat="48.347" lon="2.76843">
        <ele>91.4</ele>
        <time>2018-04-14T08:59:38Z</time>
      </trkpt>
      <trkpt lat="48.34699" lon="2.76839">
        <ele>91.4</ele>
        <time>2018-04-14T08:59:39Z</time>
      </trkpt>
      <trkpt lat="48.34697" lon="2.76835">
        <ele>91.5</ele>
        <time>2018-04-14T08:59:40Z</time>
      </trkpt>
      <trkpt lat="48.34695" lon="2.76831">
        <ele>91.6</ele>
        <time>2018-04-14T08:59:41Z</time>
      </trkpt>
      <trkpt lat="48.34693" lon="2.76825">
        <ele>91.6</ele>
        <time>2018-04-14T08:59:43Z</time>
      </trkpt>
      <trkpt lat="48.34691" lon="2.7682">
        <ele>91.7</ele>
        <time>2018-04-14T08:59:45Z</time>
      </trkpt>
      <trkpt lat="48.3469" lon="2.76816">
        <ele>91.8</ele>
        <time>2018-04-14T08:59:47Z</time>
      </trkpt>
      <trkpt lat="48.34688" lon="2.76812">
        <ele>91.9</ele>
        <time>2018-04-14T08:59:50Z</time>
      </trkpt>
      <trkpt lat="48.34691" lon="2.76817">
        <ele>91.8</ele>
        <time>2018-04-14T08:59:55Z</time>
      </trkpt>
      <trkpt lat="48.34695" lon="2.76823">
        <ele>91.7</ele>
        <time>2018-04-14T08:59:57Z</time>
      </trkpt>
      <trkpt lat="48.34698" lon="2.76825">
        <ele>91.7</ele>
        <time>2018-04-14T08:59:58Z</time>
      </trkpt>
      <trkpt lat="48.347" lon="2.76824">
        <ele>91.6</ele>
        <time>2018-04-14T08:59:59Z</time>
      </trkpt>
      <trkpt lat="48.34704" lon="2.76823">
        <ele>91.6</ele>
        <time>2018-04-14T09:00:01Z</time>
      </trkpt>
      <trkpt lat="48.34706" lon="2.7682">
        <ele>91.6</ele>
        <time>2018-04-14T09:00:03Z</time>
      </trkpt>
      <trkpt lat="48.34707" lon="2.76816">
        <ele>91.7</ele>
        <time>2018-04-14T09:00:31Z</time>
      </trkpt>
      <trkpt lat="48.34702" lon="2.76817">
        <ele>91.7</ele>
        <time>2018-04-14T09:00:45Z</time>
      </trkpt>
      <trkpt lat="48.34698" lon="2.76816">
        <ele>91.9</ele>
        <time>2018-04-14T09:00:47Z</time>
      </trkpt>
      <trkpt lat="48.34696" lon="2.7681">
        <ele>92</ele>
        <time>2018-04-14T09:00:49Z</time>
      </trkpt>
      <trkpt lat="48.34694" lon="2.76804">
        <ele>92.1</ele>
        <time>2018-04-14T09:00:51Z</time>
      </trkpt>
      <trkpt lat="48.34692" lon="2.768">
        <ele>92.2</ele>
        <time>2018-04-14T09:00:52Z</time>
      </trkpt>
      <trkpt lat="48.34689" lon="2.76796">
        <ele>92.5</ele>
        <time>2018-04-14T09:00:54Z</time>
      </trkpt>
      <trkpt lat="48.34686" lon="2.76792">
        <ele>92.7</ele>
        <time>2018-04-14T09:00:55Z</time>
      </trkpt>
      <trkpt lat="48.34684" lon="2.76789">
        <ele>92.9</ele>
        <time>2018-04-14T09:00:56Z</time>
      </trkpt>
      <trkpt lat="48.3468" lon="2.76783">
        <ele>93.2</ele>
        <time>2018-04-14T09:00:58Z</time>
      </trkpt>
      <trkpt lat="48.34677" lon="2.76777">
        <ele>93.4</ele>
        <time>2018-04-14T09:01:00Z</time>
      </trkpt>
      <trkpt lat="48.34675" lon="2.76774">
        <ele>93.4</ele>
        <time>2018-04-14T09:01:01Z</time>
      </trkpt>
      <trkpt lat="48.34673" lon="2.76771">
        <ele>93.5</ele>
        <time>2018-04-14T09:01:02Z</time>
      </trkpt>
      <trkpt lat="48.34669" lon="2.76764">
        <ele>93.6</ele>
        <time>2018-04-14T09:01:04Z</time>
      </trkpt>
      <trkpt lat="48.34667" lon="2.76761">
        <ele>93.6</ele>
        <time>2018-04-14T09:01:05Z</time>
      </trkpt>
      <trkpt lat="48.34665" lon="2.76757">
        <ele>93.6</ele>
        <time>2018-04-14T09:01:06Z</time>
      </trkpt>
      <trkpt lat="48.34662" lon="2.7675">
        <ele>93.7</ele>
        <time>2018-04-14T09:01:08Z</time>
      </trkpt>
      <trkpt lat="48.3466" lon="2.76747">
        <ele>93.7</ele>
        <time>2018-04-14T09:01:09Z</time>
      </trkpt>
      <trkpt lat="48.34658" lon="2.76744">
        <ele>93.8</ele>
        <time>2018-04-14T09:01:10Z</time>
      </trkpt>
      <trkpt lat="48.34656" lon="2.76741">
        <ele>93.8</ele>
        <time>2018-04-14T09:01:11Z</time>
      </trkpt>
      <trkpt lat="48.34654" lon="2.76738">
        <ele>93.8</ele>
        <time>2018-04-14T09:01:12Z</time>
      </trkpt>
      <trkpt lat="48.34651" lon="2.76734">
        <ele>93.8</ele>
        <time>2018-04-14T09:01:13Z</time>
      </trkpt>
      <trkpt lat="48.34649" lon="2.7673">
        <ele>93.9</ele>
        <time>2018-04-14T09:01:14Z</time>
      </trkpt>
      <trkpt lat="48.34647" lon="2.76726">
        <ele>93.9</ele>
        <time>2018-04-14T09:01:15Z</time>
      </trkpt>
      <trkpt lat="48.34645" lon="2.76722">
        <ele>93.9</ele>
        <time>2018-04-14T09:01:16Z</time>
      </trkpt>
      <trkpt lat="48.34643" lon="2.76717">
        <ele>94</ele>
        <time>2018-04-14T09:01:17Z</time>
      </trkpt>
      <trkpt lat="48.34641" lon="2.76712">
        <ele>94</ele>
        <time>2018-04-14T09:01:18Z</time>
      </trkpt>
      <trkpt lat="48.34639" lon="2.76707">
        <ele>94.1</ele>
        <time>2018-04-14T09:01:19Z</time>
      </trkpt>
      <trkpt lat="48.34637" lon="2.76703">
        <ele>94.1</ele>
        <time>2018-04-14T09:01:20Z</time>
      </trkpt>
      <trkpt lat="48.34635" lon="2.76698">
        <ele>94.2</ele>
        <time>2018-04-14T09:01:21Z</time>
      </trkpt>
      <trkpt lat="48.34634" lon="2.76692">
        <ele>94.3</ele>
        <time>2018-04-14T09:01:22Z</time>
      </trkpt>
      <trkpt lat="48.34632" lon="2.76687">
        <ele>94.4</ele>
        <time>2018-04-14T09:01:23Z</time>
      </trkpt>
      <trkpt lat="48.3463" lon="2.76684">
        <ele>94.5</ele>
        <time>2018-04-14T09:01:24Z</time>
      </trkpt>
      <trkpt lat="48.34627" lon="2.76679">
        <ele>94.6</ele>
        <time>2018-04-14T09:01:25Z</time>
      </trkpt>
      <trkpt lat="48.34625" lon="2.76675">
        <ele>94.9</ele>
        <time>2018-04-14T09:01:26Z</time>
      </trkpt>
      <trkpt lat="48.34623" lon="2.7667">
        <ele>95.1</ele>
        <time>2018-04-14T09:01:27Z</time>
      </trkpt>
      <trkpt lat="48.34622" lon="2.76665">
        <ele>95.3</ele>
        <time>2018-04-14T09:01:28Z</time>
      </trkpt>
      <trkpt lat="48.3462" lon="2.7666">
        <ele>95.5</ele>
        <time>2018-04-14T09:01:29Z</time>
      </trkpt>
      <trkpt lat="48.34618" lon="2.76657">
        <ele>95.6</ele>
        <time>2018-04-14T09:01:30Z</time>
      </trkpt>
      <trkpt lat="48.34616" lon="2.76653">
        <ele>95.7</ele>
        <time>2018-04-14T09:01:31Z</time>
      </trkpt>
      <trkpt lat="48.34614" lon="2.76648">
        <ele>95.7</ele>
        <time>2018-04-14T09:01:32Z</time>
      </trkpt>
      <trkpt lat="48.34612" lon="2.76643">
        <ele>95.8</ele>
        <time>2018-04-14T09:01:33Z</time>
      </trkpt>
      <trkpt lat="48.3461" lon="2.76638">
        <ele>95.8</ele>
        <time>2018-04-14T09:01:34Z</time>
      </trkpt>
      <trkpt lat="48.34607" lon="2.76633">
        <ele>95.9</ele>
        <time>2018-04-14T09:01:35Z</time>
      </trkpt>
      <trkpt lat="48.34606" lon="2.76628">
        <ele>95.9</ele>
        <time>2018-04-14T09:01:36Z</time>
      </trkpt>
      <trkpt lat="48.34604" lon="2.76624">
        <ele>96</ele>
        <time>2018-04-14T09:01:37Z</time>
      </trkpt>
      <trkpt lat="48.34603" lon="2.7662">
        <ele>96</ele>
        <time>2018-04-14T09:01:38Z</time>
      </trkpt>
      <trkpt lat="48.34601" lon="2.76617">
        <ele>96.1</ele>
        <time>2018-04-14T09:01:39Z</time>
      </trkpt>
      <trkpt lat="48.34599" lon="2.76612">
        <ele>96.1</ele>
        <time>2018-04-14T09:01:40Z</time>
      </trkpt>
      <trkpt lat="48.34598" lon="2.76606">
        <ele>96.1</ele>
        <time>2018-04-14T09:01:41Z</time>
      </trkpt>
      <trkpt lat="48.34597" lon="2.766">
        <ele>96.2</ele>
        <time>2018-04-14T09:01:42Z</time>
      </trkpt>
      <trkpt lat="48.34596" lon="2.76592">
        <ele>96.2</ele>
        <time>2018-04-14T09:01:43Z</time>
      </trkpt>
      <trkpt lat="48.34595" lon="2.76586">
        <ele>96.3</ele>
        <time>2018-04-14T09:01:44Z</time>
      </trkpt>
      <trkpt lat="48.34594" lon="2.7658">
        <ele>96.3</ele>
        <time>2018-04-14T09:01:45Z</time>
      </trkpt>
      <trkpt lat="48.34592" lon="2.76576">
        <ele>96.3</ele>
        <time>2018-04-14T09:01:46Z</time>
      </trkpt>
      <trkpt lat="48.3459" lon="2.76571">
        <ele>96.4</ele>
        <time>2018-04-14T09:01:47Z</time>
      </trkpt>
      <trkpt lat="48.34588" lon="2.76566">
        <ele>96.4</ele>
        <time>2018-04-14T09:01:48Z</time>
      </trkpt>
      <trkpt lat="48.34586" lon="2.76561">
        <ele>96.5</ele>
        <time>2018-04-14T09:01:49Z</time>
      </trkpt>
      <trkpt lat="48.34585" lon="2.76557">
        <ele>96.5</ele>
        <time>2018-04-14T09:01:50Z</time>
      </trkpt>
      <trkpt lat="48.34583" lon="2.76552">
        <ele>96.6</ele>
        <time>2018-04-14T09:01:51Z</time>
      </trkpt>
      <trkpt lat="48.3458" lon="2.76548">
        <ele>96.6</ele>
        <time>2018-04-14T09:01:52Z</time>
      </trkpt>
      <trkpt lat="48.34577" lon="2.76543">
        <ele>96.7</ele>
        <time>2018-04-14T09:01:53Z</time>
      </trkpt>
      <trkpt lat="48.34576" lon="2.76538">
        <ele>96.7</ele>
        <time>2018-04-14T09:01:54Z</time>
      </trkpt>
      <trkpt lat="48.34574" lon="2.76534">
        <ele>96.8</ele>
        <time>2018-04-14T09:01:55Z</time>
      </trkpt>
      <trkpt lat="48.34572" lon="2.76531">
        <ele>96.8</ele>
        <time>2018-04-14T09:01:56Z</time>
      </trkpt>
      <trkpt lat="48.34567" lon="2.76524">
        <ele>97</ele>
        <time>2018-04-14T09:01:58Z</time>
      </trkpt>
      <trkpt lat="48.34564" lon="2.76518">
        <ele>97.2</ele>
        <time>2018-04-14T09:01:59Z</time>
      </trkpt>
      <trkpt lat="48.34562" lon="2.76513">
        <ele>97.5</ele>
        <time>2018-04-14T09:02:00Z</time>
      </trkpt>
      <trkpt lat="48.34559" lon="2.76509">
        <ele>97.7</ele>
        <time>2018-04-14T09:02:01Z</time>
      </trkpt>
      <trkpt lat="48.34556" lon="2.76505">
        <ele>98</ele>
        <time>2018-04-14T09:02:02Z</time>
      </trkpt>
      <trkpt lat="48.34555" lon="2.76501">
        <ele>98.1</ele>
        <time>2018-04-14T09:02:03Z</time>
      </trkpt>
      <trkpt lat="48.34553" lon="2.76497">
        <ele>98.1</ele>
        <time>2018-04-14T09:02:04Z</time>
      </trkpt>
      <trkpt lat="48.34551" lon="2.76493">
        <ele>98.2</ele>
        <time>2018-04-14T09:02:05Z</time>
      </trkpt>
      <trkpt lat="48.34549" lon="2.76487">
        <ele>98.3</ele>
        <time>2018-04-14T09:02:07Z</time>
      </trkpt>
      <trkpt lat="48.34542" lon="2.7648">
        <ele>98.4</ele>
        <time>2018-04-14T09:02:09Z</time>
      </trkpt>
      <trkpt lat="48.34539" lon="2.76476">
        <ele>98.4</ele>
        <time>2018-04-14T09:02:10Z</time>
      </trkpt>
      <trkpt lat="48.34535" lon="2.7647">
        <ele>98.5</ele>
        <time>2018-04-14T09:02:11Z</time>
      </trkpt>
      <trkpt lat="48.34532" lon="2.76465">
        <ele>98.5</ele>
        <time>2018-04-14T09:02:12Z</time>
      </trkpt>
      <trkpt lat="48.34529" lon="2.7646">
        <ele>98.5</ele>
        <time>2018-04-14T09:02:13Z</time>
      </trkpt>
      <trkpt lat="48.34527" lon="2.76455">
        <ele>98.5</ele>
        <time>2018-04-14T09:02:14Z</time>
      </trkpt>
      <trkpt lat="48.34525" lon="2.7645">
        <ele>98.6</ele>
        <time>2018-04-14T09:02:15Z</time>
      </trkpt>
      <trkpt lat="48.34522" lon="2.76445">
        <ele>98.6</ele>
        <time>2018-04-14T09:02:16Z</time>
      </trkpt>
      <trkpt lat="48.34518" lon="2.76439">
        <ele>98.6</ele>
        <time>2018-04-14T09:02:17Z</time>
      </trkpt>
      <trkpt lat="48.34514" lon="2.76433">
        <ele>98.6</ele>
        <time>2018-04-14T09:02:18Z</time>
      </trkpt>
      <trkpt lat="48.34512" lon="2.76425">
        <ele>98.6</ele>
        <time>2018-04-14T09:02:19Z</time>
      </trkpt>
      <trkpt lat="48.3451" lon="2.76418">
        <ele>98.6</ele>
        <time>2018-04-14T09:02:20Z</time>
      </trkpt>
      <trkpt lat="48.34508" lon="2.76413">
        <ele>98.7</ele>
        <time>2018-04-14T09:02:21Z</time>
      </trkpt>
      <trkpt lat="48.34506" lon="2.76409">
        <ele>98.7</ele>
        <time>2018-04-14T09:02:22Z</time>
      </trkpt>
      <trkpt lat="48.34505" lon="2.76405">
        <ele>98.7</ele>
        <time>2018-04-14T09:02:23Z</time>
      </trkpt>
      <trkpt lat="48.34502" lon="2.764">
        <ele>98.7</ele>
        <time>2018-04-14T09:02:24Z</time>
      </trkpt>
      <trkpt lat="48.345" lon="2.76395">
        <ele>98.7</ele>
        <time>2018-04-14T09:02:25Z</time>
      </trkpt>
      <trkpt lat="48.34495" lon="2.76387">
        <ele>98.7</ele>
        <time>2018-04-14T09:02:27Z</time>
      </trkpt>
      <trkpt lat="48.34492" lon="2.76382">
        <ele>98.7</ele>
        <time>2018-04-14T09:02:28Z</time>
      </trkpt>
      <trkpt lat="48.34488" lon="2.76376">
        <ele>98.7</ele>
        <time>2018-04-14T09:02:29Z</time>
      </trkpt>
      <trkpt lat="48.34486" lon="2.7637">
        <ele>98.7</ele>
        <time>2018-04-14T09:02:30Z</time>
      </trkpt>
      <trkpt lat="48.34485" lon="2.76363">
        <ele>98.7</ele>
        <time>2018-04-14T09:02:31Z</time>
      </trkpt>
      <trkpt lat="48.34484" lon="2.76358">
        <ele>98.7</ele>
        <time>2018-04-14T09:02:32Z</time>
      </trkpt>
      <trkpt lat="48.34481" lon="2.76353">
        <ele>98.7</ele>
        <time>2018-04-14T09:02:33Z</time>
      </trkpt>
      <trkpt lat="48.3448" lon="2.76348">
        <ele>98.7</ele>
        <time>2018-04-14T09:02:34Z</time>
      </trkpt>
      <trkpt lat="48.34478" lon="2.76343">
        <ele>98.8</ele>
        <time>2018-04-14T09:02:35Z</time>
      </trkpt>
      <trkpt lat="48.34477" lon="2.76339">
        <ele>98.8</ele>
        <time>2018-04-14T09:02:36Z</time>
      </trkpt>
      <trkpt lat="48.34475" lon="2.76336">
        <ele>98.8</ele>
        <time>2018-04-14T09:02:37Z</time>
      </trkpt>
      <trkpt lat="48.34472" lon="2.7633">
        <ele>98.8</ele>
        <time>2018-04-14T09:02:38Z</time>
      </trkpt>
      <trkpt lat="48.3447" lon="2.76325">
        <ele>98.8</ele>
        <time>2018-04-14T09:02:39Z</time>
      </trkpt>
      <trkpt lat="48.34467" lon="2.76316">
        <ele>98.8</ele>
        <time>2018-04-14T09:02:40Z</time>
      </trkpt>
      <trkpt lat="48.34463" lon="2.76308">
        <ele>98.8</ele>
        <time>2018-04-14T09:02:41Z</time>
      </trkpt>
      <trkpt lat="48.34459" lon="2.76302">
        <ele>98.8</ele>
        <time>2018-04-14T09:02:42Z</time>
      </trkpt>
      <trkpt lat="48.34456" lon="2.76296">
        <ele>98.8</ele>
        <time>2018-04-14T09:02:43Z</time>
      </trkpt>
      <trkpt lat="48.34452" lon="2.76289">
        <ele>98.9</ele>
        <time>2018-04-14T09:02:44Z</time>
      </trkpt>
      <trkpt lat="48.3445" lon="2.76283">
        <ele>98.9</ele>
        <time>2018-04-14T09:02:45Z</time>
      </trkpt>
      <trkpt lat="48.34447" lon="2.76277">
        <ele>98.9</ele>
        <time>2018-04-14T09:02:46Z</time>
      </trkpt>
      <trkpt lat="48.34442" lon="2.76269">
        <ele>98.9</ele>
        <time>2018-04-14T09:02:47Z</time>
      </trkpt>
      <trkpt lat="48.3444" lon="2.7626">
        <ele>98.9</ele>
        <time>2018-04-14T09:02:48Z</time>
      </trkpt>
      <trkpt lat="48.34437" lon="2.76252">
        <ele>98.9</ele>
        <time>2018-04-14T09:02:49Z</time>
      </trkpt>
      <trkpt lat="48.34434" lon="2.76245">
        <ele>98.9</ele>
        <time>2018-04-14T09:02:50Z</time>
      </trkpt>
      <trkpt lat="48.34431" lon="2.76237">
        <ele>98.9</ele>
        <time>2018-04-14T09:02:51Z</time>
      </trkpt>
      <trkpt lat="48.34427" lon="2.7623">
        <ele>99</ele>
        <time>2018-04-14T09:02:52Z</time>
      </trkpt>
      <trkpt lat="48.34425" lon="2.76223">
        <ele>99</ele>
        <time>2018-04-14T09:02:53Z</time>
      </trkpt>
      <trkpt lat="48.34422" lon="2.76213">
        <ele>99</ele>
        <time>2018-04-14T09:02:54Z</time>
      </trkpt>
      <trkpt lat="48.34419" lon="2.76204">
        <ele>99</ele>
        <time>2018-04-14T09:02:55Z</time>
      </trkpt>
      <trkpt lat="48.34415" lon="2.76195">
        <ele>99</ele>
        <time>2018-04-14T09:02:56Z</time>
      </trkpt>
      <trkpt lat="48.34412" lon="2.76191">
        <ele>99</ele>
        <time>2018-04-14T09:02:57Z</time>
      </trkpt>
      <trkpt lat="48.34407" lon="2.76186">
        <ele>99</ele>
        <time>2018-04-14T09:02:58Z</time>
      </trkpt>
      <trkpt lat="48.34402" lon="2.7618">
        <ele>99</ele>
        <time>2018-04-14T09:02:59Z</time>
      </trkpt>
      <trkpt lat="48.34398" lon="2.76175">
        <ele>99.1</ele>
        <time>2018-04-14T09:03:00Z</time>
      </trkpt>
      <trkpt lat="48.34395" lon="2.76171">
        <ele>99.2</ele>
        <time>2018-04-14T09:03:01Z</time>
      </trkpt>
      <trkpt lat="48.34393" lon="2.76166">
        <ele>99.3</ele>
        <time>2018-04-14T09:03:02Z</time>
      </trkpt>
      <trkpt lat="48.34391" lon="2.76161">
        <ele>99.4</ele>
        <time>2018-04-14T09:03:03Z</time>
      </trkpt>
      <trkpt lat="48.34389" lon="2.76154">
        <ele>99.5</ele>
        <time>2018-04-14T09:03:04Z</time>
      </trkpt>
      <trkpt lat="48.34387" lon="2.76146">
        <ele>99.6</ele>
        <time>2018-04-14T09:03:05Z</time>
      </trkpt>
      <trkpt lat="48.34385" lon="2.76138">
        <ele>99.7</ele>
        <time>2018-04-14T09:03:06Z</time>
      </trkpt>
      <trkpt lat="48.34382" lon="2.76133">
        <ele>99.7</ele>
        <time>2018-04-14T09:03:07Z</time>
      </trkpt>
      <trkpt lat="48.34379" lon="2.76129">
        <ele>99.8</ele>
        <time>2018-04-14T09:03:08Z</time>
      </trkpt>
      <trkpt lat="48.34376" lon="2.76123">
        <ele>99.9</ele>
        <time>2018-04-14T09:03:09Z</time>
      </trkpt>
      <trkpt lat="48.34372" lon="2.76119">
        <ele>100</ele>
        <time>2018-04-14T09:03:10Z</time>
      </trkpt>
      <trkpt lat="48.34369" lon="2.76112">
        <ele>100.2</ele>
        <time>2018-04-14T09:03:11Z</time>
      </trkpt>
      <trkpt lat="48.34366" lon="2.76102">
        <ele>100.3</ele>
        <time>2018-04-14T09:03:12Z</time>
      </trkpt>
      <trkpt lat="48.34367" lon="2.76093">
        <ele>100.5</ele>
        <time>2018-04-14T09:03:13Z</time>
      </trkpt>
      <trkpt lat="48.34371" lon="2.76078">
        <ele>100.8</ele>
        <time>2018-04-14T09:03:14Z</time>
      </trkpt>
      <trkpt lat="48.34375" lon="2.76071">
        <ele>101</ele>
        <time>2018-04-14T09:03:15Z</time>
      </trkpt>
      <trkpt lat="48.34379" lon="2.76065">
        <ele>100.9</ele>
        <time>2018-04-14T09:03:16Z</time>
      </trkpt>
      <trkpt lat="48.34382" lon="2.76061">
        <ele>100.9</ele>
        <time>2018-04-14T09:03:17Z</time>
      </trkpt>
      <trkpt lat="48.34384" lon="2.76057">
        <ele>100.9</ele>
        <time>2018-04-14T09:03:18Z</time>
      </trkpt>
      <trkpt lat="48.34386" lon="2.76053">
        <ele>101</ele>
        <time>2018-04-14T09:03:19Z</time>
      </trkpt>
      <trkpt lat="48.34388" lon="2.76049">
        <ele>101</ele>
        <time>2018-04-14T09:03:20Z</time>
      </trkpt>
      <trkpt lat="48.3439" lon="2.76044">
        <ele>101.1</ele>
        <time>2018-04-14T09:03:22Z</time>
      </trkpt>
      <trkpt lat="48.34394" lon="2.7604">
        <ele>101.3</ele>
        <time>2018-04-14T09:03:24Z</time>
      </trkpt>
      <trkpt lat="48.34396" lon="2.76036">
        <ele>101.4</ele>
        <time>2018-04-14T09:03:26Z</time>
      </trkpt>
      <trkpt lat="48.34399" lon="2.76032">
        <ele>101.5</ele>
        <time>2018-04-14T09:03:28Z</time>
      </trkpt>
      <trkpt lat="48.34401" lon="2.76029">
        <ele>101.6</ele>
        <time>2018-04-14T09:03:29Z</time>
      </trkpt>
      <trkpt lat="48.34403" lon="2.76026">
        <ele>101.7</ele>
        <time>2018-04-14T09:03:30Z</time>
      </trkpt>
      <trkpt lat="48.34406" lon="2.76019">
        <ele>101.7</ele>
        <time>2018-04-14T09:03:32Z</time>
      </trkpt>
      <trkpt lat="48.34408" lon="2.76011">
        <ele>101.8</ele>
        <time>2018-04-14T09:03:34Z</time>
      </trkpt>
      <trkpt lat="48.34409" lon="2.76007">
        <ele>101.8</ele>
        <time>2018-04-14T09:03:35Z</time>
      </trkpt>
      <trkpt lat="48.34411" lon="2.76003">
        <ele>101.8</ele>
        <time>2018-04-14T09:03:36Z</time>
      </trkpt>
      <trkpt lat="48.34415" lon="2.75998">
        <ele>101.8</ele>
        <time>2018-04-14T09:03:37Z</time>
      </trkpt>
      <trkpt lat="48.34418" lon="2.75994">
        <ele>101.9</ele>
        <time>2018-04-14T09:03:39Z</time>
      </trkpt>
      <trkpt lat="48.3442" lon="2.75991">
        <ele>101.9</ele>
        <time>2018-04-14T09:03:40Z</time>
      </trkpt>
      <trkpt lat="48.34423" lon="2.75987">
        <ele>101.9</ele>
        <time>2018-04-14T09:03:42Z</time>
      </trkpt>
      <trkpt lat="48.34427" lon="2.7598">
        <ele>102</ele>
        <time>2018-04-14T09:03:44Z</time>
      </trkpt>
      <trkpt lat="48.3443" lon="2.75976">
        <ele>102</ele>
        <time>2018-04-14T09:03:47Z</time>
      </trkpt>
      <trkpt lat="48.34435" lon="2.75972">
        <ele>102.2</ele>
        <time>2018-04-14T09:03:49Z</time>
      </trkpt>
      <trkpt lat="48.34437" lon="2.75975">
        <ele>102.3</ele>
        <time>2018-04-14T09:03:50Z</time>
      </trkpt>
      <trkpt lat="48.34438" lon="2.75971">
        <ele>102.4</ele>
        <time>2018-04-14T09:03:51Z</time>
      </trkpt>
      <trkpt lat="48.3444" lon="2.75967">
        <ele>102.5</ele>
        <time>2018-04-14T09:03:53Z</time>
      </trkpt>
      <trkpt lat="48.34444" lon="2.75962">
        <ele>102.7</ele>
        <time>2018-04-14T09:03:55Z</time>
      </trkpt>
      <trkpt lat="48.34446" lon="2.75958">
        <ele>102.8</ele>
        <time>2018-04-14T09:03:57Z</time>
      </trkpt>
      <trkpt lat="48.34449" lon="2.75954">
        <ele>102.8</ele>
        <time>2018-04-14T09:03:58Z</time>
      </trkpt>
      <trkpt lat="48.3445" lon="2.7595">
        <ele>102.8</ele>
        <time>2018-04-14T09:04:00Z</time>
      </trkpt>
      <trkpt lat="48.34455" lon="2.75946">
        <ele>102.9</ele>
        <time>2018-04-14T09:04:02Z</time>
      </trkpt>
      <trkpt lat="48.34458" lon="2.75941">
        <ele>102.9</ele>
        <time>2018-04-14T09:04:04Z</time>
      </trkpt>
      <trkpt lat="48.3446" lon="2.75938">
        <ele>102.9</ele>
        <time>2018-04-14T09:04:05Z</time>
      </trkpt>
      <trkpt lat="48.34463" lon="2.75934">
        <ele>103</ele>
        <time>2018-04-14T09:04:06Z</time>
      </trkpt>
      <trkpt lat="48.34464" lon="2.75929">
        <ele>103.2</ele>
        <time>2018-04-14T09:04:07Z</time>
      </trkpt>
      <trkpt lat="48.34466" lon="2.75924">
        <ele>103.4</ele>
        <time>2018-04-14T09:04:09Z</time>
      </trkpt>
      <trkpt lat="48.34468" lon="2.75921">
        <ele>103.6</ele>
        <time>2018-04-14T09:04:11Z</time>
      </trkpt>
      <trkpt lat="48.34471" lon="2.75915">
        <ele>103.9</ele>
        <time>2018-04-14T09:04:14Z</time>
      </trkpt>
      <trkpt lat="48.34474" lon="2.7591">
        <ele>104</ele>
        <time>2018-04-14T09:04:16Z</time>
      </trkpt>
      <trkpt lat="48.34476" lon="2.75907">
        <ele>104</ele>
        <time>2018-04-14T09:04:17Z</time>
      </trkpt>
      <trkpt lat="48.34479" lon="2.75903">
        <ele>104.1</ele>
        <time>2018-04-14T09:04:19Z</time>
      </trkpt>
      <trkpt lat="48.34482" lon="2.75898">
        <ele>104.2</ele>
        <time>2018-04-14T09:04:21Z</time>
      </trkpt>
      <trkpt lat="48.34484" lon="2.75893">
        <ele>104.3</ele>
        <time>2018-04-14T09:04:23Z</time>
      </trkpt>
      <trkpt lat="48.34487" lon="2.75888">
        <ele>104.4</ele>
        <time>2018-04-14T09:04:25Z</time>
      </trkpt>
      <trkpt lat="48.3449" lon="2.75885">
        <ele>104.6</ele>
        <time>2018-04-14T09:04:27Z</time>
      </trkpt>
      <trkpt lat="48.34492" lon="2.75881">
        <ele>104.8</ele>
        <time>2018-04-14T09:04:29Z</time>
      </trkpt>
      <trkpt lat="48.34495" lon="2.75876">
        <ele>105.2</ele>
        <time>2018-04-14T09:04:31Z</time>
      </trkpt>
      <trkpt lat="48.34499" lon="2.75872">
        <ele>105.5</ele>
        <time>2018-04-14T09:04:33Z</time>
      </trkpt>
      <trkpt lat="48.34501" lon="2.75867">
        <ele>105.9</ele>
        <time>2018-04-14T09:04:35Z</time>
      </trkpt>
      <trkpt lat="48.34504" lon="2.75864">
        <ele>106.1</ele>
        <time>2018-04-14T09:04:37Z</time>
      </trkpt>
      <trkpt lat="48.34506" lon="2.7586">
        <ele>106.2</ele>
        <time>2018-04-14T09:04:39Z</time>
      </trkpt>
      <trkpt lat="48.34508" lon="2.75857">
        <ele>106.3</ele>
        <time>2018-04-14T09:04:41Z</time>
      </trkpt>
      <trkpt lat="48.34511" lon="2.75851">
        <ele>106.5</ele>
        <time>2018-04-14T09:04:43Z</time>
      </trkpt>
      <trkpt lat="48.34514" lon="2.75847">
        <ele>106.6</ele>
        <time>2018-04-14T09:04:45Z</time>
      </trkpt>
      <trkpt lat="48.34516" lon="2.75841">
        <ele>106.7</ele>
        <time>2018-04-14T09:04:48Z</time>
      </trkpt>
      <trkpt lat="48.3452" lon="2.75837">
        <ele>106.8</ele>
        <time>2018-04-14T09:04:51Z</time>
      </trkpt>
      <trkpt lat="48.34524" lon="2.75831">
        <ele>107.2</ele>
        <time>2018-04-14T09:04:53Z</time>
      </trkpt>
      <trkpt lat="48.34528" lon="2.75829">
        <ele>107.5</ele>
        <time>2018-04-14T09:04:55Z</time>
      </trkpt>
      <trkpt lat="48.34531" lon="2.75827">
        <ele>107.7</ele>
        <time>2018-04-14T09:04:57Z</time>
      </trkpt>
      <trkpt lat="48.34533" lon="2.75825">
        <ele>108</ele>
        <time>2018-04-14T09:04:58Z</time>
      </trkpt>
      <trkpt lat="48.34536" lon="2.75822">
        <ele>108.2</ele>
        <time>2018-04-14T09:04:59Z</time>
      </trkpt>
      <trkpt lat="48.34539" lon="2.75819">
        <ele>108.4</ele>
        <time>2018-04-14T09:05:01Z</time>
      </trkpt>
      <trkpt lat="48.34541" lon="2.75815">
        <ele>108.5</ele>
        <time>2018-04-14T09:05:03Z</time>
      </trkpt>
      <trkpt lat="48.34543" lon="2.75811">
        <ele>108.7</ele>
        <time>2018-04-14T09:05:07Z</time>
      </trkpt>
      <trkpt lat="48.34545" lon="2.75806">
        <ele>108.8</ele>
        <time>2018-04-14T09:05:08Z</time>
      </trkpt>
      <trkpt lat="48.34548" lon="2.75802">
        <ele>108.9</ele>
        <time>2018-04-14T09:05:09Z</time>
      </trkpt>
      <trkpt lat="48.3455" lon="2.758">
        <ele>109</ele>
        <time>2018-04-14T09:05:10Z</time>
      </trkpt>
      <trkpt lat="48.34553" lon="2.75794">
        <ele>109.7</ele>
        <time>2018-04-14T09:05:12Z</time>
      </trkpt>
      <trkpt lat="48.34556" lon="2.75791">
        <ele>109.9</ele>
        <time>2018-04-14T09:05:15Z</time>
      </trkpt>
      <trkpt lat="48.34559" lon="2.75789">
        <ele>110.1</ele>
        <time>2018-04-14T09:05:17Z</time>
      </trkpt>
      <trkpt lat="48.34561" lon="2.75786">
        <ele>110.2</ele>
        <time>2018-04-14T09:05:19Z</time>
      </trkpt>
      <trkpt lat="48.34563" lon="2.75782">
        <ele>110.4</ele>
        <time>2018-04-14T09:05:22Z</time>
      </trkpt>
      <trkpt lat="48.34564" lon="2.75778">
        <ele>110.6</ele>
        <time>2018-04-14T09:05:24Z</time>
      </trkpt>
      <trkpt lat="48.34566" lon="2.75774">
        <ele>110.8</ele>
        <time>2018-04-14T09:05:26Z</time>
      </trkpt>
      <trkpt lat="48.34569" lon="2.75771">
        <ele>111.5</ele>
        <time>2018-04-14T09:05:28Z</time>
      </trkpt>
      <trkpt lat="48.34571" lon="2.75765">
        <ele>112.3</ele>
        <time>2018-04-14T09:05:31Z</time>
      </trkpt>
      <trkpt lat="48.34575" lon="2.75759">
        <ele>113.1</ele>
        <time>2018-04-14T09:05:33Z</time>
      </trkpt>
      <trkpt lat="48.34577" lon="2.75757">
        <ele>113.7</ele>
        <time>2018-04-14T09:05:35Z</time>
      </trkpt>
      <trkpt lat="48.34581" lon="2.75754">
        <ele>114.2</ele>
        <time>2018-04-14T09:05:37Z</time>
      </trkpt>
      <trkpt lat="48.34584" lon="2.7575">
        <ele>114.6</ele>
        <time>2018-04-14T09:05:39Z</time>
      </trkpt>
      <trkpt lat="48.34586" lon="2.75746">
        <ele>114.9</ele>
        <time>2018-04-14T09:05:41Z</time>
      </trkpt>
      <trkpt lat="48.34589" lon="2.75742">
        <ele>115.3</ele>
        <time>2018-04-14T09:05:43Z</time>
      </trkpt>
      <trkpt lat="48.34591" lon="2.75739">
        <ele>115.8</ele>
        <time>2018-04-14T09:05:45Z</time>
      </trkpt>
      <trkpt lat="48.34594" lon="2.75733">
        <ele>116.6</ele>
        <time>2018-04-14T09:05:47Z</time>
      </trkpt>
      <trkpt lat="48.34596" lon="2.75731">
        <ele>116.9</ele>
        <time>2018-04-14T09:05:50Z</time>
      </trkpt>
      <trkpt lat="48.34598" lon="2.75729">
        <ele>117.2</ele>
        <time>2018-04-14T09:05:51Z</time>
      </trkpt>
      <trkpt lat="48.34597" lon="2.75721">
        <ele>118.3</ele>
        <time>2018-04-14T09:05:54Z</time>
      </trkpt>
      <trkpt lat="48.34596" lon="2.75716">
        <ele>119</ele>
        <time>2018-04-14T09:05:56Z</time>
      </trkpt>
      <trkpt lat="48.34601" lon="2.75713">
        <ele>119.9</ele>
        <time>2018-04-14T09:05:58Z</time>
      </trkpt>
      <trkpt lat="48.34604" lon="2.75712">
        <ele>120.5</ele>
        <time>2018-04-14T09:06:01Z</time>
      </trkpt>
      <trkpt lat="48.34606" lon="2.75708">
        <ele>121.1</ele>
        <time>2018-04-14T09:06:04Z</time>
      </trkpt>
      <trkpt lat="48.34608" lon="2.75703">
        <ele>121.5</ele>
        <time>2018-04-14T09:06:07Z</time>
      </trkpt>
      <trkpt lat="48.34611" lon="2.757">
        <ele>121.8</ele>
        <time>2018-04-14T09:06:10Z</time>
      </trkpt>
      <trkpt lat="48.34614" lon="2.75695">
        <ele>122.3</ele>
        <time>2018-04-14T09:06:13Z</time>
      </trkpt>
      <trkpt lat="48.34616" lon="2.75691">
        <ele>122.9</ele>
        <time>2018-04-14T09:06:15Z</time>
      </trkpt>
      <trkpt lat="48.34618" lon="2.75688">
        <ele>123.3</ele>
        <time>2018-04-14T09:06:17Z</time>
      </trkpt>
      <trkpt lat="48.3462" lon="2.75682">
        <ele>123.8</ele>
        <time>2018-04-14T09:06:19Z</time>
      </trkpt>
      <trkpt lat="48.34622" lon="2.75678">
        <ele>124.2</ele>
        <time>2018-04-14T09:06:21Z</time>
      </trkpt>
      <trkpt lat="48.34623" lon="2.75674">
        <ele>124.5</ele>
        <time>2018-04-14T09:06:23Z</time>
      </trkpt>
      <trkpt lat="48.34625" lon="2.75671">
        <ele>124.9</ele>
        <time>2018-04-14T09:06:25Z</time>
      </trkpt>
      <trkpt lat="48.34626" lon="2.75666">
        <ele>125.4</ele>
        <time>2018-04-14T09:06:28Z</time>
      </trkpt>
      <trkpt lat="48.34629" lon="2.75662">
        <ele>125.8</ele>
        <time>2018-04-14T09:06:31Z</time>
      </trkpt>
      <trkpt lat="48.34632" lon="2.75659">
        <ele>126.1</ele>
        <time>2018-04-14T09:06:33Z</time>
      </trkpt>
      <trkpt lat="48.34636" lon="2.75656">
        <ele>126.7</ele>
        <time>2018-04-14T09:06:36Z</time>
      </trkpt>
      <trkpt lat="48.3464" lon="2.75651">
        <ele>127.3</ele>
        <time>2018-04-14T09:06:39Z</time>
      </trkpt>
      <trkpt lat="48.34643" lon="2.75645">
        <ele>127.5</ele>
        <time>2018-04-14T09:06:41Z</time>
      </trkpt>
      <trkpt lat="48.34645" lon="2.7564">
        <ele>127.7</ele>
        <time>2018-04-14T09:06:43Z</time>
      </trkpt>
      <trkpt lat="48.34648" lon="2.75637">
        <ele>127.8</ele>
        <time>2018-04-14T09:06:46Z</time>
      </trkpt>
      <trkpt lat="48.34651" lon="2.75633">
        <ele>127.9</ele>
        <time>2018-04-14T09:06:49Z</time>
      </trkpt>
      <trkpt lat="48.34655" lon="2.75629">
        <ele>128</ele>
        <time>2018-04-14T09:06:51Z</time>
      </trkpt>
      <trkpt lat="48.34657" lon="2.75626">
        <ele>128.3</ele>
        <time>2018-04-14T09:06:53Z</time>
      </trkpt>
      <trkpt lat="48.3466" lon="2.75622">
        <ele>128.8</ele>
        <time>2018-04-14T09:06:55Z</time>
      </trkpt>
      <trkpt lat="48.34662" lon="2.75619">
        <ele>129</ele>
        <time>2018-04-14T09:06:56Z</time>
      </trkpt>
      <trkpt lat="48.34665" lon="2.75616">
        <ele>129.5</ele>
        <time>2018-04-14T09:06:58Z</time>
      </trkpt>
      <trkpt lat="48.34667" lon="2.75613">
        <ele>129.8</ele>
        <time>2018-04-14T09:07:01Z</time>
      </trkpt>
      <trkpt lat="48.34669" lon="2.75608">
        <ele>130.4</ele>
        <time>2018-04-14T09:07:03Z</time>
      </trkpt>
      <trkpt lat="48.34673" lon="2.75605">
        <ele>130.9</ele>
        <time>2018-04-14T09:07:05Z</time>
      </trkpt>
      <trkpt lat="48.34676" lon="2.75603">
        <ele>131.2</ele>
        <time>2018-04-14T09:07:07Z</time>
      </trkpt>
      <trkpt lat="48.34678" lon="2.75598">
        <ele>131.6</ele>
        <time>2018-04-14T09:07:09Z</time>
      </trkpt>
      <trkpt lat="48.34682" lon="2.75594">
        <ele>132.2</ele>
        <time>2018-04-14T09:07:11Z</time>
      </trkpt>
      <trkpt lat="48.34684" lon="2.75591">
        <ele>132.4</ele>
        <time>2018-04-14T09:07:12Z</time>
      </trkpt>
      <trkpt lat="48.34687" lon="2.75586">
        <ele>132.8</ele>
        <time>2018-04-14T09:07:14Z</time>
      </trkpt>
      <trkpt lat="48.3469" lon="2.75582">
        <ele>133.1</ele>
        <time>2018-04-14T09:07:16Z</time>
      </trkpt>
      <trkpt lat="48.34692" lon="2.75579">
        <ele>133.3</ele>
        <time>2018-04-14T09:07:18Z</time>
      </trkpt>
      <trkpt lat="48.34696" lon="2.75575">
        <ele>133.6</ele>
        <time>2018-04-14T09:07:20Z</time>
      </trkpt>
      <trkpt lat="48.34698" lon="2.75569">
        <ele>133.9</ele>
        <time>2018-04-14T09:07:23Z</time>
      </trkpt>
      <trkpt lat="48.347" lon="2.75566">
        <ele>134.1</ele>
        <time>2018-04-14T09:07:25Z</time>
      </trkpt>
      <trkpt lat="48.34701" lon="2.75559">
        <ele>134.3</ele>
        <time>2018-04-14T09:07:27Z</time>
      </trkpt>
      <trkpt lat="48.34704" lon="2.75554">
        <ele>134.5</ele>
        <time>2018-04-14T09:07:29Z</time>
      </trkpt>
      <trkpt lat="48.34708" lon="2.75549">
        <ele>134.8</ele>
        <time>2018-04-14T09:07:31Z</time>
      </trkpt>
      <trkpt lat="48.34711" lon="2.75546">
        <ele>135</ele>
        <time>2018-04-14T09:07:32Z</time>
      </trkpt>
      <trkpt lat="48.34714" lon="2.75544">
        <ele>135</ele>
        <time>2018-04-14T09:07:33Z</time>
      </trkpt>
      <trkpt lat="48.34716" lon="2.7554">
        <ele>135</ele>
        <time>2018-04-14T09:07:35Z</time>
      </trkpt>
      <trkpt lat="48.34718" lon="2.75535">
        <ele>135</ele>
        <time>2018-04-14T09:07:39Z</time>
      </trkpt>
      <trkpt lat="48.34722" lon="2.75532">
        <ele>134.9</ele>
        <time>2018-04-14T09:07:41Z</time>
      </trkpt>
      <trkpt lat="48.34724" lon="2.7553">
        <ele>134.9</ele>
        <time>2018-04-14T09:07:42Z</time>
      </trkpt>
      <trkpt lat="48.3473" lon="2.75524">
        <ele>134.9</ele>
        <time>2018-04-14T09:07:44Z</time>
      </trkpt>
      <trkpt lat="48.34733" lon="2.75521">
        <ele>134.9</ele>
        <time>2018-04-14T09:07:45Z</time>
      </trkpt>
      <trkpt lat="48.34737" lon="2.75517">
        <ele>134.9</ele>
        <time>2018-04-14T09:07:47Z</time>
      </trkpt>
      <trkpt lat="48.34739" lon="2.75514">
        <ele>134.9</ele>
        <time>2018-04-14T09:07:48Z</time>
      </trkpt>
      <trkpt lat="48.3474" lon="2.75509">
        <ele>134.8</ele>
        <time>2018-04-14T09:07:50Z</time>
      </trkpt>
      <trkpt lat="48.34742" lon="2.75503">
        <ele>134.8</ele>
        <time>2018-04-14T09:07:52Z</time>
      </trkpt>
      <trkpt lat="48.34744" lon="2.75496">
        <ele>134.8</ele>
        <time>2018-04-14T09:07:54Z</time>
      </trkpt>
      <trkpt lat="48.34747" lon="2.75493">
        <ele>134.8</ele>
        <time>2018-04-14T09:07:55Z</time>
      </trkpt>
      <trkpt lat="48.34751" lon="2.75489">
        <ele>134.8</ele>
        <time>2018-04-14T09:07:56Z</time>
      </trkpt>
      <trkpt lat="48.34755" lon="2.75483">
        <ele>134.7</ele>
        <time>2018-04-14T09:07:57Z</time>
      </trkpt>
      <trkpt lat="48.34757" lon="2.75478">
        <ele>134.7</ele>
        <time>2018-04-14T09:07:58Z</time>
      </trkpt>
      <trkpt lat="48.3476" lon="2.75476">
        <ele>134.7</ele>
        <time>2018-04-14T09:07:59Z</time>
      </trkpt>
      <trkpt lat="48.34762" lon="2.75472">
        <ele>134.6</ele>
        <time>2018-04-14T09:08:00Z</time>
      </trkpt>
      <trkpt lat="48.34764" lon="2.75468">
        <ele>134.6</ele>
        <time>2018-04-14T09:08:01Z</time>
      </trkpt>
      <trkpt lat="48.34767" lon="2.75457">
        <ele>134.4</ele>
        <time>2018-04-14T09:08:03Z</time>
      </trkpt>
      <trkpt lat="48.3477" lon="2.75453">
        <ele>134.3</ele>
        <time>2018-04-14T09:08:04Z</time>
      </trkpt>
      <trkpt lat="48.34773" lon="2.75447">
        <ele>134.2</ele>
        <time>2018-04-14T09:08:05Z</time>
      </trkpt>
      <trkpt lat="48.34774" lon="2.75444">
        <ele>134.1</ele>
        <time>2018-04-14T09:08:06Z</time>
      </trkpt>
      <trkpt lat="48.34777" lon="2.75442">
        <ele>134</ele>
        <time>2018-04-14T09:08:07Z</time>
      </trkpt>
      <trkpt lat="48.34779" lon="2.75439">
        <ele>133.8</ele>
        <time>2018-04-14T09:08:08Z</time>
      </trkpt>
      <trkpt lat="48.3478" lon="2.75432">
        <ele>133.4</ele>
        <time>2018-04-14T09:08:09Z</time>
      </trkpt>
      <trkpt lat="48.34784" lon="2.75429">
        <ele>133</ele>
        <time>2018-04-14T09:08:10Z</time>
      </trkpt>
      <trkpt lat="48.34786" lon="2.75423">
        <ele>132.6</ele>
        <time>2018-04-14T09:08:11Z</time>
      </trkpt>
      <trkpt lat="48.34789" lon="2.75419">
        <ele>132.4</ele>
        <time>2018-04-14T09:08:12Z</time>
      </trkpt>
      <trkpt lat="48.34794" lon="2.7541">
        <ele>132</ele>
        <time>2018-04-14T09:08:14Z</time>
      </trkpt>
      <trkpt lat="48.34796" lon="2.75404">
        <ele>131.6</ele>
        <time>2018-04-14T09:08:15Z</time>
      </trkpt>
      <trkpt lat="48.348" lon="2.75401">
        <ele>131.2</ele>
        <time>2018-04-14T09:08:16Z</time>
      </trkpt>
      <trkpt lat="48.34802" lon="2.75398">
        <ele>131</ele>
        <time>2018-04-14T09:08:17Z</time>
      </trkpt>
      <trkpt lat="48.34806" lon="2.75392">
        <ele>130.4</ele>
        <time>2018-04-14T09:08:18Z</time>
      </trkpt>
      <trkpt lat="48.3481" lon="2.75385">
        <ele>130</ele>
        <time>2018-04-14T09:08:19Z</time>
      </trkpt>
      <trkpt lat="48.34812" lon="2.75381">
        <ele>129.8</ele>
        <time>2018-04-14T09:08:20Z</time>
      </trkpt>
      <trkpt lat="48.34815" lon="2.75377">
        <ele>129.5</ele>
        <time>2018-04-14T09:08:22Z</time>
      </trkpt>
      <trkpt lat="48.34818" lon="2.75373">
        <ele>129.2</ele>
        <time>2018-04-14T09:08:24Z</time>
      </trkpt>
      <trkpt lat="48.34821" lon="2.75369">
        <ele>128.9</ele>
        <time>2018-04-14T09:08:25Z</time>
      </trkpt>
      <trkpt lat="48.34823" lon="2.75363">
        <ele>128.5</ele>
        <time>2018-04-14T09:08:26Z</time>
      </trkpt>
      <trkpt lat="48.34824" lon="2.75356">
        <ele>127.9</ele>
        <time>2018-04-14T09:08:27Z</time>
      </trkpt>
      <trkpt lat="48.34825" lon="2.75351">
        <ele>127.5</ele>
        <time>2018-04-14T09:08:28Z</time>
      </trkpt>
      <trkpt lat="48.34828" lon="2.75344">
        <ele>126.8</ele>
        <time>2018-04-14T09:08:30Z</time>
      </trkpt>
      <trkpt lat="48.3483" lon="2.7534">
        <ele>126.3</ele>
        <time>2018-04-14T09:08:31Z</time>
      </trkpt>
      <trkpt lat="48.34832" lon="2.75336">
        <ele>125.8</ele>
        <time>2018-04-14T09:08:32Z</time>
      </trkpt>
      <trkpt lat="48.34835" lon="2.7533">
        <ele>124.9</ele>
        <time>2018-04-14T09:08:34Z</time>
      </trkpt>
      <trkpt lat="48.34836" lon="2.75326">
        <ele>124.3</ele>
        <time>2018-04-14T09:08:35Z</time>
      </trkpt>
      <trkpt lat="48.34838" lon="2.75321">
        <ele>123.5</ele>
        <time>2018-04-14T09:08:36Z</time>
      </trkpt>
      <trkpt lat="48.34839" lon="2.75316">
        <ele>122.8</ele>
        <time>2018-04-14T09:08:37Z</time>
      </trkpt>
      <trkpt lat="48.34841" lon="2.7531">
        <ele>122</ele>
        <time>2018-04-14T09:08:38Z</time>
      </trkpt>
      <trkpt lat="48.34843" lon="2.75304">
        <ele>121.3</ele>
        <time>2018-04-14T09:08:39Z</time>
      </trkpt>
      <trkpt lat="48.34845" lon="2.75298">
        <ele>120.6</ele>
        <time>2018-04-14T09:08:40Z</time>
      </trkpt>
      <trkpt lat="48.34847" lon="2.75292">
        <ele>119.9</ele>
        <time>2018-04-14T09:08:41Z</time>
      </trkpt>
      <trkpt lat="48.34848" lon="2.75287">
        <ele>119.6</ele>
        <time>2018-04-14T09:08:42Z</time>
      </trkpt>
      <trkpt lat="48.3485" lon="2.75281">
        <ele>119.1</ele>
        <time>2018-04-14T09:08:44Z</time>
      </trkpt>
      <trkpt lat="48.34852" lon="2.75274">
        <ele>118.6</ele>
        <time>2018-04-14T09:08:46Z</time>
      </trkpt>
      <trkpt lat="48.34853" lon="2.75269">
        <ele>118.3</ele>
        <time>2018-04-14T09:08:47Z</time>
      </trkpt>
      <trkpt lat="48.34853" lon="2.75265">
        <ele>118.1</ele>
        <time>2018-04-14T09:08:48Z</time>
      </trkpt>
      <trkpt lat="48.34854" lon="2.75258">
        <ele>117.7</ele>
        <time>2018-04-14T09:08:49Z</time>
      </trkpt>
      <trkpt lat="48.34855" lon="2.75252">
        <ele>117.5</ele>
        <time>2018-04-14T09:08:50Z</time>
      </trkpt>
      <trkpt lat="48.34858" lon="2.75246">
        <ele>117.3</ele>
        <time>2018-04-14T09:08:51Z</time>
      </trkpt>
      <trkpt lat="48.34861" lon="2.7524">
        <ele>117</ele>
        <time>2018-04-14T09:08:52Z</time>
      </trkpt>
      <trkpt lat="48.34862" lon="2.75235">
        <ele>116.8</ele>
        <time>2018-04-14T09:08:53Z</time>
      </trkpt>
      <trkpt lat="48.34864" lon="2.75226">
        <ele>116.4</ele>
        <time>2018-04-14T09:08:54Z</time>
      </trkpt>
      <trkpt lat="48.34866" lon="2.75219">
        <ele>116.1</ele>
        <time>2018-04-14T09:08:55Z</time>
      </trkpt>
      <trkpt lat="48.34868" lon="2.75214">
        <ele>115.9</ele>
        <time>2018-04-14T09:08:56Z</time>
      </trkpt>
      <trkpt lat="48.3487" lon="2.75208">
        <ele>115.7</ele>
        <time>2018-04-14T09:08:57Z</time>
      </trkpt>
      <trkpt lat="48.34873" lon="2.75202">
        <ele>115.5</ele>
        <time>2018-04-14T09:08:58Z</time>
      </trkpt>
      <trkpt lat="48.34875" lon="2.75197">
        <ele>115.4</ele>
        <time>2018-04-14T09:08:59Z</time>
      </trkpt>
      <trkpt lat="48.34876" lon="2.75193">
        <ele>115.3</ele>
        <time>2018-04-14T09:09:00Z</time>
      </trkpt>
      <trkpt lat="48.34878" lon="2.75188">
        <ele>115.2</ele>
        <time>2018-04-14T09:09:01Z</time>
      </trkpt>
      <trkpt lat="48.34879" lon="2.75184">
        <ele>115.2</ele>
        <time>2018-04-14T09:09:02Z</time>
      </trkpt>
      <trkpt lat="48.3488" lon="2.75179">
        <ele>115.1</ele>
        <time>2018-04-14T09:09:04Z</time>
      </trkpt>
      <trkpt lat="48.3488" lon="2.75171">
        <ele>114.9</ele>
        <time>2018-04-14T09:09:06Z</time>
      </trkpt>
      <trkpt lat="48.34877" lon="2.75166">
        <ele>114.7</ele>
        <time>2018-04-14T09:09:08Z</time>
      </trkpt>
      <trkpt lat="48.34873" lon="2.75163">
        <ele>114.6</ele>
        <time>2018-04-14T09:09:09Z</time>
      </trkpt>
      <trkpt lat="48.34868" lon="2.75159">
        <ele>114.4</ele>
        <time>2018-04-14T09:09:10Z</time>
      </trkpt>
      <trkpt lat="48.34863" lon="2.75154">
        <ele>114.3</ele>
        <time>2018-04-14T09:09:11Z</time>
      </trkpt>
      <trkpt lat="48.3486" lon="2.7515">
        <ele>114.1</ele>
        <time>2018-04-14T09:09:12Z</time>
      </trkpt>
      <trkpt lat="48.34857" lon="2.75146">
        <ele>114</ele>
        <time>2018-04-14T09:09:13Z</time>
      </trkpt>
      <trkpt lat="48.34852" lon="2.75142">
        <ele>113.8</ele>
        <time>2018-04-14T09:09:14Z</time>
      </trkpt>
      <trkpt lat="48.34848" lon="2.75137">
        <ele>113.7</ele>
        <time>2018-04-14T09:09:15Z</time>
      </trkpt>
      <trkpt lat="48.34844" lon="2.75133">
        <ele>113.7</ele>
        <time>2018-04-14T09:09:16Z</time>
      </trkpt>
      <trkpt lat="48.34839" lon="2.75129">
        <ele>113.7</ele>
        <time>2018-04-14T09:09:17Z</time>
      </trkpt>
      <trkpt lat="48.34835" lon="2.75124">
        <ele>113.8</ele>
        <time>2018-04-14T09:09:18Z</time>
      </trkpt>
      <trkpt lat="48.34831" lon="2.7512">
        <ele>113.8</ele>
        <time>2018-04-14T09:09:19Z</time>
      </trkpt>
      <trkpt lat="48.34828" lon="2.75115">
        <ele>113.8</ele>
        <time>2018-04-14T09:09:20Z</time>
      </trkpt>
      <trkpt lat="48.34825" lon="2.75111">
        <ele>113.9</ele>
        <time>2018-04-14T09:09:21Z</time>
      </trkpt>
      <trkpt lat="48.34821" lon="2.75106">
        <ele>114.1</ele>
        <time>2018-04-14T09:09:22Z</time>
      </trkpt>
      <trkpt lat="48.34816" lon="2.75101">
        <ele>114.3</ele>
        <time>2018-04-14T09:09:23Z</time>
      </trkpt>
      <trkpt lat="48.34811" lon="2.75096">
        <ele>114.4</ele>
        <time>2018-04-14T09:09:24Z</time>
      </trkpt>
      <trkpt lat="48.34807" lon="2.75093">
        <ele>114.5</ele>
        <time>2018-04-14T09:09:25Z</time>
      </trkpt>
      <trkpt lat="48.34803" lon="2.75088">
        <ele>114.7</ele>
        <time>2018-04-14T09:09:26Z</time>
      </trkpt>
      <trkpt lat="48.34799" lon="2.75084">
        <ele>114.9</ele>
        <time>2018-04-14T09:09:27Z</time>
      </trkpt>
      <trkpt lat="48.34795" lon="2.7508">
        <ele>114.8</ele>
        <time>2018-04-14T09:09:28Z</time>
      </trkpt>
      <trkpt lat="48.3479" lon="2.75077">
        <ele>114.6</ele>
        <time>2018-04-14T09:09:29Z</time>
      </trkpt>
      <trkpt lat="48.34786" lon="2.75072">
        <ele>114.6</ele>
        <time>2018-04-14T09:09:30Z</time>
      </trkpt>
      <trkpt lat="48.34783" lon="2.75066">
        <ele>114.5</ele>
        <time>2018-04-14T09:09:31Z</time>
      </trkpt>
      <trkpt lat="48.34781" lon="2.7506">
        <ele>114.5</ele>
        <time>2018-04-14T09:09:32Z</time>
      </trkpt>
      <trkpt lat="48.34777" lon="2.75056">
        <ele>114.4</ele>
        <time>2018-04-14T09:09:33Z</time>
      </trkpt>
      <trkpt lat="48.34774" lon="2.75052">
        <ele>114.4</ele>
        <time>2018-04-14T09:09:34Z</time>
      </trkpt>
      <trkpt lat="48.34771" lon="2.75047">
        <ele>114.4</ele>
        <time>2018-04-14T09:09:35Z</time>
      </trkpt>
      <trkpt lat="48.34769" lon="2.75043">
        <ele>114.3</ele>
        <time>2018-04-14T09:09:36Z</time>
      </trkpt>
      <trkpt lat="48.34766" lon="2.75037">
        <ele>114.1</ele>
        <time>2018-04-14T09:09:37Z</time>
      </trkpt>
      <trkpt lat="48.34764" lon="2.75027">
        <ele>113.9</ele>
        <time>2018-04-14T09:09:39Z</time>
      </trkpt>
      <trkpt lat="48.34763" lon="2.75022">
        <ele>113.8</ele>
        <time>2018-04-14T09:09:40Z</time>
      </trkpt>
      <trkpt lat="48.34759" lon="2.75017">
        <ele>113.7</ele>
        <time>2018-04-14T09:09:41Z</time>
      </trkpt>
      <trkpt lat="48.34755" lon="2.75011">
        <ele>113.5</ele>
        <time>2018-04-14T09:09:42Z</time>
      </trkpt>
      <trkpt lat="48.34751" lon="2.75006">
        <ele>113.4</ele>
        <time>2018-04-14T09:09:43Z</time>
      </trkpt>
      <trkpt lat="48.34749" lon="2.75">
        <ele>113.4</ele>
        <time>2018-04-14T09:09:44Z</time>
      </trkpt>
      <trkpt lat="48.34746" lon="2.74995">
        <ele>113.3</ele>
        <time>2018-04-14T09:09:45Z</time>
      </trkpt>
      <trkpt lat="48.34745" lon="2.74988">
        <ele>112.8</ele>
        <time>2018-04-14T09:09:46Z</time>
      </trkpt>
      <trkpt lat="48.34745" lon="2.74982">
        <ele>112.4</ele>
        <time>2018-04-14T09:09:47Z</time>
      </trkpt>
      <trkpt lat="48.34745" lon="2.74976">
        <ele>112.2</ele>
        <time>2018-04-14T09:09:48Z</time>
      </trkpt>
      <trkpt lat="48.34743" lon="2.74968">
        <ele>112</ele>
        <time>2018-04-14T09:09:49Z</time>
      </trkpt>
      <trkpt lat="48.34742" lon="2.74961">
        <ele>111.9</ele>
        <time>2018-04-14T09:09:50Z</time>
      </trkpt>
      <trkpt lat="48.34739" lon="2.74952">
        <ele>111.1</ele>
        <time>2018-04-14T09:09:51Z</time>
      </trkpt>
      <trkpt lat="48.34736" lon="2.74947">
        <ele>110.5</ele>
        <time>2018-04-14T09:09:52Z</time>
      </trkpt>
      <trkpt lat="48.34734" lon="2.74943">
        <ele>110.1</ele>
        <time>2018-04-14T09:09:53Z</time>
      </trkpt>
      <trkpt lat="48.3473" lon="2.74934">
        <ele>109.5</ele>
        <time>2018-04-14T09:09:54Z</time>
      </trkpt>
      <trkpt lat="48.34726" lon="2.74927">
        <ele>109</ele>
        <time>2018-04-14T09:09:55Z</time>
      </trkpt>
      <trkpt lat="48.34723" lon="2.74922">
        <ele>108.7</ele>
        <time>2018-04-14T09:09:56Z</time>
      </trkpt>
      <trkpt lat="48.3472" lon="2.74916">
        <ele>108.5</ele>
        <time>2018-04-14T09:09:57Z</time>
      </trkpt>
      <trkpt lat="48.34717" lon="2.74913">
        <ele>108.5</ele>
        <time>2018-04-14T09:09:58Z</time>
      </trkpt>
      <trkpt lat="48.34715" lon="2.74909">
        <ele>108.4</ele>
        <time>2018-04-14T09:09:59Z</time>
      </trkpt>
      <trkpt lat="48.34714" lon="2.74905">
        <ele>108.3</ele>
        <time>2018-04-14T09:10:00Z</time>
      </trkpt>
      <trkpt lat="48.34711" lon="2.74901">
        <ele>108.2</ele>
        <time>2018-04-14T09:10:01Z</time>
      </trkpt>
      <trkpt lat="48.3471" lon="2.74897">
        <ele>108.1</ele>
        <time>2018-04-14T09:10:02Z</time>
      </trkpt>
      <trkpt lat="48.34708" lon="2.74892">
        <ele>107</ele>
        <time>2018-04-14T09:10:03Z</time>
      </trkpt>
      <trkpt lat="48.34705" lon="2.74889">
        <ele>106.5</ele>
        <time>2018-04-14T09:10:04Z</time>
      </trkpt>
      <trkpt lat="48.34702" lon="2.74885">
        <ele>105.9</ele>
        <time>2018-04-14T09:10:05Z</time>
      </trkpt>
      <trkpt lat="48.34698" lon="2.7488">
        <ele>105.4</ele>
        <time>2018-04-14T09:10:06Z</time>
      </trkpt>
      <trkpt lat="48.34692" lon="2.74873">
        <ele>104.6</ele>
        <time>2018-04-14T09:10:08Z</time>
      </trkpt>
      <trkpt lat="48.34689" lon="2.74867">
        <ele>104.1</ele>
        <time>2018-04-14T09:10:09Z</time>
      </trkpt>
      <trkpt lat="48.34686" lon="2.74865">
        <ele>103.7</ele>
        <time>2018-04-14T09:10:10Z</time>
      </trkpt>
      <trkpt lat="48.34682" lon="2.74862">
        <ele>103.3</ele>
        <time>2018-04-14T09:10:11Z</time>
      </trkpt>
      <trkpt lat="48.3468" lon="2.7486">
        <ele>103</ele>
        <time>2018-04-14T09:10:12Z</time>
      </trkpt>
      <trkpt lat="48.34675" lon="2.74854">
        <ele>101.5</ele>
        <time>2018-04-14T09:10:13Z</time>
      </trkpt>
      <trkpt lat="48.34671" lon="2.74847">
        <ele>99.1</ele>
        <time>2018-04-14T09:10:14Z</time>
      </trkpt>
      <trkpt lat="48.34667" lon="2.74842">
        <ele>98.1</ele>
        <time>2018-04-14T09:10:15Z</time>
      </trkpt>
      <trkpt lat="48.34663" lon="2.74837">
        <ele>97.3</ele>
        <time>2018-04-14T09:10:16Z</time>
      </trkpt>
      <trkpt lat="48.34659" lon="2.74833">
        <ele>96.7</ele>
        <time>2018-04-14T09:10:17Z</time>
      </trkpt>
      <trkpt lat="48.34653" lon="2.7483">
        <ele>96</ele>
        <time>2018-04-14T09:10:18Z</time>
      </trkpt>
      <trkpt lat="48.34648" lon="2.74825">
        <ele>95.7</ele>
        <time>2018-04-14T09:10:19Z</time>
      </trkpt>
      <trkpt lat="48.34644" lon="2.74819">
        <ele>95.5</ele>
        <time>2018-04-14T09:10:20Z</time>
      </trkpt>
      <trkpt lat="48.34642" lon="2.74812">
        <ele>95.3</ele>
        <time>2018-04-14T09:10:21Z</time>
      </trkpt>
      <trkpt lat="48.34637" lon="2.74807">
        <ele>95.1</ele>
        <time>2018-04-14T09:10:23Z</time>
      </trkpt>
      <trkpt lat="48.34633" lon="2.748">
        <ele>95</ele>
        <time>2018-04-14T09:10:24Z</time>
      </trkpt>
      <trkpt lat="48.3463" lon="2.74796">
        <ele>95</ele>
        <time>2018-04-14T09:10:25Z</time>
      </trkpt>
      <trkpt lat="48.34626" lon="2.74791">
        <ele>95</ele>
        <time>2018-04-14T09:10:27Z</time>
      </trkpt>
      <trkpt lat="48.34622" lon="2.74788">
        <ele>95.4</ele>
        <time>2018-04-14T09:10:28Z</time>
      </trkpt>
      <trkpt lat="48.34619" lon="2.74785">
        <ele>95.7</ele>
        <time>2018-04-14T09:10:29Z</time>
      </trkpt>
      <trkpt lat="48.34616" lon="2.74782">
        <ele>96</ele>
        <time>2018-04-14T09:10:30Z</time>
      </trkpt>
      <trkpt lat="48.34614" lon="2.7478">
        <ele>96.1</ele>
        <time>2018-04-14T09:10:31Z</time>
      </trkpt>
      <trkpt lat="48.34611" lon="2.74778">
        <ele>96.1</ele>
        <time>2018-04-14T09:10:32Z</time>
      </trkpt>
      <trkpt lat="48.34607" lon="2.74774">
        <ele>96.2</ele>
        <time>2018-04-14T09:10:34Z</time>
      </trkpt>
      <trkpt lat="48.34605" lon="2.74772">
        <ele>96.3</ele>
        <time>2018-04-14T09:10:35Z</time>
      </trkpt>
      <trkpt lat="48.34601" lon="2.74768">
        <ele>96.5</ele>
        <time>2018-04-14T09:10:37Z</time>
      </trkpt>
      <trkpt lat="48.34597" lon="2.74764">
        <ele>96.6</ele>
        <time>2018-04-14T09:10:38Z</time>
      </trkpt>
      <trkpt lat="48.34594" lon="2.7476">
        <ele>96.6</ele>
        <time>2018-04-14T09:10:39Z</time>
      </trkpt>
      <trkpt lat="48.3459" lon="2.74756">
        <ele>96.7</ele>
        <time>2018-04-14T09:10:40Z</time>
      </trkpt>
      <trkpt lat="48.34586" lon="2.74752">
        <ele>96.8</ele>
        <time>2018-04-14T09:10:41Z</time>
      </trkpt>
      <trkpt lat="48.34582" lon="2.74748">
        <ele>96.9</ele>
        <time>2018-04-14T09:10:42Z</time>
      </trkpt>
      <trkpt lat="48.34578" lon="2.74744">
        <ele>97</ele>
        <time>2018-04-14T09:10:43Z</time>
      </trkpt>
      <trkpt lat="48.34573" lon="2.74741">
        <ele>97.1</ele>
        <time>2018-04-14T09:10:44Z</time>
      </trkpt>
      <trkpt lat="48.34568" lon="2.74737">
        <ele>97.3</ele>
        <time>2018-04-14T09:10:45Z</time>
      </trkpt>
      <trkpt lat="48.34563" lon="2.74732">
        <ele>97.4</ele>
        <time>2018-04-14T09:10:46Z</time>
      </trkpt>
      <trkpt lat="48.34558" lon="2.74728">
        <ele>97.5</ele>
        <time>2018-04-14T09:10:47Z</time>
      </trkpt>
      <trkpt lat="48.34553" lon="2.74725">
        <ele>97.5</ele>
        <time>2018-04-14T09:10:48Z</time>
      </trkpt>
      <trkpt lat="48.34547" lon="2.74719">
        <ele>97.5</ele>
        <time>2018-04-14T09:10:49Z</time>
      </trkpt>
      <trkpt lat="48.34542" lon="2.74714">
        <ele>97.4</ele>
        <time>2018-04-14T09:10:50Z</time>
      </trkpt>
      <trkpt lat="48.34537" lon="2.74709">
        <ele>97.4</ele>
        <time>2018-04-14T09:10:51Z</time>
      </trkpt>
      <trkpt lat="48.34533" lon="2.74707">
        <ele>97.3</ele>
        <time>2018-04-14T09:10:52Z</time>
      </trkpt>
      <trkpt lat="48.34528" lon="2.74702">
        <ele>97.2</ele>
        <time>2018-04-14T09:10:53Z</time>
      </trkpt>
      <trkpt lat="48.34524" lon="2.74696">
        <ele>97.2</ele>
        <time>2018-04-14T09:10:54Z</time>
      </trkpt>
      <trkpt lat="48.3452" lon="2.74691">
        <ele>97.2</ele>
        <time>2018-04-14T09:10:55Z</time>
      </trkpt>
      <trkpt lat="48.34516" lon="2.74686">
        <ele>97.2</ele>
        <time>2018-04-14T09:10:56Z</time>
      </trkpt>
      <trkpt lat="48.34511" lon="2.7468">
        <ele>97.2</ele>
        <time>2018-04-14T09:10:57Z</time>
      </trkpt>
      <trkpt lat="48.34507" lon="2.74675">
        <ele>97.3</ele>
        <time>2018-04-14T09:10:58Z</time>
      </trkpt>
      <trkpt lat="48.34502" lon="2.7467">
        <ele>97.3</ele>
        <time>2018-04-14T09:10:59Z</time>
      </trkpt>
      <trkpt lat="48.34498" lon="2.74665">
        <ele>97.4</ele>
        <time>2018-04-14T09:11:00Z</time>
      </trkpt>
      <trkpt lat="48.34494" lon="2.7466">
        <ele>97.4</ele>
        <time>2018-04-14T09:11:01Z</time>
      </trkpt>
      <trkpt lat="48.3449" lon="2.74654">
        <ele>97.5</ele>
        <time>2018-04-14T09:11:02Z</time>
      </trkpt>
      <trkpt lat="48.34486" lon="2.7465">
        <ele>97.6</ele>
        <time>2018-04-14T09:11:03Z</time>
      </trkpt>
      <trkpt lat="48.34482" lon="2.74645">
        <ele>97.6</ele>
        <time>2018-04-14T09:11:04Z</time>
      </trkpt>
      <trkpt lat="48.34477" lon="2.7464">
        <ele>97.7</ele>
        <time>2018-04-14T09:11:05Z</time>
      </trkpt>
      <trkpt lat="48.34476" lon="2.74635">
        <ele>97.7</ele>
        <time>2018-04-14T09:11:06Z</time>
      </trkpt>
      <trkpt lat="48.34473" lon="2.74633">
        <ele>97.8</ele>
        <time>2018-04-14T09:11:07Z</time>
      </trkpt>
      <trkpt lat="48.3447" lon="2.74631">
        <ele>97.8</ele>
        <time>2018-04-14T09:11:08Z</time>
      </trkpt>
      <trkpt lat="48.34466" lon="2.74634">
        <ele>97.8</ele>
        <time>2018-04-14T09:11:09Z</time>
      </trkpt>
      <trkpt lat="48.34464" lon="2.74639">
        <ele>97.8</ele>
        <time>2018-04-14T09:11:10Z</time>
      </trkpt>
      <trkpt lat="48.34465" lon="2.74645">
        <ele>97.7</ele>
        <time>2018-04-14T09:11:12Z</time>
      </trkpt>
      <trkpt lat="48.34468" lon="2.74643">
        <ele>97.7</ele>
        <time>2018-04-14T09:11:14Z</time>
      </trkpt>
      <trkpt lat="48.34473" lon="2.74639">
        <ele>97.6</ele>
        <time>2018-04-14T09:11:16Z</time>
      </trkpt>
      <trkpt lat="48.34476" lon="2.74638">
        <ele>97.6</ele>
        <time>2018-04-14T09:11:18Z</time>
      </trkpt>
      <trkpt lat="48.34479" lon="2.7464">
        <ele>97.6</ele>
        <time>2018-04-14T09:11:19Z</time>
      </trkpt>
      <trkpt lat="48.34482" lon="2.74643">
        <ele>97.5</ele>
        <time>2018-04-14T09:11:20Z</time>
      </trkpt>
      <trkpt lat="48.34485" lon="2.74644">
        <ele>97.5</ele>
        <time>2018-04-14T09:11:21Z</time>
      </trkpt>
      <trkpt lat="48.34489" lon="2.74647">
        <ele>97.4</ele>
        <time>2018-04-14T09:11:23Z</time>
      </trkpt>
      <trkpt lat="48.34492" lon="2.74649">
        <ele>97.4</ele>
        <time>2018-04-14T09:11:24Z</time>
      </trkpt>
      <trkpt lat="48.34494" lon="2.74652">
        <ele>97.4</ele>
        <time>2018-04-14T09:11:25Z</time>
      </trkpt>
      <trkpt lat="48.34497" lon="2.74655">
        <ele>97.3</ele>
        <time>2018-04-14T09:11:26Z</time>
      </trkpt>
      <trkpt lat="48.34501" lon="2.7466">
        <ele>97.3</ele>
        <time>2018-04-14T09:11:28Z</time>
      </trkpt>
      <trkpt lat="48.34506" lon="2.74665">
        <ele>97.2</ele>
        <time>2018-04-14T09:11:30Z</time>
      </trkpt>
      <trkpt lat="48.34509" lon="2.74668">
        <ele>97.2</ele>
        <time>2018-04-14T09:11:31Z</time>
      </trkpt>
      <trkpt lat="48.34512" lon="2.74671">
        <ele>97.2</ele>
        <time>2018-04-14T09:11:32Z</time>
      </trkpt>
      <trkpt lat="48.34515" lon="2.74674">
        <ele>97.2</ele>
        <time>2018-04-14T09:11:33Z</time>
      </trkpt>
      <trkpt lat="48.34519" lon="2.74678">
        <ele>97.2</ele>
        <time>2018-04-14T09:11:34Z</time>
      </trkpt>
      <trkpt lat="48.34523" lon="2.74681">
        <ele>97.2</ele>
        <time>2018-04-14T09:11:35Z</time>
      </trkpt>
      <trkpt lat="48.34526" lon="2.74683">
        <ele>97.2</ele>
        <time>2018-04-14T09:11:36Z</time>
      </trkpt>
      <trkpt lat="48.34531" lon="2.74686">
        <ele>97.2</ele>
        <time>2018-04-14T09:11:38Z</time>
      </trkpt>
      <trkpt lat="48.34533" lon="2.74688">
        <ele>97.3</ele>
        <time>2018-04-14T09:11:39Z</time>
      </trkpt>
      <trkpt lat="48.34538" lon="2.74695">
        <ele>97.4</ele>
        <time>2018-04-14T09:11:41Z</time>
      </trkpt>
      <trkpt lat="48.34541" lon="2.74697">
        <ele>97.4</ele>
        <time>2018-04-14T09:11:42Z</time>
      </trkpt>
      <trkpt lat="48.34543" lon="2.747">
        <ele>97.5</ele>
        <time>2018-04-14T09:11:43Z</time>
      </trkpt>
      <trkpt lat="48.34547" lon="2.74704">
        <ele>97.5</ele>
        <time>2018-04-14T09:11:45Z</time>
      </trkpt>
      <trkpt lat="48.34551" lon="2.7471">
        <ele>97.6</ele>
        <time>2018-04-14T09:11:47Z</time>
      </trkpt>
      <trkpt lat="48.34554" lon="2.74713">
        <ele>97.5</ele>
        <time>2018-04-14T09:11:48Z</time>
      </trkpt>
      <trkpt lat="48.3456" lon="2.74718">
        <ele>97.5</ele>
        <time>2018-04-14T09:11:50Z</time>
      </trkpt>
      <trkpt lat="48.34564" lon="2.74723">
        <ele>97.4</ele>
        <time>2018-04-14T09:11:51Z</time>
      </trkpt>
      <trkpt lat="48.34566" lon="2.74726">
        <ele>97.3</ele>
        <time>2018-04-14T09:11:52Z</time>
      </trkpt>
      <trkpt lat="48.34569" lon="2.74729">
        <ele>97.3</ele>
        <time>2018-04-14T09:11:53Z</time>
      </trkpt>
      <trkpt lat="48.34572" lon="2.74733">
        <ele>97.2</ele>
        <time>2018-04-14T09:11:54Z</time>
      </trkpt>
      <trkpt lat="48.34576" lon="2.74737">
        <ele>97.1</ele>
        <time>2018-04-14T09:11:55Z</time>
      </trkpt>
      <trkpt lat="48.3458" lon="2.7474">
        <ele>97</ele>
        <time>2018-04-14T09:11:56Z</time>
      </trkpt>
      <trkpt lat="48.34582" lon="2.74742">
        <ele>96.9</ele>
        <time>2018-04-14T09:11:57Z</time>
      </trkpt>
      <trkpt lat="48.34586" lon="2.74747">
        <ele>96.8</ele>
        <time>2018-04-14T09:11:58Z</time>
      </trkpt>
      <trkpt lat="48.3459" lon="2.74751">
        <ele>96.7</ele>
        <time>2018-04-14T09:11:59Z</time>
      </trkpt>
      <trkpt lat="48.34595" lon="2.74755">
        <ele>96.6</ele>
        <time>2018-04-14T09:12:00Z</time>
      </trkpt>
      <trkpt lat="48.34599" lon="2.7476">
        <ele>96.5</ele>
        <time>2018-04-14T09:12:01Z</time>
      </trkpt>
      <trkpt lat="48.34603" lon="2.74764">
        <ele>96.5</ele>
        <time>2018-04-14T09:12:03Z</time>
      </trkpt>
      <trkpt lat="48.34607" lon="2.74768">
        <ele>96.3</ele>
        <time>2018-04-14T09:12:05Z</time>
      </trkpt>
      <trkpt lat="48.34611" lon="2.74773">
        <ele>96.2</ele>
        <time>2018-04-14T09:12:07Z</time>
      </trkpt>
      <trkpt lat="48.34617" lon="2.74776">
        <ele>96.3</ele>
        <time>2018-04-14T09:12:09Z</time>
      </trkpt>
      <trkpt lat="48.3462" lon="2.74775">
        <ele>96.6</ele>
        <time>2018-04-14T09:12:11Z</time>
      </trkpt>
      <trkpt lat="48.34623" lon="2.74773">
        <ele>96.9</ele>
        <time>2018-04-14T09:12:15Z</time>
      </trkpt>
      <trkpt lat="48.34625" lon="2.7477">
        <ele>97.2</ele>
        <time>2018-04-14T09:12:18Z</time>
      </trkpt>
      <trkpt lat="48.34628" lon="2.74766">
        <ele>97.6</ele>
        <time>2018-04-14T09:12:21Z</time>
      </trkpt>
      <trkpt lat="48.3463" lon="2.74762">
        <ele>97.9</ele>
        <time>2018-04-14T09:12:26Z</time>
      </trkpt>
      <trkpt lat="48.34632" lon="2.74759">
        <ele>98.1</ele>
        <time>2018-04-14T09:12:27Z</time>
      </trkpt>
      <trkpt lat="48.34635" lon="2.74754">
        <ele>98.5</ele>
        <time>2018-04-14T09:12:29Z</time>
      </trkpt>
      <trkpt lat="48.34637" lon="2.7475">
        <ele>98.7</ele>
        <time>2018-04-14T09:12:30Z</time>
      </trkpt>
      <trkpt lat="48.3464" lon="2.74744">
        <ele>99</ele>
        <time>2018-04-14T09:12:32Z</time>
      </trkpt>
      <trkpt lat="48.34643" lon="2.74739">
        <ele>99.2</ele>
        <time>2018-04-14T09:12:34Z</time>
      </trkpt>
      <trkpt lat="48.34647" lon="2.74737">
        <ele>99.4</ele>
        <time>2018-04-14T09:12:36Z</time>
      </trkpt>
      <trkpt lat="48.34651" lon="2.74737">
        <ele>99.7</ele>
        <time>2018-04-14T09:12:38Z</time>
      </trkpt>
      <trkpt lat="48.34655" lon="2.74737">
        <ele>100</ele>
        <time>2018-04-14T09:12:41Z</time>
      </trkpt>
      <trkpt lat="48.34659" lon="2.74738">
        <ele>100.3</ele>
        <time>2018-04-14T09:12:45Z</time>
      </trkpt>
      <trkpt lat="48.34662" lon="2.74738">
        <ele>100.5</ele>
        <time>2018-04-14T09:12:47Z</time>
      </trkpt>
      <trkpt lat="48.34666" lon="2.74737">
        <ele>100.8</ele>
        <time>2018-04-14T09:12:49Z</time>
      </trkpt>
      <trkpt lat="48.3467" lon="2.74737">
        <ele>101.1</ele>
        <time>2018-04-14T09:12:52Z</time>
      </trkpt>
      <trkpt lat="48.34672" lon="2.74737">
        <ele>101.3</ele>
        <time>2018-04-14T09:12:55Z</time>
      </trkpt>
      <trkpt lat="48.34675" lon="2.74739">
        <ele>102.4</ele>
        <time>2018-04-14T09:12:57Z</time>
      </trkpt>
      <trkpt lat="48.34678" lon="2.74741">
        <ele>102.7</ele>
        <time>2018-04-14T09:12:58Z</time>
      </trkpt>
      <trkpt lat="48.34682" lon="2.74743">
        <ele>103.7</ele>
        <time>2018-04-14T09:12:59Z</time>
      </trkpt>
      <trkpt lat="48.34684" lon="2.74745">
        <ele>104.4</ele>
        <time>2018-04-14T09:13:01Z</time>
      </trkpt>
      <trkpt lat="48.34688" lon="2.74745">
        <ele>105</ele>
        <time>2018-04-14T09:13:04Z</time>
      </trkpt>
      <trkpt lat="48.34691" lon="2.74746">
        <ele>105.7</ele>
        <time>2018-04-14T09:13:07Z</time>
      </trkpt>
      <trkpt lat="48.34695" lon="2.74746">
        <ele>106.4</ele>
        <time>2018-04-14T09:13:11Z</time>
      </trkpt>
      <trkpt lat="48.34697" lon="2.7475">
        <ele>107.1</ele>
        <time>2018-04-14T09:13:13Z</time>
      </trkpt>
      <trkpt lat="48.34699" lon="2.74754">
        <ele>107.8</ele>
        <time>2018-04-14T09:13:15Z</time>
      </trkpt>
      <trkpt lat="48.34701" lon="2.74757">
        <ele>108.4</ele>
        <time>2018-04-14T09:13:17Z</time>
      </trkpt>
      <trkpt lat="48.34703" lon="2.7476">
        <ele>108.6</ele>
        <time>2018-04-14T09:13:19Z</time>
      </trkpt>
      <trkpt lat="48.34706" lon="2.74763">
        <ele>109.2</ele>
        <time>2018-04-14T09:13:22Z</time>
      </trkpt>
      <trkpt lat="48.34709" lon="2.74768">
        <ele>109.8</ele>
        <time>2018-04-14T09:13:24Z</time>
      </trkpt>
      <trkpt lat="48.3471" lon="2.74771">
        <ele>110.3</ele>
        <time>2018-04-14T09:13:26Z</time>
      </trkpt>
      <trkpt lat="48.34712" lon="2.74775">
        <ele>110.4</ele>
        <time>2018-04-14T09:13:29Z</time>
      </trkpt>
      <trkpt lat="48.34713" lon="2.74779">
        <ele>110.8</ele>
        <time>2018-04-14T09:13:32Z</time>
      </trkpt>
      <trkpt lat="48.34715" lon="2.74783">
        <ele>111.2</ele>
        <time>2018-04-14T09:13:35Z</time>
      </trkpt>
      <trkpt lat="48.34717" lon="2.74786">
        <ele>111.4</ele>
        <time>2018-04-14T09:13:37Z</time>
      </trkpt>
      <trkpt lat="48.34719" lon="2.7479">
        <ele>111.9</ele>
        <time>2018-04-14T09:13:41Z</time>
      </trkpt>
      <trkpt lat="48.34722" lon="2.74794">
        <ele>112.3</ele>
        <time>2018-04-14T09:13:44Z</time>
      </trkpt>
      <trkpt lat="48.34723" lon="2.74797">
        <ele>112.3</ele>
        <time>2018-04-14T09:13:46Z</time>
      </trkpt>
      <trkpt lat="48.34726" lon="2.74804">
        <ele>112.6</ele>
        <time>2018-04-14T09:13:48Z</time>
      </trkpt>
      <trkpt lat="48.34728" lon="2.74808">
        <ele>112.9</ele>
        <time>2018-04-14T09:13:50Z</time>
      </trkpt>
      <trkpt lat="48.34731" lon="2.74812">
        <ele>113.1</ele>
        <time>2018-04-14T09:13:52Z</time>
      </trkpt>
      <trkpt lat="48.34735" lon="2.74815">
        <ele>113.3</ele>
        <time>2018-04-14T09:13:55Z</time>
      </trkpt>
      <trkpt lat="48.34739" lon="2.74819">
        <ele>113.7</ele>
        <time>2018-04-14T09:13:59Z</time>
      </trkpt>
      <trkpt lat="48.34743" lon="2.74825">
        <ele>113.9</ele>
        <time>2018-04-14T09:14:01Z</time>
      </trkpt>
      <trkpt lat="48.34746" lon="2.74829">
        <ele>114.1</ele>
        <time>2018-04-14T09:14:03Z</time>
      </trkpt>
      <trkpt lat="48.34749" lon="2.74835">
        <ele>114.3</ele>
        <time>2018-04-14T09:14:05Z</time>
      </trkpt>
      <trkpt lat="48.34752" lon="2.7484">
        <ele>114.7</ele>
        <time>2018-04-14T09:14:08Z</time>
      </trkpt>
      <trkpt lat="48.34754" lon="2.74844">
        <ele>115</ele>
        <time>2018-04-14T09:14:10Z</time>
      </trkpt>
      <trkpt lat="48.34756" lon="2.74848">
        <ele>115.3</ele>
        <time>2018-04-14T09:14:14Z</time>
      </trkpt>
      <trkpt lat="48.34759" lon="2.74851">
        <ele>115.7</ele>
        <time>2018-04-14T09:14:17Z</time>
      </trkpt>
      <trkpt lat="48.34761" lon="2.74854">
        <ele>115.9</ele>
        <time>2018-04-14T09:14:18Z</time>
      </trkpt>
      <trkpt lat="48.34765" lon="2.74857">
        <ele>116</ele>
        <time>2018-04-14T09:14:20Z</time>
      </trkpt>
      <trkpt lat="48.34768" lon="2.7486">
        <ele>116.3</ele>
        <time>2018-04-14T09:14:23Z</time>
      </trkpt>
      <trkpt lat="48.34771" lon="2.74861">
        <ele>116.4</ele>
        <time>2018-04-14T09:14:25Z</time>
      </trkpt>
      <trkpt lat="48.34776" lon="2.74864">
        <ele>116.8</ele>
        <time>2018-04-14T09:14:27Z</time>
      </trkpt>
      <trkpt lat="48.3478" lon="2.74865">
        <ele>116.8</ele>
        <time>2018-04-14T09:14:29Z</time>
      </trkpt>
      <trkpt lat="48.34784" lon="2.74864">
        <ele>117.6</ele>
        <time>2018-04-14T09:14:31Z</time>
      </trkpt>
      <trkpt lat="48.34789" lon="2.74865">
        <ele>117.6</ele>
        <time>2018-04-14T09:14:33Z</time>
      </trkpt>
      <trkpt lat="48.34791" lon="2.74866">
        <ele>117.9</ele>
        <time>2018-04-14T09:14:34Z</time>
      </trkpt>
      <trkpt lat="48.34796" lon="2.74867">
        <ele>118.4</ele>
        <time>2018-04-14T09:14:36Z</time>
      </trkpt>
      <trkpt lat="48.34799" lon="2.74868">
        <ele>118.7</ele>
        <time>2018-04-14T09:14:38Z</time>
      </trkpt>
      <trkpt lat="48.34802" lon="2.74869">
        <ele>118.8</ele>
        <time>2018-04-14T09:14:40Z</time>
      </trkpt>
      <trkpt lat="48.34806" lon="2.74872">
        <ele>119.2</ele>
        <time>2018-04-14T09:14:42Z</time>
      </trkpt>
      <trkpt lat="48.34809" lon="2.74873">
        <ele>119.2</ele>
        <time>2018-04-14T09:14:44Z</time>
      </trkpt>
      <trkpt lat="48.34813" lon="2.74872">
        <ele>120</ele>
        <time>2018-04-14T09:14:46Z</time>
      </trkpt>
      <trkpt lat="48.34816" lon="2.74872">
        <ele>120.3</ele>
        <time>2018-04-14T09:14:49Z</time>
      </trkpt>
      <trkpt lat="48.3482" lon="2.74873">
        <ele>120.3</ele>
        <time>2018-04-14T09:14:51Z</time>
      </trkpt>
      <trkpt lat="48.34822" lon="2.74874">
        <ele>120.5</ele>
        <time>2018-04-14T09:14:52Z</time>
      </trkpt>
      <trkpt lat="48.34825" lon="2.74876">
        <ele>120.8</ele>
        <time>2018-04-14T09:14:54Z</time>
      </trkpt>
      <trkpt lat="48.34828" lon="2.74875">
        <ele>121.1</ele>
        <time>2018-04-14T09:14:57Z</time>
      </trkpt>
      <trkpt lat="48.34832" lon="2.74875">
        <ele>121.3</ele>
        <time>2018-04-14T09:14:59Z</time>
      </trkpt>
      <trkpt lat="48.34836" lon="2.74874">
        <ele>121.5</ele>
        <time>2018-04-14T09:15:01Z</time>
      </trkpt>
      <trkpt lat="48.34839" lon="2.74872">
        <ele>122.1</ele>
        <time>2018-04-14T09:15:04Z</time>
      </trkpt>
      <trkpt lat="48.34842" lon="2.74872">
        <ele>122.2</ele>
        <time>2018-04-14T09:15:06Z</time>
      </trkpt>
      <trkpt lat="48.34845" lon="2.74875">
        <ele>122.1</ele>
        <time>2018-04-14T09:15:08Z</time>
      </trkpt>
      <trkpt lat="48.34847" lon="2.74877">
        <ele>121.9</ele>
        <time>2018-04-14T09:15:10Z</time>
      </trkpt>
      <trkpt lat="48.3485" lon="2.7488">
        <ele>122.3</ele>
        <time>2018-04-14T09:15:14Z</time>
      </trkpt>
      <trkpt lat="48.34853" lon="2.74881">
        <ele>122.7</ele>
        <time>2018-04-14T09:15:24Z</time>
      </trkpt>
      <trkpt lat="48.34855" lon="2.74882">
        <ele>122.9</ele>
        <time>2018-04-14T09:15:31Z</time>
      </trkpt>
      <trkpt lat="48.34858" lon="2.74884">
        <ele>123</ele>
        <time>2018-04-14T09:15:46Z</time>
      </trkpt>
      <trkpt lat="48.34861" lon="2.74888">
        <ele>123.2</ele>
        <time>2018-04-14T09:15:50Z</time>
      </trkpt>
      <trkpt lat="48.34865" lon="2.74891">
        <ele>123.4</ele>
        <time>2018-04-14T09:16:07Z</time>
      </trkpt>
      <trkpt lat="48.34867" lon="2.74894">
        <ele>123.5</ele>
        <time>2018-04-14T09:16:09Z</time>
      </trkpt>
      <trkpt lat="48.3487" lon="2.74896">
        <ele>123.6</ele>
        <time>2018-04-14T09:16:10Z</time>
      </trkpt>
      <trkpt lat="48.34876" lon="2.74898">
        <ele>123.7</ele>
        <time>2018-04-14T09:16:12Z</time>
      </trkpt>
      <trkpt lat="48.34879" lon="2.74899">
        <ele>123.8</ele>
        <time>2018-04-14T09:16:13Z</time>
      </trkpt>
      <trkpt lat="48.34882" lon="2.749">
        <ele>123.8</ele>
        <time>2018-04-14T09:16:14Z</time>
      </trkpt>
      <trkpt lat="48.34887" lon="2.74901">
        <ele>124</ele>
        <time>2018-04-14T09:16:16Z</time>
      </trkpt>
      <trkpt lat="48.34891" lon="2.74901">
        <ele>124.1</ele>
        <time>2018-04-14T09:16:18Z</time>
      </trkpt>
      <trkpt lat="48.34897" lon="2.74901">
        <ele>124.2</ele>
        <time>2018-04-14T09:16:20Z</time>
      </trkpt>
      <trkpt lat="48.34901" lon="2.74901">
        <ele>124.3</ele>
        <time>2018-04-14T09:16:21Z</time>
      </trkpt>
      <trkpt lat="48.34904" lon="2.74901">
        <ele>124.3</ele>
        <time>2018-04-14T09:16:22Z</time>
      </trkpt>
      <trkpt lat="48.34909" lon="2.74901">
        <ele>124.4</ele>
        <time>2018-04-14T09:16:24Z</time>
      </trkpt>
      <trkpt lat="48.34913" lon="2.749">
        <ele>124.5</ele>
        <time>2018-04-14T09:16:26Z</time>
      </trkpt>
      <trkpt lat="48.34918" lon="2.749">
        <ele>124.6</ele>
        <time>2018-04-14T09:16:28Z</time>
      </trkpt>
      <trkpt lat="48.34923" lon="2.74899">
        <ele>124.7</ele>
        <time>2018-04-14T09:16:30Z</time>
      </trkpt>
      <trkpt lat="48.34927" lon="2.74898">
        <ele>124.8</ele>
        <time>2018-04-14T09:16:32Z</time>
      </trkpt>
      <trkpt lat="48.34932" lon="2.74897">
        <ele>124.9</ele>
        <time>2018-04-14T09:16:34Z</time>
      </trkpt>
      <trkpt lat="48.34935" lon="2.74896">
        <ele>125</ele>
        <time>2018-04-14T09:16:35Z</time>
      </trkpt>
      <trkpt lat="48.34938" lon="2.74895">
        <ele>124.8</ele>
        <time>2018-04-14T09:16:36Z</time>
      </trkpt>
      <trkpt lat="48.34943" lon="2.74895">
        <ele>124.6</ele>
        <time>2018-04-14T09:16:38Z</time>
      </trkpt>
      <trkpt lat="48.34946" lon="2.74893">
        <ele>124.5</ele>
        <time>2018-04-14T09:16:39Z</time>
      </trkpt>
      <trkpt lat="48.3495" lon="2.7489">
        <ele>124.3</ele>
        <time>2018-04-14T09:16:41Z</time>
      </trkpt>
      <trkpt lat="48.34955" lon="2.74886">
        <ele>124.1</ele>
        <time>2018-04-14T09:16:43Z</time>
      </trkpt>
      <trkpt lat="48.34957" lon="2.74885">
        <ele>124</ele>
        <time>2018-04-14T09:16:44Z</time>
      </trkpt>
      <trkpt lat="48.3496" lon="2.74883">
        <ele>123.9</ele>
        <time>2018-04-14T09:16:45Z</time>
      </trkpt>
      <trkpt lat="48.34963" lon="2.7488">
        <ele>123.8</ele>
        <time>2018-04-14T09:16:46Z</time>
      </trkpt>
      <trkpt lat="48.34966" lon="2.74877">
        <ele>123.7</ele>
        <time>2018-04-14T09:16:47Z</time>
      </trkpt>
      <trkpt lat="48.3497" lon="2.74874">
        <ele>123.6</ele>
        <time>2018-04-14T09:16:48Z</time>
      </trkpt>
      <trkpt lat="48.34973" lon="2.7487">
        <ele>123.6</ele>
        <time>2018-04-14T09:16:49Z</time>
      </trkpt>
      <trkpt lat="48.34976" lon="2.74867">
        <ele>123.5</ele>
        <time>2018-04-14T09:16:50Z</time>
      </trkpt>
      <trkpt lat="48.34979" lon="2.74863">
        <ele>123.4</ele>
        <time>2018-04-14T09:16:51Z</time>
      </trkpt>
      <trkpt lat="48.34982" lon="2.7486">
        <ele>123.4</ele>
        <time>2018-04-14T09:16:52Z</time>
      </trkpt>
      <trkpt lat="48.34985" lon="2.74856">
        <ele>123.3</ele>
        <time>2018-04-14T09:16:53Z</time>
      </trkpt>
      <trkpt lat="48.34988" lon="2.74852">
        <ele>123.3</ele>
        <time>2018-04-14T09:16:54Z</time>
      </trkpt>
      <trkpt lat="48.34991" lon="2.74848">
        <ele>123.2</ele>
        <time>2018-04-14T09:16:55Z</time>
      </trkpt>
      <trkpt lat="48.34993" lon="2.74845">
        <ele>123.2</ele>
        <time>2018-04-14T09:16:56Z</time>
      </trkpt>
      <trkpt lat="48.34996" lon="2.7484">
        <ele>123.1</ele>
        <time>2018-04-14T09:16:57Z</time>
      </trkpt>
      <trkpt lat="48.34998" lon="2.74836">
        <ele>123</ele>
        <time>2018-04-14T09:16:58Z</time>
      </trkpt>
      <trkpt lat="48.34999" lon="2.74833">
        <ele>123</ele>
        <time>2018-04-14T09:16:59Z</time>
      </trkpt>
      <trkpt lat="48.35002" lon="2.74829">
        <ele>123</ele>
        <time>2018-04-14T09:17:01Z</time>
      </trkpt>
      <trkpt lat="48.35003" lon="2.74824">
        <ele>123</ele>
        <time>2018-04-14T09:17:05Z</time>
      </trkpt>
      <trkpt lat="48.35004" lon="2.74819">
        <ele>123.1</ele>
        <time>2018-04-14T09:17:07Z</time>
      </trkpt>
      <trkpt lat="48.35005" lon="2.74814">
        <ele>123.1</ele>
        <time>2018-04-14T09:17:09Z</time>
      </trkpt>
      <trkpt lat="48.35005" lon="2.74809">
        <ele>123.2</ele>
        <time>2018-04-14T09:17:10Z</time>
      </trkpt>
      <trkpt lat="48.35006" lon="2.74804">
        <ele>123.2</ele>
        <time>2018-04-14T09:17:12Z</time>
      </trkpt>
      <trkpt lat="48.35007" lon="2.74797">
        <ele>123.3</ele>
        <time>2018-04-14T09:17:14Z</time>
      </trkpt>
      <trkpt lat="48.35008" lon="2.74793">
        <ele>123.5</ele>
        <time>2018-04-14T09:17:15Z</time>
      </trkpt>
      <trkpt lat="48.35008" lon="2.74788">
        <ele>123.7</ele>
        <time>2018-04-14T09:17:17Z</time>
      </trkpt>
      <trkpt lat="48.35008" lon="2.74783">
        <ele>123.9</ele>
        <time>2018-04-14T09:17:19Z</time>
      </trkpt>
      <trkpt lat="48.35007" lon="2.74778">
        <ele>124.1</ele>
        <time>2018-04-14T09:17:21Z</time>
      </trkpt>
      <trkpt lat="48.35007" lon="2.74773">
        <ele>124.4</ele>
        <time>2018-04-14T09:17:23Z</time>
      </trkpt>
      <trkpt lat="48.35008" lon="2.74765">
        <ele>124.7</ele>
        <time>2018-04-14T09:17:25Z</time>
      </trkpt>
      <trkpt lat="48.35008" lon="2.74761">
        <ele>124.9</ele>
        <time>2018-04-14T09:17:27Z</time>
      </trkpt>
      <trkpt lat="48.35008" lon="2.74756">
        <ele>125.1</ele>
        <time>2018-04-14T09:17:29Z</time>
      </trkpt>
      <trkpt lat="48.35008" lon="2.74749">
        <ele>125.4</ele>
        <time>2018-04-14T09:17:31Z</time>
      </trkpt>
      <trkpt lat="48.35009" lon="2.74741">
        <ele>125.7</ele>
        <time>2018-04-14T09:17:33Z</time>
      </trkpt>
      <trkpt lat="48.35009" lon="2.74736">
        <ele>125.9</ele>
        <time>2018-04-14T09:17:34Z</time>
      </trkpt>
      <trkpt lat="48.35009" lon="2.74732">
        <ele>126</ele>
        <time>2018-04-14T09:17:35Z</time>
      </trkpt>
      <trkpt lat="48.3501" lon="2.74728">
        <ele>126.1</ele>
        <time>2018-04-14T09:17:36Z</time>
      </trkpt>
      <trkpt lat="48.35012" lon="2.74721">
        <ele>126.3</ele>
        <time>2018-04-14T09:17:38Z</time>
      </trkpt>
      <trkpt lat="48.35013" lon="2.74716">
        <ele>126.4</ele>
        <time>2018-04-14T09:17:40Z</time>
      </trkpt>
      <trkpt lat="48.35014" lon="2.74712">
        <ele>126.4</ele>
        <time>2018-04-14T09:17:41Z</time>
      </trkpt>
      <trkpt lat="48.35015" lon="2.74708">
        <ele>126.5</ele>
        <time>2018-04-14T09:17:42Z</time>
      </trkpt>
      <trkpt lat="48.35017" lon="2.74702">
        <ele>126.5</ele>
        <time>2018-04-14T09:17:43Z</time>
      </trkpt>
      <trkpt lat="48.35018" lon="2.74697">
        <ele>126.6</ele>
        <time>2018-04-14T09:17:44Z</time>
      </trkpt>
      <trkpt lat="48.35018" lon="2.74692">
        <ele>126.6</ele>
        <time>2018-04-14T09:17:46Z</time>
      </trkpt>
      <trkpt lat="48.35019" lon="2.74687">
        <ele>126.7</ele>
        <time>2018-04-14T09:17:48Z</time>
      </trkpt>
      <trkpt lat="48.35021" lon="2.7468">
        <ele>126.9</ele>
        <time>2018-04-14T09:17:50Z</time>
      </trkpt>
      <trkpt lat="48.35021" lon="2.74676">
        <ele>127</ele>
        <time>2018-04-14T09:17:52Z</time>
      </trkpt>
      <trkpt lat="48.35022" lon="2.74671">
        <ele>127.1</ele>
        <time>2018-04-14T09:17:54Z</time>
      </trkpt>
      <trkpt lat="48.35023" lon="2.74665">
        <ele>127.3</ele>
        <time>2018-04-14T09:17:56Z</time>
      </trkpt>
      <trkpt lat="48.35023" lon="2.7466">
        <ele>127.5</ele>
        <time>2018-04-14T09:17:58Z</time>
      </trkpt>
      <trkpt lat="48.35023" lon="2.74654">
        <ele>127.7</ele>
        <time>2018-04-14T09:18:01Z</time>
      </trkpt>
      <trkpt lat="48.35024" lon="2.74649">
        <ele>127.9</ele>
        <time>2018-04-14T09:18:03Z</time>
      </trkpt>
      <trkpt lat="48.35023" lon="2.74643">
        <ele>128</ele>
        <time>2018-04-14T09:18:06Z</time>
      </trkpt>
      <trkpt lat="48.35024" lon="2.74637">
        <ele>128.1</ele>
        <time>2018-04-14T09:18:08Z</time>
      </trkpt>
      <trkpt lat="48.35026" lon="2.7463">
        <ele>128.2</ele>
        <time>2018-04-14T09:18:10Z</time>
      </trkpt>
      <trkpt lat="48.35027" lon="2.74622">
        <ele>128.3</ele>
        <time>2018-04-14T09:18:12Z</time>
      </trkpt>
      <trkpt lat="48.35029" lon="2.74615">
        <ele>128.4</ele>
        <time>2018-04-14T09:18:13Z</time>
      </trkpt>
      <trkpt lat="48.3503" lon="2.74607">
        <ele>128.6</ele>
        <time>2018-04-14T09:18:14Z</time>
      </trkpt>
      <trkpt lat="48.35031" lon="2.74603">
        <ele>128.7</ele>
        <time>2018-04-14T09:18:15Z</time>
      </trkpt>
      <trkpt lat="48.35033" lon="2.74597">
        <ele>128.9</ele>
        <time>2018-04-14T09:18:16Z</time>
      </trkpt>
      <trkpt lat="48.35033" lon="2.74591">
        <ele>129</ele>
        <time>2018-04-14T09:18:18Z</time>
      </trkpt>
      <trkpt lat="48.35034" lon="2.74586">
        <ele>129.2</ele>
        <time>2018-04-14T09:18:19Z</time>
      </trkpt>
      <trkpt lat="48.35035" lon="2.74581">
        <ele>129.3</ele>
        <time>2018-04-14T09:18:20Z</time>
      </trkpt>
      <trkpt lat="48.35037" lon="2.74575">
        <ele>129.4</ele>
        <time>2018-04-14T09:18:22Z</time>
      </trkpt>
      <trkpt lat="48.35038" lon="2.7457">
        <ele>129.5</ele>
        <time>2018-04-14T09:18:24Z</time>
      </trkpt>
      <trkpt lat="48.35039" lon="2.74562">
        <ele>129.6</ele>
        <time>2018-04-14T09:18:26Z</time>
      </trkpt>
      <trkpt lat="48.35039" lon="2.74558">
        <ele>129.6</ele>
        <time>2018-04-14T09:18:27Z</time>
      </trkpt>
      <trkpt lat="48.3504" lon="2.74552">
        <ele>129.6</ele>
        <time>2018-04-14T09:18:28Z</time>
      </trkpt>
      <trkpt lat="48.35041" lon="2.74546">
        <ele>129.7</ele>
        <time>2018-04-14T09:18:30Z</time>
      </trkpt>
      <trkpt lat="48.35042" lon="2.74541">
        <ele>129.7</ele>
        <time>2018-04-14T09:18:31Z</time>
      </trkpt>
      <trkpt lat="48.35043" lon="2.74532">
        <ele>129.8</ele>
        <time>2018-04-14T09:18:33Z</time>
      </trkpt>
      <trkpt lat="48.35044" lon="2.74526">
        <ele>129.8</ele>
        <time>2018-04-14T09:18:34Z</time>
      </trkpt>
      <trkpt lat="48.35045" lon="2.74521">
        <ele>129.9</ele>
        <time>2018-04-14T09:18:35Z</time>
      </trkpt>
      <trkpt lat="48.35046" lon="2.74516">
        <ele>130</ele>
        <time>2018-04-14T09:18:36Z</time>
      </trkpt>
      <trkpt lat="48.35048" lon="2.74507">
        <ele>130.1</ele>
        <time>2018-04-14T09:18:38Z</time>
      </trkpt>
      <trkpt lat="48.3505" lon="2.745">
        <ele>130.1</ele>
        <time>2018-04-14T09:18:40Z</time>
      </trkpt>
      <trkpt lat="48.35051" lon="2.74492">
        <ele>130.2</ele>
        <time>2018-04-14T09:18:42Z</time>
      </trkpt>
      <trkpt lat="48.35053" lon="2.74485">
        <ele>130.3</ele>
        <time>2018-04-14T09:18:44Z</time>
      </trkpt>
      <trkpt lat="48.35054" lon="2.7448">
        <ele>130.5</ele>
        <time>2018-04-14T09:18:45Z</time>
      </trkpt>
      <trkpt lat="48.35055" lon="2.74475">
        <ele>130.6</ele>
        <time>2018-04-14T09:18:46Z</time>
      </trkpt>
      <trkpt lat="48.35056" lon="2.7447">
        <ele>130.8</ele>
        <time>2018-04-14T09:18:47Z</time>
      </trkpt>
      <trkpt lat="48.35057" lon="2.74464">
        <ele>131</ele>
        <time>2018-04-14T09:18:49Z</time>
      </trkpt>
      <trkpt lat="48.35058" lon="2.74457">
        <ele>131.1</ele>
        <time>2018-04-14T09:18:51Z</time>
      </trkpt>
      <trkpt lat="48.35059" lon="2.74449">
        <ele>131.2</ele>
        <time>2018-04-14T09:18:53Z</time>
      </trkpt>
      <trkpt lat="48.35061" lon="2.74443">
        <ele>131.3</ele>
        <time>2018-04-14T09:18:55Z</time>
      </trkpt>
      <trkpt lat="48.35062" lon="2.74437">
        <ele>131.3</ele>
        <time>2018-04-14T09:18:57Z</time>
      </trkpt>
      <trkpt lat="48.35063" lon="2.74431">
        <ele>131.3</ele>
        <time>2018-04-14T09:18:59Z</time>
      </trkpt>
      <trkpt lat="48.35065" lon="2.74423">
        <ele>131.4</ele>
        <time>2018-04-14T09:19:01Z</time>
      </trkpt>
      <trkpt lat="48.35066" lon="2.74416">
        <ele>131.4</ele>
        <time>2018-04-14T09:19:03Z</time>
      </trkpt>
      <trkpt lat="48.35067" lon="2.74412">
        <ele>131.4</ele>
        <time>2018-04-14T09:19:04Z</time>
      </trkpt>
      <trkpt lat="48.35068" lon="2.74406">
        <ele>131.5</ele>
        <time>2018-04-14T09:19:05Z</time>
      </trkpt>
      <trkpt lat="48.35068" lon="2.74402">
        <ele>131.6</ele>
        <time>2018-04-14T09:19:06Z</time>
      </trkpt>
      <trkpt lat="48.3507" lon="2.74396">
        <ele>131.7</ele>
        <time>2018-04-14T09:19:08Z</time>
      </trkpt>
      <trkpt lat="48.35072" lon="2.74392">
        <ele>131.8</ele>
        <time>2018-04-14T09:19:10Z</time>
      </trkpt>
      <trkpt lat="48.35073" lon="2.74386">
        <ele>132</ele>
        <time>2018-04-14T09:19:12Z</time>
      </trkpt>
      <trkpt lat="48.35074" lon="2.74381">
        <ele>132.2</ele>
        <time>2018-04-14T09:19:14Z</time>
      </trkpt>
      <trkpt lat="48.35075" lon="2.74377">
        <ele>132.3</ele>
        <time>2018-04-14T09:19:15Z</time>
      </trkpt>
      <trkpt lat="48.35076" lon="2.74372">
        <ele>132.4</ele>
        <time>2018-04-14T09:19:16Z</time>
      </trkpt>
      <trkpt lat="48.35077" lon="2.74365">
        <ele>132.6</ele>
        <time>2018-04-14T09:19:18Z</time>
      </trkpt>
      <trkpt lat="48.35078" lon="2.74359">
        <ele>132.7</ele>
        <time>2018-04-14T09:19:20Z</time>
      </trkpt>
      <trkpt lat="48.3508" lon="2.74351">
        <ele>132.8</ele>
        <time>2018-04-14T09:19:23Z</time>
      </trkpt>
      <trkpt lat="48.35081" lon="2.74344">
        <ele>132.8</ele>
        <time>2018-04-14T09:19:25Z</time>
      </trkpt>
      <trkpt lat="48.35082" lon="2.74339">
        <ele>132.9</ele>
        <time>2018-04-14T09:19:27Z</time>
      </trkpt>
      <trkpt lat="48.35083" lon="2.74333">
        <ele>133</ele>
        <time>2018-04-14T09:19:29Z</time>
      </trkpt>
      <trkpt lat="48.35084" lon="2.74328">
        <ele>133.1</ele>
        <time>2018-04-14T09:19:31Z</time>
      </trkpt>
      <trkpt lat="48.35084" lon="2.74323">
        <ele>133.2</ele>
        <time>2018-04-14T09:19:33Z</time>
      </trkpt>
      <trkpt lat="48.35085" lon="2.74315">
        <ele>133.5</ele>
        <time>2018-04-14T09:19:35Z</time>
      </trkpt>
      <trkpt lat="48.35085" lon="2.74311">
        <ele>133.7</ele>
        <time>2018-04-14T09:19:36Z</time>
      </trkpt>
      <trkpt lat="48.35087" lon="2.74308">
        <ele>133.9</ele>
        <time>2018-04-14T09:19:37Z</time>
      </trkpt>
      <trkpt lat="48.35088" lon="2.74304">
        <ele>134.1</ele>
        <time>2018-04-14T09:19:38Z</time>
      </trkpt>
      <trkpt lat="48.35089" lon="2.74299">
        <ele>134.3</ele>
        <time>2018-04-14T09:19:39Z</time>
      </trkpt>
      <trkpt lat="48.3509" lon="2.74291">
        <ele>134.4</ele>
        <time>2018-04-14T09:19:41Z</time>
      </trkpt>
      <trkpt lat="48.35092" lon="2.74284">
        <ele>134.6</ele>
        <time>2018-04-14T09:19:43Z</time>
      </trkpt>
      <trkpt lat="48.35093" lon="2.7428">
        <ele>134.7</ele>
        <time>2018-04-14T09:19:44Z</time>
      </trkpt>
      <trkpt lat="48.35095" lon="2.74272">
        <ele>134.8</ele>
        <time>2018-04-14T09:19:46Z</time>
      </trkpt>
      <trkpt lat="48.35095" lon="2.74268">
        <ele>134.9</ele>
        <time>2018-04-14T09:19:47Z</time>
      </trkpt>
      <trkpt lat="48.35097" lon="2.74261">
        <ele>135.1</ele>
        <time>2018-04-14T09:19:49Z</time>
      </trkpt>
      <trkpt lat="48.35099" lon="2.74254">
        <ele>135.3</ele>
        <time>2018-04-14T09:19:52Z</time>
      </trkpt>
      <trkpt lat="48.351" lon="2.7425">
        <ele>135.5</ele>
        <time>2018-04-14T09:19:53Z</time>
      </trkpt>
      <trkpt lat="48.35101" lon="2.74243">
        <ele>135.7</ele>
        <time>2018-04-14T09:19:55Z</time>
      </trkpt>
      <trkpt lat="48.35102" lon="2.74237">
        <ele>136</ele>
        <time>2018-04-14T09:19:57Z</time>
      </trkpt>
      <trkpt lat="48.35103" lon="2.7423">
        <ele>136.2</ele>
        <time>2018-04-14T09:19:59Z</time>
      </trkpt>
      <trkpt lat="48.35103" lon="2.74223">
        <ele>136.4</ele>
        <time>2018-04-14T09:20:01Z</time>
      </trkpt>
      <trkpt lat="48.35103" lon="2.74217">
        <ele>136.5</ele>
        <time>2018-04-14T09:20:03Z</time>
      </trkpt>
      <trkpt lat="48.35103" lon="2.74211">
        <ele>136.6</ele>
        <time>2018-04-14T09:20:05Z</time>
      </trkpt>
      <trkpt lat="48.35104" lon="2.74207">
        <ele>136.7</ele>
        <time>2018-04-14T09:20:06Z</time>
      </trkpt>
      <trkpt lat="48.35104" lon="2.742">
        <ele>136.9</ele>
        <time>2018-04-14T09:20:08Z</time>
      </trkpt>
      <trkpt lat="48.35104" lon="2.74194">
        <ele>137</ele>
        <time>2018-04-14T09:20:10Z</time>
      </trkpt>
      <trkpt lat="48.35104" lon="2.74185">
        <ele>137.4</ele>
        <time>2018-04-14T09:20:12Z</time>
      </trkpt>
      <trkpt lat="48.35106" lon="2.74178">
        <ele>137.8</ele>
        <time>2018-04-14T09:20:14Z</time>
      </trkpt>
      <trkpt lat="48.35108" lon="2.74174">
        <ele>138</ele>
        <time>2018-04-14T09:20:15Z</time>
      </trkpt>
      <trkpt lat="48.35109" lon="2.74166">
        <ele>138.3</ele>
        <time>2018-04-14T09:20:17Z</time>
      </trkpt>
      <trkpt lat="48.35111" lon="2.7416">
        <ele>138.5</ele>
        <time>2018-04-14T09:20:19Z</time>
      </trkpt>
      <trkpt lat="48.35112" lon="2.74155">
        <ele>138.6</ele>
        <time>2018-04-14T09:20:21Z</time>
      </trkpt>
      <trkpt lat="48.35113" lon="2.74148">
        <ele>138.7</ele>
        <time>2018-04-14T09:20:23Z</time>
      </trkpt>
      <trkpt lat="48.35115" lon="2.7414">
        <ele>138.8</ele>
        <time>2018-04-14T09:20:25Z</time>
      </trkpt>
      <trkpt lat="48.35116" lon="2.74135">
        <ele>138.9</ele>
        <time>2018-04-14T09:20:26Z</time>
      </trkpt>
      <trkpt lat="48.35117" lon="2.74131">
        <ele>138.9</ele>
        <time>2018-04-14T09:20:27Z</time>
      </trkpt>
      <trkpt lat="48.35119" lon="2.74127">
        <ele>139</ele>
        <time>2018-04-14T09:20:28Z</time>
      </trkpt>
      <trkpt lat="48.35121" lon="2.74123">
        <ele>139.1</ele>
        <time>2018-04-14T09:20:29Z</time>
      </trkpt>
      <trkpt lat="48.35122" lon="2.74116">
        <ele>139.4</ele>
        <time>2018-04-14T09:20:31Z</time>
      </trkpt>
      <trkpt lat="48.35124" lon="2.74109">
        <ele>139.6</ele>
        <time>2018-04-14T09:20:33Z</time>
      </trkpt>
      <trkpt lat="48.35125" lon="2.74103">
        <ele>139.8</ele>
        <time>2018-04-14T09:20:35Z</time>
      </trkpt>
      <trkpt lat="48.35127" lon="2.741">
        <ele>139.8</ele>
        <time>2018-04-14T09:20:36Z</time>
      </trkpt>
      <trkpt lat="48.35129" lon="2.74095">
        <ele>139.9</ele>
        <time>2018-04-14T09:20:37Z</time>
      </trkpt>
      <trkpt lat="48.35129" lon="2.7409">
        <ele>140</ele>
        <time>2018-04-14T09:20:38Z</time>
      </trkpt>
      <trkpt lat="48.3513" lon="2.74084">
        <ele>140</ele>
        <time>2018-04-14T09:20:40Z</time>
      </trkpt>
      <trkpt lat="48.35133" lon="2.74076">
        <ele>140</ele>
        <time>2018-04-14T09:20:42Z</time>
      </trkpt>
      <trkpt lat="48.35134" lon="2.74072">
        <ele>140</ele>
        <time>2018-04-14T09:20:43Z</time>
      </trkpt>
      <trkpt lat="48.35135" lon="2.74068">
        <ele>140</ele>
        <time>2018-04-14T09:20:44Z</time>
      </trkpt>
      <trkpt lat="48.35136" lon="2.74063">
        <ele>140</ele>
        <time>2018-04-14T09:20:45Z</time>
      </trkpt>
      <trkpt lat="48.35136" lon="2.74056">
        <ele>140</ele>
        <time>2018-04-14T09:20:47Z</time>
      </trkpt>
      <trkpt lat="48.35136" lon="2.74049">
        <ele>140</ele>
        <time>2018-04-14T09:20:49Z</time>
      </trkpt>
      <trkpt lat="48.35135" lon="2.74044">
        <ele>140.1</ele>
        <time>2018-04-14T09:20:51Z</time>
      </trkpt>
      <trkpt lat="48.35134" lon="2.7404">
        <ele>140.1</ele>
        <time>2018-04-14T09:20:54Z</time>
      </trkpt>
      <trkpt lat="48.35132" lon="2.74036">
        <ele>140.2</ele>
        <time>2018-04-14T09:20:57Z</time>
      </trkpt>
      <trkpt lat="48.35129" lon="2.74037">
        <ele>140.2</ele>
        <time>2018-04-14T09:21:03Z</time>
      </trkpt>
      <trkpt lat="48.35125" lon="2.74037">
        <ele>140.4</ele>
        <time>2018-04-14T09:21:05Z</time>
      </trkpt>
      <trkpt lat="48.35121" lon="2.74037">
        <ele>140.5</ele>
        <time>2018-04-14T09:21:07Z</time>
      </trkpt>
      <trkpt lat="48.35116" lon="2.74038">
        <ele>140.7</ele>
        <time>2018-04-14T09:21:09Z</time>
      </trkpt>
      <trkpt lat="48.35113" lon="2.74039">
        <ele>140.9</ele>
        <time>2018-04-14T09:21:10Z</time>
      </trkpt>
      <trkpt lat="48.35108" lon="2.74041">
        <ele>141</ele>
        <time>2018-04-14T09:21:12Z</time>
      </trkpt>
      <trkpt lat="48.35102" lon="2.74042">
        <ele>141.2</ele>
        <time>2018-04-14T09:21:14Z</time>
      </trkpt>
      <trkpt lat="48.35098" lon="2.74043">
        <ele>141.3</ele>
        <time>2018-04-14T09:21:16Z</time>
      </trkpt>
      <trkpt lat="48.35094" lon="2.74043">
        <ele>141.3</ele>
        <time>2018-04-14T09:21:18Z</time>
      </trkpt>
      <trkpt lat="48.3509" lon="2.74045">
        <ele>141.4</ele>
        <time>2018-04-14T09:21:20Z</time>
      </trkpt>
      <trkpt lat="48.35085" lon="2.74045">
        <ele>141.5</ele>
        <time>2018-04-14T09:21:23Z</time>
      </trkpt>
      <trkpt lat="48.35081" lon="2.74046">
        <ele>141.6</ele>
        <time>2018-04-14T09:21:24Z</time>
      </trkpt>
      <trkpt lat="48.35076" lon="2.74047">
        <ele>141.6</ele>
        <time>2018-04-14T09:21:26Z</time>
      </trkpt>
      <trkpt lat="48.35072" lon="2.74048">
        <ele>141.6</ele>
        <time>2018-04-14T09:21:28Z</time>
      </trkpt>
      <trkpt lat="48.35068" lon="2.7405">
        <ele>141.6</ele>
        <time>2018-04-14T09:21:29Z</time>
      </trkpt>
      <trkpt lat="48.35062" lon="2.74052">
        <ele>141.6</ele>
        <time>2018-04-14T09:21:31Z</time>
      </trkpt>
      <trkpt lat="48.3506" lon="2.74053">
        <ele>141.7</ele>
        <time>2018-04-14T09:21:32Z</time>
      </trkpt>
      <trkpt lat="48.35057" lon="2.74054">
        <ele>141.7</ele>
        <time>2018-04-14T09:21:33Z</time>
      </trkpt>
      <trkpt lat="48.35053" lon="2.74055">
        <ele>141.7</ele>
        <time>2018-04-14T09:21:34Z</time>
      </trkpt>
      <trkpt lat="48.35051" lon="2.74056">
        <ele>141.7</ele>
        <time>2018-04-14T09:21:35Z</time>
      </trkpt>
      <trkpt lat="48.35046" lon="2.74058">
        <ele>141.6</ele>
        <time>2018-04-14T09:21:37Z</time>
      </trkpt>
      <trkpt lat="48.35043" lon="2.74059">
        <ele>141.6</ele>
        <time>2018-04-14T09:21:38Z</time>
      </trkpt>
      <trkpt lat="48.35039" lon="2.74058">
        <ele>141.6</ele>
        <time>2018-04-14T09:21:39Z</time>
      </trkpt>
      <trkpt lat="48.35035" lon="2.74057">
        <ele>141.6</ele>
        <time>2018-04-14T09:21:40Z</time>
      </trkpt>
      <trkpt lat="48.35031" lon="2.74057">
        <ele>141.6</ele>
        <time>2018-04-14T09:21:41Z</time>
      </trkpt>
      <trkpt lat="48.35027" lon="2.74059">
        <ele>141.6</ele>
        <time>2018-04-14T09:21:42Z</time>
      </trkpt>
      <trkpt lat="48.35024" lon="2.74061">
        <ele>141.5</ele>
        <time>2018-04-14T09:21:43Z</time>
      </trkpt>
      <trkpt lat="48.35021" lon="2.74061">
        <ele>141.5</ele>
        <time>2018-04-14T09:21:44Z</time>
      </trkpt>
      <trkpt lat="48.35018" lon="2.74065">
        <ele>141.5</ele>
        <time>2018-04-14T09:21:45Z</time>
      </trkpt>
      <trkpt lat="48.35015" lon="2.74068">
        <ele>141.4</ele>
        <time>2018-04-14T09:21:46Z</time>
      </trkpt>
      <trkpt lat="48.35012" lon="2.74069">
        <ele>141.4</ele>
        <time>2018-04-14T09:21:47Z</time>
      </trkpt>
      <trkpt lat="48.3501" lon="2.74071">
        <ele>141.3</ele>
        <time>2018-04-14T09:21:48Z</time>
      </trkpt>
      <trkpt lat="48.35006" lon="2.74073">
        <ele>141.3</ele>
        <time>2018-04-14T09:21:49Z</time>
      </trkpt>
      <trkpt lat="48.35003" lon="2.74076">
        <ele>141.2</ele>
        <time>2018-04-14T09:21:50Z</time>
      </trkpt>
      <trkpt lat="48.34998" lon="2.74078">
        <ele>141.2</ele>
        <time>2018-04-14T09:21:51Z</time>
      </trkpt>
      <trkpt lat="48.34994" lon="2.7408">
        <ele>141.2</ele>
        <time>2018-04-14T09:21:52Z</time>
      </trkpt>
      <trkpt lat="48.34991" lon="2.74082">
        <ele>141.1</ele>
        <time>2018-04-14T09:21:53Z</time>
      </trkpt>
      <trkpt lat="48.34987" lon="2.74084">
        <ele>141</ele>
        <time>2018-04-14T09:21:54Z</time>
      </trkpt>
      <trkpt lat="48.34984" lon="2.74086">
        <ele>141</ele>
        <time>2018-04-14T09:21:55Z</time>
      </trkpt>
      <trkpt lat="48.3498" lon="2.74088">
        <ele>140.9</ele>
        <time>2018-04-14T09:21:56Z</time>
      </trkpt>
      <trkpt lat="48.34977" lon="2.7409">
        <ele>140.9</ele>
        <time>2018-04-14T09:21:57Z</time>
      </trkpt>
      <trkpt lat="48.34975" lon="2.74092">
        <ele>140.8</ele>
        <time>2018-04-14T09:21:58Z</time>
      </trkpt>
      <trkpt lat="48.34968" lon="2.74094">
        <ele>140.7</ele>
        <time>2018-04-14T09:22:00Z</time>
      </trkpt>
      <trkpt lat="48.34965" lon="2.74095">
        <ele>140.7</ele>
        <time>2018-04-14T09:22:01Z</time>
      </trkpt>
      <trkpt lat="48.34961" lon="2.74097">
        <ele>140.6</ele>
        <time>2018-04-14T09:22:02Z</time>
      </trkpt>
      <trkpt lat="48.34957" lon="2.74099">
        <ele>140.6</ele>
        <time>2018-04-14T09:22:03Z</time>
      </trkpt>
      <trkpt lat="48.34952" lon="2.74102">
        <ele>140.5</ele>
        <time>2018-04-14T09:22:04Z</time>
      </trkpt>
      <trkpt lat="48.34946" lon="2.74105">
        <ele>140.4</ele>
        <time>2018-04-14T09:22:05Z</time>
      </trkpt>
      <trkpt lat="48.34941" lon="2.74108">
        <ele>140.4</ele>
        <time>2018-04-14T09:22:06Z</time>
      </trkpt>
      <trkpt lat="48.34936" lon="2.7411">
        <ele>140.4</ele>
        <time>2018-04-14T09:22:07Z</time>
      </trkpt>
      <trkpt lat="48.34933" lon="2.74112">
        <ele>140.3</ele>
        <time>2018-04-14T09:22:08Z</time>
      </trkpt>
      <trkpt lat="48.34928" lon="2.74114">
        <ele>140.3</ele>
        <time>2018-04-14T09:22:09Z</time>
      </trkpt>
      <trkpt lat="48.34924" lon="2.74116">
        <ele>140.3</ele>
        <time>2018-04-14T09:22:10Z</time>
      </trkpt>
      <trkpt lat="48.34919" lon="2.74118">
        <ele>140.2</ele>
        <time>2018-04-14T09:22:11Z</time>
      </trkpt>
      <trkpt lat="48.34913" lon="2.74121">
        <ele>140.2</ele>
        <time>2018-04-14T09:22:12Z</time>
      </trkpt>
      <trkpt lat="48.34909" lon="2.74123">
        <ele>140.1</ele>
        <time>2018-04-14T09:22:13Z</time>
      </trkpt>
      <trkpt lat="48.34904" lon="2.74126">
        <ele>140</ele>
        <time>2018-04-14T09:22:14Z</time>
      </trkpt>
      <trkpt lat="48.349" lon="2.74129">
        <ele>140</ele>
        <time>2018-04-14T09:22:15Z</time>
      </trkpt>
      <trkpt lat="48.34896" lon="2.74131">
        <ele>139.9</ele>
        <time>2018-04-14T09:22:16Z</time>
      </trkpt>
      <trkpt lat="48.34892" lon="2.74135">
        <ele>139.9</ele>
        <time>2018-04-14T09:22:17Z</time>
      </trkpt>
      <trkpt lat="48.34886" lon="2.74137">
        <ele>139.9</ele>
        <time>2018-04-14T09:22:18Z</time>
      </trkpt>
      <trkpt lat="48.34882" lon="2.74141">
        <ele>139.9</ele>
        <time>2018-04-14T09:22:19Z</time>
      </trkpt>
      <trkpt lat="48.34878" lon="2.74145">
        <ele>139.8</ele>
        <time>2018-04-14T09:22:20Z</time>
      </trkpt>
      <trkpt lat="48.34873" lon="2.74148">
        <ele>139.8</ele>
        <time>2018-04-14T09:22:22Z</time>
      </trkpt>
      <trkpt lat="48.34869" lon="2.74151">
        <ele>139.8</ele>
        <time>2018-04-14T09:22:23Z</time>
      </trkpt>
      <trkpt lat="48.34865" lon="2.74153">
        <ele>139.8</ele>
        <time>2018-04-14T09:22:24Z</time>
      </trkpt>
      <trkpt lat="48.3486" lon="2.74155">
        <ele>139.7</ele>
        <time>2018-04-14T09:22:25Z</time>
      </trkpt>
      <trkpt lat="48.34855" lon="2.74157">
        <ele>139.7</ele>
        <time>2018-04-14T09:22:26Z</time>
      </trkpt>
      <trkpt lat="48.3485" lon="2.7416">
        <ele>139.6</ele>
        <time>2018-04-14T09:22:27Z</time>
      </trkpt>
      <trkpt lat="48.34844" lon="2.74162">
        <ele>139.5</ele>
        <time>2018-04-14T09:22:28Z</time>
      </trkpt>
      <trkpt lat="48.34839" lon="2.74164">
        <ele>139.4</ele>
        <time>2018-04-14T09:22:29Z</time>
      </trkpt>
      <trkpt lat="48.34835" lon="2.74165">
        <ele>139.3</ele>
        <time>2018-04-14T09:22:30Z</time>
      </trkpt>
      <trkpt lat="48.34831" lon="2.74168">
        <ele>139.2</ele>
        <time>2018-04-14T09:22:31Z</time>
      </trkpt>
      <trkpt lat="48.34826" lon="2.7417">
        <ele>139.1</ele>
        <time>2018-04-14T09:22:32Z</time>
      </trkpt>
      <trkpt lat="48.34821" lon="2.74172">
        <ele>138.9</ele>
        <time>2018-04-14T09:22:33Z</time>
      </trkpt>
      <trkpt lat="48.34818" lon="2.74174">
        <ele>138.8</ele>
        <time>2018-04-14T09:22:34Z</time>
      </trkpt>
      <trkpt lat="48.34814" lon="2.74176">
        <ele>138.6</ele>
        <time>2018-04-14T09:22:35Z</time>
      </trkpt>
      <trkpt lat="48.34809" lon="2.74177">
        <ele>138.5</ele>
        <time>2018-04-14T09:22:36Z</time>
      </trkpt>
      <trkpt lat="48.34805" lon="2.74179">
        <ele>138.3</ele>
        <time>2018-04-14T09:22:37Z</time>
      </trkpt>
      <trkpt lat="48.34799" lon="2.74182">
        <ele>138</ele>
        <time>2018-04-14T09:22:38Z</time>
      </trkpt>
      <trkpt lat="48.34796" lon="2.74183">
        <ele>137.8</ele>
        <time>2018-04-14T09:22:39Z</time>
      </trkpt>
      <trkpt lat="48.34791" lon="2.74184">
        <ele>137.5</ele>
        <time>2018-04-14T09:22:40Z</time>
      </trkpt>
      <trkpt lat="48.34786" lon="2.74186">
        <ele>137.3</ele>
        <time>2018-04-14T09:22:41Z</time>
      </trkpt>
      <trkpt lat="48.34782" lon="2.74188">
        <ele>137</ele>
        <time>2018-04-14T09:22:42Z</time>
      </trkpt>
      <trkpt lat="48.34778" lon="2.7419">
        <ele>136.7</ele>
        <time>2018-04-14T09:22:43Z</time>
      </trkpt>
      <trkpt lat="48.34776" lon="2.74191">
        <ele>136.5</ele>
        <time>2018-04-14T09:22:44Z</time>
      </trkpt>
      <trkpt lat="48.3477" lon="2.74195">
        <ele>136.2</ele>
        <time>2018-04-14T09:22:46Z</time>
      </trkpt>
      <trkpt lat="48.34766" lon="2.74198">
        <ele>136</ele>
        <time>2018-04-14T09:22:47Z</time>
      </trkpt>
      <trkpt lat="48.34763" lon="2.74199">
        <ele>135.8</ele>
        <time>2018-04-14T09:22:48Z</time>
      </trkpt>
      <trkpt lat="48.34759" lon="2.74203">
        <ele>135.4</ele>
        <time>2018-04-14T09:22:50Z</time>
      </trkpt>
      <trkpt lat="48.34756" lon="2.74205">
        <ele>135.2</ele>
        <time>2018-04-14T09:22:51Z</time>
      </trkpt>
      <trkpt lat="48.34753" lon="2.74208">
        <ele>134.9</ele>
        <time>2018-04-14T09:22:52Z</time>
      </trkpt>
      <trkpt lat="48.34748" lon="2.74214">
        <ele>134.5</ele>
        <time>2018-04-14T09:22:54Z</time>
      </trkpt>
      <trkpt lat="48.34746" lon="2.74216">
        <ele>134.3</ele>
        <time>2018-04-14T09:22:55Z</time>
      </trkpt>
      <trkpt lat="48.34741" lon="2.74222">
        <ele>133.9</ele>
        <time>2018-04-14T09:22:57Z</time>
      </trkpt>
      <trkpt lat="48.34736" lon="2.74225">
        <ele>133.7</ele>
        <time>2018-04-14T09:22:58Z</time>
      </trkpt>
      <trkpt lat="48.34732" lon="2.74227">
        <ele>133.4</ele>
        <time>2018-04-14T09:22:59Z</time>
      </trkpt>
      <trkpt lat="48.34729" lon="2.7423">
        <ele>133.2</ele>
        <time>2018-04-14T09:23:00Z</time>
      </trkpt>
      <trkpt lat="48.34726" lon="2.74235">
        <ele>132.9</ele>
        <time>2018-04-14T09:23:01Z</time>
      </trkpt>
      <trkpt lat="48.34723" lon="2.74238">
        <ele>132.5</ele>
        <time>2018-04-14T09:23:02Z</time>
      </trkpt>
      <trkpt lat="48.3472" lon="2.74242">
        <ele>132.3</ele>
        <time>2018-04-14T09:23:03Z</time>
      </trkpt>
      <trkpt lat="48.34715" lon="2.74246">
        <ele>132</ele>
        <time>2018-04-14T09:23:04Z</time>
      </trkpt>
      <trkpt lat="48.3471" lon="2.74248">
        <ele>132</ele>
        <time>2018-04-14T09:23:05Z</time>
      </trkpt>
      <trkpt lat="48.34706" lon="2.74251">
        <ele>131.7</ele>
        <time>2018-04-14T09:23:06Z</time>
      </trkpt>
      <trkpt lat="48.347" lon="2.74255">
        <ele>131</ele>
        <time>2018-04-14T09:23:07Z</time>
      </trkpt>
      <trkpt lat="48.34696" lon="2.74258">
        <ele>130.7</ele>
        <time>2018-04-14T09:23:08Z</time>
      </trkpt>
      <trkpt lat="48.34693" lon="2.74259">
        <ele>130.4</ele>
        <time>2018-04-14T09:23:09Z</time>
      </trkpt>
      <trkpt lat="48.34691" lon="2.74261">
        <ele>130.2</ele>
        <time>2018-04-14T09:23:10Z</time>
      </trkpt>
      <trkpt lat="48.34687" lon="2.74263">
        <ele>129.9</ele>
        <time>2018-04-14T09:23:11Z</time>
      </trkpt>
      <trkpt lat="48.34684" lon="2.74265">
        <ele>129.6</ele>
        <time>2018-04-14T09:23:12Z</time>
      </trkpt>
      <trkpt lat="48.34681" lon="2.74267">
        <ele>129.3</ele>
        <time>2018-04-14T09:23:13Z</time>
      </trkpt>
      <trkpt lat="48.34678" lon="2.74269">
        <ele>129</ele>
        <time>2018-04-14T09:23:14Z</time>
      </trkpt>
      <trkpt lat="48.34675" lon="2.7427">
        <ele>128.6</ele>
        <time>2018-04-14T09:23:15Z</time>
      </trkpt>
      <trkpt lat="48.34669" lon="2.74272">
        <ele>128</ele>
        <time>2018-04-14T09:23:16Z</time>
      </trkpt>
      <trkpt lat="48.34665" lon="2.74273">
        <ele>127.3</ele>
        <time>2018-04-14T09:23:17Z</time>
      </trkpt>
      <trkpt lat="48.34659" lon="2.74271">
        <ele>126.6</ele>
        <time>2018-04-14T09:23:18Z</time>
      </trkpt>
      <trkpt lat="48.34654" lon="2.74268">
        <ele>126</ele>
        <time>2018-04-14T09:23:19Z</time>
      </trkpt>
      <trkpt lat="48.3465" lon="2.74264">
        <ele>125.4</ele>
        <time>2018-04-14T09:23:20Z</time>
      </trkpt>
      <trkpt lat="48.34645" lon="2.74261">
        <ele>125</ele>
        <time>2018-04-14T09:23:21Z</time>
      </trkpt>
      <trkpt lat="48.3464" lon="2.74258">
        <ele>125</ele>
        <time>2018-04-14T09:23:22Z</time>
      </trkpt>
      <trkpt lat="48.34635" lon="2.74254">
        <ele>125</ele>
        <time>2018-04-14T09:23:23Z</time>
      </trkpt>
      <trkpt lat="48.34631" lon="2.74251">
        <ele>125</ele>
        <time>2018-04-14T09:23:24Z</time>
      </trkpt>
      <trkpt lat="48.34627" lon="2.74248">
        <ele>125</ele>
        <time>2018-04-14T09:23:25Z</time>
      </trkpt>
      <trkpt lat="48.34621" lon="2.74243">
        <ele>124.9</ele>
        <time>2018-04-14T09:23:26Z</time>
      </trkpt>
      <trkpt lat="48.34617" lon="2.74239">
        <ele>124.8</ele>
        <time>2018-04-14T09:23:27Z</time>
      </trkpt>
      <trkpt lat="48.34613" lon="2.74235">
        <ele>124.8</ele>
        <time>2018-04-14T09:23:28Z</time>
      </trkpt>
      <trkpt lat="48.34608" lon="2.7423">
        <ele>124.5</ele>
        <time>2018-04-14T09:23:29Z</time>
      </trkpt>
      <trkpt lat="48.34604" lon="2.74224">
        <ele>124.6</ele>
        <time>2018-04-14T09:23:30Z</time>
      </trkpt>
      <trkpt lat="48.34601" lon="2.7422">
        <ele>124.7</ele>
        <time>2018-04-14T09:23:31Z</time>
      </trkpt>
      <trkpt lat="48.34598" lon="2.74214">
        <ele>124.8</ele>
        <time>2018-04-14T09:23:32Z</time>
      </trkpt>
      <trkpt lat="48.34594" lon="2.74209">
        <ele>125.1</ele>
        <time>2018-04-14T09:23:33Z</time>
      </trkpt>
      <trkpt lat="48.34589" lon="2.74203">
        <ele>125.4</ele>
        <time>2018-04-14T09:23:34Z</time>
      </trkpt>
      <trkpt lat="48.34586" lon="2.74198">
        <ele>125.6</ele>
        <time>2018-04-14T09:23:35Z</time>
      </trkpt>
      <trkpt lat="48.34583" lon="2.74191">
        <ele>125.8</ele>
        <time>2018-04-14T09:23:36Z</time>
      </trkpt>
      <trkpt lat="48.34581" lon="2.74184">
        <ele>126.1</ele>
        <time>2018-04-14T09:23:37Z</time>
      </trkpt>
      <trkpt lat="48.3458" lon="2.74177">
        <ele>126.4</ele>
        <time>2018-04-14T09:23:38Z</time>
      </trkpt>
      <trkpt lat="48.3458" lon="2.74171">
        <ele>126.8</ele>
        <time>2018-04-14T09:23:39Z</time>
      </trkpt>
      <trkpt lat="48.34579" lon="2.74165">
        <ele>127.2</ele>
        <time>2018-04-14T09:23:40Z</time>
      </trkpt>
      <trkpt lat="48.34578" lon="2.74158">
        <ele>127.7</ele>
        <time>2018-04-14T09:23:41Z</time>
      </trkpt>
      <trkpt lat="48.34578" lon="2.74152">
        <ele>128.2</ele>
        <time>2018-04-14T09:23:42Z</time>
      </trkpt>
      <trkpt lat="48.34577" lon="2.74147">
        <ele>128.6</ele>
        <time>2018-04-14T09:23:43Z</time>
      </trkpt>
      <trkpt lat="48.34577" lon="2.74142">
        <ele>129.1</ele>
        <time>2018-04-14T09:23:44Z</time>
      </trkpt>
      <trkpt lat="48.34577" lon="2.74137">
        <ele>129.5</ele>
        <time>2018-04-14T09:23:45Z</time>
      </trkpt>
      <trkpt lat="48.34577" lon="2.74131">
        <ele>129.9</ele>
        <time>2018-04-14T09:23:46Z</time>
      </trkpt>
      <trkpt lat="48.34578" lon="2.74126">
        <ele>130.2</ele>
        <time>2018-04-14T09:23:47Z</time>
      </trkpt>
      <trkpt lat="48.34579" lon="2.74121">
        <ele>130.6</ele>
        <time>2018-04-14T09:23:48Z</time>
      </trkpt>
      <trkpt lat="48.3458" lon="2.74115">
        <ele>130.9</ele>
        <time>2018-04-14T09:23:49Z</time>
      </trkpt>
      <trkpt lat="48.3458" lon="2.7411">
        <ele>131</ele>
        <time>2018-04-14T09:23:50Z</time>
      </trkpt>
      <trkpt lat="48.34579" lon="2.74105">
        <ele>131</ele>
        <time>2018-04-14T09:23:51Z</time>
      </trkpt>
      <trkpt lat="48.34577" lon="2.74101">
        <ele>131</ele>
        <time>2018-04-14T09:23:53Z</time>
      </trkpt>
      <trkpt lat="48.34574" lon="2.74097">
        <ele>131</ele>
        <time>2018-04-14T09:23:58Z</time>
      </trkpt>
      <trkpt lat="48.34577" lon="2.74101">
        <ele>131.1</ele>
        <time>2018-04-14T09:24:01Z</time>
      </trkpt>
      <trkpt lat="48.34576" lon="2.74096">
        <ele>131.2</ele>
        <time>2018-04-14T09:24:24Z</time>
      </trkpt>
      <trkpt lat="48.34575" lon="2.74091">
        <ele>131.4</ele>
        <time>2018-04-14T09:24:25Z</time>
      </trkpt>
      <trkpt lat="48.34573" lon="2.74088">
        <ele>131.5</ele>
        <time>2018-04-14T09:24:26Z</time>
      </trkpt>
      <trkpt lat="48.34575" lon="2.74093">
        <ele>131.4</ele>
        <time>2018-04-14T09:24:30Z</time>
      </trkpt>
      <trkpt lat="48.34574" lon="2.74098">
        <ele>131.2</ele>
        <time>2018-04-14T09:24:32Z</time>
      </trkpt>
      <trkpt lat="48.3457" lon="2.741">
        <ele>131</ele>
        <time>2018-04-14T09:24:41Z</time>
      </trkpt>
      <trkpt lat="48.34568" lon="2.74097">
        <ele>131</ele>
        <time>2018-04-14T09:24:45Z</time>
      </trkpt>
      <trkpt lat="48.34566" lon="2.74092">
        <ele>131</ele>
        <time>2018-04-14T09:25:05Z</time>
      </trkpt>
      <trkpt lat="48.3457" lon="2.74094">
        <ele>131</ele>
        <time>2018-04-14T09:25:15Z</time>
      </trkpt>
      <trkpt lat="48.34572" lon="2.74097">
        <ele>131</ele>
        <time>2018-04-14T09:25:17Z</time>
      </trkpt>
      <trkpt lat="48.34574" lon="2.74094">
        <ele>131</ele>
        <time>2018-04-14T09:25:25Z</time>
      </trkpt>
      <trkpt lat="48.34576" lon="2.74089">
        <ele>131</ele>
        <time>2018-04-14T09:25:28Z</time>
      </trkpt>
      <trkpt lat="48.34579" lon="2.74086">
        <ele>131.4</ele>
        <time>2018-04-14T09:25:30Z</time>
      </trkpt>
      <trkpt lat="48.34581" lon="2.74083">
        <ele>131.8</ele>
        <time>2018-04-14T09:25:32Z</time>
      </trkpt>
      <trkpt lat="48.34585" lon="2.74082">
        <ele>132.2</ele>
        <time>2018-04-14T09:25:34Z</time>
      </trkpt>
      <trkpt lat="48.34588" lon="2.74079">
        <ele>132.5</ele>
        <time>2018-04-14T09:25:35Z</time>
      </trkpt>
      <trkpt lat="48.34591" lon="2.74077">
        <ele>132.9</ele>
        <time>2018-04-14T09:25:36Z</time>
      </trkpt>
      <trkpt lat="48.34593" lon="2.74074">
        <ele>133.2</ele>
        <time>2018-04-14T09:25:37Z</time>
      </trkpt>
      <trkpt lat="48.34596" lon="2.74071">
        <ele>133.6</ele>
        <time>2018-04-14T09:25:38Z</time>
      </trkpt>
      <trkpt lat="48.34599" lon="2.74069">
        <ele>134</ele>
        <time>2018-04-14T09:25:39Z</time>
      </trkpt>
      <trkpt lat="48.34602" lon="2.74067">
        <ele>134.4</ele>
        <time>2018-04-14T09:25:40Z</time>
      </trkpt>
      <trkpt lat="48.34606" lon="2.74065">
        <ele>134.7</ele>
        <time>2018-04-14T09:25:41Z</time>
      </trkpt>
      <trkpt lat="48.3461" lon="2.74065">
        <ele>135</ele>
        <time>2018-04-14T09:25:42Z</time>
      </trkpt>
      <trkpt lat="48.34612" lon="2.74064">
        <ele>135</ele>
        <time>2018-04-14T09:25:43Z</time>
      </trkpt>
      <trkpt lat="48.34615" lon="2.74062">
        <ele>135.1</ele>
        <time>2018-04-14T09:25:44Z</time>
      </trkpt>
      <trkpt lat="48.34618" lon="2.74061">
        <ele>135.1</ele>
        <time>2018-04-14T09:25:45Z</time>
      </trkpt>
      <trkpt lat="48.34622" lon="2.74061">
        <ele>135.1</ele>
        <time>2018-04-14T09:25:46Z</time>
      </trkpt>
      <trkpt lat="48.34626" lon="2.74059">
        <ele>135.2</ele>
        <time>2018-04-14T09:25:47Z</time>
      </trkpt>
      <trkpt lat="48.34629" lon="2.74059">
        <ele>135.2</ele>
        <time>2018-04-14T09:25:48Z</time>
      </trkpt>
      <trkpt lat="48.34634" lon="2.74057">
        <ele>135.3</ele>
        <time>2018-04-14T09:25:50Z</time>
      </trkpt>
      <trkpt lat="48.34638" lon="2.74057">
        <ele>135.4</ele>
        <time>2018-04-14T09:25:51Z</time>
      </trkpt>
      <trkpt lat="48.34641" lon="2.74056">
        <ele>135.5</ele>
        <time>2018-04-14T09:25:52Z</time>
      </trkpt>
      <trkpt lat="48.34645" lon="2.74056">
        <ele>135.6</ele>
        <time>2018-04-14T09:25:54Z</time>
      </trkpt>
      <trkpt lat="48.3465" lon="2.74054">
        <ele>135.8</ele>
        <time>2018-04-14T09:25:56Z</time>
      </trkpt>
      <trkpt lat="48.34652" lon="2.74052">
        <ele>136</ele>
        <time>2018-04-14T09:25:57Z</time>
      </trkpt>
      <trkpt lat="48.34655" lon="2.74051">
        <ele>136.2</ele>
        <time>2018-04-14T09:25:58Z</time>
      </trkpt>
      <trkpt lat="48.34658" lon="2.74049">
        <ele>136.4</ele>
        <time>2018-04-14T09:25:59Z</time>
      </trkpt>
      <trkpt lat="48.3466" lon="2.74047">
        <ele>136.6</ele>
        <time>2018-04-14T09:26:00Z</time>
      </trkpt>
      <trkpt lat="48.34664" lon="2.74044">
        <ele>136.7</ele>
        <time>2018-04-14T09:26:02Z</time>
      </trkpt>
      <trkpt lat="48.34668" lon="2.74041">
        <ele>136.8</ele>
        <time>2018-04-14T09:26:04Z</time>
      </trkpt>
      <trkpt lat="48.34671" lon="2.74039">
        <ele>136.9</ele>
        <time>2018-04-14T09:26:05Z</time>
      </trkpt>
      <trkpt lat="48.34674" lon="2.74038">
        <ele>137</ele>
        <time>2018-04-14T09:26:06Z</time>
      </trkpt>
      <trkpt lat="48.34676" lon="2.74036">
        <ele>137</ele>
        <time>2018-04-14T09:26:07Z</time>
      </trkpt>
      <trkpt lat="48.34679" lon="2.74034">
        <ele>137</ele>
        <time>2018-04-14T09:26:08Z</time>
      </trkpt>
      <trkpt lat="48.34682" lon="2.74032">
        <ele>137.1</ele>
        <time>2018-04-14T09:26:09Z</time>
      </trkpt>
      <trkpt lat="48.34685" lon="2.7403">
        <ele>137.1</ele>
        <time>2018-04-14T09:26:10Z</time>
      </trkpt>
      <trkpt lat="48.34688" lon="2.74027">
        <ele>137.1</ele>
        <time>2018-04-14T09:26:11Z</time>
      </trkpt>
      <trkpt lat="48.34691" lon="2.74025">
        <ele>137.2</ele>
        <time>2018-04-14T09:26:12Z</time>
      </trkpt>
      <trkpt lat="48.34696" lon="2.74022">
        <ele>137.2</ele>
        <time>2018-04-14T09:26:14Z</time>
      </trkpt>
      <trkpt lat="48.347" lon="2.74019">
        <ele>137.2</ele>
        <time>2018-04-14T09:26:16Z</time>
      </trkpt>
      <trkpt lat="48.34705" lon="2.74015">
        <ele>137.2</ele>
        <time>2018-04-14T09:26:18Z</time>
      </trkpt>
      <trkpt lat="48.34707" lon="2.74013">
        <ele>137.2</ele>
        <time>2018-04-14T09:26:19Z</time>
      </trkpt>
      <trkpt lat="48.3471" lon="2.7401">
        <ele>137.2</ele>
        <time>2018-04-14T09:26:20Z</time>
      </trkpt>
      <trkpt lat="48.34713" lon="2.74007">
        <ele>137.2</ele>
        <time>2018-04-14T09:26:21Z</time>
      </trkpt>
      <trkpt lat="48.34717" lon="2.74005">
        <ele>137.2</ele>
        <time>2018-04-14T09:26:22Z</time>
      </trkpt>
      <trkpt lat="48.3472" lon="2.74002">
        <ele>137.3</ele>
        <time>2018-04-14T09:26:23Z</time>
      </trkpt>
      <trkpt lat="48.34723" lon="2.74">
        <ele>137.3</ele>
        <time>2018-04-14T09:26:24Z</time>
      </trkpt>
      <trkpt lat="48.34726" lon="2.73997">
        <ele>137.3</ele>
        <time>2018-04-14T09:26:25Z</time>
      </trkpt>
      <trkpt lat="48.34729" lon="2.73995">
        <ele>137.3</ele>
        <time>2018-04-14T09:26:26Z</time>
      </trkpt>
      <trkpt lat="48.34734" lon="2.73991">
        <ele>137.3</ele>
        <time>2018-04-14T09:26:28Z</time>
      </trkpt>
      <trkpt lat="48.34736" lon="2.73989">
        <ele>137.3</ele>
        <time>2018-04-14T09:26:29Z</time>
      </trkpt>
      <trkpt lat="48.34739" lon="2.73985">
        <ele>137.3</ele>
        <time>2018-04-14T09:26:30Z</time>
      </trkpt>
      <trkpt lat="48.34742" lon="2.73982">
        <ele>137.3</ele>
        <time>2018-04-14T09:26:31Z</time>
      </trkpt>
      <trkpt lat="48.34745" lon="2.73979">
        <ele>137.3</ele>
        <time>2018-04-14T09:26:32Z</time>
      </trkpt>
      <trkpt lat="48.34748" lon="2.73976">
        <ele>137.3</ele>
        <time>2018-04-14T09:26:33Z</time>
      </trkpt>
      <trkpt lat="48.3475" lon="2.73974">
        <ele>137.3</ele>
        <time>2018-04-14T09:26:34Z</time>
      </trkpt>
      <trkpt lat="48.34752" lon="2.73972">
        <ele>137.3</ele>
        <time>2018-04-14T09:26:35Z</time>
      </trkpt>
      <trkpt lat="48.34756" lon="2.73969">
        <ele>137.3</ele>
        <time>2018-04-14T09:26:37Z</time>
      </trkpt>
      <trkpt lat="48.34758" lon="2.73967">
        <ele>137.4</ele>
        <time>2018-04-14T09:26:38Z</time>
      </trkpt>
      <trkpt lat="48.34762" lon="2.73965">
        <ele>137.4</ele>
        <time>2018-04-14T09:26:40Z</time>
      </trkpt>
      <trkpt lat="48.34767" lon="2.73961">
        <ele>137.5</ele>
        <time>2018-04-14T09:26:42Z</time>
      </trkpt>
      <trkpt lat="48.34771" lon="2.73956">
        <ele>137.6</ele>
        <time>2018-04-14T09:26:44Z</time>
      </trkpt>
      <trkpt lat="48.34774" lon="2.73953">
        <ele>137.7</ele>
        <time>2018-04-14T09:26:45Z</time>
      </trkpt>
      <trkpt lat="48.34777" lon="2.73951">
        <ele>137.8</ele>
        <time>2018-04-14T09:26:47Z</time>
      </trkpt>
      <trkpt lat="48.34781" lon="2.73948">
        <ele>138</ele>
        <time>2018-04-14T09:26:49Z</time>
      </trkpt>
      <trkpt lat="48.34784" lon="2.73946">
        <ele>138.1</ele>
        <time>2018-04-14T09:26:50Z</time>
      </trkpt>
      <trkpt lat="48.34787" lon="2.73943">
        <ele>138.5</ele>
        <time>2018-04-14T09:26:52Z</time>
      </trkpt>
      <trkpt lat="48.34792" lon="2.73939">
        <ele>138.8</ele>
        <time>2018-04-14T09:26:54Z</time>
      </trkpt>
      <trkpt lat="48.34794" lon="2.73937">
        <ele>138.9</ele>
        <time>2018-04-14T09:26:55Z</time>
      </trkpt>
      <trkpt lat="48.34799" lon="2.73932">
        <ele>139.1</ele>
        <time>2018-04-14T09:26:57Z</time>
      </trkpt>
      <trkpt lat="48.34801" lon="2.73929">
        <ele>139.1</ele>
        <time>2018-04-14T09:26:58Z</time>
      </trkpt>
      <trkpt lat="48.34804" lon="2.73927">
        <ele>139.1</ele>
        <time>2018-04-14T09:26:59Z</time>
      </trkpt>
      <trkpt lat="48.34806" lon="2.73926">
        <ele>139.2</ele>
        <time>2018-04-14T09:27:00Z</time>
      </trkpt>
      <trkpt lat="48.34811" lon="2.73923">
        <ele>139.2</ele>
        <time>2018-04-14T09:27:02Z</time>
      </trkpt>
      <trkpt lat="48.34813" lon="2.73921">
        <ele>139.2</ele>
        <time>2018-04-14T09:27:03Z</time>
      </trkpt>
      <trkpt lat="48.34816" lon="2.73917">
        <ele>139.2</ele>
        <time>2018-04-14T09:27:05Z</time>
      </trkpt>
      <trkpt lat="48.3482" lon="2.73912">
        <ele>139.3</ele>
        <time>2018-04-14T09:27:07Z</time>
      </trkpt>
      <trkpt lat="48.34823" lon="2.73908">
        <ele>139.3</ele>
        <time>2018-04-14T09:27:09Z</time>
      </trkpt>
      <trkpt lat="48.34827" lon="2.73906">
        <ele>139.3</ele>
        <time>2018-04-14T09:27:11Z</time>
      </trkpt>
      <trkpt lat="48.34829" lon="2.73904">
        <ele>139.3</ele>
        <time>2018-04-14T09:27:12Z</time>
      </trkpt>
      <trkpt lat="48.34832" lon="2.73903">
        <ele>139.3</ele>
        <time>2018-04-14T09:27:13Z</time>
      </trkpt>
      <trkpt lat="48.34836" lon="2.73898">
        <ele>139.4</ele>
        <time>2018-04-14T09:27:15Z</time>
      </trkpt>
      <trkpt lat="48.34839" lon="2.73894">
        <ele>139.4</ele>
        <time>2018-04-14T09:27:16Z</time>
      </trkpt>
      <trkpt lat="48.34843" lon="2.7389">
        <ele>139.4</ele>
        <time>2018-04-14T09:27:18Z</time>
      </trkpt>
      <trkpt lat="48.34847" lon="2.73889">
        <ele>139.5</ele>
        <time>2018-04-14T09:27:19Z</time>
      </trkpt>
      <trkpt lat="48.34851" lon="2.73885">
        <ele>139.6</ele>
        <time>2018-04-14T09:27:20Z</time>
      </trkpt>
      <trkpt lat="48.34855" lon="2.73879">
        <ele>139.6</ele>
        <time>2018-04-14T09:27:21Z</time>
      </trkpt>
      <trkpt lat="48.34858" lon="2.73874">
        <ele>139.7</ele>
        <time>2018-04-14T09:27:22Z</time>
      </trkpt>
      <trkpt lat="48.34862" lon="2.73869">
        <ele>139.8</ele>
        <time>2018-04-14T09:27:24Z</time>
      </trkpt>
      <trkpt lat="48.34866" lon="2.73867">
        <ele>139.9</ele>
        <time>2018-04-14T09:27:25Z</time>
      </trkpt>
      <trkpt lat="48.34869" lon="2.73864">
        <ele>140</ele>
        <time>2018-04-14T09:27:26Z</time>
      </trkpt>
      <trkpt lat="48.34873" lon="2.73861">
        <ele>140.1</ele>
        <time>2018-04-14T09:27:27Z</time>
      </trkpt>
      <trkpt lat="48.34877" lon="2.73859">
        <ele>140.3</ele>
        <time>2018-04-14T09:27:28Z</time>
      </trkpt>
      <trkpt lat="48.34881" lon="2.73858">
        <ele>140.6</ele>
        <time>2018-04-14T09:27:29Z</time>
      </trkpt>
      <trkpt lat="48.34884" lon="2.73857">
        <ele>140.8</ele>
        <time>2018-04-14T09:27:30Z</time>
      </trkpt>
      <trkpt lat="48.34886" lon="2.73853">
        <ele>140.9</ele>
        <time>2018-04-14T09:27:31Z</time>
      </trkpt>
      <trkpt lat="48.34889" lon="2.73851">
        <ele>141.1</ele>
        <time>2018-04-14T09:27:32Z</time>
      </trkpt>
      <trkpt lat="48.34894" lon="2.7385">
        <ele>141.2</ele>
        <time>2018-04-14T09:27:33Z</time>
      </trkpt>
      <trkpt lat="48.34898" lon="2.73849">
        <ele>141.2</ele>
        <time>2018-04-14T09:27:34Z</time>
      </trkpt>
      <trkpt lat="48.34901" lon="2.73847">
        <ele>141.3</ele>
        <time>2018-04-14T09:27:35Z</time>
      </trkpt>
      <trkpt lat="48.34905" lon="2.73846">
        <ele>141.4</ele>
        <time>2018-04-14T09:27:36Z</time>
      </trkpt>
      <trkpt lat="48.34908" lon="2.73844">
        <ele>141.4</ele>
        <time>2018-04-14T09:27:38Z</time>
      </trkpt>
      <trkpt lat="48.34911" lon="2.73842">
        <ele>141.4</ele>
        <time>2018-04-14T09:27:39Z</time>
      </trkpt>
      <trkpt lat="48.34914" lon="2.73841">
        <ele>141.4</ele>
        <time>2018-04-14T09:27:40Z</time>
      </trkpt>
      <trkpt lat="48.34916" lon="2.73839">
        <ele>141.4</ele>
        <time>2018-04-14T09:27:41Z</time>
      </trkpt>
      <trkpt lat="48.34919" lon="2.73836">
        <ele>141.4</ele>
        <time>2018-04-14T09:27:42Z</time>
      </trkpt>
      <trkpt lat="48.34921" lon="2.73832">
        <ele>141.4</ele>
        <time>2018-04-14T09:27:43Z</time>
      </trkpt>
      <trkpt lat="48.34925" lon="2.7383">
        <ele>141.4</ele>
        <time>2018-04-14T09:27:45Z</time>
      </trkpt>
      <trkpt lat="48.34927" lon="2.73827">
        <ele>141.4</ele>
        <time>2018-04-14T09:27:46Z</time>
      </trkpt>
      <trkpt lat="48.34929" lon="2.73825">
        <ele>141.4</ele>
        <time>2018-04-14T09:27:47Z</time>
      </trkpt>
      <trkpt lat="48.34933" lon="2.73821">
        <ele>141.4</ele>
        <time>2018-04-14T09:27:49Z</time>
      </trkpt>
      <trkpt lat="48.34936" lon="2.73819">
        <ele>141.4</ele>
        <time>2018-04-14T09:27:50Z</time>
      </trkpt>
      <trkpt lat="48.34939" lon="2.73816">
        <ele>141.4</ele>
        <time>2018-04-14T09:27:51Z</time>
      </trkpt>
      <trkpt lat="48.34942" lon="2.73813">
        <ele>141.4</ele>
        <time>2018-04-14T09:27:52Z</time>
      </trkpt>
      <trkpt lat="48.34945" lon="2.73811">
        <ele>141.4</ele>
        <time>2018-04-14T09:27:53Z</time>
      </trkpt>
      <trkpt lat="48.34949" lon="2.73809">
        <ele>141.4</ele>
        <time>2018-04-14T09:27:55Z</time>
      </trkpt>
      <trkpt lat="48.34952" lon="2.73807">
        <ele>141.4</ele>
        <time>2018-04-14T09:27:56Z</time>
      </trkpt>
      <trkpt lat="48.34956" lon="2.73805">
        <ele>141.4</ele>
        <time>2018-04-14T09:27:58Z</time>
      </trkpt>
      <trkpt lat="48.3496" lon="2.73804">
        <ele>141.4</ele>
        <time>2018-04-14T09:27:59Z</time>
      </trkpt>
      <trkpt lat="48.34964" lon="2.73803">
        <ele>141.4</ele>
        <time>2018-04-14T09:28:00Z</time>
      </trkpt>
      <trkpt lat="48.34967" lon="2.73801">
        <ele>141.4</ele>
        <time>2018-04-14T09:28:01Z</time>
      </trkpt>
      <trkpt lat="48.34969" lon="2.73798">
        <ele>141.4</ele>
        <time>2018-04-14T09:28:02Z</time>
      </trkpt>
      <trkpt lat="48.34974" lon="2.73795">
        <ele>141.4</ele>
        <time>2018-04-14T09:28:04Z</time>
      </trkpt>
      <trkpt lat="48.34977" lon="2.73793">
        <ele>141.4</ele>
        <time>2018-04-14T09:28:05Z</time>
      </trkpt>
      <trkpt lat="48.34979" lon="2.73791">
        <ele>141.4</ele>
        <time>2018-04-14T09:28:06Z</time>
      </trkpt>
      <trkpt lat="48.34982" lon="2.73789">
        <ele>141.4</ele>
        <time>2018-04-14T09:28:07Z</time>
      </trkpt>
      <trkpt lat="48.34985" lon="2.73787">
        <ele>141.4</ele>
        <time>2018-04-14T09:28:08Z</time>
      </trkpt>
      <trkpt lat="48.34988" lon="2.73783">
        <ele>141.4</ele>
        <time>2018-04-14T09:28:09Z</time>
      </trkpt>
      <trkpt lat="48.34992" lon="2.73779">
        <ele>141.4</ele>
        <time>2018-04-14T09:28:10Z</time>
      </trkpt>
      <trkpt lat="48.34996" lon="2.73777">
        <ele>141.4</ele>
        <time>2018-04-14T09:28:11Z</time>
      </trkpt>
      <trkpt lat="48.34999" lon="2.73774">
        <ele>141.4</ele>
        <time>2018-04-14T09:28:12Z</time>
      </trkpt>
      <trkpt lat="48.35002" lon="2.73771">
        <ele>141.4</ele>
        <time>2018-04-14T09:28:13Z</time>
      </trkpt>
      <trkpt lat="48.35005" lon="2.73767">
        <ele>141.4</ele>
        <time>2018-04-14T09:28:14Z</time>
      </trkpt>
      <trkpt lat="48.35009" lon="2.73763">
        <ele>141.4</ele>
        <time>2018-04-14T09:28:15Z</time>
      </trkpt>
      <trkpt lat="48.35013" lon="2.73761">
        <ele>141.4</ele>
        <time>2018-04-14T09:28:16Z</time>
      </trkpt>
      <trkpt lat="48.35015" lon="2.73759">
        <ele>141.4</ele>
        <time>2018-04-14T09:28:17Z</time>
      </trkpt>
      <trkpt lat="48.3502" lon="2.73755">
        <ele>141.4</ele>
        <time>2018-04-14T09:28:19Z</time>
      </trkpt>
      <trkpt lat="48.35022" lon="2.73752">
        <ele>141.4</ele>
        <time>2018-04-14T09:28:20Z</time>
      </trkpt>
      <trkpt lat="48.35025" lon="2.73749">
        <ele>141.4</ele>
        <time>2018-04-14T09:28:21Z</time>
      </trkpt>
      <trkpt lat="48.35028" lon="2.73746">
        <ele>141.4</ele>
        <time>2018-04-14T09:28:22Z</time>
      </trkpt>
      <trkpt lat="48.35031" lon="2.73743">
        <ele>141.3</ele>
        <time>2018-04-14T09:28:23Z</time>
      </trkpt>
      <trkpt lat="48.35034" lon="2.73741">
        <ele>141.3</ele>
        <time>2018-04-14T09:28:24Z</time>
      </trkpt>
      <trkpt lat="48.35038" lon="2.73737">
        <ele>141.1</ele>
        <time>2018-04-14T09:28:25Z</time>
      </trkpt>
      <trkpt lat="48.3504" lon="2.73734">
        <ele>141.1</ele>
        <time>2018-04-14T09:28:26Z</time>
      </trkpt>
      <trkpt lat="48.35043" lon="2.73731">
        <ele>140.9</ele>
        <time>2018-04-14T09:28:27Z</time>
      </trkpt>
      <trkpt lat="48.35045" lon="2.73728">
        <ele>140.8</ele>
        <time>2018-04-14T09:28:28Z</time>
      </trkpt>
      <trkpt lat="48.35047" lon="2.73725">
        <ele>140.7</ele>
        <time>2018-04-14T09:28:29Z</time>
      </trkpt>
      <trkpt lat="48.35049" lon="2.73722">
        <ele>140.5</ele>
        <time>2018-04-14T09:28:30Z</time>
      </trkpt>
      <trkpt lat="48.35052" lon="2.73719">
        <ele>140.2</ele>
        <time>2018-04-14T09:28:31Z</time>
      </trkpt>
      <trkpt lat="48.35055" lon="2.73714">
        <ele>139.8</ele>
        <time>2018-04-14T09:28:32Z</time>
      </trkpt>
      <trkpt lat="48.35057" lon="2.73711">
        <ele>139.5</ele>
        <time>2018-04-14T09:28:33Z</time>
      </trkpt>
      <trkpt lat="48.35059" lon="2.73706">
        <ele>139.3</ele>
        <time>2018-04-14T09:28:34Z</time>
      </trkpt>
      <trkpt lat="48.35062" lon="2.73698">
        <ele>139</ele>
        <time>2018-04-14T09:28:36Z</time>
      </trkpt>
      <trkpt lat="48.35063" lon="2.73693">
        <ele>138.7</ele>
        <time>2018-04-14T09:28:38Z</time>
      </trkpt>
      <trkpt lat="48.35065" lon="2.73689">
        <ele>138.5</ele>
        <time>2018-04-14T09:28:39Z</time>
      </trkpt>
      <trkpt lat="48.35066" lon="2.73683">
        <ele>138.2</ele>
        <time>2018-04-14T09:28:41Z</time>
      </trkpt>
      <trkpt lat="48.35068" lon="2.73678">
        <ele>137.9</ele>
        <time>2018-04-14T09:28:42Z</time>
      </trkpt>
      <trkpt lat="48.35069" lon="2.73674">
        <ele>137.7</ele>
        <time>2018-04-14T09:28:43Z</time>
      </trkpt>
      <trkpt lat="48.35071" lon="2.73667">
        <ele>137.4</ele>
        <time>2018-04-14T09:28:45Z</time>
      </trkpt>
      <trkpt lat="48.35072" lon="2.73662">
        <ele>137.2</ele>
        <time>2018-04-14T09:28:46Z</time>
      </trkpt>
      <trkpt lat="48.35072" lon="2.73658">
        <ele>137</ele>
        <time>2018-04-14T09:28:47Z</time>
      </trkpt>
      <trkpt lat="48.35073" lon="2.73652">
        <ele>136.7</ele>
        <time>2018-04-14T09:28:49Z</time>
      </trkpt>
      <trkpt lat="48.35076" lon="2.73646">
        <ele>136.2</ele>
        <time>2018-04-14T09:28:51Z</time>
      </trkpt>
      <trkpt lat="48.35078" lon="2.73642">
        <ele>135.9</ele>
        <time>2018-04-14T09:28:53Z</time>
      </trkpt>
      <trkpt lat="48.3508" lon="2.73638">
        <ele>135.5</ele>
        <time>2018-04-14T09:28:55Z</time>
      </trkpt>
      <trkpt lat="48.35085" lon="2.7364">
        <ele>134.8</ele>
        <time>2018-04-14T09:28:58Z</time>
      </trkpt>
      <trkpt lat="48.35088" lon="2.73644">
        <ele>135.1</ele>
        <time>2018-04-14T09:28:59Z</time>
      </trkpt>
      <trkpt lat="48.35091" lon="2.7365">
        <ele>135.4</ele>
        <time>2018-04-14T09:29:00Z</time>
      </trkpt>
      <trkpt lat="48.35093" lon="2.73656">
        <ele>135.5</ele>
        <time>2018-04-14T09:29:01Z</time>
      </trkpt>
      <trkpt lat="48.35094" lon="2.73662">
        <ele>135.5</ele>
        <time>2018-04-14T09:29:02Z</time>
      </trkpt>
      <trkpt lat="48.35095" lon="2.73666">
        <ele>135.6</ele>
        <time>2018-04-14T09:29:03Z</time>
      </trkpt>
      <trkpt lat="48.35096" lon="2.7367">
        <ele>135.6</ele>
        <time>2018-04-14T09:29:04Z</time>
      </trkpt>
      <trkpt lat="48.35096" lon="2.73675">
        <ele>135.6</ele>
        <time>2018-04-14T09:29:05Z</time>
      </trkpt>
      <trkpt lat="48.35098" lon="2.73679">
        <ele>135.7</ele>
        <time>2018-04-14T09:29:06Z</time>
      </trkpt>
      <trkpt lat="48.351" lon="2.73685">
        <ele>135.7</ele>
        <time>2018-04-14T09:29:07Z</time>
      </trkpt>
      <trkpt lat="48.35101" lon="2.7369">
        <ele>135.8</ele>
        <time>2018-04-14T09:29:08Z</time>
      </trkpt>
      <trkpt lat="48.35101" lon="2.73695">
        <ele>135.8</ele>
        <time>2018-04-14T09:29:09Z</time>
      </trkpt>
      <trkpt lat="48.35102" lon="2.73701">
        <ele>135.8</ele>
        <time>2018-04-14T09:29:10Z</time>
      </trkpt>
      <trkpt lat="48.35103" lon="2.73705">
        <ele>135.9</ele>
        <time>2018-04-14T09:29:11Z</time>
      </trkpt>
      <trkpt lat="48.35105" lon="2.73714">
        <ele>135.9</ele>
        <time>2018-04-14T09:29:13Z</time>
      </trkpt>
      <trkpt lat="48.35106" lon="2.73718">
        <ele>136</ele>
        <time>2018-04-14T09:29:14Z</time>
      </trkpt>
      <trkpt lat="48.35106" lon="2.73723">
        <ele>136</ele>
        <time>2018-04-14T09:29:15Z</time>
      </trkpt>
      <trkpt lat="48.35108" lon="2.73731">
        <ele>135.9</ele>
        <time>2018-04-14T09:29:17Z</time>
      </trkpt>
      <trkpt lat="48.35108" lon="2.73736">
        <ele>135.8</ele>
        <time>2018-04-14T09:29:18Z</time>
      </trkpt>
      <trkpt lat="48.35109" lon="2.73741">
        <ele>135.7</ele>
        <time>2018-04-14T09:29:19Z</time>
      </trkpt>
      <trkpt lat="48.35111" lon="2.73747">
        <ele>135.7</ele>
        <time>2018-04-14T09:29:21Z</time>
      </trkpt>
      <trkpt lat="48.35113" lon="2.73753">
        <ele>135.7</ele>
        <time>2018-04-14T09:29:23Z</time>
      </trkpt>
      <trkpt lat="48.35114" lon="2.73757">
        <ele>135.7</ele>
        <time>2018-04-14T09:29:25Z</time>
      </trkpt>
      <trkpt lat="48.35115" lon="2.73761">
        <ele>135.7</ele>
        <time>2018-04-14T09:29:27Z</time>
      </trkpt>
      <trkpt lat="48.35117" lon="2.73766">
        <ele>135.7</ele>
        <time>2018-04-14T09:29:29Z</time>
      </trkpt>
      <trkpt lat="48.35119" lon="2.7377">
        <ele>135.7</ele>
        <time>2018-04-14T09:29:31Z</time>
      </trkpt>
      <trkpt lat="48.3512" lon="2.73777">
        <ele>135.8</ele>
        <time>2018-04-14T09:29:33Z</time>
      </trkpt>
      <trkpt lat="48.35123" lon="2.73784">
        <ele>135.8</ele>
        <time>2018-04-14T09:29:35Z</time>
      </trkpt>
      <trkpt lat="48.35124" lon="2.73788">
        <ele>135.8</ele>
        <time>2018-04-14T09:29:36Z</time>
      </trkpt>
      <trkpt lat="48.35126" lon="2.73795">
        <ele>135.9</ele>
        <time>2018-04-14T09:29:38Z</time>
      </trkpt>
      <trkpt lat="48.35127" lon="2.73799">
        <ele>136</ele>
        <time>2018-04-14T09:29:39Z</time>
      </trkpt>
      <trkpt lat="48.35129" lon="2.73805">
        <ele>136</ele>
        <time>2018-04-14T09:29:41Z</time>
      </trkpt>
      <trkpt lat="48.3513" lon="2.7381">
        <ele>136.1</ele>
        <time>2018-04-14T09:29:43Z</time>
      </trkpt>
      <trkpt lat="48.35131" lon="2.73815">
        <ele>136.2</ele>
        <time>2018-04-14T09:29:45Z</time>
      </trkpt>
      <trkpt lat="48.35132" lon="2.73822">
        <ele>136.5</ele>
        <time>2018-04-14T09:29:47Z</time>
      </trkpt>
      <trkpt lat="48.35133" lon="2.73827">
        <ele>136.7</ele>
        <time>2018-04-14T09:29:49Z</time>
      </trkpt>
      <trkpt lat="48.35134" lon="2.73833">
        <ele>137.1</ele>
        <time>2018-04-14T09:29:52Z</time>
      </trkpt>
      <trkpt lat="48.35135" lon="2.73839">
        <ele>137.4</ele>
        <time>2018-04-14T09:29:55Z</time>
      </trkpt>
      <trkpt lat="48.35135" lon="2.73843">
        <ele>137.6</ele>
        <time>2018-04-14T09:29:57Z</time>
      </trkpt>
      <trkpt lat="48.35136" lon="2.73848">
        <ele>137.9</ele>
        <time>2018-04-14T09:29:59Z</time>
      </trkpt>
      <trkpt lat="48.35135" lon="2.73854">
        <ele>138.2</ele>
        <time>2018-04-14T09:30:01Z</time>
      </trkpt>
      <trkpt lat="48.35135" lon="2.7386">
        <ele>138.5</ele>
        <time>2018-04-14T09:30:03Z</time>
      </trkpt>
      <trkpt lat="48.35136" lon="2.73867">
        <ele>138.8</ele>
        <time>2018-04-14T09:30:05Z</time>
      </trkpt>
      <trkpt lat="48.35136" lon="2.73872">
        <ele>138.9</ele>
        <time>2018-04-14T09:30:07Z</time>
      </trkpt>
      <trkpt lat="48.35137" lon="2.73876">
        <ele>138.9</ele>
        <time>2018-04-14T09:30:09Z</time>
      </trkpt>
      <trkpt lat="48.35138" lon="2.73882">
        <ele>139</ele>
        <time>2018-04-14T09:30:11Z</time>
      </trkpt>
      <trkpt lat="48.35139" lon="2.73887">
        <ele>139.1</ele>
        <time>2018-04-14T09:30:13Z</time>
      </trkpt>
      <trkpt lat="48.3514" lon="2.73892">
        <ele>139.2</ele>
        <time>2018-04-14T09:30:15Z</time>
      </trkpt>
      <trkpt lat="48.35141" lon="2.73898">
        <ele>139.3</ele>
        <time>2018-04-14T09:30:17Z</time>
      </trkpt>
      <trkpt lat="48.35142" lon="2.73904">
        <ele>139.3</ele>
        <time>2018-04-14T09:30:19Z</time>
      </trkpt>
      <trkpt lat="48.35143" lon="2.7391">
        <ele>139.4</ele>
        <time>2018-04-14T09:30:21Z</time>
      </trkpt>
      <trkpt lat="48.35144" lon="2.73917">
        <ele>139.5</ele>
        <time>2018-04-14T09:30:23Z</time>
      </trkpt>
      <trkpt lat="48.35145" lon="2.73924">
        <ele>139.6</ele>
        <time>2018-04-14T09:30:25Z</time>
      </trkpt>
      <trkpt lat="48.35146" lon="2.73931">
        <ele>139.8</ele>
        <time>2018-04-14T09:30:27Z</time>
      </trkpt>
      <trkpt lat="48.35147" lon="2.73936">
        <ele>139.9</ele>
        <time>2018-04-14T09:30:29Z</time>
      </trkpt>
      <trkpt lat="48.35148" lon="2.73942">
        <ele>140.1</ele>
        <time>2018-04-14T09:30:31Z</time>
      </trkpt>
      <trkpt lat="48.35149" lon="2.73947">
        <ele>140.2</ele>
        <time>2018-04-14T09:30:33Z</time>
      </trkpt>
      <trkpt lat="48.3515" lon="2.73953">
        <ele>140.3</ele>
        <time>2018-04-14T09:30:35Z</time>
      </trkpt>
      <trkpt lat="48.3515" lon="2.7396">
        <ele>140.3</ele>
        <time>2018-04-14T09:30:37Z</time>
      </trkpt>
      <trkpt lat="48.3515" lon="2.73967">
        <ele>140.3</ele>
        <time>2018-04-14T09:30:39Z</time>
      </trkpt>
      <trkpt lat="48.35149" lon="2.73974">
        <ele>140.3</ele>
        <time>2018-04-14T09:30:41Z</time>
      </trkpt>
      <trkpt lat="48.35148" lon="2.73978">
        <ele>140.3</ele>
        <time>2018-04-14T09:30:42Z</time>
      </trkpt>
      <trkpt lat="48.35148" lon="2.73985">
        <ele>140.3</ele>
        <time>2018-04-14T09:30:44Z</time>
      </trkpt>
      <trkpt lat="48.35147" lon="2.73991">
        <ele>140.3</ele>
        <time>2018-04-14T09:30:46Z</time>
      </trkpt>
      <trkpt lat="48.35147" lon="2.73999">
        <ele>140.2</ele>
        <time>2018-04-14T09:30:48Z</time>
      </trkpt>
      <trkpt lat="48.35147" lon="2.74006">
        <ele>140.2</ele>
        <time>2018-04-14T09:30:50Z</time>
      </trkpt>
      <trkpt lat="48.35145" lon="2.7401">
        <ele>140.2</ele>
        <time>2018-04-14T09:30:52Z</time>
      </trkpt>
      <trkpt lat="48.35145" lon="2.74019">
        <ele>140.1</ele>
        <time>2018-04-14T09:30:55Z</time>
      </trkpt>
      <trkpt lat="48.35147" lon="2.74024">
        <ele>140.1</ele>
        <time>2018-04-14T09:30:57Z</time>
      </trkpt>
      <trkpt lat="48.35148" lon="2.74028">
        <ele>140.1</ele>
        <time>2018-04-14T09:30:59Z</time>
      </trkpt>
      <trkpt lat="48.35151" lon="2.74032">
        <ele>140</ele>
        <time>2018-04-14T09:31:01Z</time>
      </trkpt>
      <trkpt lat="48.35154" lon="2.74034">
        <ele>140</ele>
        <time>2018-04-14T09:31:04Z</time>
      </trkpt>
      <trkpt lat="48.35158" lon="2.74036">
        <ele>140</ele>
        <time>2018-04-14T09:31:06Z</time>
      </trkpt>
      <trkpt lat="48.35161" lon="2.7404">
        <ele>140</ele>
        <time>2018-04-14T09:31:08Z</time>
      </trkpt>
      <trkpt lat="48.35163" lon="2.74044">
        <ele>140</ele>
        <time>2018-04-14T09:31:10Z</time>
      </trkpt>
      <trkpt lat="48.35166" lon="2.74046">
        <ele>140</ele>
        <time>2018-04-14T09:31:12Z</time>
      </trkpt>
      <trkpt lat="48.35169" lon="2.74047">
        <ele>140</ele>
        <time>2018-04-14T09:31:14Z</time>
      </trkpt>
      <trkpt lat="48.35172" lon="2.74054">
        <ele>140</ele>
        <time>2018-04-14T09:31:16Z</time>
      </trkpt>
      <trkpt lat="48.35173" lon="2.74058">
        <ele>140</ele>
        <time>2018-04-14T09:31:17Z</time>
      </trkpt>
      <trkpt lat="48.35175" lon="2.74064">
        <ele>140</ele>
        <time>2018-04-14T09:31:19Z</time>
      </trkpt>
      <trkpt lat="48.35176" lon="2.74068">
        <ele>140</ele>
        <time>2018-04-14T09:31:21Z</time>
      </trkpt>
      <trkpt lat="48.35178" lon="2.74073">
        <ele>140</ele>
        <time>2018-04-14T09:31:23Z</time>
      </trkpt>
      <trkpt lat="48.3518" lon="2.74076">
        <ele>140</ele>
        <time>2018-04-14T09:31:24Z</time>
      </trkpt>
      <trkpt lat="48.35183" lon="2.74079">
        <ele>140</ele>
        <time>2018-04-14T09:31:25Z</time>
      </trkpt>
      <trkpt lat="48.35187" lon="2.74083">
        <ele>140.1</ele>
        <time>2018-04-14T09:31:27Z</time>
      </trkpt>
      <trkpt lat="48.35189" lon="2.74086">
        <ele>140.1</ele>
        <time>2018-04-14T09:31:29Z</time>
      </trkpt>
      <trkpt lat="48.35194" lon="2.7409">
        <ele>140.1</ele>
        <time>2018-04-14T09:31:31Z</time>
      </trkpt>
      <trkpt lat="48.35197" lon="2.74094">
        <ele>140.1</ele>
        <time>2018-04-14T09:31:33Z</time>
      </trkpt>
      <trkpt lat="48.35201" lon="2.74099">
        <ele>140.1</ele>
        <time>2018-04-14T09:31:35Z</time>
      </trkpt>
      <trkpt lat="48.35204" lon="2.741">
        <ele>140.1</ele>
        <time>2018-04-14T09:31:36Z</time>
      </trkpt>
      <trkpt lat="48.35208" lon="2.74102">
        <ele>140.1</ele>
        <time>2018-04-14T09:31:37Z</time>
      </trkpt>
      <trkpt lat="48.35211" lon="2.74103">
        <ele>140.1</ele>
        <time>2018-04-14T09:31:38Z</time>
      </trkpt>
      <trkpt lat="48.35214" lon="2.74104">
        <ele>140.1</ele>
        <time>2018-04-14T09:31:39Z</time>
      </trkpt>
      <trkpt lat="48.35218" lon="2.74106">
        <ele>140.1</ele>
        <time>2018-04-14T09:31:40Z</time>
      </trkpt>
      <trkpt lat="48.35223" lon="2.74108">
        <ele>140.1</ele>
        <time>2018-04-14T09:31:42Z</time>
      </trkpt>
      <trkpt lat="48.35229" lon="2.7411">
        <ele>140.1</ele>
        <time>2018-04-14T09:31:44Z</time>
      </trkpt>
      <trkpt lat="48.35234" lon="2.74112">
        <ele>140.1</ele>
        <time>2018-04-14T09:31:45Z</time>
      </trkpt>
      <trkpt lat="48.35237" lon="2.74113">
        <ele>140.1</ele>
        <time>2018-04-14T09:31:46Z</time>
      </trkpt>
      <trkpt lat="48.3524" lon="2.74115">
        <ele>140.1</ele>
        <time>2018-04-14T09:31:47Z</time>
      </trkpt>
      <trkpt lat="48.35243" lon="2.74117">
        <ele>140.1</ele>
        <time>2018-04-14T09:31:48Z</time>
      </trkpt>
      <trkpt lat="48.35247" lon="2.74117">
        <ele>140.1</ele>
        <time>2018-04-14T09:31:49Z</time>
      </trkpt>
      <trkpt lat="48.3525" lon="2.74118">
        <ele>140.1</ele>
        <time>2018-04-14T09:31:50Z</time>
      </trkpt>
      <trkpt lat="48.35254" lon="2.74121">
        <ele>140.2</ele>
        <time>2018-04-14T09:31:51Z</time>
      </trkpt>
      <trkpt lat="48.35256" lon="2.74124">
        <ele>140.2</ele>
        <time>2018-04-14T09:31:52Z</time>
      </trkpt>
      <trkpt lat="48.35259" lon="2.74129">
        <ele>140.2</ele>
        <time>2018-04-14T09:31:53Z</time>
      </trkpt>
      <trkpt lat="48.35263" lon="2.74134">
        <ele>140.2</ele>
        <time>2018-04-14T09:31:54Z</time>
      </trkpt>
      <trkpt lat="48.35265" lon="2.7414">
        <ele>140.2</ele>
        <time>2018-04-14T09:31:55Z</time>
      </trkpt>
      <trkpt lat="48.35268" lon="2.74146">
        <ele>140.2</ele>
        <time>2018-04-14T09:31:56Z</time>
      </trkpt>
      <trkpt lat="48.35271" lon="2.74151">
        <ele>140.2</ele>
        <time>2018-04-14T09:31:57Z</time>
      </trkpt>
      <trkpt lat="48.35273" lon="2.74154">
        <ele>140.2</ele>
        <time>2018-04-14T09:31:58Z</time>
      </trkpt>
      <trkpt lat="48.35276" lon="2.74158">
        <ele>140.2</ele>
        <time>2018-04-14T09:31:59Z</time>
      </trkpt>
      <trkpt lat="48.35279" lon="2.74162">
        <ele>140.2</ele>
        <time>2018-04-14T09:32:00Z</time>
      </trkpt>
      <trkpt lat="48.35282" lon="2.74167">
        <ele>140.2</ele>
        <time>2018-04-14T09:32:01Z</time>
      </trkpt>
      <trkpt lat="48.35285" lon="2.74167">
        <ele>140.2</ele>
        <time>2018-04-14T09:32:02Z</time>
      </trkpt>
      <trkpt lat="48.35289" lon="2.74167">
        <ele>140.2</ele>
        <time>2018-04-14T09:32:03Z</time>
      </trkpt>
      <trkpt lat="48.35292" lon="2.74166">
        <ele>140.2</ele>
        <time>2018-04-14T09:32:04Z</time>
      </trkpt>
      <trkpt lat="48.35296" lon="2.74164">
        <ele>140.2</ele>
        <time>2018-04-14T09:32:05Z</time>
      </trkpt>
      <trkpt lat="48.35299" lon="2.74162">
        <ele>140.2</ele>
        <time>2018-04-14T09:32:06Z</time>
      </trkpt>
      <trkpt lat="48.35301" lon="2.74159">
        <ele>140.2</ele>
        <time>2018-04-14T09:32:07Z</time>
      </trkpt>
      <trkpt lat="48.35303" lon="2.74155">
        <ele>140.2</ele>
        <time>2018-04-14T09:32:08Z</time>
      </trkpt>
      <trkpt lat="48.35307" lon="2.7415">
        <ele>140.1</ele>
        <time>2018-04-14T09:32:10Z</time>
      </trkpt>
      <trkpt lat="48.35312" lon="2.74151">
        <ele>140.1</ele>
        <time>2018-04-14T09:32:12Z</time>
      </trkpt>
      <trkpt lat="48.35316" lon="2.74154">
        <ele>140.1</ele>
        <time>2018-04-14T09:32:13Z</time>
      </trkpt>
      <trkpt lat="48.3532" lon="2.7416">
        <ele>140</ele>
        <time>2018-04-14T09:32:14Z</time>
      </trkpt>
      <trkpt lat="48.35324" lon="2.74165">
        <ele>139.7</ele>
        <time>2018-04-14T09:32:15Z</time>
      </trkpt>
      <trkpt lat="48.35328" lon="2.74168">
        <ele>139.4</ele>
        <time>2018-04-14T09:32:16Z</time>
      </trkpt>
      <trkpt lat="48.35333" lon="2.74172">
        <ele>138.9</ele>
        <time>2018-04-14T09:32:17Z</time>
      </trkpt>
      <trkpt lat="48.35337" lon="2.74175">
        <ele>138.4</ele>
        <time>2018-04-14T09:32:18Z</time>
      </trkpt>
      <trkpt lat="48.35339" lon="2.74179">
        <ele>138.1</ele>
        <time>2018-04-14T09:32:19Z</time>
      </trkpt>
      <trkpt lat="48.35342" lon="2.74182">
        <ele>137.7</ele>
        <time>2018-04-14T09:32:20Z</time>
      </trkpt>
      <trkpt lat="48.35347" lon="2.74188">
        <ele>137.1</ele>
        <time>2018-04-14T09:32:21Z</time>
      </trkpt>
      <trkpt lat="48.3535" lon="2.74193">
        <ele>136.7</ele>
        <time>2018-04-14T09:32:22Z</time>
      </trkpt>
      <trkpt lat="48.35353" lon="2.74196">
        <ele>136.4</ele>
        <time>2018-04-14T09:32:23Z</time>
      </trkpt>
      <trkpt lat="48.35355" lon="2.74201">
        <ele>136.1</ele>
        <time>2018-04-14T09:32:25Z</time>
      </trkpt>
      <trkpt lat="48.35356" lon="2.74206">
        <ele>135.8</ele>
        <time>2018-04-14T09:32:26Z</time>
      </trkpt>
      <trkpt lat="48.35358" lon="2.7421">
        <ele>135.6</ele>
        <time>2018-04-14T09:32:27Z</time>
      </trkpt>
      <trkpt lat="48.35361" lon="2.74213">
        <ele>134.5</ele>
        <time>2018-04-14T09:32:28Z</time>
      </trkpt>
      <trkpt lat="48.35364" lon="2.7422">
        <ele>134</ele>
        <time>2018-04-14T09:32:30Z</time>
      </trkpt>
      <trkpt lat="48.35365" lon="2.74225">
        <ele>133.8</ele>
        <time>2018-04-14T09:32:31Z</time>
      </trkpt>
      <trkpt lat="48.35367" lon="2.74229">
        <ele>133.5</ele>
        <time>2018-04-14T09:32:32Z</time>
      </trkpt>
      <trkpt lat="48.35368" lon="2.74234">
        <ele>133.3</ele>
        <time>2018-04-14T09:32:33Z</time>
      </trkpt>
      <trkpt lat="48.35369" lon="2.74238">
        <ele>133.1</ele>
        <time>2018-04-14T09:32:34Z</time>
      </trkpt>
      <trkpt lat="48.35371" lon="2.74242">
        <ele>133</ele>
        <time>2018-04-14T09:32:35Z</time>
      </trkpt>
      <trkpt lat="48.35373" lon="2.74246">
        <ele>132.8</ele>
        <time>2018-04-14T09:32:36Z</time>
      </trkpt>
      <trkpt lat="48.35375" lon="2.7425">
        <ele>132.6</ele>
        <time>2018-04-14T09:32:37Z</time>
      </trkpt>
      <trkpt lat="48.35378" lon="2.74256">
        <ele>132.4</ele>
        <time>2018-04-14T09:32:39Z</time>
      </trkpt>
      <trkpt lat="48.3538" lon="2.7426">
        <ele>132.3</ele>
        <time>2018-04-14T09:32:40Z</time>
      </trkpt>
      <trkpt lat="48.35384" lon="2.74264">
        <ele>132.2</ele>
        <time>2018-04-14T09:32:42Z</time>
      </trkpt>
      <trkpt lat="48.35387" lon="2.74263">
        <ele>132.1</ele>
        <time>2018-04-14T09:32:45Z</time>
      </trkpt>
      <trkpt lat="48.35389" lon="2.74259">
        <ele>132.5</ele>
        <time>2018-04-14T09:32:47Z</time>
      </trkpt>
      <trkpt lat="48.35389" lon="2.74254">
        <ele>132.8</ele>
        <time>2018-04-14T09:32:49Z</time>
      </trkpt>
      <trkpt lat="48.3539" lon="2.74249">
        <ele>133.1</ele>
        <time>2018-04-14T09:32:51Z</time>
      </trkpt>
      <trkpt lat="48.3539" lon="2.74244">
        <ele>133.4</ele>
        <time>2018-04-14T09:32:54Z</time>
      </trkpt>
      <trkpt lat="48.3539" lon="2.74236">
        <ele>133.8</ele>
        <time>2018-04-14T09:32:56Z</time>
      </trkpt>
      <trkpt lat="48.35391" lon="2.74229">
        <ele>134.2</ele>
        <time>2018-04-14T09:32:58Z</time>
      </trkpt>
      <trkpt lat="48.35392" lon="2.74221">
        <ele>134.7</ele>
        <time>2018-04-14T09:33:00Z</time>
      </trkpt>
      <trkpt lat="48.35394" lon="2.74216">
        <ele>135</ele>
        <time>2018-04-14T09:33:02Z</time>
      </trkpt>
      <trkpt lat="48.35396" lon="2.74211">
        <ele>134.9</ele>
        <time>2018-04-14T09:33:04Z</time>
      </trkpt>
      <trkpt lat="48.35398" lon="2.74207">
        <ele>134.8</ele>
        <time>2018-04-14T09:33:05Z</time>
      </trkpt>
      <trkpt lat="48.35402" lon="2.74203">
        <ele>134.7</ele>
        <time>2018-04-14T09:33:07Z</time>
      </trkpt>
      <trkpt lat="48.35405" lon="2.742">
        <ele>134.6</ele>
        <time>2018-04-14T09:33:09Z</time>
      </trkpt>
      <trkpt lat="48.35408" lon="2.74196">
        <ele>134.3</ele>
        <time>2018-04-14T09:33:11Z</time>
      </trkpt>
      <trkpt lat="48.35412" lon="2.74192">
        <ele>134.1</ele>
        <time>2018-04-14T09:33:13Z</time>
      </trkpt>
      <trkpt lat="48.35415" lon="2.7419">
        <ele>133.9</ele>
        <time>2018-04-14T09:33:15Z</time>
      </trkpt>
      <trkpt lat="48.35418" lon="2.74187">
        <ele>133.8</ele>
        <time>2018-04-14T09:33:17Z</time>
      </trkpt>
      <trkpt lat="48.35421" lon="2.74184">
        <ele>133.7</ele>
        <time>2018-04-14T09:33:19Z</time>
      </trkpt>
      <trkpt lat="48.35425" lon="2.74183">
        <ele>133.5</ele>
        <time>2018-04-14T09:33:21Z</time>
      </trkpt>
      <trkpt lat="48.35429" lon="2.74182">
        <ele>133.4</ele>
        <time>2018-04-14T09:33:23Z</time>
      </trkpt>
      <trkpt lat="48.35432" lon="2.74181">
        <ele>133.3</ele>
        <time>2018-04-14T09:33:25Z</time>
      </trkpt>
      <trkpt lat="48.35435" lon="2.74181">
        <ele>133.1</ele>
        <time>2018-04-14T09:33:27Z</time>
      </trkpt>
      <trkpt lat="48.35439" lon="2.74181">
        <ele>132.9</ele>
        <time>2018-04-14T09:33:29Z</time>
      </trkpt>
      <trkpt lat="48.35444" lon="2.74182">
        <ele>132.8</ele>
        <time>2018-04-14T09:33:31Z</time>
      </trkpt>
      <trkpt lat="48.35447" lon="2.74183">
        <ele>132.7</ele>
        <time>2018-04-14T09:33:32Z</time>
      </trkpt>
      <trkpt lat="48.35449" lon="2.74184">
        <ele>132.7</ele>
        <time>2018-04-14T09:33:33Z</time>
      </trkpt>
      <trkpt lat="48.35452" lon="2.74185">
        <ele>132.6</ele>
        <time>2018-04-14T09:33:34Z</time>
      </trkpt>
      <trkpt lat="48.35456" lon="2.74185">
        <ele>132.6</ele>
        <time>2018-04-14T09:33:36Z</time>
      </trkpt>
      <trkpt lat="48.35459" lon="2.74186">
        <ele>132.5</ele>
        <time>2018-04-14T09:33:39Z</time>
      </trkpt>
      <trkpt lat="48.35462" lon="2.74187">
        <ele>132.5</ele>
        <time>2018-04-14T09:33:41Z</time>
      </trkpt>
      <trkpt lat="48.35466" lon="2.74188">
        <ele>132.4</ele>
        <time>2018-04-14T09:33:43Z</time>
      </trkpt>
      <trkpt lat="48.3547" lon="2.74189">
        <ele>132.3</ele>
        <time>2018-04-14T09:33:45Z</time>
      </trkpt>
      <trkpt lat="48.35473" lon="2.74191">
        <ele>132.3</ele>
        <time>2018-04-14T09:33:46Z</time>
      </trkpt>
      <trkpt lat="48.35476" lon="2.74191">
        <ele>132</ele>
        <time>2018-04-14T09:33:49Z</time>
      </trkpt>
      <trkpt lat="48.35479" lon="2.74192">
        <ele>131.8</ele>
        <time>2018-04-14T09:33:51Z</time>
      </trkpt>
      <trkpt lat="48.35483" lon="2.74196">
        <ele>131.3</ele>
        <time>2018-04-14T09:33:53Z</time>
      </trkpt>
      <trkpt lat="48.35486" lon="2.74199">
        <ele>131</ele>
        <time>2018-04-14T09:33:55Z</time>
      </trkpt>
      <trkpt lat="48.3549" lon="2.74203">
        <ele>131.2</ele>
        <time>2018-04-14T09:33:57Z</time>
      </trkpt>
      <trkpt lat="48.35493" lon="2.74206">
        <ele>131.3</ele>
        <time>2018-04-14T09:33:58Z</time>
      </trkpt>
      <trkpt lat="48.35496" lon="2.74211">
        <ele>131.6</ele>
        <time>2018-04-14T09:34:00Z</time>
      </trkpt>
      <trkpt lat="48.35499" lon="2.74214">
        <ele>131.9</ele>
        <time>2018-04-14T09:34:01Z</time>
      </trkpt>
      <trkpt lat="48.35501" lon="2.74217">
        <ele>132.3</ele>
        <time>2018-04-14T09:34:02Z</time>
      </trkpt>
      <trkpt lat="48.35504" lon="2.74223">
        <ele>132.7</ele>
        <time>2018-04-14T09:34:04Z</time>
      </trkpt>
      <trkpt lat="48.35507" lon="2.74228">
        <ele>132.9</ele>
        <time>2018-04-14T09:34:06Z</time>
      </trkpt>
      <trkpt lat="48.3551" lon="2.74234">
        <ele>133</ele>
        <time>2018-04-14T09:34:08Z</time>
      </trkpt>
      <trkpt lat="48.35513" lon="2.74241">
        <ele>133</ele>
        <time>2018-04-14T09:34:10Z</time>
      </trkpt>
      <trkpt lat="48.35514" lon="2.74245">
        <ele>133.1</ele>
        <time>2018-04-14T09:34:11Z</time>
      </trkpt>
      <trkpt lat="48.35516" lon="2.74249">
        <ele>133.1</ele>
        <time>2018-04-14T09:34:12Z</time>
      </trkpt>
      <trkpt lat="48.35518" lon="2.74253">
        <ele>133.1</ele>
        <time>2018-04-14T09:34:13Z</time>
      </trkpt>
      <trkpt lat="48.3552" lon="2.74258">
        <ele>133.2</ele>
        <time>2018-04-14T09:34:14Z</time>
      </trkpt>
      <trkpt lat="48.35521" lon="2.74262">
        <ele>133.2</ele>
        <time>2018-04-14T09:34:15Z</time>
      </trkpt>
      <trkpt lat="48.35522" lon="2.74267">
        <ele>133.2</ele>
        <time>2018-04-14T09:34:16Z</time>
      </trkpt>
      <trkpt lat="48.35524" lon="2.74272">
        <ele>133.2</ele>
        <time>2018-04-14T09:34:17Z</time>
      </trkpt>
      <trkpt lat="48.35525" lon="2.74275">
        <ele>133.2</ele>
        <time>2018-04-14T09:34:18Z</time>
      </trkpt>
      <trkpt lat="48.35527" lon="2.74281">
        <ele>133.2</ele>
        <time>2018-04-14T09:34:20Z</time>
      </trkpt>
      <trkpt lat="48.35529" lon="2.74286">
        <ele>133.2</ele>
        <time>2018-04-14T09:34:22Z</time>
      </trkpt>
      <trkpt lat="48.35531" lon="2.74289">
        <ele>133.2</ele>
        <time>2018-04-14T09:34:25Z</time>
      </trkpt>
      <trkpt lat="48.35534" lon="2.74293">
        <ele>133.1</ele>
        <time>2018-04-14T09:34:28Z</time>
      </trkpt>
      <trkpt lat="48.35537" lon="2.74295">
        <ele>133.1</ele>
        <time>2018-04-14T09:34:31Z</time>
      </trkpt>
      <trkpt lat="48.35538" lon="2.74299">
        <ele>132.9</ele>
        <time>2018-04-14T09:35:02Z</time>
      </trkpt>
      <trkpt lat="48.35538" lon="2.74303">
        <ele>132.8</ele>
        <time>2018-04-14T09:35:13Z</time>
      </trkpt>
      <trkpt lat="48.3554" lon="2.74307">
        <ele>132.3</ele>
        <time>2018-04-14T09:35:19Z</time>
      </trkpt>
      <trkpt lat="48.35543" lon="2.74305">
        <ele>132</ele>
        <time>2018-04-14T09:35:34Z</time>
      </trkpt>
      <trkpt lat="48.3554" lon="2.74305">
        <ele>132</ele>
        <time>2018-04-14T09:35:39Z</time>
      </trkpt>
      <trkpt lat="48.35537" lon="2.74304">
        <ele>132</ele>
        <time>2018-04-14T09:35:40Z</time>
      </trkpt>
      <trkpt lat="48.35534" lon="2.74302">
        <ele>131.9</ele>
        <time>2018-04-14T09:35:42Z</time>
      </trkpt>
      <trkpt lat="48.35531" lon="2.743">
        <ele>131.9</ele>
        <time>2018-04-14T09:35:44Z</time>
      </trkpt>
      <trkpt lat="48.35527" lon="2.74298">
        <ele>131.7</ele>
        <time>2018-04-14T09:35:46Z</time>
      </trkpt>
      <trkpt lat="48.35524" lon="2.74295">
        <ele>131.7</ele>
        <time>2018-04-14T09:35:48Z</time>
      </trkpt>
      <trkpt lat="48.35521" lon="2.74292">
        <ele>131.5</ele>
        <time>2018-04-14T09:35:50Z</time>
      </trkpt>
      <trkpt lat="48.35519" lon="2.74289">
        <ele>131.4</ele>
        <time>2018-04-14T09:35:51Z</time>
      </trkpt>
      <trkpt lat="48.35516" lon="2.74283">
        <ele>131.2</ele>
        <time>2018-04-14T09:35:53Z</time>
      </trkpt>
      <trkpt lat="48.35513" lon="2.74278">
        <ele>131.1</ele>
        <time>2018-04-14T09:35:55Z</time>
      </trkpt>
      <trkpt lat="48.35511" lon="2.74275">
        <ele>131</ele>
        <time>2018-04-14T09:35:57Z</time>
      </trkpt>
      <trkpt lat="48.35508" lon="2.7427">
        <ele>131</ele>
        <time>2018-04-14T09:35:59Z</time>
      </trkpt>
      <trkpt lat="48.35504" lon="2.74265">
        <ele>130.9</ele>
        <time>2018-04-14T09:36:01Z</time>
      </trkpt>
      <trkpt lat="48.35502" lon="2.74262">
        <ele>130.9</ele>
        <time>2018-04-14T09:36:02Z</time>
      </trkpt>
      <trkpt lat="48.35499" lon="2.74257">
        <ele>131</ele>
        <time>2018-04-14T09:36:04Z</time>
      </trkpt>
      <trkpt lat="48.35496" lon="2.74252">
        <ele>131</ele>
        <time>2018-04-14T09:36:06Z</time>
      </trkpt>
      <trkpt lat="48.35493" lon="2.74248">
        <ele>131</ele>
        <time>2018-04-14T09:36:08Z</time>
      </trkpt>
      <trkpt lat="48.35489" lon="2.74243">
        <ele>131</ele>
        <time>2018-04-14T09:36:10Z</time>
      </trkpt>
      <trkpt lat="48.35486" lon="2.74239">
        <ele>131</ele>
        <time>2018-04-14T09:36:12Z</time>
      </trkpt>
      <trkpt lat="48.35482" lon="2.74232">
        <ele>131</ele>
        <time>2018-04-14T09:36:14Z</time>
      </trkpt>
      <trkpt lat="48.3548" lon="2.74226">
        <ele>131</ele>
        <time>2018-04-14T09:36:15Z</time>
      </trkpt>
      <trkpt lat="48.3548" lon="2.7422">
        <ele>131.1</ele>
        <time>2018-04-14T09:36:16Z</time>
      </trkpt>
      <trkpt lat="48.3548" lon="2.74215">
        <ele>131.3</ele>
        <time>2018-04-14T09:36:17Z</time>
      </trkpt>
      <trkpt lat="48.35482" lon="2.74208">
        <ele>131.4</ele>
        <time>2018-04-14T09:36:19Z</time>
      </trkpt>
      <trkpt lat="48.35484" lon="2.74203">
        <ele>131.6</ele>
        <time>2018-04-14T09:36:20Z</time>
      </trkpt>
      <trkpt lat="48.35486" lon="2.74199">
        <ele>131.7</ele>
        <time>2018-04-14T09:36:21Z</time>
      </trkpt>
      <trkpt lat="48.35488" lon="2.74196">
        <ele>131.8</ele>
        <time>2018-04-14T09:36:22Z</time>
      </trkpt>
      <trkpt lat="48.35491" lon="2.74192">
        <ele>131.9</ele>
        <time>2018-04-14T09:36:23Z</time>
      </trkpt>
      <trkpt lat="48.35493" lon="2.74188">
        <ele>132.1</ele>
        <time>2018-04-14T09:36:24Z</time>
      </trkpt>
      <trkpt lat="48.35496" lon="2.74184">
        <ele>132.2</ele>
        <time>2018-04-14T09:36:25Z</time>
      </trkpt>
      <trkpt lat="48.355" lon="2.74181">
        <ele>132.4</ele>
        <time>2018-04-14T09:36:26Z</time>
      </trkpt>
      <trkpt lat="48.35503" lon="2.74178">
        <ele>132.5</ele>
        <time>2018-04-14T09:36:27Z</time>
      </trkpt>
      <trkpt lat="48.35505" lon="2.74174">
        <ele>132.7</ele>
        <time>2018-04-14T09:36:28Z</time>
      </trkpt>
      <trkpt lat="48.35508" lon="2.74171">
        <ele>132.8</ele>
        <time>2018-04-14T09:36:29Z</time>
      </trkpt>
      <trkpt lat="48.35511" lon="2.74168">
        <ele>132.9</ele>
        <time>2018-04-14T09:36:30Z</time>
      </trkpt>
      <trkpt lat="48.35513" lon="2.74166">
        <ele>133</ele>
        <time>2018-04-14T09:36:31Z</time>
      </trkpt>
      <trkpt lat="48.35518" lon="2.74162">
        <ele>133.1</ele>
        <time>2018-04-14T09:36:33Z</time>
      </trkpt>
      <trkpt lat="48.3552" lon="2.74159">
        <ele>133.3</ele>
        <time>2018-04-14T09:36:34Z</time>
      </trkpt>
      <trkpt lat="48.35522" lon="2.74156">
        <ele>133.4</ele>
        <time>2018-04-14T09:36:35Z</time>
      </trkpt>
      <trkpt lat="48.35526" lon="2.74152">
        <ele>133.5</ele>
        <time>2018-04-14T09:36:37Z</time>
      </trkpt>
      <trkpt lat="48.35528" lon="2.74148">
        <ele>133.7</ele>
        <time>2018-04-14T09:36:38Z</time>
      </trkpt>
      <trkpt lat="48.3553" lon="2.74145">
        <ele>133.8</ele>
        <time>2018-04-14T09:36:39Z</time>
      </trkpt>
      <trkpt lat="48.35533" lon="2.74139">
        <ele>134</ele>
        <time>2018-04-14T09:36:40Z</time>
      </trkpt>
      <trkpt lat="48.35535" lon="2.74135">
        <ele>134.1</ele>
        <time>2018-04-14T09:36:41Z</time>
      </trkpt>
      <trkpt lat="48.35537" lon="2.74131">
        <ele>134.2</ele>
        <time>2018-04-14T09:36:42Z</time>
      </trkpt>
      <trkpt lat="48.3554" lon="2.74126">
        <ele>134.3</ele>
        <time>2018-04-14T09:36:43Z</time>
      </trkpt>
      <trkpt lat="48.35542" lon="2.7412">
        <ele>134.3</ele>
        <time>2018-04-14T09:36:44Z</time>
      </trkpt>
      <trkpt lat="48.35543" lon="2.74116">
        <ele>134.4</ele>
        <time>2018-04-14T09:36:45Z</time>
      </trkpt>
      <trkpt lat="48.35546" lon="2.74111">
        <ele>134.5</ele>
        <time>2018-04-14T09:36:47Z</time>
      </trkpt>
      <trkpt lat="48.35548" lon="2.74104">
        <ele>134.6</ele>
        <time>2018-04-14T09:36:49Z</time>
      </trkpt>
      <trkpt lat="48.35549" lon="2.741">
        <ele>134.6</ele>
        <time>2018-04-14T09:36:50Z</time>
      </trkpt>
      <trkpt lat="48.35551" lon="2.74094">
        <ele>134.8</ele>
        <time>2018-04-14T09:36:51Z</time>
      </trkpt>
      <trkpt lat="48.35553" lon="2.74089">
        <ele>134.9</ele>
        <time>2018-04-14T09:36:52Z</time>
      </trkpt>
      <trkpt lat="48.35555" lon="2.74083">
        <ele>135</ele>
        <time>2018-04-14T09:36:53Z</time>
      </trkpt>
      <trkpt lat="48.35557" lon="2.74079">
        <ele>135.1</ele>
        <time>2018-04-14T09:36:54Z</time>
      </trkpt>
      <trkpt lat="48.35559" lon="2.74074">
        <ele>135.2</ele>
        <time>2018-04-14T09:36:55Z</time>
      </trkpt>
      <trkpt lat="48.35561" lon="2.74069">
        <ele>135.3</ele>
        <time>2018-04-14T09:36:56Z</time>
      </trkpt>
      <trkpt lat="48.35563" lon="2.74065">
        <ele>135.4</ele>
        <time>2018-04-14T09:36:57Z</time>
      </trkpt>
      <trkpt lat="48.35566" lon="2.74059">
        <ele>135.5</ele>
        <time>2018-04-14T09:36:59Z</time>
      </trkpt>
      <trkpt lat="48.35566" lon="2.74055">
        <ele>135.6</ele>
        <time>2018-04-14T09:37:00Z</time>
      </trkpt>
      <trkpt lat="48.35569" lon="2.74046">
        <ele>135.7</ele>
        <time>2018-04-14T09:37:02Z</time>
      </trkpt>
      <trkpt lat="48.3557" lon="2.74041">
        <ele>135.8</ele>
        <time>2018-04-14T09:37:03Z</time>
      </trkpt>
      <trkpt lat="48.35572" lon="2.74036">
        <ele>135.9</ele>
        <time>2018-04-14T09:37:04Z</time>
      </trkpt>
      <trkpt lat="48.35573" lon="2.74032">
        <ele>136</ele>
        <time>2018-04-14T09:37:05Z</time>
      </trkpt>
      <trkpt lat="48.35575" lon="2.74027">
        <ele>136.1</ele>
        <time>2018-04-14T09:37:06Z</time>
      </trkpt>
      <trkpt lat="48.35576" lon="2.7402">
        <ele>136.3</ele>
        <time>2018-04-14T09:37:07Z</time>
      </trkpt>
      <trkpt lat="48.35577" lon="2.74015">
        <ele>136.4</ele>
        <time>2018-04-14T09:37:08Z</time>
      </trkpt>
      <trkpt lat="48.35577" lon="2.7401">
        <ele>136.4</ele>
        <time>2018-04-14T09:37:09Z</time>
      </trkpt>
      <trkpt lat="48.35577" lon="2.74004">
        <ele>136.5</ele>
        <time>2018-04-14T09:37:10Z</time>
      </trkpt>
      <trkpt lat="48.35577" lon="2.73999">
        <ele>136.5</ele>
        <time>2018-04-14T09:37:11Z</time>
      </trkpt>
      <trkpt lat="48.35576" lon="2.7399">
        <ele>136.6</ele>
        <time>2018-04-14T09:37:13Z</time>
      </trkpt>
      <trkpt lat="48.35575" lon="2.73985">
        <ele>136.7</ele>
        <time>2018-04-14T09:37:14Z</time>
      </trkpt>
      <trkpt lat="48.35575" lon="2.7398">
        <ele>136.8</ele>
        <time>2018-04-14T09:37:15Z</time>
      </trkpt>
      <trkpt lat="48.35575" lon="2.73973">
        <ele>136.9</ele>
        <time>2018-04-14T09:37:16Z</time>
      </trkpt>
      <trkpt lat="48.35575" lon="2.73968">
        <ele>137</ele>
        <time>2018-04-14T09:37:17Z</time>
      </trkpt>
      <trkpt lat="48.35575" lon="2.73963">
        <ele>137.1</ele>
        <time>2018-04-14T09:37:18Z</time>
      </trkpt>
      <trkpt lat="48.35575" lon="2.73957">
        <ele>137.2</ele>
        <time>2018-04-14T09:37:19Z</time>
      </trkpt>
      <trkpt lat="48.35575" lon="2.73952">
        <ele>137.2</ele>
        <time>2018-04-14T09:37:20Z</time>
      </trkpt>
      <trkpt lat="48.35576" lon="2.73946">
        <ele>137.3</ele>
        <time>2018-04-14T09:37:21Z</time>
      </trkpt>
      <trkpt lat="48.35578" lon="2.7394">
        <ele>137.4</ele>
        <time>2018-04-14T09:37:22Z</time>
      </trkpt>
      <trkpt lat="48.3558" lon="2.73934">
        <ele>137.5</ele>
        <time>2018-04-14T09:37:23Z</time>
      </trkpt>
      <trkpt lat="48.35583" lon="2.73929">
        <ele>137.6</ele>
        <time>2018-04-14T09:37:24Z</time>
      </trkpt>
      <trkpt lat="48.35585" lon="2.73925">
        <ele>137.7</ele>
        <time>2018-04-14T09:37:25Z</time>
      </trkpt>
      <trkpt lat="48.35587" lon="2.73921">
        <ele>137.8</ele>
        <time>2018-04-14T09:37:26Z</time>
      </trkpt>
      <trkpt lat="48.3559" lon="2.73917">
        <ele>137.9</ele>
        <time>2018-04-14T09:37:27Z</time>
      </trkpt>
      <trkpt lat="48.35591" lon="2.73913">
        <ele>137.9</ele>
        <time>2018-04-14T09:37:28Z</time>
      </trkpt>
      <trkpt lat="48.35592" lon="2.73908">
        <ele>137.9</ele>
        <time>2018-04-14T09:37:30Z</time>
      </trkpt>
      <trkpt lat="48.35594" lon="2.73902">
        <ele>137.5</ele>
        <time>2018-04-14T09:37:32Z</time>
      </trkpt>
      <trkpt lat="48.35596" lon="2.73897">
        <ele>137.3</ele>
        <time>2018-04-14T09:37:33Z</time>
      </trkpt>
      <trkpt lat="48.35599" lon="2.73892">
        <ele>137.2</ele>
        <time>2018-04-14T09:37:34Z</time>
      </trkpt>
      <trkpt lat="48.35602" lon="2.73887">
        <ele>136.9</ele>
        <time>2018-04-14T09:37:35Z</time>
      </trkpt>
      <trkpt lat="48.35605" lon="2.73883">
        <ele>136.6</ele>
        <time>2018-04-14T09:37:36Z</time>
      </trkpt>
      <trkpt lat="48.35608" lon="2.73878">
        <ele>136.5</ele>
        <time>2018-04-14T09:37:37Z</time>
      </trkpt>
      <trkpt lat="48.35611" lon="2.73874">
        <ele>136.4</ele>
        <time>2018-04-14T09:37:38Z</time>
      </trkpt>
      <trkpt lat="48.35613" lon="2.7387">
        <ele>136.3</ele>
        <time>2018-04-14T09:37:39Z</time>
      </trkpt>
      <trkpt lat="48.35615" lon="2.73868">
        <ele>136.2</ele>
        <time>2018-04-14T09:37:40Z</time>
      </trkpt>
      <trkpt lat="48.35619" lon="2.73864">
        <ele>137.4</ele>
        <time>2018-04-14T09:37:42Z</time>
      </trkpt>
      <trkpt lat="48.35624" lon="2.7386">
        <ele>137.5</ele>
        <time>2018-04-14T09:37:44Z</time>
      </trkpt>
      <trkpt lat="48.35627" lon="2.73857">
        <ele>137.5</ele>
        <time>2018-04-14T09:37:45Z</time>
      </trkpt>
      <trkpt lat="48.35629" lon="2.73854">
        <ele>137.6</ele>
        <time>2018-04-14T09:37:46Z</time>
      </trkpt>
      <trkpt lat="48.35633" lon="2.73852">
        <ele>137.6</ele>
        <time>2018-04-14T09:37:48Z</time>
      </trkpt>
      <trkpt lat="48.35636" lon="2.73851">
        <ele>137.6</ele>
        <time>2018-04-14T09:37:50Z</time>
      </trkpt>
      <trkpt lat="48.35639" lon="2.73851">
        <ele>137.7</ele>
        <time>2018-04-14T09:37:52Z</time>
      </trkpt>
      <trkpt lat="48.35643" lon="2.7385">
        <ele>137.7</ele>
        <time>2018-04-14T09:38:03Z</time>
      </trkpt>
      <trkpt lat="48.35646" lon="2.73849">
        <ele>137.8</ele>
        <time>2018-04-14T09:38:08Z</time>
      </trkpt>
      <trkpt lat="48.35648" lon="2.73852">
        <ele>137.8</ele>
        <time>2018-04-14T09:38:18Z</time>
      </trkpt>
      <trkpt lat="48.3565" lon="2.73855">
        <ele>137.8</ele>
        <time>2018-04-14T09:38:26Z</time>
      </trkpt>
      <trkpt lat="48.35652" lon="2.73859">
        <ele>137.9</ele>
        <time>2018-04-14T09:38:34Z</time>
      </trkpt>
      <trkpt lat="48.35654" lon="2.73864">
        <ele>137.9</ele>
        <time>2018-04-14T09:38:48Z</time>
      </trkpt>
      <trkpt lat="48.35656" lon="2.73867">
        <ele>138</ele>
        <time>2018-04-14T09:38:51Z</time>
      </trkpt>
      <trkpt lat="48.35654" lon="2.73869">
        <ele>138</ele>
        <time>2018-04-14T09:39:01Z</time>
      </trkpt>
      <trkpt lat="48.35651" lon="2.73867">
        <ele>137.7</ele>
        <time>2018-04-14T09:39:08Z</time>
      </trkpt>
      <trkpt lat="48.35654" lon="2.73865">
        <ele>137.2</ele>
        <time>2018-04-14T09:39:15Z</time>
      </trkpt>
      <trkpt lat="48.35657" lon="2.73867">
        <ele>136.7</ele>
        <time>2018-04-14T09:39:18Z</time>
      </trkpt>
      <trkpt lat="48.3566" lon="2.73868">
        <ele>135.8</ele>
        <time>2018-04-14T09:39:20Z</time>
      </trkpt>
      <trkpt lat="48.35663" lon="2.73869">
        <ele>135.4</ele>
        <time>2018-04-14T09:39:22Z</time>
      </trkpt>
      <trkpt lat="48.35665" lon="2.73873">
        <ele>133.9</ele>
        <time>2018-04-14T09:39:25Z</time>
      </trkpt>
      <trkpt lat="48.35664" lon="2.73869">
        <ele>135.2</ele>
        <time>2018-04-14T09:39:38Z</time>
      </trkpt>
      <trkpt lat="48.35661" lon="2.73868">
        <ele>135.7</ele>
        <time>2018-04-14T09:39:46Z</time>
      </trkpt>
      <trkpt lat="48.35659" lon="2.73865">
        <ele>136.2</ele>
        <time>2018-04-14T09:40:52Z</time>
      </trkpt>
      <trkpt lat="48.35657" lon="2.73862">
        <ele>136.9</ele>
        <time>2018-04-14T09:41:38Z</time>
      </trkpt>
      <trkpt lat="48.35655" lon="2.7386">
        <ele>138</ele>
        <time>2018-04-14T09:42:12Z</time>
      </trkpt>
      <trkpt lat="48.35657" lon="2.73859">
        <ele>138</ele>
        <time>2018-04-14T09:43:03Z</time>
      </trkpt>
      <trkpt lat="48.3566" lon="2.73857">
        <ele>138</ele>
        <time>2018-04-14T09:43:24Z</time>
      </trkpt>
      <trkpt lat="48.35662" lon="2.73854">
        <ele>138</ele>
        <time>2018-04-14T09:43:55Z</time>
      </trkpt>
      <trkpt lat="48.35665" lon="2.73854">
        <ele>137.7</ele>
        <time>2018-04-14T09:44:21Z</time>
      </trkpt>
      <trkpt lat="48.35662" lon="2.73853">
        <ele>137.4</ele>
        <time>2018-04-14T09:44:30Z</time>
      </trkpt>
      <trkpt lat="48.35665" lon="2.73856">
        <ele>137.2</ele>
        <time>2018-04-14T09:44:39Z</time>
      </trkpt>
      <trkpt lat="48.35666" lon="2.7386">
        <ele>137.1</ele>
        <time>2018-04-14T09:44:57Z</time>
      </trkpt>
      <trkpt lat="48.35664" lon="2.73863">
        <ele>137.4</ele>
        <time>2018-04-14T09:45:11Z</time>
      </trkpt>
      <trkpt lat="48.35662" lon="2.73865">
        <ele>137.7</ele>
        <time>2018-04-14T09:45:28Z</time>
      </trkpt>
      <trkpt lat="48.35662" lon="2.73869">
        <ele>138</ele>
        <time>2018-04-14T09:45:43Z</time>
      </trkpt>
      <trkpt lat="48.35659" lon="2.73867">
        <ele>138</ele>
        <time>2018-04-14T09:45:58Z</time>
      </trkpt>
      <trkpt lat="48.35656" lon="2.73865">
        <ele>138</ele>
        <time>2018-04-14T09:46:06Z</time>
      </trkpt>
      <trkpt lat="48.35654" lon="2.73863">
        <ele>138</ele>
        <time>2018-04-14T09:46:16Z</time>
      </trkpt>
      <trkpt lat="48.35651" lon="2.73861">
        <ele>138</ele>
        <time>2018-04-14T09:46:19Z</time>
      </trkpt>
      <trkpt lat="48.35647" lon="2.73859">
        <ele>137.9</ele>
        <time>2018-04-14T09:46:22Z</time>
      </trkpt>
      <trkpt lat="48.35644" lon="2.73857">
        <ele>137.8</ele>
        <time>2018-04-14T09:46:24Z</time>
      </trkpt>
      <trkpt lat="48.35641" lon="2.73854">
        <ele>137.7</ele>
        <time>2018-04-14T09:46:26Z</time>
      </trkpt>
      <trkpt lat="48.35638" lon="2.73852">
        <ele>137.7</ele>
        <time>2018-04-14T09:46:28Z</time>
      </trkpt>
      <trkpt lat="48.35634" lon="2.73848">
        <ele>137.6</ele>
        <time>2018-04-14T09:46:31Z</time>
      </trkpt>
      <trkpt lat="48.35632" lon="2.73845">
        <ele>137.5</ele>
        <time>2018-04-14T09:46:32Z</time>
      </trkpt>
      <trkpt lat="48.35628" lon="2.73837">
        <ele>137.4</ele>
        <time>2018-04-14T09:46:34Z</time>
      </trkpt>
      <trkpt lat="48.35626" lon="2.73834">
        <ele>137.4</ele>
        <time>2018-04-14T09:46:36Z</time>
      </trkpt>
      <trkpt lat="48.35622" lon="2.73832">
        <ele>137.3</ele>
        <time>2018-04-14T09:46:40Z</time>
      </trkpt>
      <trkpt lat="48.3562" lon="2.73828">
        <ele>137.2</ele>
        <time>2018-04-14T09:46:42Z</time>
      </trkpt>
      <trkpt lat="48.35618" lon="2.73824">
        <ele>137.2</ele>
        <time>2018-04-14T09:46:44Z</time>
      </trkpt>
      <trkpt lat="48.35616" lon="2.7382">
        <ele>137.1</ele>
        <time>2018-04-14T09:46:46Z</time>
      </trkpt>
      <trkpt lat="48.35614" lon="2.73815">
        <ele>137</ele>
        <time>2018-04-14T09:46:49Z</time>
      </trkpt>
      <trkpt lat="48.35612" lon="2.73811">
        <ele>136.9</ele>
        <time>2018-04-14T09:46:51Z</time>
      </trkpt>
      <trkpt lat="48.35613" lon="2.73806">
        <ele>136.9</ele>
        <time>2018-04-14T09:46:54Z</time>
      </trkpt>
      <trkpt lat="48.35615" lon="2.738">
        <ele>136.9</ele>
        <time>2018-04-14T09:46:56Z</time>
      </trkpt>
      <trkpt lat="48.35617" lon="2.73795">
        <ele>136.9</ele>
        <time>2018-04-14T09:46:58Z</time>
      </trkpt>
      <trkpt lat="48.35619" lon="2.73791">
        <ele>136.9</ele>
        <time>2018-04-14T09:47:00Z</time>
      </trkpt>
      <trkpt lat="48.35622" lon="2.73785">
        <ele>136.9</ele>
        <time>2018-04-14T09:47:02Z</time>
      </trkpt>
      <trkpt lat="48.35624" lon="2.73781">
        <ele>136.9</ele>
        <time>2018-04-14T09:47:03Z</time>
      </trkpt>
      <trkpt lat="48.35627" lon="2.73775">
        <ele>136.9</ele>
        <time>2018-04-14T09:47:05Z</time>
      </trkpt>
      <trkpt lat="48.3563" lon="2.73769">
        <ele>136.9</ele>
        <time>2018-04-14T09:47:07Z</time>
      </trkpt>
      <trkpt lat="48.35632" lon="2.73767">
        <ele>136.8</ele>
        <time>2018-04-14T09:47:08Z</time>
      </trkpt>
      <trkpt lat="48.35635" lon="2.73762">
        <ele>136.8</ele>
        <time>2018-04-14T09:47:10Z</time>
      </trkpt>
      <trkpt lat="48.35638" lon="2.73757">
        <ele>136.8</ele>
        <time>2018-04-14T09:47:12Z</time>
      </trkpt>
      <trkpt lat="48.35641" lon="2.73753">
        <ele>136.7</ele>
        <time>2018-04-14T09:47:14Z</time>
      </trkpt>
      <trkpt lat="48.35644" lon="2.73747">
        <ele>136.7</ele>
        <time>2018-04-14T09:47:16Z</time>
      </trkpt>
      <trkpt lat="48.35647" lon="2.73743">
        <ele>136.6</ele>
        <time>2018-04-14T09:47:18Z</time>
      </trkpt>
      <trkpt lat="48.35649" lon="2.73739">
        <ele>136.6</ele>
        <time>2018-04-14T09:47:20Z</time>
      </trkpt>
      <trkpt lat="48.3565" lon="2.73735">
        <ele>136.5</ele>
        <time>2018-04-14T09:47:32Z</time>
      </trkpt>
      <trkpt lat="48.35652" lon="2.73732">
        <ele>136.5</ele>
        <time>2018-04-14T09:47:35Z</time>
      </trkpt>
      <trkpt lat="48.35654" lon="2.7373">
        <ele>136.5</ele>
        <time>2018-04-14T09:47:38Z</time>
      </trkpt>
      <trkpt lat="48.35657" lon="2.73728">
        <ele>136.4</ele>
        <time>2018-04-14T09:47:45Z</time>
      </trkpt>
      <trkpt lat="48.35662" lon="2.73727">
        <ele>136.4</ele>
        <time>2018-04-14T09:47:57Z</time>
      </trkpt>
      <trkpt lat="48.35666" lon="2.73724">
        <ele>136.3</ele>
        <time>2018-04-14T09:48:04Z</time>
      </trkpt>
      <trkpt lat="48.35669" lon="2.73722">
        <ele>136.3</ele>
        <time>2018-04-14T09:48:06Z</time>
      </trkpt>
      <trkpt lat="48.35672" lon="2.7372">
        <ele>136.2</ele>
        <time>2018-04-14T09:48:10Z</time>
      </trkpt>
      <trkpt lat="48.35671" lon="2.73724">
        <ele>136.3</ele>
        <time>2018-04-14T09:48:18Z</time>
      </trkpt>
      <trkpt lat="48.35668" lon="2.73727">
        <ele>136.3</ele>
        <time>2018-04-14T09:48:30Z</time>
      </trkpt>
      <trkpt lat="48.35665" lon="2.73731">
        <ele>136.3</ele>
        <time>2018-04-14T09:48:33Z</time>
      </trkpt>
      <trkpt lat="48.35662" lon="2.73735">
        <ele>136.4</ele>
        <time>2018-04-14T09:48:36Z</time>
      </trkpt>
      <trkpt lat="48.3566" lon="2.73738">
        <ele>136.4</ele>
        <time>2018-04-14T09:48:38Z</time>
      </trkpt>
      <trkpt lat="48.35658" lon="2.7374">
        <ele>136.4</ele>
        <time>2018-04-14T09:48:40Z</time>
      </trkpt>
      <trkpt lat="48.35655" lon="2.73746">
        <ele>136.5</ele>
        <time>2018-04-14T09:48:42Z</time>
      </trkpt>
      <trkpt lat="48.35652" lon="2.73751">
        <ele>136.6</ele>
        <time>2018-04-14T09:48:44Z</time>
      </trkpt>
      <trkpt lat="48.35649" lon="2.73756">
        <ele>136.7</ele>
        <time>2018-04-14T09:48:46Z</time>
      </trkpt>
      <trkpt lat="48.35648" lon="2.73759">
        <ele>136.7</ele>
        <time>2018-04-14T09:48:47Z</time>
      </trkpt>
      <trkpt lat="48.35644" lon="2.73765">
        <ele>136.7</ele>
        <time>2018-04-14T09:48:49Z</time>
      </trkpt>
      <trkpt lat="48.35643" lon="2.73768">
        <ele>136.7</ele>
        <time>2018-04-14T09:48:50Z</time>
      </trkpt>
      <trkpt lat="48.3564" lon="2.73773">
        <ele>136.8</ele>
        <time>2018-04-14T09:48:52Z</time>
      </trkpt>
      <trkpt lat="48.35637" lon="2.73777">
        <ele>136.8</ele>
        <time>2018-04-14T09:48:54Z</time>
      </trkpt>
      <trkpt lat="48.35634" lon="2.73784">
        <ele>136.9</ele>
        <time>2018-04-14T09:48:56Z</time>
      </trkpt>
      <trkpt lat="48.35632" lon="2.73789">
        <ele>136.9</ele>
        <time>2018-04-14T09:48:58Z</time>
      </trkpt>
      <trkpt lat="48.3563" lon="2.73794">
        <ele>136.9</ele>
        <time>2018-04-14T09:49:00Z</time>
      </trkpt>
      <trkpt lat="48.35628" lon="2.73799">
        <ele>136.9</ele>
        <time>2018-04-14T09:49:02Z</time>
      </trkpt>
      <trkpt lat="48.35627" lon="2.73804">
        <ele>136.9</ele>
        <time>2018-04-14T09:49:04Z</time>
      </trkpt>
      <trkpt lat="48.35625" lon="2.73809">
        <ele>136.9</ele>
        <time>2018-04-14T09:49:07Z</time>
      </trkpt>
      <trkpt lat="48.35622" lon="2.73807">
        <ele>136.9</ele>
        <time>2018-04-14T09:49:10Z</time>
      </trkpt>
      <trkpt lat="48.35619" lon="2.73805">
        <ele>136.9</ele>
        <time>2018-04-14T09:49:12Z</time>
      </trkpt>
      <trkpt lat="48.35615" lon="2.73804">
        <ele>136.9</ele>
        <time>2018-04-14T09:49:14Z</time>
      </trkpt>
      <trkpt lat="48.35611" lon="2.73802">
        <ele>136.9</ele>
        <time>2018-04-14T09:49:16Z</time>
      </trkpt>
      <trkpt lat="48.35609" lon="2.738">
        <ele>137</ele>
        <time>2018-04-14T09:49:17Z</time>
      </trkpt>
      <trkpt lat="48.35604" lon="2.73799">
        <ele>137</ele>
        <time>2018-04-14T09:49:19Z</time>
      </trkpt>
      <trkpt lat="48.35598" lon="2.73799">
        <ele>137.1</ele>
        <time>2018-04-14T09:49:21Z</time>
      </trkpt>
      <trkpt lat="48.35594" lon="2.73798">
        <ele>137.1</ele>
        <time>2018-04-14T09:49:22Z</time>
      </trkpt>
      <trkpt lat="48.3559" lon="2.73797">
        <ele>137.1</ele>
        <time>2018-04-14T09:49:23Z</time>
      </trkpt>
      <trkpt lat="48.35586" lon="2.73796">
        <ele>137.2</ele>
        <time>2018-04-14T09:49:24Z</time>
      </trkpt>
      <trkpt lat="48.35581" lon="2.73795">
        <ele>137.2</ele>
        <time>2018-04-14T09:49:26Z</time>
      </trkpt>
      <trkpt lat="48.35578" lon="2.73792">
        <ele>137.3</ele>
        <time>2018-04-14T09:49:27Z</time>
      </trkpt>
      <trkpt lat="48.35572" lon="2.73792">
        <ele>137.4</ele>
        <time>2018-04-14T09:49:29Z</time>
      </trkpt>
      <trkpt lat="48.35568" lon="2.7379">
        <ele>137.5</ele>
        <time>2018-04-14T09:49:30Z</time>
      </trkpt>
      <trkpt lat="48.35565" lon="2.73788">
        <ele>137.6</ele>
        <time>2018-04-14T09:49:31Z</time>
      </trkpt>
      <trkpt lat="48.35562" lon="2.73787">
        <ele>137.7</ele>
        <time>2018-04-14T09:49:33Z</time>
      </trkpt>
      <trkpt lat="48.35557" lon="2.73785">
        <ele>138</ele>
        <time>2018-04-14T09:49:35Z</time>
      </trkpt>
      <trkpt lat="48.35553" lon="2.73783">
        <ele>138.1</ele>
        <time>2018-04-14T09:49:36Z</time>
      </trkpt>
      <trkpt lat="48.35551" lon="2.73781">
        <ele>138.1</ele>
        <time>2018-04-14T09:49:37Z</time>
      </trkpt>
      <trkpt lat="48.35547" lon="2.73778">
        <ele>138.1</ele>
        <time>2018-04-14T09:49:38Z</time>
      </trkpt>
      <trkpt lat="48.35544" lon="2.73776">
        <ele>138.1</ele>
        <time>2018-04-14T09:49:39Z</time>
      </trkpt>
      <trkpt lat="48.35541" lon="2.73776">
        <ele>138.1</ele>
        <time>2018-04-14T09:49:40Z</time>
      </trkpt>
      <trkpt lat="48.35536" lon="2.73776">
        <ele>138</ele>
        <time>2018-04-14T09:49:42Z</time>
      </trkpt>
      <trkpt lat="48.35532" lon="2.73774">
        <ele>138</ele>
        <time>2018-04-14T09:49:43Z</time>
      </trkpt>
      <trkpt lat="48.35529" lon="2.73773">
        <ele>137.9</ele>
        <time>2018-04-14T09:49:44Z</time>
      </trkpt>
      <trkpt lat="48.35526" lon="2.73772">
        <ele>137.9</ele>
        <time>2018-04-14T09:49:45Z</time>
      </trkpt>
      <trkpt lat="48.35517" lon="2.73773">
        <ele>137.5</ele>
        <time>2018-04-14T09:49:46Z</time>
      </trkpt>
      <trkpt lat="48.35512" lon="2.73772">
        <ele>137</ele>
        <time>2018-04-14T09:49:47Z</time>
      </trkpt>
      <trkpt lat="48.35508" lon="2.73769">
        <ele>136.4</ele>
        <time>2018-04-14T09:49:48Z</time>
      </trkpt>
      <trkpt lat="48.35504" lon="2.73766">
        <ele>136.1</ele>
        <time>2018-04-14T09:49:50Z</time>
      </trkpt>
      <trkpt lat="48.35501" lon="2.73765">
        <ele>135.7</ele>
        <time>2018-04-14T09:49:51Z</time>
      </trkpt>
      <trkpt lat="48.35498" lon="2.73765">
        <ele>135.5</ele>
        <time>2018-04-14T09:49:52Z</time>
      </trkpt>
      <trkpt lat="48.35493" lon="2.7376">
        <ele>135.3</ele>
        <time>2018-04-14T09:50:02Z</time>
      </trkpt>
      <trkpt lat="48.3549" lon="2.73756">
        <ele>135.1</ele>
        <time>2018-04-14T09:50:04Z</time>
      </trkpt>
      <trkpt lat="48.35489" lon="2.73752">
        <ele>135</ele>
        <time>2018-04-14T09:50:19Z</time>
      </trkpt>
      <trkpt lat="48.35493" lon="2.73754">
        <ele>135.1</ele>
        <time>2018-04-14T09:50:27Z</time>
      </trkpt>
      <trkpt lat="48.35497" lon="2.73754">
        <ele>135.3</ele>
        <time>2018-04-14T09:50:29Z</time>
      </trkpt>
      <trkpt lat="48.35501" lon="2.73754">
        <ele>135.4</ele>
        <time>2018-04-14T09:50:31Z</time>
      </trkpt>
      <trkpt lat="48.35504" lon="2.73754">
        <ele>135.5</ele>
        <time>2018-04-14T09:50:33Z</time>
      </trkpt>
      <trkpt lat="48.35508" lon="2.73754">
        <ele>136.1</ele>
        <time>2018-04-14T09:50:35Z</time>
      </trkpt>
      <trkpt lat="48.35512" lon="2.73754">
        <ele>136.4</ele>
        <time>2018-04-14T09:50:37Z</time>
      </trkpt>
      <trkpt lat="48.35516" lon="2.73754">
        <ele>136.9</ele>
        <time>2018-04-14T09:50:39Z</time>
      </trkpt>
      <trkpt lat="48.35519" lon="2.73755">
        <ele>137.3</ele>
        <time>2018-04-14T09:50:42Z</time>
      </trkpt>
      <trkpt lat="48.35523" lon="2.73755">
        <ele>137.6</ele>
        <time>2018-04-14T09:50:44Z</time>
      </trkpt>
      <trkpt lat="48.35528" lon="2.73757">
        <ele>137.8</ele>
        <time>2018-04-14T09:50:46Z</time>
      </trkpt>
      <trkpt lat="48.3553" lon="2.73758">
        <ele>137.9</ele>
        <time>2018-04-14T09:50:47Z</time>
      </trkpt>
      <trkpt lat="48.35534" lon="2.73761">
        <ele>137.9</ele>
        <time>2018-04-14T09:50:48Z</time>
      </trkpt>
      <trkpt lat="48.35537" lon="2.73764">
        <ele>138</ele>
        <time>2018-04-14T09:50:49Z</time>
      </trkpt>
      <trkpt lat="48.35539" lon="2.73767">
        <ele>138.1</ele>
        <time>2018-04-14T09:50:50Z</time>
      </trkpt>
      <trkpt lat="48.35543" lon="2.73771">
        <ele>138.1</ele>
        <time>2018-04-14T09:50:51Z</time>
      </trkpt>
      <trkpt lat="48.35546" lon="2.73775">
        <ele>138.1</ele>
        <time>2018-04-14T09:50:52Z</time>
      </trkpt>
      <trkpt lat="48.35549" lon="2.73779">
        <ele>138.1</ele>
        <time>2018-04-14T09:50:53Z</time>
      </trkpt>
      <trkpt lat="48.35552" lon="2.73782">
        <ele>138.1</ele>
        <time>2018-04-14T09:50:54Z</time>
      </trkpt>
      <trkpt lat="48.35555" lon="2.73784">
        <ele>138</ele>
        <time>2018-04-14T09:50:55Z</time>
      </trkpt>
      <trkpt lat="48.35559" lon="2.73786">
        <ele>137.8</ele>
        <time>2018-04-14T09:50:56Z</time>
      </trkpt>
      <trkpt lat="48.35563" lon="2.73789">
        <ele>137.6</ele>
        <time>2018-04-14T09:50:57Z</time>
      </trkpt>
      <trkpt lat="48.35568" lon="2.73791">
        <ele>137.5</ele>
        <time>2018-04-14T09:50:58Z</time>
      </trkpt>
      <trkpt lat="48.35572" lon="2.73794">
        <ele>137.4</ele>
        <time>2018-04-14T09:50:59Z</time>
      </trkpt>
      <trkpt lat="48.35577" lon="2.73797">
        <ele>137.3</ele>
        <time>2018-04-14T09:51:00Z</time>
      </trkpt>
      <trkpt lat="48.35581" lon="2.738">
        <ele>137.2</ele>
        <time>2018-04-14T09:51:01Z</time>
      </trkpt>
      <trkpt lat="48.35583" lon="2.73802">
        <ele>137.2</ele>
        <time>2018-04-14T09:51:02Z</time>
      </trkpt>
      <trkpt lat="48.35586" lon="2.73804">
        <ele>137.1</ele>
        <time>2018-04-14T09:51:03Z</time>
      </trkpt>
      <trkpt lat="48.35589" lon="2.73806">
        <ele>137.1</ele>
        <time>2018-04-14T09:51:04Z</time>
      </trkpt>
      <trkpt lat="48.35592" lon="2.73808">
        <ele>137.1</ele>
        <time>2018-04-14T09:51:05Z</time>
      </trkpt>
      <trkpt lat="48.35596" lon="2.73812">
        <ele>137.1</ele>
        <time>2018-04-14T09:51:06Z</time>
      </trkpt>
      <trkpt lat="48.35602" lon="2.73818">
        <ele>137</ele>
        <time>2018-04-14T09:51:07Z</time>
      </trkpt>
      <trkpt lat="48.35606" lon="2.73822">
        <ele>137</ele>
        <time>2018-04-14T09:51:08Z</time>
      </trkpt>
      <trkpt lat="48.35611" lon="2.73825">
        <ele>137.1</ele>
        <time>2018-04-14T09:51:09Z</time>
      </trkpt>
      <trkpt lat="48.35616" lon="2.73829">
        <ele>137.1</ele>
        <time>2018-04-14T09:51:10Z</time>
      </trkpt>
      <trkpt lat="48.3562" lon="2.73831">
        <ele>137.2</ele>
        <time>2018-04-14T09:51:11Z</time>
      </trkpt>
      <trkpt lat="48.35623" lon="2.73835">
        <ele>137.3</ele>
        <time>2018-04-14T09:51:12Z</time>
      </trkpt>
      <trkpt lat="48.35627" lon="2.73838">
        <ele>137.3</ele>
        <time>2018-04-14T09:51:13Z</time>
      </trkpt>
      <trkpt lat="48.3563" lon="2.7384">
        <ele>137.4</ele>
        <time>2018-04-14T09:51:14Z</time>
      </trkpt>
      <trkpt lat="48.35634" lon="2.73843">
        <ele>137.4</ele>
        <time>2018-04-14T09:51:15Z</time>
      </trkpt>
      <trkpt lat="48.35637" lon="2.73844">
        <ele>137.5</ele>
        <time>2018-04-14T09:51:16Z</time>
      </trkpt>
      <trkpt lat="48.35642" lon="2.73845">
        <ele>137.6</ele>
        <time>2018-04-14T09:51:18Z</time>
      </trkpt>
      <trkpt lat="48.35639" lon="2.73842">
        <ele>137.6</ele>
        <time>2018-04-14T09:51:21Z</time>
      </trkpt>
      <trkpt lat="48.35642" lon="2.73845">
        <ele>137.7</ele>
        <time>2018-04-14T09:51:33Z</time>
      </trkpt>
      <trkpt lat="48.35644" lon="2.7385">
        <ele>137.8</ele>
        <time>2018-04-14T09:51:35Z</time>
      </trkpt>
      <trkpt lat="48.35646" lon="2.73854">
        <ele>137.9</ele>
        <time>2018-04-14T09:51:37Z</time>
      </trkpt>
      <trkpt lat="48.35649" lon="2.73858">
        <ele>137.9</ele>
        <time>2018-04-14T09:51:41Z</time>
      </trkpt>
      <trkpt lat="48.35652" lon="2.7386">
        <ele>137.9</ele>
        <time>2018-04-14T09:51:44Z</time>
      </trkpt>
      <trkpt lat="48.35654" lon="2.73863">
        <ele>137.4</ele>
        <time>2018-04-14T09:51:48Z</time>
      </trkpt>
      <trkpt lat="48.35657" lon="2.73867">
        <ele>136.3</ele>
        <time>2018-04-14T09:51:52Z</time>
      </trkpt>
      <trkpt lat="48.3566" lon="2.73871">
        <ele>135.5</ele>
        <time>2018-04-14T09:51:56Z</time>
      </trkpt>
      <trkpt lat="48.35661" lon="2.73875">
        <ele>134</ele>
        <time>2018-04-14T09:51:59Z</time>
      </trkpt>
      <trkpt lat="48.35662" lon="2.73879">
        <ele>133.5</ele>
        <time>2018-04-14T09:52:02Z</time>
      </trkpt>
      <trkpt lat="48.35662" lon="2.73884">
        <ele>132.8</ele>
        <time>2018-04-14T09:52:10Z</time>
      </trkpt>
      <trkpt lat="48.35663" lon="2.73889">
        <ele>131.1</ele>
        <time>2018-04-14T09:52:15Z</time>
      </trkpt>
      <trkpt lat="48.35665" lon="2.73894">
        <ele>130.5</ele>
        <time>2018-04-14T09:52:18Z</time>
      </trkpt>
      <trkpt lat="48.35668" lon="2.73895">
        <ele>130</ele>
        <time>2018-04-14T09:52:32Z</time>
      </trkpt>
      <trkpt lat="48.35671" lon="2.73898">
        <ele>129</ele>
        <time>2018-04-14T09:52:36Z</time>
      </trkpt>
      <trkpt lat="48.35673" lon="2.73901">
        <ele>128.4</ele>
        <time>2018-04-14T09:52:39Z</time>
      </trkpt>
      <trkpt lat="48.35672" lon="2.73906">
        <ele>127.8</ele>
        <time>2018-04-14T09:52:52Z</time>
      </trkpt>
      <trkpt lat="48.3567" lon="2.73912">
        <ele>126</ele>
        <time>2018-04-14T09:52:55Z</time>
      </trkpt>
      <trkpt lat="48.35669" lon="2.73917">
        <ele>125.5</ele>
        <time>2018-04-14T09:53:03Z</time>
      </trkpt>
      <trkpt lat="48.35671" lon="2.73919">
        <ele>125.1</ele>
        <time>2018-04-14T09:53:15Z</time>
      </trkpt>
      <trkpt lat="48.35674" lon="2.73922">
        <ele>123.2</ele>
        <time>2018-04-14T09:53:24Z</time>
      </trkpt>
      <trkpt lat="48.35677" lon="2.73924">
        <ele>121.6</ele>
        <time>2018-04-14T09:53:29Z</time>
      </trkpt>
      <trkpt lat="48.35676" lon="2.7392">
        <ele>120.7</ele>
        <time>2018-04-14T09:53:39Z</time>
      </trkpt>
      <trkpt lat="48.35678" lon="2.73916">
        <ele>120.2</ele>
        <time>2018-04-14T09:53:43Z</time>
      </trkpt>
      <trkpt lat="48.35678" lon="2.73912">
        <ele>119.1</ele>
        <time>2018-04-14T09:53:51Z</time>
      </trkpt>
      <trkpt lat="48.35681" lon="2.73915">
        <ele>117.8</ele>
        <time>2018-04-14T09:53:59Z</time>
      </trkpt>
      <trkpt lat="48.35683" lon="2.73918">
        <ele>117.2</ele>
        <time>2018-04-14T09:54:02Z</time>
      </trkpt>
      <trkpt lat="48.35685" lon="2.73916">
        <ele>115.7</ele>
        <time>2018-04-14T09:54:16Z</time>
      </trkpt>
      <trkpt lat="48.35689" lon="2.73918">
        <ele>113.3</ele>
        <time>2018-04-14T09:54:20Z</time>
      </trkpt>
      <trkpt lat="48.3569" lon="2.73915">
        <ele>112.5</ele>
        <time>2018-04-14T09:54:26Z</time>
      </trkpt>
      <trkpt lat="48.35693" lon="2.73914">
        <ele>110.8</ele>
        <time>2018-04-14T09:54:30Z</time>
      </trkpt>
      <trkpt lat="48.35697" lon="2.73915">
        <ele>110.4</ele>
        <time>2018-04-14T09:54:33Z</time>
      </trkpt>
      <trkpt lat="48.35699" lon="2.73913">
        <ele>110</ele>
        <time>2018-04-14T09:54:39Z</time>
      </trkpt>
      <trkpt lat="48.35702" lon="2.73913">
        <ele>109.4</ele>
        <time>2018-04-14T09:54:43Z</time>
      </trkpt>
      <trkpt lat="48.35705" lon="2.73914">
        <ele>108.4</ele>
        <time>2018-04-14T09:54:49Z</time>
      </trkpt>
      <trkpt lat="48.35707" lon="2.73911">
        <ele>107.5</ele>
        <time>2018-04-14T09:54:59Z</time>
      </trkpt>
      <trkpt lat="48.35711" lon="2.7391">
        <ele>105.9</ele>
        <time>2018-04-14T09:55:03Z</time>
      </trkpt>
      <trkpt lat="48.35715" lon="2.73909">
        <ele>103</ele>
        <time>2018-04-14T09:55:08Z</time>
      </trkpt>
      <trkpt lat="48.35718" lon="2.73911">
        <ele>101.1</ele>
        <time>2018-04-14T09:55:11Z</time>
      </trkpt>
      <trkpt lat="48.35721" lon="2.73911">
        <ele>100.3</ele>
        <time>2018-04-14T09:55:15Z</time>
      </trkpt>
      <trkpt lat="48.35725" lon="2.73909">
        <ele>99.8</ele>
        <time>2018-04-14T09:55:20Z</time>
      </trkpt>
      <trkpt lat="48.35728" lon="2.73909">
        <ele>99.2</ele>
        <time>2018-04-14T09:55:22Z</time>
      </trkpt>
      <trkpt lat="48.35732" lon="2.73908">
        <ele>98.3</ele>
        <time>2018-04-14T09:55:24Z</time>
      </trkpt>
      <trkpt lat="48.35735" lon="2.73908">
        <ele>97.7</ele>
        <time>2018-04-14T09:55:25Z</time>
      </trkpt>
      <trkpt lat="48.35738" lon="2.73911">
        <ele>96.9</ele>
        <time>2018-04-14T09:55:28Z</time>
      </trkpt>
      <trkpt lat="48.3574" lon="2.73915">
        <ele>96.1</ele>
        <time>2018-04-14T09:55:30Z</time>
      </trkpt>
      <trkpt lat="48.35739" lon="2.73919">
        <ele>95.6</ele>
        <time>2018-04-14T09:55:40Z</time>
      </trkpt>
      <trkpt lat="48.35739" lon="2.73919">
        <ele>95.6</ele>
        <time>2018-04-14T09:56:07Z</time>
      </trkpt>
      <trkpt lat="48.35739" lon="2.7392">
        <ele>95.5</ele>
        <time>2018-04-14T09:56:12Z</time>
      </trkpt>
      <trkpt lat="48.35739" lon="2.7392">
        <ele>95.5</ele>
        <time>2018-04-14T09:56:16Z</time>
      </trkpt>
      <trkpt lat="48.35739" lon="2.73921">
        <ele>95.5</ele>
        <time>2018-04-14T09:56:22Z</time>
      </trkpt>
      <trkpt lat="48.35739" lon="2.73921">
        <ele>95.5</ele>
        <time>2018-04-14T09:56:23Z</time>
      </trkpt>
      <trkpt lat="48.35743" lon="2.73922">
        <ele>95.1</ele>
        <time>2018-04-14T09:56:24Z</time>
      </trkpt>
      <trkpt lat="48.35747" lon="2.73922">
        <ele>94.8</ele>
        <time>2018-04-14T09:56:25Z</time>
      </trkpt>
      <trkpt lat="48.35752" lon="2.73923">
        <ele>94</ele>
        <time>2018-04-14T09:56:26Z</time>
      </trkpt>
      <trkpt lat="48.35757" lon="2.73924">
        <ele>93.1</ele>
        <time>2018-04-14T09:56:27Z</time>
      </trkpt>
      <trkpt lat="48.35763" lon="2.73924">
        <ele>92.6</ele>
        <time>2018-04-14T09:56:28Z</time>
      </trkpt>
      <trkpt lat="48.35768" lon="2.73923">
        <ele>92.3</ele>
        <time>2018-04-14T09:56:29Z</time>
      </trkpt>
      <trkpt lat="48.35772" lon="2.73923">
        <ele>92.1</ele>
        <time>2018-04-14T09:56:30Z</time>
      </trkpt>
      <trkpt lat="48.35778" lon="2.73925">
        <ele>91.6</ele>
        <time>2018-04-14T09:56:31Z</time>
      </trkpt>
      <trkpt lat="48.35785" lon="2.73927">
        <ele>90.8</ele>
        <time>2018-04-14T09:56:32Z</time>
      </trkpt>
      <trkpt lat="48.35791" lon="2.73928">
        <ele>90.5</ele>
        <time>2018-04-14T09:56:33Z</time>
      </trkpt>
      <trkpt lat="48.35796" lon="2.73928">
        <ele>90.4</ele>
        <time>2018-04-14T09:56:34Z</time>
      </trkpt>
      <trkpt lat="48.35802" lon="2.73929">
        <ele>90.2</ele>
        <time>2018-04-14T09:56:35Z</time>
      </trkpt>
      <trkpt lat="48.35809" lon="2.7393">
        <ele>90.1</ele>
        <time>2018-04-14T09:56:36Z</time>
      </trkpt>
      <trkpt lat="48.35816" lon="2.73931">
        <ele>90.1</ele>
        <time>2018-04-14T09:56:37Z</time>
      </trkpt>
      <trkpt lat="48.35821" lon="2.73932">
        <ele>90.2</ele>
        <time>2018-04-14T09:56:38Z</time>
      </trkpt>
      <trkpt lat="48.35827" lon="2.73934">
        <ele>90.4</ele>
        <time>2018-04-14T09:56:39Z</time>
      </trkpt>
      <trkpt lat="48.35833" lon="2.73936">
        <ele>90.8</ele>
        <time>2018-04-14T09:56:40Z</time>
      </trkpt>
      <trkpt lat="48.35837" lon="2.73936">
        <ele>91</ele>
        <time>2018-04-14T09:56:41Z</time>
      </trkpt>
      <trkpt lat="48.3584" lon="2.73936">
        <ele>91.3</ele>
        <time>2018-04-14T09:56:42Z</time>
      </trkpt>
      <trkpt lat="48.35843" lon="2.73937">
        <ele>91.4</ele>
        <time>2018-04-14T09:56:43Z</time>
      </trkpt>
      <trkpt lat="48.35848" lon="2.73939">
        <ele>91.7</ele>
        <time>2018-04-14T09:56:45Z</time>
      </trkpt>
      <trkpt lat="48.3585" lon="2.73939">
        <ele>91.9</ele>
        <time>2018-04-14T09:56:47Z</time>
      </trkpt>
      <trkpt lat="48.35854" lon="2.73942">
        <ele>92.2</ele>
        <time>2018-04-14T09:56:49Z</time>
      </trkpt>
      <trkpt lat="48.35857" lon="2.73945">
        <ele>92.4</ele>
        <time>2018-04-14T09:56:50Z</time>
      </trkpt>
      <trkpt lat="48.3586" lon="2.73951">
        <ele>92.9</ele>
        <time>2018-04-14T09:56:52Z</time>
      </trkpt>
      <trkpt lat="48.35861" lon="2.73955">
        <ele>92.9</ele>
        <time>2018-04-14T09:56:53Z</time>
      </trkpt>
      <trkpt lat="48.35861" lon="2.7396">
        <ele>92.9</ele>
        <time>2018-04-14T09:56:54Z</time>
      </trkpt>
      <trkpt lat="48.35861" lon="2.73964">
        <ele>92.9</ele>
        <time>2018-04-14T09:56:55Z</time>
      </trkpt>
      <trkpt lat="48.35861" lon="2.73972">
        <ele>92.9</ele>
        <time>2018-04-14T09:56:57Z</time>
      </trkpt>
      <trkpt lat="48.35861" lon="2.73977">
        <ele>92.8</ele>
        <time>2018-04-14T09:56:58Z</time>
      </trkpt>
      <trkpt lat="48.35859" lon="2.73984">
        <ele>92.8</ele>
        <time>2018-04-14T09:57:00Z</time>
      </trkpt>
      <trkpt lat="48.35859" lon="2.73988">
        <ele>92.8</ele>
        <time>2018-04-14T09:57:01Z</time>
      </trkpt>
      <trkpt lat="48.35858" lon="2.73992">
        <ele>92.8</ele>
        <time>2018-04-14T09:57:02Z</time>
      </trkpt>
      <trkpt lat="48.35858" lon="2.73996">
        <ele>92.8</ele>
        <time>2018-04-14T09:57:03Z</time>
      </trkpt>
      <trkpt lat="48.35857" lon="2.74">
        <ele>92.8</ele>
        <time>2018-04-14T09:57:04Z</time>
      </trkpt>
      <trkpt lat="48.35857" lon="2.74005">
        <ele>92.8</ele>
        <time>2018-04-14T09:57:05Z</time>
      </trkpt>
      <trkpt lat="48.35857" lon="2.7401">
        <ele>92.8</ele>
        <time>2018-04-14T09:57:06Z</time>
      </trkpt>
      <trkpt lat="48.35857" lon="2.74015">
        <ele>92.7</ele>
        <time>2018-04-14T09:57:07Z</time>
      </trkpt>
      <trkpt lat="48.35856" lon="2.74023">
        <ele>92.7</ele>
        <time>2018-04-14T09:57:09Z</time>
      </trkpt>
      <trkpt lat="48.35856" lon="2.74027">
        <ele>92.7</ele>
        <time>2018-04-14T09:57:10Z</time>
      </trkpt>
      <trkpt lat="48.35855" lon="2.74034">
        <ele>92.7</ele>
        <time>2018-04-14T09:57:12Z</time>
      </trkpt>
      <trkpt lat="48.35855" lon="2.74038">
        <ele>92.7</ele>
        <time>2018-04-14T09:57:13Z</time>
      </trkpt>
      <trkpt lat="48.35854" lon="2.74046">
        <ele>92.7</ele>
        <time>2018-04-14T09:57:15Z</time>
      </trkpt>
      <trkpt lat="48.35853" lon="2.7405">
        <ele>92.7</ele>
        <time>2018-04-14T09:57:16Z</time>
      </trkpt>
      <trkpt lat="48.35853" lon="2.74057">
        <ele>92.8</ele>
        <time>2018-04-14T09:57:18Z</time>
      </trkpt>
      <trkpt lat="48.35853" lon="2.74061">
        <ele>92.8</ele>
        <time>2018-04-14T09:57:19Z</time>
      </trkpt>
      <trkpt lat="48.35852" lon="2.7407">
        <ele>92.9</ele>
        <time>2018-04-14T09:57:21Z</time>
      </trkpt>
      <trkpt lat="48.35852" lon="2.74077">
        <ele>93</ele>
        <time>2018-04-14T09:57:23Z</time>
      </trkpt>
      <trkpt lat="48.35851" lon="2.74082">
        <ele>93</ele>
        <time>2018-04-14T09:57:24Z</time>
      </trkpt>
      <trkpt lat="48.3585" lon="2.74088">
        <ele>93.1</ele>
        <time>2018-04-14T09:57:26Z</time>
      </trkpt>
      <trkpt lat="48.3585" lon="2.74093">
        <ele>93.2</ele>
        <time>2018-04-14T09:57:28Z</time>
      </trkpt>
      <trkpt lat="48.35849" lon="2.74099">
        <ele>93.4</ele>
        <time>2018-04-14T09:57:30Z</time>
      </trkpt>
      <trkpt lat="48.35848" lon="2.74106">
        <ele>93.7</ele>
        <time>2018-04-14T09:57:32Z</time>
      </trkpt>
      <trkpt lat="48.35847" lon="2.7411">
        <ele>93.8</ele>
        <time>2018-04-14T09:57:33Z</time>
      </trkpt>
      <trkpt lat="48.35847" lon="2.74115">
        <ele>93.9</ele>
        <time>2018-04-14T09:57:34Z</time>
      </trkpt>
      <trkpt lat="48.35846" lon="2.74119">
        <ele>94</ele>
        <time>2018-04-14T09:57:35Z</time>
      </trkpt>
      <trkpt lat="48.35846" lon="2.74123">
        <ele>94</ele>
        <time>2018-04-14T09:57:36Z</time>
      </trkpt>
      <trkpt lat="48.35845" lon="2.74131">
        <ele>94.1</ele>
        <time>2018-04-14T09:57:38Z</time>
      </trkpt>
      <trkpt lat="48.35844" lon="2.74139">
        <ele>94.2</ele>
        <time>2018-04-14T09:57:40Z</time>
      </trkpt>
      <trkpt lat="48.35843" lon="2.74144">
        <ele>94.2</ele>
        <time>2018-04-14T09:57:41Z</time>
      </trkpt>
      <trkpt lat="48.35842" lon="2.74148">
        <ele>94.3</ele>
        <time>2018-04-14T09:57:42Z</time>
      </trkpt>
      <trkpt lat="48.35841" lon="2.74152">
        <ele>94.3</ele>
        <time>2018-04-14T09:57:43Z</time>
      </trkpt>
      <trkpt lat="48.3584" lon="2.74156">
        <ele>94.3</ele>
        <time>2018-04-14T09:57:44Z</time>
      </trkpt>
      <trkpt lat="48.35839" lon="2.7416">
        <ele>94.4</ele>
        <time>2018-04-14T09:57:45Z</time>
      </trkpt>
      <trkpt lat="48.35838" lon="2.74165">
        <ele>94.4</ele>
        <time>2018-04-14T09:57:46Z</time>
      </trkpt>
      <trkpt lat="48.35838" lon="2.74169">
        <ele>94.4</ele>
        <time>2018-04-14T09:57:47Z</time>
      </trkpt>
      <trkpt lat="48.35837" lon="2.74176">
        <ele>94.5</ele>
        <time>2018-04-14T09:57:49Z</time>
      </trkpt>
      <trkpt lat="48.35837" lon="2.74182">
        <ele>94.6</ele>
        <time>2018-04-14T09:57:51Z</time>
      </trkpt>
      <trkpt lat="48.35836" lon="2.74188">
        <ele>94.7</ele>
        <time>2018-04-14T09:57:53Z</time>
      </trkpt>
      <trkpt lat="48.35836" lon="2.74194">
        <ele>94.7</ele>
        <time>2018-04-14T09:57:55Z</time>
      </trkpt>
      <trkpt lat="48.35835" lon="2.74201">
        <ele>94.9</ele>
        <time>2018-04-14T09:57:57Z</time>
      </trkpt>
      <trkpt lat="48.35835" lon="2.74205">
        <ele>95</ele>
        <time>2018-04-14T09:57:58Z</time>
      </trkpt>
      <trkpt lat="48.35834" lon="2.74211">
        <ele>95.2</ele>
        <time>2018-04-14T09:57:59Z</time>
      </trkpt>
      <trkpt lat="48.35834" lon="2.74216">
        <ele>95.3</ele>
        <time>2018-04-14T09:58:00Z</time>
      </trkpt>
      <trkpt lat="48.35833" lon="2.74221">
        <ele>95.5</ele>
        <time>2018-04-14T09:58:01Z</time>
      </trkpt>
      <trkpt lat="48.35832" lon="2.74225">
        <ele>95.5</ele>
        <time>2018-04-14T09:58:02Z</time>
      </trkpt>
      <trkpt lat="48.35831" lon="2.74232">
        <ele>95.6</ele>
        <time>2018-04-14T09:58:03Z</time>
      </trkpt>
      <trkpt lat="48.3583" lon="2.74238">
        <ele>95.6</ele>
        <time>2018-04-14T09:58:04Z</time>
      </trkpt>
      <trkpt lat="48.35829" lon="2.74244">
        <ele>95.6</ele>
        <time>2018-04-14T09:58:05Z</time>
      </trkpt>
      <trkpt lat="48.35829" lon="2.7425">
        <ele>95.6</ele>
        <time>2018-04-14T09:58:06Z</time>
      </trkpt>
      <trkpt lat="48.35828" lon="2.74256">
        <ele>95.6</ele>
        <time>2018-04-14T09:58:07Z</time>
      </trkpt>
      <trkpt lat="48.35827" lon="2.74262">
        <ele>95.6</ele>
        <time>2018-04-14T09:58:08Z</time>
      </trkpt>
      <trkpt lat="48.35826" lon="2.74268">
        <ele>95.6</ele>
        <time>2018-04-14T09:58:09Z</time>
      </trkpt>
      <trkpt lat="48.35825" lon="2.74275">
        <ele>95.6</ele>
        <time>2018-04-14T09:58:10Z</time>
      </trkpt>
      <trkpt lat="48.35824" lon="2.7428">
        <ele>95.6</ele>
        <time>2018-04-14T09:58:11Z</time>
      </trkpt>
      <trkpt lat="48.35824" lon="2.74286">
        <ele>95.6</ele>
        <time>2018-04-14T09:58:12Z</time>
      </trkpt>
      <trkpt lat="48.35823" lon="2.74292">
        <ele>95.5</ele>
        <time>2018-04-14T09:58:13Z</time>
      </trkpt>
      <trkpt lat="48.35822" lon="2.74298">
        <ele>95.5</ele>
        <time>2018-04-14T09:58:14Z</time>
      </trkpt>
      <trkpt lat="48.35821" lon="2.74305">
        <ele>95.5</ele>
        <time>2018-04-14T09:58:15Z</time>
      </trkpt>
      <trkpt lat="48.3582" lon="2.74311">
        <ele>95.5</ele>
        <time>2018-04-14T09:58:16Z</time>
      </trkpt>
      <trkpt lat="48.35819" lon="2.74317">
        <ele>95.5</ele>
        <time>2018-04-14T09:58:17Z</time>
      </trkpt>
      <trkpt lat="48.35818" lon="2.74322">
        <ele>95.5</ele>
        <time>2018-04-14T09:58:18Z</time>
      </trkpt>
      <trkpt lat="48.35817" lon="2.74328">
        <ele>95.4</ele>
        <time>2018-04-14T09:58:19Z</time>
      </trkpt>
      <trkpt lat="48.35816" lon="2.74334">
        <ele>95.4</ele>
        <time>2018-04-14T09:58:20Z</time>
      </trkpt>
      <trkpt lat="48.35815" lon="2.74339">
        <ele>95.4</ele>
        <time>2018-04-14T09:58:21Z</time>
      </trkpt>
      <trkpt lat="48.35815" lon="2.74345">
        <ele>95.4</ele>
        <time>2018-04-14T09:58:22Z</time>
      </trkpt>
      <trkpt lat="48.35814" lon="2.74353">
        <ele>95.3</ele>
        <time>2018-04-14T09:58:23Z</time>
      </trkpt>
      <trkpt lat="48.35813" lon="2.7436">
        <ele>95.3</ele>
        <time>2018-04-14T09:58:24Z</time>
      </trkpt>
      <trkpt lat="48.35813" lon="2.74366">
        <ele>95.3</ele>
        <time>2018-04-14T09:58:25Z</time>
      </trkpt>
      <trkpt lat="48.35812" lon="2.74373">
        <ele>95.3</ele>
        <time>2018-04-14T09:58:26Z</time>
      </trkpt>
      <trkpt lat="48.35811" lon="2.74379">
        <ele>95.3</ele>
        <time>2018-04-14T09:58:27Z</time>
      </trkpt>
      <trkpt lat="48.35811" lon="2.74385">
        <ele>95.2</ele>
        <time>2018-04-14T09:58:28Z</time>
      </trkpt>
      <trkpt lat="48.3581" lon="2.7439">
        <ele>95.2</ele>
        <time>2018-04-14T09:58:29Z</time>
      </trkpt>
      <trkpt lat="48.35809" lon="2.74395">
        <ele>95.2</ele>
        <time>2018-04-14T09:58:30Z</time>
      </trkpt>
      <trkpt lat="48.35808" lon="2.744">
        <ele>95.2</ele>
        <time>2018-04-14T09:58:31Z</time>
      </trkpt>
      <trkpt lat="48.35807" lon="2.74405">
        <ele>95.2</ele>
        <time>2018-04-14T09:58:32Z</time>
      </trkpt>
      <trkpt lat="48.35806" lon="2.74411">
        <ele>95.2</ele>
        <time>2018-04-14T09:58:33Z</time>
      </trkpt>
      <trkpt lat="48.35806" lon="2.74416">
        <ele>95.2</ele>
        <time>2018-04-14T09:58:34Z</time>
      </trkpt>
      <trkpt lat="48.35805" lon="2.74421">
        <ele>95.1</ele>
        <time>2018-04-14T09:58:35Z</time>
      </trkpt>
      <trkpt lat="48.35804" lon="2.74426">
        <ele>95.1</ele>
        <time>2018-04-14T09:58:36Z</time>
      </trkpt>
      <trkpt lat="48.35804" lon="2.7443">
        <ele>95.1</ele>
        <time>2018-04-14T09:58:37Z</time>
      </trkpt>
      <trkpt lat="48.35803" lon="2.74435">
        <ele>95.1</ele>
        <time>2018-04-14T09:58:38Z</time>
      </trkpt>
      <trkpt lat="48.35802" lon="2.7444">
        <ele>95.1</ele>
        <time>2018-04-14T09:58:39Z</time>
      </trkpt>
      <trkpt lat="48.35802" lon="2.74447">
        <ele>95</ele>
        <time>2018-04-14T09:58:41Z</time>
      </trkpt>
      <trkpt lat="48.35801" lon="2.74454">
        <ele>95</ele>
        <time>2018-04-14T09:58:43Z</time>
      </trkpt>
      <trkpt lat="48.358" lon="2.7446">
        <ele>95.1</ele>
        <time>2018-04-14T09:58:45Z</time>
      </trkpt>
      <trkpt lat="48.35799" lon="2.74467">
        <ele>95.2</ele>
        <time>2018-04-14T09:58:47Z</time>
      </trkpt>
      <trkpt lat="48.35799" lon="2.74473">
        <ele>95.3</ele>
        <time>2018-04-14T09:58:49Z</time>
      </trkpt>
      <trkpt lat="48.35798" lon="2.74481">
        <ele>95.3</ele>
        <time>2018-04-14T09:58:51Z</time>
      </trkpt>
      <trkpt lat="48.35797" lon="2.74485">
        <ele>95.4</ele>
        <time>2018-04-14T09:58:52Z</time>
      </trkpt>
      <trkpt lat="48.35796" lon="2.74491">
        <ele>95.4</ele>
        <time>2018-04-14T09:58:53Z</time>
      </trkpt>
      <trkpt lat="48.35796" lon="2.74497">
        <ele>95.5</ele>
        <time>2018-04-14T09:58:54Z</time>
      </trkpt>
      <trkpt lat="48.35795" lon="2.74503">
        <ele>95.6</ele>
        <time>2018-04-14T09:58:55Z</time>
      </trkpt>
      <trkpt lat="48.35794" lon="2.74508">
        <ele>95.6</ele>
        <time>2018-04-14T09:58:56Z</time>
      </trkpt>
      <trkpt lat="48.35793" lon="2.74513">
        <ele>95.7</ele>
        <time>2018-04-14T09:58:57Z</time>
      </trkpt>
      <trkpt lat="48.35792" lon="2.74519">
        <ele>95.7</ele>
        <time>2018-04-14T09:58:58Z</time>
      </trkpt>
      <trkpt lat="48.35792" lon="2.74525">
        <ele>95.8</ele>
        <time>2018-04-14T09:58:59Z</time>
      </trkpt>
      <trkpt lat="48.3579" lon="2.7453">
        <ele>95.8</ele>
        <time>2018-04-14T09:59:00Z</time>
      </trkpt>
      <trkpt lat="48.35789" lon="2.74535">
        <ele>95.9</ele>
        <time>2018-04-14T09:59:01Z</time>
      </trkpt>
      <trkpt lat="48.35789" lon="2.74542">
        <ele>95.9</ele>
        <time>2018-04-14T09:59:02Z</time>
      </trkpt>
      <trkpt lat="48.35788" lon="2.74547">
        <ele>96</ele>
        <time>2018-04-14T09:59:03Z</time>
      </trkpt>
      <trkpt lat="48.35787" lon="2.74554">
        <ele>96.1</ele>
        <time>2018-04-14T09:59:04Z</time>
      </trkpt>
      <trkpt lat="48.35786" lon="2.74561">
        <ele>96.2</ele>
        <time>2018-04-14T09:59:05Z</time>
      </trkpt>
      <trkpt lat="48.35786" lon="2.74566">
        <ele>96.3</ele>
        <time>2018-04-14T09:59:06Z</time>
      </trkpt>
      <trkpt lat="48.35786" lon="2.74572">
        <ele>96.3</ele>
        <time>2018-04-14T09:59:07Z</time>
      </trkpt>
      <trkpt lat="48.35785" lon="2.74582">
        <ele>96.4</ele>
        <time>2018-04-14T09:59:08Z</time>
      </trkpt>
      <trkpt lat="48.35783" lon="2.7459">
        <ele>96.4</ele>
        <time>2018-04-14T09:59:09Z</time>
      </trkpt>
      <trkpt lat="48.35783" lon="2.74597">
        <ele>96.5</ele>
        <time>2018-04-14T09:59:10Z</time>
      </trkpt>
      <trkpt lat="48.35782" lon="2.74603">
        <ele>96.5</ele>
        <time>2018-04-14T09:59:11Z</time>
      </trkpt>
      <trkpt lat="48.35782" lon="2.7461">
        <ele>96.5</ele>
        <time>2018-04-14T09:59:12Z</time>
      </trkpt>
      <trkpt lat="48.35781" lon="2.74617">
        <ele>96.4</ele>
        <time>2018-04-14T09:59:13Z</time>
      </trkpt>
      <trkpt lat="48.3578" lon="2.74625">
        <ele>96.3</ele>
        <time>2018-04-14T09:59:14Z</time>
      </trkpt>
      <trkpt lat="48.35779" lon="2.74633">
        <ele>96.2</ele>
        <time>2018-04-14T09:59:15Z</time>
      </trkpt>
      <trkpt lat="48.35778" lon="2.74641">
        <ele>96.2</ele>
        <time>2018-04-14T09:59:16Z</time>
      </trkpt>
      <trkpt lat="48.35777" lon="2.7465">
        <ele>96.2</ele>
        <time>2018-04-14T09:59:17Z</time>
      </trkpt>
      <trkpt lat="48.35776" lon="2.74658">
        <ele>96.2</ele>
        <time>2018-04-14T09:59:18Z</time>
      </trkpt>
      <trkpt lat="48.35775" lon="2.74667">
        <ele>96.2</ele>
        <time>2018-04-14T09:59:19Z</time>
      </trkpt>
      <trkpt lat="48.35774" lon="2.74674">
        <ele>96.2</ele>
        <time>2018-04-14T09:59:20Z</time>
      </trkpt>
      <trkpt lat="48.35774" lon="2.74682">
        <ele>96.2</ele>
        <time>2018-04-14T09:59:21Z</time>
      </trkpt>
      <trkpt lat="48.35773" lon="2.7469">
        <ele>96.1</ele>
        <time>2018-04-14T09:59:22Z</time>
      </trkpt>
      <trkpt lat="48.35772" lon="2.74698">
        <ele>96.1</ele>
        <time>2018-04-14T09:59:23Z</time>
      </trkpt>
      <trkpt lat="48.35771" lon="2.74707">
        <ele>96.1</ele>
        <time>2018-04-14T09:59:24Z</time>
      </trkpt>
      <trkpt lat="48.35769" lon="2.74715">
        <ele>96.1</ele>
        <time>2018-04-14T09:59:25Z</time>
      </trkpt>
      <trkpt lat="48.35768" lon="2.74723">
        <ele>96.1</ele>
        <time>2018-04-14T09:59:26Z</time>
      </trkpt>
      <trkpt lat="48.35767" lon="2.74731">
        <ele>96.1</ele>
        <time>2018-04-14T09:59:27Z</time>
      </trkpt>
      <trkpt lat="48.35766" lon="2.74739">
        <ele>96</ele>
        <time>2018-04-14T09:59:28Z</time>
      </trkpt>
      <trkpt lat="48.35766" lon="2.74745">
        <ele>96</ele>
        <time>2018-04-14T09:59:29Z</time>
      </trkpt>
      <trkpt lat="48.35766" lon="2.74752">
        <ele>95.9</ele>
        <time>2018-04-14T09:59:30Z</time>
      </trkpt>
      <trkpt lat="48.35765" lon="2.74758">
        <ele>95.8</ele>
        <time>2018-04-14T09:59:31Z</time>
      </trkpt>
      <trkpt lat="48.35764" lon="2.74764">
        <ele>95.7</ele>
        <time>2018-04-14T09:59:32Z</time>
      </trkpt>
      <trkpt lat="48.35763" lon="2.74769">
        <ele>95.6</ele>
        <time>2018-04-14T09:59:33Z</time>
      </trkpt>
      <trkpt lat="48.35762" lon="2.74778">
        <ele>95.5</ele>
        <time>2018-04-14T09:59:34Z</time>
      </trkpt>
      <trkpt lat="48.3576" lon="2.74787">
        <ele>95.5</ele>
        <time>2018-04-14T09:59:35Z</time>
      </trkpt>
      <trkpt lat="48.35758" lon="2.74795">
        <ele>95.5</ele>
        <time>2018-04-14T09:59:36Z</time>
      </trkpt>
      <trkpt lat="48.35757" lon="2.74804">
        <ele>95.5</ele>
        <time>2018-04-14T09:59:37Z</time>
      </trkpt>
      <trkpt lat="48.35755" lon="2.74813">
        <ele>95.5</ele>
        <time>2018-04-14T09:59:38Z</time>
      </trkpt>
      <trkpt lat="48.35754" lon="2.74821">
        <ele>95.4</ele>
        <time>2018-04-14T09:59:39Z</time>
      </trkpt>
      <trkpt lat="48.35754" lon="2.74828">
        <ele>95.4</ele>
        <time>2018-04-14T09:59:40Z</time>
      </trkpt>
      <trkpt lat="48.35753" lon="2.74835">
        <ele>95.4</ele>
        <time>2018-04-14T09:59:41Z</time>
      </trkpt>
      <trkpt lat="48.35753" lon="2.74841">
        <ele>95.4</ele>
        <time>2018-04-14T09:59:42Z</time>
      </trkpt>
      <trkpt lat="48.35753" lon="2.74848">
        <ele>95.4</ele>
        <time>2018-04-14T09:59:43Z</time>
      </trkpt>
      <trkpt lat="48.35753" lon="2.74857">
        <ele>95.4</ele>
        <time>2018-04-14T09:59:44Z</time>
      </trkpt>
      <trkpt lat="48.35752" lon="2.74863">
        <ele>95.3</ele>
        <time>2018-04-14T09:59:45Z</time>
      </trkpt>
      <trkpt lat="48.35752" lon="2.74868">
        <ele>95.3</ele>
        <time>2018-04-14T09:59:46Z</time>
      </trkpt>
      <trkpt lat="48.35752" lon="2.74873">
        <ele>95.3</ele>
        <time>2018-04-14T09:59:47Z</time>
      </trkpt>
      <trkpt lat="48.35751" lon="2.74878">
        <ele>95.2</ele>
        <time>2018-04-14T09:59:48Z</time>
      </trkpt>
      <trkpt lat="48.3575" lon="2.74884">
        <ele>95.2</ele>
        <time>2018-04-14T09:59:49Z</time>
      </trkpt>
      <trkpt lat="48.35749" lon="2.74889">
        <ele>95.2</ele>
        <time>2018-04-14T09:59:50Z</time>
      </trkpt>
      <trkpt lat="48.35748" lon="2.74894">
        <ele>95.2</ele>
        <time>2018-04-14T09:59:51Z</time>
      </trkpt>
      <trkpt lat="48.35747" lon="2.749">
        <ele>95.2</ele>
        <time>2018-04-14T09:59:52Z</time>
      </trkpt>
      <trkpt lat="48.35747" lon="2.74906">
        <ele>95.3</ele>
        <time>2018-04-14T09:59:53Z</time>
      </trkpt>
      <trkpt lat="48.35746" lon="2.74915">
        <ele>95.3</ele>
        <time>2018-04-14T09:59:54Z</time>
      </trkpt>
      <trkpt lat="48.35746" lon="2.7492">
        <ele>95.4</ele>
        <time>2018-04-14T09:59:55Z</time>
      </trkpt>
      <trkpt lat="48.35744" lon="2.7493">
        <ele>95.5</ele>
        <time>2018-04-14T09:59:56Z</time>
      </trkpt>
      <trkpt lat="48.35742" lon="2.74937">
        <ele>95.5</ele>
        <time>2018-04-14T09:59:57Z</time>
      </trkpt>
      <trkpt lat="48.35741" lon="2.74943">
        <ele>95.6</ele>
        <time>2018-04-14T09:59:58Z</time>
      </trkpt>
      <trkpt lat="48.35739" lon="2.74948">
        <ele>95.7</ele>
        <time>2018-04-14T09:59:59Z</time>
      </trkpt>
      <trkpt lat="48.35738" lon="2.74953">
        <ele>95.8</ele>
        <time>2018-04-14T10:00:00Z</time>
      </trkpt>
      <trkpt lat="48.35737" lon="2.7496">
        <ele>95.9</ele>
        <time>2018-04-14T10:00:01Z</time>
      </trkpt>
      <trkpt lat="48.35737" lon="2.74968">
        <ele>96</ele>
        <time>2018-04-14T10:00:02Z</time>
      </trkpt>
      <trkpt lat="48.35736" lon="2.74975">
        <ele>96.1</ele>
        <time>2018-04-14T10:00:03Z</time>
      </trkpt>
      <trkpt lat="48.35734" lon="2.74981">
        <ele>96.1</ele>
        <time>2018-04-14T10:00:04Z</time>
      </trkpt>
      <trkpt lat="48.35733" lon="2.74987">
        <ele>96.2</ele>
        <time>2018-04-14T10:00:05Z</time>
      </trkpt>
      <trkpt lat="48.35733" lon="2.74993">
        <ele>96.3</ele>
        <time>2018-04-14T10:00:06Z</time>
      </trkpt>
      <trkpt lat="48.35733" lon="2.74999">
        <ele>96.4</ele>
        <time>2018-04-14T10:00:07Z</time>
      </trkpt>
      <trkpt lat="48.35732" lon="2.75003">
        <ele>96.4</ele>
        <time>2018-04-14T10:00:08Z</time>
      </trkpt>
      <trkpt lat="48.35731" lon="2.75008">
        <ele>96.4</ele>
        <time>2018-04-14T10:00:09Z</time>
      </trkpt>
      <trkpt lat="48.3573" lon="2.75016">
        <ele>96.5</ele>
        <time>2018-04-14T10:00:10Z</time>
      </trkpt>
      <trkpt lat="48.3573" lon="2.75022">
        <ele>96.6</ele>
        <time>2018-04-14T10:00:11Z</time>
      </trkpt>
      <trkpt lat="48.3573" lon="2.75029">
        <ele>96.6</ele>
        <time>2018-04-14T10:00:12Z</time>
      </trkpt>
      <trkpt lat="48.3573" lon="2.75037">
        <ele>96.6</ele>
        <time>2018-04-14T10:00:13Z</time>
      </trkpt>
      <trkpt lat="48.3573" lon="2.75043">
        <ele>96.6</ele>
        <time>2018-04-14T10:00:14Z</time>
      </trkpt>
      <trkpt lat="48.35729" lon="2.75052">
        <ele>96.6</ele>
        <time>2018-04-14T10:00:15Z</time>
      </trkpt>
      <trkpt lat="48.35728" lon="2.75058">
        <ele>96.5</ele>
        <time>2018-04-14T10:00:16Z</time>
      </trkpt>
      <trkpt lat="48.35727" lon="2.75066">
        <ele>96.3</ele>
        <time>2018-04-14T10:00:17Z</time>
      </trkpt>
      <trkpt lat="48.35727" lon="2.75074">
        <ele>96.2</ele>
        <time>2018-04-14T10:00:18Z</time>
      </trkpt>
      <trkpt lat="48.35727" lon="2.75081">
        <ele>96.1</ele>
        <time>2018-04-14T10:00:19Z</time>
      </trkpt>
      <trkpt lat="48.35726" lon="2.75088">
        <ele>96.1</ele>
        <time>2018-04-14T10:00:20Z</time>
      </trkpt>
      <trkpt lat="48.35724" lon="2.75095">
        <ele>96.1</ele>
        <time>2018-04-14T10:00:21Z</time>
      </trkpt>
      <trkpt lat="48.35723" lon="2.75102">
        <ele>96.1</ele>
        <time>2018-04-14T10:00:22Z</time>
      </trkpt>
      <trkpt lat="48.35723" lon="2.7511">
        <ele>96.1</ele>
        <time>2018-04-14T10:00:23Z</time>
      </trkpt>
      <trkpt lat="48.35722" lon="2.75116">
        <ele>96.1</ele>
        <time>2018-04-14T10:00:24Z</time>
      </trkpt>
      <trkpt lat="48.35721" lon="2.75123">
        <ele>96.2</ele>
        <time>2018-04-14T10:00:25Z</time>
      </trkpt>
      <trkpt lat="48.3572" lon="2.75129">
        <ele>96.2</ele>
        <time>2018-04-14T10:00:26Z</time>
      </trkpt>
      <trkpt lat="48.35718" lon="2.75134">
        <ele>96.3</ele>
        <time>2018-04-14T10:00:27Z</time>
      </trkpt>
      <trkpt lat="48.35716" lon="2.75145">
        <ele>96.4</ele>
        <time>2018-04-14T10:00:29Z</time>
      </trkpt>
      <trkpt lat="48.35716" lon="2.75152">
        <ele>96.4</ele>
        <time>2018-04-14T10:00:30Z</time>
      </trkpt>
      <trkpt lat="48.35716" lon="2.75158">
        <ele>96.5</ele>
        <time>2018-04-14T10:00:31Z</time>
      </trkpt>
      <trkpt lat="48.35718" lon="2.75163">
        <ele>96.5</ele>
        <time>2018-04-14T10:00:32Z</time>
      </trkpt>
      <trkpt lat="48.35718" lon="2.75168">
        <ele>96.6</ele>
        <time>2018-04-14T10:00:33Z</time>
      </trkpt>
      <trkpt lat="48.35718" lon="2.75172">
        <ele>96.6</ele>
        <time>2018-04-14T10:00:34Z</time>
      </trkpt>
      <trkpt lat="48.35716" lon="2.7518">
        <ele>96.7</ele>
        <time>2018-04-14T10:00:35Z</time>
      </trkpt>
      <trkpt lat="48.35715" lon="2.75185">
        <ele>96.7</ele>
        <time>2018-04-14T10:00:36Z</time>
      </trkpt>
      <trkpt lat="48.35715" lon="2.75193">
        <ele>96.8</ele>
        <time>2018-04-14T10:00:37Z</time>
      </trkpt>
      <trkpt lat="48.35712" lon="2.75198">
        <ele>96.9</ele>
        <time>2018-04-14T10:00:38Z</time>
      </trkpt>
      <trkpt lat="48.35711" lon="2.75205">
        <ele>96.8</ele>
        <time>2018-04-14T10:00:40Z</time>
      </trkpt>
      <trkpt lat="48.35714" lon="2.75209">
        <ele>96.6</ele>
        <time>2018-04-14T10:00:41Z</time>
      </trkpt>
      <trkpt lat="48.35718" lon="2.75213">
        <ele>96.5</ele>
        <time>2018-04-14T10:00:42Z</time>
      </trkpt>
      <trkpt lat="48.35721" lon="2.75217">
        <ele>96.3</ele>
        <time>2018-04-14T10:00:43Z</time>
      </trkpt>
      <trkpt lat="48.35723" lon="2.7522">
        <ele>96.2</ele>
        <time>2018-04-14T10:00:44Z</time>
      </trkpt>
      <trkpt lat="48.35727" lon="2.75226">
        <ele>95.9</ele>
        <time>2018-04-14T10:00:46Z</time>
      </trkpt>
      <trkpt lat="48.3573" lon="2.75228">
        <ele>95.7</ele>
        <time>2018-04-14T10:00:47Z</time>
      </trkpt>
      <trkpt lat="48.35734" lon="2.75233">
        <ele>95.4</ele>
        <time>2018-04-14T10:00:49Z</time>
      </trkpt>
      <trkpt lat="48.35736" lon="2.75238">
        <ele>95.4</ele>
        <time>2018-04-14T10:00:50Z</time>
      </trkpt>
      <trkpt lat="48.35739" lon="2.75244">
        <ele>95.3</ele>
        <time>2018-04-14T10:00:51Z</time>
      </trkpt>
      <trkpt lat="48.35743" lon="2.7525">
        <ele>95.3</ele>
        <time>2018-04-14T10:00:52Z</time>
      </trkpt>
      <trkpt lat="48.35749" lon="2.75256">
        <ele>95.3</ele>
        <time>2018-04-14T10:00:53Z</time>
      </trkpt>
      <trkpt lat="48.35751" lon="2.7526">
        <ele>95.3</ele>
        <time>2018-04-14T10:00:54Z</time>
      </trkpt>
      <trkpt lat="48.35753" lon="2.75266">
        <ele>95.4</ele>
        <time>2018-04-14T10:00:55Z</time>
      </trkpt>
      <trkpt lat="48.35757" lon="2.75272">
        <ele>95.4</ele>
        <time>2018-04-14T10:00:56Z</time>
      </trkpt>
      <trkpt lat="48.35761" lon="2.75278">
        <ele>95.4</ele>
        <time>2018-04-14T10:00:57Z</time>
      </trkpt>
      <trkpt lat="48.35765" lon="2.75285">
        <ele>95.4</ele>
        <time>2018-04-14T10:00:58Z</time>
      </trkpt>
      <trkpt lat="48.35767" lon="2.75294">
        <ele>95.5</ele>
        <time>2018-04-14T10:00:59Z</time>
      </trkpt>
      <trkpt lat="48.35769" lon="2.753">
        <ele>95.5</ele>
        <time>2018-04-14T10:01:00Z</time>
      </trkpt>
      <trkpt lat="48.35776" lon="2.75307">
        <ele>95.5</ele>
        <time>2018-04-14T10:01:01Z</time>
      </trkpt>
      <trkpt lat="48.35781" lon="2.75312">
        <ele>95.5</ele>
        <time>2018-04-14T10:01:02Z</time>
      </trkpt>
      <trkpt lat="48.35783" lon="2.75316">
        <ele>95.5</ele>
        <time>2018-04-14T10:01:03Z</time>
      </trkpt>
      <trkpt lat="48.35785" lon="2.75319">
        <ele>95.6</ele>
        <time>2018-04-14T10:01:04Z</time>
      </trkpt>
      <trkpt lat="48.3579" lon="2.75325">
        <ele>95.6</ele>
        <time>2018-04-14T10:01:05Z</time>
      </trkpt>
      <trkpt lat="48.35794" lon="2.75333">
        <ele>95.6</ele>
        <time>2018-04-14T10:01:06Z</time>
      </trkpt>
      <trkpt lat="48.35796" lon="2.75337">
        <ele>95.6</ele>
        <time>2018-04-14T10:01:07Z</time>
      </trkpt>
      <trkpt lat="48.358" lon="2.75343">
        <ele>95.6</ele>
        <time>2018-04-14T10:01:08Z</time>
      </trkpt>
      <trkpt lat="48.35803" lon="2.75347">
        <ele>95.6</ele>
        <time>2018-04-14T10:01:09Z</time>
      </trkpt>
      <trkpt lat="48.35806" lon="2.75354">
        <ele>95.6</ele>
        <time>2018-04-14T10:01:10Z</time>
      </trkpt>
      <trkpt lat="48.3581" lon="2.75357">
        <ele>95.6</ele>
        <time>2018-04-14T10:01:11Z</time>
      </trkpt>
      <trkpt lat="48.35816" lon="2.75363">
        <ele>95.7</ele>
        <time>2018-04-14T10:01:12Z</time>
      </trkpt>
      <trkpt lat="48.3582" lon="2.75369">
        <ele>95.7</ele>
        <time>2018-04-14T10:01:13Z</time>
      </trkpt>
      <trkpt lat="48.35824" lon="2.75372">
        <ele>95.7</ele>
        <time>2018-04-14T10:01:14Z</time>
      </trkpt>
      <trkpt lat="48.35826" lon="2.75377">
        <ele>95.7</ele>
        <time>2018-04-14T10:01:15Z</time>
      </trkpt>
      <trkpt lat="48.3583" lon="2.75384">
        <ele>95.7</ele>
        <time>2018-04-14T10:01:16Z</time>
      </trkpt>
      <trkpt lat="48.35833" lon="2.75389">
        <ele>95.7</ele>
        <time>2018-04-14T10:01:17Z</time>
      </trkpt>
      <trkpt lat="48.35836" lon="2.75394">
        <ele>95.7</ele>
        <time>2018-04-14T10:01:18Z</time>
      </trkpt>
      <trkpt lat="48.35843" lon="2.75403">
        <ele>95.8</ele>
        <time>2018-04-14T10:01:19Z</time>
      </trkpt>
      <trkpt lat="48.35848" lon="2.75411">
        <ele>95.8</ele>
        <time>2018-04-14T10:01:20Z</time>
      </trkpt>
      <trkpt lat="48.35852" lon="2.75417">
        <ele>95.8</ele>
        <time>2018-04-14T10:01:21Z</time>
      </trkpt>
      <trkpt lat="48.35858" lon="2.75427">
        <ele>95.8</ele>
        <time>2018-04-14T10:01:22Z</time>
      </trkpt>
      <trkpt lat="48.35862" lon="2.75436">
        <ele>95.9</ele>
        <time>2018-04-14T10:01:23Z</time>
      </trkpt>
      <trkpt lat="48.35868" lon="2.75445">
        <ele>95.9</ele>
        <time>2018-04-14T10:01:24Z</time>
      </trkpt>
      <trkpt lat="48.35873" lon="2.75451">
        <ele>95.9</ele>
        <time>2018-04-14T10:01:25Z</time>
      </trkpt>
      <trkpt lat="48.35878" lon="2.75459">
        <ele>95.9</ele>
        <time>2018-04-14T10:01:26Z</time>
      </trkpt>
      <trkpt lat="48.35883" lon="2.75467">
        <ele>95.9</ele>
        <time>2018-04-14T10:01:27Z</time>
      </trkpt>
      <trkpt lat="48.35888" lon="2.75474">
        <ele>95.9</ele>
        <time>2018-04-14T10:01:28Z</time>
      </trkpt>
      <trkpt lat="48.3589" lon="2.75477">
        <ele>95.9</ele>
        <time>2018-04-14T10:01:29Z</time>
      </trkpt>
      <trkpt lat="48.35896" lon="2.75482">
        <ele>96</ele>
        <time>2018-04-14T10:01:30Z</time>
      </trkpt>
      <trkpt lat="48.35901" lon="2.75487">
        <ele>96</ele>
        <time>2018-04-14T10:01:31Z</time>
      </trkpt>
      <trkpt lat="48.35904" lon="2.75494">
        <ele>96</ele>
        <time>2018-04-14T10:01:32Z</time>
      </trkpt>
      <trkpt lat="48.35907" lon="2.755">
        <ele>96</ele>
        <time>2018-04-14T10:01:33Z</time>
      </trkpt>
      <trkpt lat="48.35908" lon="2.75503">
        <ele>96.1</ele>
        <time>2018-04-14T10:01:34Z</time>
      </trkpt>
      <trkpt lat="48.35912" lon="2.75509">
        <ele>96.2</ele>
        <time>2018-04-14T10:01:35Z</time>
      </trkpt>
      <trkpt lat="48.35916" lon="2.75513">
        <ele>96.3</ele>
        <time>2018-04-14T10:01:36Z</time>
      </trkpt>
      <trkpt lat="48.3592" lon="2.7552">
        <ele>96.5</ele>
        <time>2018-04-14T10:01:37Z</time>
      </trkpt>
      <trkpt lat="48.35924" lon="2.75529">
        <ele>96.6</ele>
        <time>2018-04-14T10:01:38Z</time>
      </trkpt>
      <trkpt lat="48.35928" lon="2.75535">
        <ele>96.8</ele>
        <time>2018-04-14T10:01:39Z</time>
      </trkpt>
      <trkpt lat="48.35933" lon="2.75543">
        <ele>96.9</ele>
        <time>2018-04-14T10:01:40Z</time>
      </trkpt>
      <trkpt lat="48.35938" lon="2.75549">
        <ele>97.1</ele>
        <time>2018-04-14T10:01:41Z</time>
      </trkpt>
      <trkpt lat="48.35943" lon="2.75555">
        <ele>97.2</ele>
        <time>2018-04-14T10:01:42Z</time>
      </trkpt>
      <trkpt lat="48.35946" lon="2.7556">
        <ele>97.3</ele>
        <time>2018-04-14T10:01:43Z</time>
      </trkpt>
      <trkpt lat="48.3595" lon="2.75564">
        <ele>97.4</ele>
        <time>2018-04-14T10:01:44Z</time>
      </trkpt>
      <trkpt lat="48.35953" lon="2.75566">
        <ele>97.5</ele>
        <time>2018-04-14T10:01:45Z</time>
      </trkpt>
      <trkpt lat="48.35957" lon="2.7557">
        <ele>97.5</ele>
        <time>2018-04-14T10:01:46Z</time>
      </trkpt>
      <trkpt lat="48.3596" lon="2.75575">
        <ele>97.6</ele>
        <time>2018-04-14T10:01:47Z</time>
      </trkpt>
      <trkpt lat="48.35962" lon="2.7558">
        <ele>97.7</ele>
        <time>2018-04-14T10:01:49Z</time>
      </trkpt>
      <trkpt lat="48.35965" lon="2.75585">
        <ele>97.7</ele>
        <time>2018-04-14T10:01:50Z</time>
      </trkpt>
      <trkpt lat="48.35969" lon="2.7559">
        <ele>97.8</ele>
        <time>2018-04-14T10:01:51Z</time>
      </trkpt>
      <trkpt lat="48.35972" lon="2.75594">
        <ele>97.9</ele>
        <time>2018-04-14T10:01:52Z</time>
      </trkpt>
      <trkpt lat="48.35974" lon="2.75598">
        <ele>97.9</ele>
        <time>2018-04-14T10:01:53Z</time>
      </trkpt>
      <trkpt lat="48.35978" lon="2.75603">
        <ele>98</ele>
        <time>2018-04-14T10:01:54Z</time>
      </trkpt>
      <trkpt lat="48.35982" lon="2.75609">
        <ele>98.1</ele>
        <time>2018-04-14T10:01:55Z</time>
      </trkpt>
      <trkpt lat="48.35986" lon="2.75617">
        <ele>98.3</ele>
        <time>2018-04-14T10:01:56Z</time>
      </trkpt>
      <trkpt lat="48.35989" lon="2.75623">
        <ele>98.4</ele>
        <time>2018-04-14T10:01:57Z</time>
      </trkpt>
      <trkpt lat="48.35993" lon="2.75627">
        <ele>98.4</ele>
        <time>2018-04-14T10:01:58Z</time>
      </trkpt>
      <trkpt lat="48.35995" lon="2.75629">
        <ele>98.5</ele>
        <time>2018-04-14T10:01:59Z</time>
      </trkpt>
      <trkpt lat="48.35999" lon="2.75634">
        <ele>98.6</ele>
        <time>2018-04-14T10:02:00Z</time>
      </trkpt>
      <trkpt lat="48.36003" lon="2.75642">
        <ele>98.8</ele>
        <time>2018-04-14T10:02:01Z</time>
      </trkpt>
      <trkpt lat="48.36006" lon="2.75647">
        <ele>98.9</ele>
        <time>2018-04-14T10:02:02Z</time>
      </trkpt>
      <trkpt lat="48.36011" lon="2.75651">
        <ele>99</ele>
        <time>2018-04-14T10:02:03Z</time>
      </trkpt>
      <trkpt lat="48.36015" lon="2.75656">
        <ele>99.1</ele>
        <time>2018-04-14T10:02:04Z</time>
      </trkpt>
      <trkpt lat="48.3602" lon="2.75663">
        <ele>99.2</ele>
        <time>2018-04-14T10:02:05Z</time>
      </trkpt>
      <trkpt lat="48.36024" lon="2.75669">
        <ele>99.2</ele>
        <time>2018-04-14T10:02:06Z</time>
      </trkpt>
      <trkpt lat="48.36028" lon="2.75675">
        <ele>99.3</ele>
        <time>2018-04-14T10:02:07Z</time>
      </trkpt>
      <trkpt lat="48.3603" lon="2.75678">
        <ele>99.4</ele>
        <time>2018-04-14T10:02:08Z</time>
      </trkpt>
      <trkpt lat="48.36033" lon="2.75684">
        <ele>99.4</ele>
        <time>2018-04-14T10:02:09Z</time>
      </trkpt>
      <trkpt lat="48.36038" lon="2.75694">
        <ele>99.5</ele>
        <time>2018-04-14T10:02:10Z</time>
      </trkpt>
      <trkpt lat="48.3604" lon="2.75699">
        <ele>99.6</ele>
        <time>2018-04-14T10:02:11Z</time>
      </trkpt>
      <trkpt lat="48.36042" lon="2.75701">
        <ele>99.7</ele>
        <time>2018-04-14T10:02:12Z</time>
      </trkpt>
      <trkpt lat="48.36045" lon="2.75704">
        <ele>99.8</ele>
        <time>2018-04-14T10:02:13Z</time>
      </trkpt>
      <trkpt lat="48.36048" lon="2.75706">
        <ele>99.8</ele>
        <time>2018-04-14T10:02:14Z</time>
      </trkpt>
      <trkpt lat="48.36052" lon="2.75705">
        <ele>99.9</ele>
        <time>2018-04-14T10:02:18Z</time>
      </trkpt>
      <trkpt lat="48.36055" lon="2.75705">
        <ele>99.9</ele>
        <time>2018-04-14T10:02:19Z</time>
      </trkpt>
      <trkpt lat="48.36057" lon="2.75703">
        <ele>99.8</ele>
        <time>2018-04-14T10:02:21Z</time>
      </trkpt>
      <trkpt lat="48.36063" lon="2.757">
        <ele>99.8</ele>
        <time>2018-04-14T10:02:23Z</time>
      </trkpt>
      <trkpt lat="48.36068" lon="2.75698">
        <ele>99.8</ele>
        <time>2018-04-14T10:02:24Z</time>
      </trkpt>
      <trkpt lat="48.36072" lon="2.75696">
        <ele>99.7</ele>
        <time>2018-04-14T10:02:25Z</time>
      </trkpt>
      <trkpt lat="48.36074" lon="2.75694">
        <ele>99.7</ele>
        <time>2018-04-14T10:02:26Z</time>
      </trkpt>
      <trkpt lat="48.36077" lon="2.75693">
        <ele>99.7</ele>
        <time>2018-04-14T10:02:27Z</time>
      </trkpt>
      <trkpt lat="48.3608" lon="2.75692">
        <ele>99.7</ele>
        <time>2018-04-14T10:02:28Z</time>
      </trkpt>
      <trkpt lat="48.36084" lon="2.7569">
        <ele>99.7</ele>
        <time>2018-04-14T10:02:30Z</time>
      </trkpt>
      <trkpt lat="48.36085" lon="2.75686">
        <ele>99.8</ele>
        <time>2018-04-14T10:02:33Z</time>
      </trkpt>
      <trkpt lat="48.36088" lon="2.75684">
        <ele>99.8</ele>
        <time>2018-04-14T10:02:34Z</time>
      </trkpt>
      <trkpt lat="48.36091" lon="2.75682">
        <ele>99.9</ele>
        <time>2018-04-14T10:02:35Z</time>
      </trkpt>
      <trkpt lat="48.36096" lon="2.7568">
        <ele>100</ele>
        <time>2018-04-14T10:02:37Z</time>
      </trkpt>
      <trkpt lat="48.361" lon="2.75677">
        <ele>100.2</ele>
        <time>2018-04-14T10:02:39Z</time>
      </trkpt>
      <trkpt lat="48.36102" lon="2.75674">
        <ele>100.3</ele>
        <time>2018-04-14T10:02:41Z</time>
      </trkpt>
      <trkpt lat="48.36105" lon="2.75671">
        <ele>100.4</ele>
        <time>2018-04-14T10:02:44Z</time>
      </trkpt>
      <trkpt lat="48.36109" lon="2.75668">
        <ele>100.6</ele>
        <time>2018-04-14T10:02:46Z</time>
      </trkpt>
      <trkpt lat="48.36113" lon="2.75664">
        <ele>100.9</ele>
        <time>2018-04-14T10:02:48Z</time>
      </trkpt>
      <trkpt lat="48.36116" lon="2.75662">
        <ele>101.1</ele>
        <time>2018-04-14T10:02:50Z</time>
      </trkpt>
      <trkpt lat="48.3612" lon="2.75658">
        <ele>101.4</ele>
        <time>2018-04-14T10:02:52Z</time>
      </trkpt>
      <trkpt lat="48.36121" lon="2.75654">
        <ele>101.6</ele>
        <time>2018-04-14T10:02:54Z</time>
      </trkpt>
      <trkpt lat="48.36124" lon="2.75651">
        <ele>101.8</ele>
        <time>2018-04-14T10:02:56Z</time>
      </trkpt>
      <trkpt lat="48.36129" lon="2.75647">
        <ele>102.1</ele>
        <time>2018-04-14T10:02:58Z</time>
      </trkpt>
      <trkpt lat="48.36131" lon="2.75643">
        <ele>102.3</ele>
        <time>2018-04-14T10:03:00Z</time>
      </trkpt>
      <trkpt lat="48.36134" lon="2.75638">
        <ele>102.5</ele>
        <time>2018-04-14T10:03:03Z</time>
      </trkpt>
      <trkpt lat="48.36137" lon="2.75634">
        <ele>102.7</ele>
        <time>2018-04-14T10:03:05Z</time>
      </trkpt>
      <trkpt lat="48.36141" lon="2.75631">
        <ele>103</ele>
        <time>2018-04-14T10:03:07Z</time>
      </trkpt>
      <trkpt lat="48.36143" lon="2.75629">
        <ele>103.1</ele>
        <time>2018-04-14T10:03:08Z</time>
      </trkpt>
      <trkpt lat="48.36149" lon="2.75626">
        <ele>103.4</ele>
        <time>2018-04-14T10:03:10Z</time>
      </trkpt>
      <trkpt lat="48.36152" lon="2.75622">
        <ele>103.6</ele>
        <time>2018-04-14T10:03:12Z</time>
      </trkpt>
      <trkpt lat="48.36156" lon="2.75617">
        <ele>103.6</ele>
        <time>2018-04-14T10:03:14Z</time>
      </trkpt>
      <trkpt lat="48.36159" lon="2.75614">
        <ele>103.6</ele>
        <time>2018-04-14T10:03:15Z</time>
      </trkpt>
      <trkpt lat="48.36162" lon="2.75612">
        <ele>103.5</ele>
        <time>2018-04-14T10:03:16Z</time>
      </trkpt>
      <trkpt lat="48.36167" lon="2.75608">
        <ele>103.4</ele>
        <time>2018-04-14T10:03:17Z</time>
      </trkpt>
      <trkpt lat="48.36172" lon="2.75604">
        <ele>103.3</ele>
        <time>2018-04-14T10:03:18Z</time>
      </trkpt>
      <trkpt lat="48.36178" lon="2.756">
        <ele>103.2</ele>
        <time>2018-04-14T10:03:19Z</time>
      </trkpt>
      <trkpt lat="48.36183" lon="2.75597">
        <ele>103.2</ele>
        <time>2018-04-14T10:03:20Z</time>
      </trkpt>
      <trkpt lat="48.36188" lon="2.75592">
        <ele>103.1</ele>
        <time>2018-04-14T10:03:21Z</time>
      </trkpt>
      <trkpt lat="48.36193" lon="2.75587">
        <ele>102.8</ele>
        <time>2018-04-14T10:03:22Z</time>
      </trkpt>
      <trkpt lat="48.36197" lon="2.75583">
        <ele>102.4</ele>
        <time>2018-04-14T10:03:23Z</time>
      </trkpt>
      <trkpt lat="48.36201" lon="2.75578">
        <ele>102.1</ele>
        <time>2018-04-14T10:03:24Z</time>
      </trkpt>
      <trkpt lat="48.36206" lon="2.75574">
        <ele>102</ele>
        <time>2018-04-14T10:03:25Z</time>
      </trkpt>
      <trkpt lat="48.3621" lon="2.7557">
        <ele>101.9</ele>
        <time>2018-04-14T10:03:26Z</time>
      </trkpt>
      <trkpt lat="48.36213" lon="2.75567">
        <ele>101.8</ele>
        <time>2018-04-14T10:03:27Z</time>
      </trkpt>
      <trkpt lat="48.36216" lon="2.75563">
        <ele>101.8</ele>
        <time>2018-04-14T10:03:28Z</time>
      </trkpt>
      <trkpt lat="48.36219" lon="2.75559">
        <ele>101.7</ele>
        <time>2018-04-14T10:03:29Z</time>
      </trkpt>
      <trkpt lat="48.36222" lon="2.75556">
        <ele>101.7</ele>
        <time>2018-04-14T10:03:30Z</time>
      </trkpt>
      <trkpt lat="48.36226" lon="2.75552">
        <ele>101.7</ele>
        <time>2018-04-14T10:03:32Z</time>
      </trkpt>
      <trkpt lat="48.36228" lon="2.75549">
        <ele>101.7</ele>
        <time>2018-04-14T10:03:33Z</time>
      </trkpt>
      <trkpt lat="48.36231" lon="2.75545">
        <ele>101.7</ele>
        <time>2018-04-14T10:03:34Z</time>
      </trkpt>
      <trkpt lat="48.36234" lon="2.75543">
        <ele>101.7</ele>
        <time>2018-04-14T10:03:35Z</time>
      </trkpt>
      <trkpt lat="48.36236" lon="2.7554">
        <ele>101.7</ele>
        <time>2018-04-14T10:03:36Z</time>
      </trkpt>
      <trkpt lat="48.36238" lon="2.75537">
        <ele>101.7</ele>
        <time>2018-04-14T10:03:37Z</time>
      </trkpt>
      <trkpt lat="48.36242" lon="2.75532">
        <ele>101.7</ele>
        <time>2018-04-14T10:03:39Z</time>
      </trkpt>
      <trkpt lat="48.36245" lon="2.7553">
        <ele>101.8</ele>
        <time>2018-04-14T10:03:40Z</time>
      </trkpt>
      <trkpt lat="48.36247" lon="2.75527">
        <ele>101.8</ele>
        <time>2018-04-14T10:03:41Z</time>
      </trkpt>
      <trkpt lat="48.36249" lon="2.75524">
        <ele>101.8</ele>
        <time>2018-04-14T10:03:42Z</time>
      </trkpt>
      <trkpt lat="48.36251" lon="2.75521">
        <ele>101.9</ele>
        <time>2018-04-14T10:03:43Z</time>
      </trkpt>
      <trkpt lat="48.36256" lon="2.75517">
        <ele>102</ele>
        <time>2018-04-14T10:03:45Z</time>
      </trkpt>
      <trkpt lat="48.36259" lon="2.75515">
        <ele>102.1</ele>
        <time>2018-04-14T10:03:46Z</time>
      </trkpt>
      <trkpt lat="48.36264" lon="2.75512">
        <ele>102.6</ele>
        <time>2018-04-14T10:03:48Z</time>
      </trkpt>
      <trkpt lat="48.36267" lon="2.75507">
        <ele>103.1</ele>
        <time>2018-04-14T10:03:50Z</time>
      </trkpt>
      <trkpt lat="48.36269" lon="2.75503">
        <ele>103.3</ele>
        <time>2018-04-14T10:03:52Z</time>
      </trkpt>
      <trkpt lat="48.36271" lon="2.755">
        <ele>103.5</ele>
        <time>2018-04-14T10:03:54Z</time>
      </trkpt>
      <trkpt lat="48.36274" lon="2.75496">
        <ele>103.9</ele>
        <time>2018-04-14T10:03:57Z</time>
      </trkpt>
      <trkpt lat="48.36276" lon="2.75494">
        <ele>104.2</ele>
        <time>2018-04-14T10:03:59Z</time>
      </trkpt>
      <trkpt lat="48.36279" lon="2.75491">
        <ele>104.6</ele>
        <time>2018-04-14T10:04:01Z</time>
      </trkpt>
      <trkpt lat="48.36283" lon="2.75488">
        <ele>105</ele>
        <time>2018-04-14T10:04:03Z</time>
      </trkpt>
      <trkpt lat="48.36286" lon="2.75483">
        <ele>105.6</ele>
        <time>2018-04-14T10:04:05Z</time>
      </trkpt>
      <trkpt lat="48.36289" lon="2.7548">
        <ele>105.9</ele>
        <time>2018-04-14T10:04:07Z</time>
      </trkpt>
      <trkpt lat="48.36292" lon="2.75478">
        <ele>106.2</ele>
        <time>2018-04-14T10:04:09Z</time>
      </trkpt>
      <trkpt lat="48.36294" lon="2.75475">
        <ele>106.6</ele>
        <time>2018-04-14T10:04:11Z</time>
      </trkpt>
      <trkpt lat="48.36299" lon="2.75471">
        <ele>107.4</ele>
        <time>2018-04-14T10:04:14Z</time>
      </trkpt>
      <trkpt lat="48.36301" lon="2.75468">
        <ele>107.8</ele>
        <time>2018-04-14T10:04:15Z</time>
      </trkpt>
      <trkpt lat="48.36304" lon="2.75465">
        <ele>108.4</ele>
        <time>2018-04-14T10:04:17Z</time>
      </trkpt>
      <trkpt lat="48.36308" lon="2.7546">
        <ele>109.1</ele>
        <time>2018-04-14T10:04:19Z</time>
      </trkpt>
      <trkpt lat="48.36312" lon="2.75458">
        <ele>109.5</ele>
        <time>2018-04-14T10:04:21Z</time>
      </trkpt>
      <trkpt lat="48.36316" lon="2.75457">
        <ele>109.9</ele>
        <time>2018-04-14T10:04:23Z</time>
      </trkpt>
      <trkpt lat="48.3632" lon="2.75455">
        <ele>110</ele>
        <time>2018-04-14T10:04:25Z</time>
      </trkpt>
      <trkpt lat="48.36323" lon="2.75454">
        <ele>110</ele>
        <time>2018-04-14T10:04:26Z</time>
      </trkpt>
      <trkpt lat="48.36325" lon="2.75453">
        <ele>110</ele>
        <time>2018-04-14T10:04:27Z</time>
      </trkpt>
      <trkpt lat="48.36328" lon="2.75451">
        <ele>110</ele>
        <time>2018-04-14T10:04:28Z</time>
      </trkpt>
      <trkpt lat="48.36331" lon="2.75448">
        <ele>110.1</ele>
        <time>2018-04-14T10:04:29Z</time>
      </trkpt>
      <trkpt lat="48.36335" lon="2.75447">
        <ele>110</ele>
        <time>2018-04-14T10:04:30Z</time>
      </trkpt>
      <trkpt lat="48.36341" lon="2.75446">
        <ele>110</ele>
        <time>2018-04-14T10:04:31Z</time>
      </trkpt>
      <trkpt lat="48.36345" lon="2.75444">
        <ele>110</ele>
        <time>2018-04-14T10:04:32Z</time>
      </trkpt>
      <trkpt lat="48.36349" lon="2.75442">
        <ele>109.9</ele>
        <time>2018-04-14T10:04:33Z</time>
      </trkpt>
      <trkpt lat="48.36354" lon="2.75438">
        <ele>109.9</ele>
        <time>2018-04-14T10:04:34Z</time>
      </trkpt>
      <trkpt lat="48.36359" lon="2.75431">
        <ele>109.7</ele>
        <time>2018-04-14T10:04:35Z</time>
      </trkpt>
      <trkpt lat="48.36366" lon="2.75426">
        <ele>109.5</ele>
        <time>2018-04-14T10:04:36Z</time>
      </trkpt>
      <trkpt lat="48.36374" lon="2.7542">
        <ele>109.3</ele>
        <time>2018-04-14T10:04:37Z</time>
      </trkpt>
      <trkpt lat="48.36383" lon="2.75414">
        <ele>108.6</ele>
        <time>2018-04-14T10:04:38Z</time>
      </trkpt>
      <trkpt lat="48.36392" lon="2.75408">
        <ele>107.6</ele>
        <time>2018-04-14T10:04:39Z</time>
      </trkpt>
      <trkpt lat="48.36401" lon="2.75401">
        <ele>106.6</ele>
        <time>2018-04-14T10:04:40Z</time>
      </trkpt>
      <trkpt lat="48.36409" lon="2.75395">
        <ele>105.5</ele>
        <time>2018-04-14T10:04:41Z</time>
      </trkpt>
      <trkpt lat="48.36416" lon="2.7539">
        <ele>104.6</ele>
        <time>2018-04-14T10:04:42Z</time>
      </trkpt>
      <trkpt lat="48.36423" lon="2.75385">
        <ele>103.8</ele>
        <time>2018-04-14T10:04:43Z</time>
      </trkpt>
      <trkpt lat="48.36429" lon="2.75381">
        <ele>103.3</ele>
        <time>2018-04-14T10:04:44Z</time>
      </trkpt>
      <trkpt lat="48.36436" lon="2.75377">
        <ele>103.1</ele>
        <time>2018-04-14T10:04:45Z</time>
      </trkpt>
      <trkpt lat="48.36443" lon="2.75373">
        <ele>103</ele>
        <time>2018-04-14T10:04:46Z</time>
      </trkpt>
      <trkpt lat="48.3645" lon="2.75367">
        <ele>102.8</ele>
        <time>2018-04-14T10:04:47Z</time>
      </trkpt>
      <trkpt lat="48.36456" lon="2.75362">
        <ele>102.7</ele>
        <time>2018-04-14T10:04:48Z</time>
      </trkpt>
      <trkpt lat="48.36463" lon="2.75357">
        <ele>102.6</ele>
        <time>2018-04-14T10:04:49Z</time>
      </trkpt>
      <trkpt lat="48.36469" lon="2.75352">
        <ele>102.5</ele>
        <time>2018-04-14T10:04:50Z</time>
      </trkpt>
      <trkpt lat="48.36474" lon="2.75348">
        <ele>102.4</ele>
        <time>2018-04-14T10:04:51Z</time>
      </trkpt>
      <trkpt lat="48.36478" lon="2.75343">
        <ele>102.3</ele>
        <time>2018-04-14T10:04:52Z</time>
      </trkpt>
      <trkpt lat="48.36482" lon="2.7534">
        <ele>102.3</ele>
        <time>2018-04-14T10:04:53Z</time>
      </trkpt>
      <trkpt lat="48.36486" lon="2.75338">
        <ele>102.2</ele>
        <time>2018-04-14T10:04:54Z</time>
      </trkpt>
      <trkpt lat="48.3649" lon="2.75336">
        <ele>102.2</ele>
        <time>2018-04-14T10:04:55Z</time>
      </trkpt>
      <trkpt lat="48.36493" lon="2.75336">
        <ele>102.1</ele>
        <time>2018-04-14T10:04:56Z</time>
      </trkpt>
      <trkpt lat="48.36497" lon="2.75335">
        <ele>102.1</ele>
        <time>2018-04-14T10:04:57Z</time>
      </trkpt>
      <trkpt lat="48.365" lon="2.75333">
        <ele>102</ele>
        <time>2018-04-14T10:04:58Z</time>
      </trkpt>
      <trkpt lat="48.36503" lon="2.75332">
        <ele>102.1</ele>
        <time>2018-04-14T10:04:59Z</time>
      </trkpt>
      <trkpt lat="48.36505" lon="2.75332">
        <ele>102.2</ele>
        <time>2018-04-14T10:05:00Z</time>
      </trkpt>
      <trkpt lat="48.3651" lon="2.75331">
        <ele>102.5</ele>
        <time>2018-04-14T10:05:02Z</time>
      </trkpt>
      <trkpt lat="48.36513" lon="2.75329">
        <ele>102.7</ele>
        <time>2018-04-14T10:05:04Z</time>
      </trkpt>
      <trkpt lat="48.36517" lon="2.75328">
        <ele>102.9</ele>
        <time>2018-04-14T10:05:06Z</time>
      </trkpt>
      <trkpt lat="48.3652" lon="2.75326">
        <ele>103.1</ele>
        <time>2018-04-14T10:05:08Z</time>
      </trkpt>
      <trkpt lat="48.36524" lon="2.75325">
        <ele>103.4</ele>
        <time>2018-04-14T10:05:10Z</time>
      </trkpt>
      <trkpt lat="48.36527" lon="2.75324">
        <ele>103.6</ele>
        <time>2018-04-14T10:05:12Z</time>
      </trkpt>
      <trkpt lat="48.36531" lon="2.75324">
        <ele>103.8</ele>
        <time>2018-04-14T10:05:14Z</time>
      </trkpt>
      <trkpt lat="48.36534" lon="2.75323">
        <ele>103.9</ele>
        <time>2018-04-14T10:05:16Z</time>
      </trkpt>
      <trkpt lat="48.36537" lon="2.75321">
        <ele>104.1</ele>
        <time>2018-04-14T10:05:18Z</time>
      </trkpt>
      <trkpt lat="48.36544" lon="2.75324">
        <ele>104.5</ele>
        <time>2018-04-14T10:05:41Z</time>
      </trkpt>
      <trkpt lat="48.36545" lon="2.7533">
        <ele>104.8</ele>
        <time>2018-04-14T10:05:43Z</time>
      </trkpt>
      <trkpt lat="48.36545" lon="2.75335">
        <ele>105.1</ele>
        <time>2018-04-14T10:05:44Z</time>
      </trkpt>
      <trkpt lat="48.36546" lon="2.75339">
        <ele>105.1</ele>
        <time>2018-04-14T10:05:45Z</time>
      </trkpt>
      <trkpt lat="48.36547" lon="2.75343">
        <ele>105.2</ele>
        <time>2018-04-14T10:05:46Z</time>
      </trkpt>
      <trkpt lat="48.36548" lon="2.75349">
        <ele>105.2</ele>
        <time>2018-04-14T10:05:47Z</time>
      </trkpt>
      <trkpt lat="48.36549" lon="2.75356">
        <ele>105.3</ele>
        <time>2018-04-14T10:05:48Z</time>
      </trkpt>
      <trkpt lat="48.36549" lon="2.75361">
        <ele>105.3</ele>
        <time>2018-04-14T10:05:49Z</time>
      </trkpt>
      <trkpt lat="48.3655" lon="2.75366">
        <ele>105.4</ele>
        <time>2018-04-14T10:05:50Z</time>
      </trkpt>
      <trkpt lat="48.3655" lon="2.7537">
        <ele>105.4</ele>
        <time>2018-04-14T10:05:51Z</time>
      </trkpt>
      <trkpt lat="48.36551" lon="2.75375">
        <ele>105.4</ele>
        <time>2018-04-14T10:05:52Z</time>
      </trkpt>
      <trkpt lat="48.36551" lon="2.75379">
        <ele>105.4</ele>
        <time>2018-04-14T10:05:53Z</time>
      </trkpt>
      <trkpt lat="48.36552" lon="2.75384">
        <ele>105.4</ele>
        <time>2018-04-14T10:05:54Z</time>
      </trkpt>
      <trkpt lat="48.36553" lon="2.75388">
        <ele>105.4</ele>
        <time>2018-04-14T10:05:55Z</time>
      </trkpt>
      <trkpt lat="48.36554" lon="2.75392">
        <ele>105.4</ele>
        <time>2018-04-14T10:05:56Z</time>
      </trkpt>
      <trkpt lat="48.36554" lon="2.75396">
        <ele>105.4</ele>
        <time>2018-04-14T10:05:57Z</time>
      </trkpt>
      <trkpt lat="48.36554" lon="2.75401">
        <ele>105.4</ele>
        <time>2018-04-14T10:05:58Z</time>
      </trkpt>
      <trkpt lat="48.36555" lon="2.75406">
        <ele>105.4</ele>
        <time>2018-04-14T10:05:59Z</time>
      </trkpt>
      <trkpt lat="48.36555" lon="2.7541">
        <ele>105.4</ele>
        <time>2018-04-14T10:06:00Z</time>
      </trkpt>
      <trkpt lat="48.36555" lon="2.75414">
        <ele>105.4</ele>
        <time>2018-04-14T10:06:01Z</time>
      </trkpt>
      <trkpt lat="48.36555" lon="2.75421">
        <ele>105.4</ele>
        <time>2018-04-14T10:06:02Z</time>
      </trkpt>
      <trkpt lat="48.36555" lon="2.75429">
        <ele>105.3</ele>
        <time>2018-04-14T10:06:03Z</time>
      </trkpt>
      <trkpt lat="48.36555" lon="2.75437">
        <ele>105.2</ele>
        <time>2018-04-14T10:06:04Z</time>
      </trkpt>
      <trkpt lat="48.36556" lon="2.75447">
        <ele>105.2</ele>
        <time>2018-04-14T10:06:05Z</time>
      </trkpt>
      <trkpt lat="48.36557" lon="2.75457">
        <ele>105.1</ele>
        <time>2018-04-14T10:06:06Z</time>
      </trkpt>
      <trkpt lat="48.36557" lon="2.75468">
        <ele>104.8</ele>
        <time>2018-04-14T10:06:07Z</time>
      </trkpt>
      <trkpt lat="48.36558" lon="2.75479">
        <ele>104.5</ele>
        <time>2018-04-14T10:06:08Z</time>
      </trkpt>
      <trkpt lat="48.3656" lon="2.7549">
        <ele>104.1</ele>
        <time>2018-04-14T10:06:09Z</time>
      </trkpt>
      <trkpt lat="48.36561" lon="2.75502">
        <ele>103.8</ele>
        <time>2018-04-14T10:06:10Z</time>
      </trkpt>
      <trkpt lat="48.36562" lon="2.75514">
        <ele>103.5</ele>
        <time>2018-04-14T10:06:11Z</time>
      </trkpt>
      <trkpt lat="48.36562" lon="2.75524">
        <ele>103.2</ele>
        <time>2018-04-14T10:06:12Z</time>
      </trkpt>
      <trkpt lat="48.36563" lon="2.75535">
        <ele>102.8</ele>
        <time>2018-04-14T10:06:13Z</time>
      </trkpt>
      <trkpt lat="48.36563" lon="2.75543">
        <ele>102.6</ele>
        <time>2018-04-14T10:06:14Z</time>
      </trkpt>
      <trkpt lat="48.36565" lon="2.75552">
        <ele>102.3</ele>
        <time>2018-04-14T10:06:15Z</time>
      </trkpt>
      <trkpt lat="48.36566" lon="2.75563">
        <ele>102.1</ele>
        <time>2018-04-14T10:06:16Z</time>
      </trkpt>
      <trkpt lat="48.36567" lon="2.75573">
        <ele>101.8</ele>
        <time>2018-04-14T10:06:17Z</time>
      </trkpt>
      <trkpt lat="48.36568" lon="2.75583">
        <ele>101.6</ele>
        <time>2018-04-14T10:06:18Z</time>
      </trkpt>
      <trkpt lat="48.36569" lon="2.75592">
        <ele>101.4</ele>
        <time>2018-04-14T10:06:19Z</time>
      </trkpt>
      <trkpt lat="48.3657" lon="2.75602">
        <ele>101.2</ele>
        <time>2018-04-14T10:06:20Z</time>
      </trkpt>
      <trkpt lat="48.36571" lon="2.7561">
        <ele>101.1</ele>
        <time>2018-04-14T10:06:21Z</time>
      </trkpt>
      <trkpt lat="48.36571" lon="2.75617">
        <ele>101.1</ele>
        <time>2018-04-14T10:06:22Z</time>
      </trkpt>
      <trkpt lat="48.36572" lon="2.75625">
        <ele>101</ele>
        <time>2018-04-14T10:06:23Z</time>
      </trkpt>
      <trkpt lat="48.36573" lon="2.75633">
        <ele>101</ele>
        <time>2018-04-14T10:06:24Z</time>
      </trkpt>
      <trkpt lat="48.36574" lon="2.7564">
        <ele>101</ele>
        <time>2018-04-14T10:06:25Z</time>
      </trkpt>
      <trkpt lat="48.36574" lon="2.75648">
        <ele>101</ele>
        <time>2018-04-14T10:06:26Z</time>
      </trkpt>
      <trkpt lat="48.36575" lon="2.75656">
        <ele>101</ele>
        <time>2018-04-14T10:06:27Z</time>
      </trkpt>
      <trkpt lat="48.36575" lon="2.75665">
        <ele>101</ele>
        <time>2018-04-14T10:06:28Z</time>
      </trkpt>
      <trkpt lat="48.36576" lon="2.75673">
        <ele>101.1</ele>
        <time>2018-04-14T10:06:29Z</time>
      </trkpt>
      <trkpt lat="48.36577" lon="2.75681">
        <ele>101.1</ele>
        <time>2018-04-14T10:06:30Z</time>
      </trkpt>
      <trkpt lat="48.36577" lon="2.75689">
        <ele>101.1</ele>
        <time>2018-04-14T10:06:31Z</time>
      </trkpt>
      <trkpt lat="48.36578" lon="2.75698">
        <ele>101.1</ele>
        <time>2018-04-14T10:06:32Z</time>
      </trkpt>
      <trkpt lat="48.36579" lon="2.75706">
        <ele>101.1</ele>
        <time>2018-04-14T10:06:33Z</time>
      </trkpt>
      <trkpt lat="48.3658" lon="2.75715">
        <ele>101.2</ele>
        <time>2018-04-14T10:06:34Z</time>
      </trkpt>
      <trkpt lat="48.3658" lon="2.75725">
        <ele>101.2</ele>
        <time>2018-04-14T10:06:35Z</time>
      </trkpt>
      <trkpt lat="48.36579" lon="2.75734">
        <ele>101.2</ele>
        <time>2018-04-14T10:06:36Z</time>
      </trkpt>
      <trkpt lat="48.3658" lon="2.75743">
        <ele>101.3</ele>
        <time>2018-04-14T10:06:37Z</time>
      </trkpt>
      <trkpt lat="48.36581" lon="2.75752">
        <ele>101.3</ele>
        <time>2018-04-14T10:06:38Z</time>
      </trkpt>
      <trkpt lat="48.36581" lon="2.75761">
        <ele>101.4</ele>
        <time>2018-04-14T10:06:39Z</time>
      </trkpt>
      <trkpt lat="48.36582" lon="2.75769">
        <ele>101.5</ele>
        <time>2018-04-14T10:06:40Z</time>
      </trkpt>
      <trkpt lat="48.36582" lon="2.75777">
        <ele>101.6</ele>
        <time>2018-04-14T10:06:41Z</time>
      </trkpt>
      <trkpt lat="48.36583" lon="2.75785">
        <ele>101.6</ele>
        <time>2018-04-14T10:06:42Z</time>
      </trkpt>
      <trkpt lat="48.36584" lon="2.75794">
        <ele>101.7</ele>
        <time>2018-04-14T10:06:43Z</time>
      </trkpt>
      <trkpt lat="48.36585" lon="2.75803">
        <ele>101.8</ele>
        <time>2018-04-14T10:06:44Z</time>
      </trkpt>
      <trkpt lat="48.36586" lon="2.7581">
        <ele>101.8</ele>
        <time>2018-04-14T10:06:45Z</time>
      </trkpt>
      <trkpt lat="48.36586" lon="2.75818">
        <ele>101.9</ele>
        <time>2018-04-14T10:06:46Z</time>
      </trkpt>
      <trkpt lat="48.36587" lon="2.75825">
        <ele>102.1</ele>
        <time>2018-04-14T10:06:47Z</time>
      </trkpt>
      <trkpt lat="48.36587" lon="2.75831">
        <ele>102.3</ele>
        <time>2018-04-14T10:06:48Z</time>
      </trkpt>
      <trkpt lat="48.36588" lon="2.75838">
        <ele>102.6</ele>
        <time>2018-04-14T10:06:49Z</time>
      </trkpt>
      <trkpt lat="48.36588" lon="2.75844">
        <ele>102.9</ele>
        <time>2018-04-14T10:06:50Z</time>
      </trkpt>
      <trkpt lat="48.3659" lon="2.75851">
        <ele>103.1</ele>
        <time>2018-04-14T10:06:51Z</time>
      </trkpt>
      <trkpt lat="48.36591" lon="2.75858">
        <ele>103.4</ele>
        <time>2018-04-14T10:06:52Z</time>
      </trkpt>
      <trkpt lat="48.36592" lon="2.75866">
        <ele>103.6</ele>
        <time>2018-04-14T10:06:53Z</time>
      </trkpt>
      <trkpt lat="48.36594" lon="2.75873">
        <ele>103.7</ele>
        <time>2018-04-14T10:06:54Z</time>
      </trkpt>
      <trkpt lat="48.36595" lon="2.75881">
        <ele>103.8</ele>
        <time>2018-04-14T10:06:55Z</time>
      </trkpt>
      <trkpt lat="48.36596" lon="2.75889">
        <ele>103.8</ele>
        <time>2018-04-14T10:06:56Z</time>
      </trkpt>
      <trkpt lat="48.36596" lon="2.75896">
        <ele>103.8</ele>
        <time>2018-04-14T10:06:57Z</time>
      </trkpt>
      <trkpt lat="48.36597" lon="2.75902">
        <ele>103.8</ele>
        <time>2018-04-14T10:06:58Z</time>
      </trkpt>
      <trkpt lat="48.36598" lon="2.75909">
        <ele>103.8</ele>
        <time>2018-04-14T10:06:59Z</time>
      </trkpt>
      <trkpt lat="48.36598" lon="2.75917">
        <ele>103.8</ele>
        <time>2018-04-14T10:07:00Z</time>
      </trkpt>
      <trkpt lat="48.36599" lon="2.75924">
        <ele>103.8</ele>
        <time>2018-04-14T10:07:01Z</time>
      </trkpt>
      <trkpt lat="48.366" lon="2.75933">
        <ele>103.8</ele>
        <time>2018-04-14T10:07:02Z</time>
      </trkpt>
      <trkpt lat="48.36601" lon="2.75943">
        <ele>103.7</ele>
        <time>2018-04-14T10:07:03Z</time>
      </trkpt>
      <trkpt lat="48.36602" lon="2.75952">
        <ele>103.6</ele>
        <time>2018-04-14T10:07:04Z</time>
      </trkpt>
      <trkpt lat="48.36604" lon="2.7596">
        <ele>103.5</ele>
        <time>2018-04-14T10:07:05Z</time>
      </trkpt>
      <trkpt lat="48.36605" lon="2.75969">
        <ele>103.2</ele>
        <time>2018-04-14T10:07:06Z</time>
      </trkpt>
      <trkpt lat="48.36606" lon="2.75976">
        <ele>103</ele>
        <time>2018-04-14T10:07:07Z</time>
      </trkpt>
      <trkpt lat="48.36606" lon="2.75984">
        <ele>102.7</ele>
        <time>2018-04-14T10:07:08Z</time>
      </trkpt>
      <trkpt lat="48.36607" lon="2.75993">
        <ele>102.4</ele>
        <time>2018-04-14T10:07:09Z</time>
      </trkpt>
      <trkpt lat="48.36608" lon="2.76002">
        <ele>102.1</ele>
        <time>2018-04-14T10:07:10Z</time>
      </trkpt>
      <trkpt lat="48.3661" lon="2.76012">
        <ele>101.7</ele>
        <time>2018-04-14T10:07:11Z</time>
      </trkpt>
      <trkpt lat="48.36612" lon="2.76022">
        <ele>101.4</ele>
        <time>2018-04-14T10:07:12Z</time>
      </trkpt>
      <trkpt lat="48.36613" lon="2.7603">
        <ele>101.2</ele>
        <time>2018-04-14T10:07:13Z</time>
      </trkpt>
      <trkpt lat="48.36614" lon="2.76037">
        <ele>101</ele>
        <time>2018-04-14T10:07:14Z</time>
      </trkpt>
      <trkpt lat="48.36615" lon="2.76046">
        <ele>100.9</ele>
        <time>2018-04-14T10:07:15Z</time>
      </trkpt>
      <trkpt lat="48.36615" lon="2.76054">
        <ele>100.7</ele>
        <time>2018-04-14T10:07:16Z</time>
      </trkpt>
      <trkpt lat="48.36616" lon="2.76062">
        <ele>100.6</ele>
        <time>2018-04-14T10:07:17Z</time>
      </trkpt>
      <trkpt lat="48.36618" lon="2.76069">
        <ele>100.6</ele>
        <time>2018-04-14T10:07:18Z</time>
      </trkpt>
      <trkpt lat="48.36619" lon="2.76075">
        <ele>100.5</ele>
        <time>2018-04-14T10:07:19Z</time>
      </trkpt>
      <trkpt lat="48.36621" lon="2.76081">
        <ele>100.4</ele>
        <time>2018-04-14T10:07:20Z</time>
      </trkpt>
      <trkpt lat="48.36622" lon="2.76086">
        <ele>100.4</ele>
        <time>2018-04-14T10:07:21Z</time>
      </trkpt>
      <trkpt lat="48.36623" lon="2.76091">
        <ele>100.3</ele>
        <time>2018-04-14T10:07:22Z</time>
      </trkpt>
      <trkpt lat="48.36625" lon="2.76097">
        <ele>100.2</ele>
        <time>2018-04-14T10:07:23Z</time>
      </trkpt>
      <trkpt lat="48.36626" lon="2.76101">
        <ele>100.1</ele>
        <time>2018-04-14T10:07:24Z</time>
      </trkpt>
      <trkpt lat="48.36631" lon="2.76109">
        <ele>99.9</ele>
        <time>2018-04-14T10:07:26Z</time>
      </trkpt>
      <trkpt lat="48.36633" lon="2.76114">
        <ele>99.8</ele>
        <time>2018-04-14T10:07:27Z</time>
      </trkpt>
      <trkpt lat="48.36636" lon="2.76119">
        <ele>99.7</ele>
        <time>2018-04-14T10:07:28Z</time>
      </trkpt>
      <trkpt lat="48.36638" lon="2.76123">
        <ele>99.7</ele>
        <time>2018-04-14T10:07:29Z</time>
      </trkpt>
      <trkpt lat="48.3664" lon="2.76126">
        <ele>99.8</ele>
        <time>2018-04-14T10:07:30Z</time>
      </trkpt>
      <trkpt lat="48.36644" lon="2.76129">
        <ele>99.9</ele>
        <time>2018-04-14T10:07:32Z</time>
      </trkpt>
      <trkpt lat="48.36648" lon="2.76135">
        <ele>100</ele>
        <time>2018-04-14T10:07:34Z</time>
      </trkpt>
      <trkpt lat="48.36649" lon="2.76139">
        <ele>100.1</ele>
        <time>2018-04-14T10:07:35Z</time>
      </trkpt>
      <trkpt lat="48.36652" lon="2.76146">
        <ele>100.2</ele>
        <time>2018-04-14T10:07:37Z</time>
      </trkpt>
      <trkpt lat="48.36655" lon="2.76151">
        <ele>100.3</ele>
        <time>2018-04-14T10:07:38Z</time>
      </trkpt>
      <trkpt lat="48.36657" lon="2.76155">
        <ele>100.3</ele>
        <time>2018-04-14T10:07:39Z</time>
      </trkpt>
      <trkpt lat="48.3666" lon="2.76158">
        <ele>100.4</ele>
        <time>2018-04-14T10:07:40Z</time>
      </trkpt>
      <trkpt lat="48.36661" lon="2.76163">
        <ele>100.5</ele>
        <time>2018-04-14T10:07:41Z</time>
      </trkpt>
      <trkpt lat="48.36661" lon="2.76167">
        <ele>100.6</ele>
        <time>2018-04-14T10:07:42Z</time>
      </trkpt>
      <trkpt lat="48.36663" lon="2.76174">
        <ele>100.6</ele>
        <time>2018-04-14T10:07:44Z</time>
      </trkpt>
      <trkpt lat="48.36666" lon="2.7618">
        <ele>100.7</ele>
        <time>2018-04-14T10:07:45Z</time>
      </trkpt>
      <trkpt lat="48.36669" lon="2.76186">
        <ele>100.7</ele>
        <time>2018-04-14T10:07:46Z</time>
      </trkpt>
      <trkpt lat="48.36672" lon="2.76193">
        <ele>100.8</ele>
        <time>2018-04-14T10:07:47Z</time>
      </trkpt>
      <trkpt lat="48.36674" lon="2.76198">
        <ele>100.8</ele>
        <time>2018-04-14T10:07:48Z</time>
      </trkpt>
      <trkpt lat="48.36677" lon="2.76204">
        <ele>100.9</ele>
        <time>2018-04-14T10:07:49Z</time>
      </trkpt>
      <trkpt lat="48.3668" lon="2.76211">
        <ele>100.9</ele>
        <time>2018-04-14T10:07:50Z</time>
      </trkpt>
      <trkpt lat="48.36684" lon="2.76217">
        <ele>100.9</ele>
        <time>2018-04-14T10:07:51Z</time>
      </trkpt>
      <trkpt lat="48.36687" lon="2.76223">
        <ele>100.9</ele>
        <time>2018-04-14T10:07:52Z</time>
      </trkpt>
      <trkpt lat="48.36691" lon="2.76229">
        <ele>101</ele>
        <time>2018-04-14T10:07:53Z</time>
      </trkpt>
      <trkpt lat="48.36694" lon="2.76236">
        <ele>101.2</ele>
        <time>2018-04-14T10:07:54Z</time>
      </trkpt>
      <trkpt lat="48.36697" lon="2.76241">
        <ele>101.3</ele>
        <time>2018-04-14T10:07:55Z</time>
      </trkpt>
      <trkpt lat="48.36699" lon="2.76247">
        <ele>101.4</ele>
        <time>2018-04-14T10:07:56Z</time>
      </trkpt>
      <trkpt lat="48.367" lon="2.76252">
        <ele>101.5</ele>
        <time>2018-04-14T10:07:57Z</time>
      </trkpt>
      <trkpt lat="48.36701" lon="2.76257">
        <ele>101.6</ele>
        <time>2018-04-14T10:07:58Z</time>
      </trkpt>
      <trkpt lat="48.36703" lon="2.76263">
        <ele>101.7</ele>
        <time>2018-04-14T10:07:59Z</time>
      </trkpt>
      <trkpt lat="48.36704" lon="2.76269">
        <ele>101.9</ele>
        <time>2018-04-14T10:08:00Z</time>
      </trkpt>
      <trkpt lat="48.36705" lon="2.76275">
        <ele>102</ele>
        <time>2018-04-14T10:08:01Z</time>
      </trkpt>
      <trkpt lat="48.36708" lon="2.76283">
        <ele>101.9</ele>
        <time>2018-04-14T10:08:02Z</time>
      </trkpt>
      <trkpt lat="48.3671" lon="2.76292">
        <ele>101.7</ele>
        <time>2018-04-14T10:08:03Z</time>
      </trkpt>
      <trkpt lat="48.36712" lon="2.763">
        <ele>101.6</ele>
        <time>2018-04-14T10:08:04Z</time>
      </trkpt>
      <trkpt lat="48.36713" lon="2.76308">
        <ele>101.6</ele>
        <time>2018-04-14T10:08:05Z</time>
      </trkpt>
      <trkpt lat="48.36715" lon="2.76316">
        <ele>101.5</ele>
        <time>2018-04-14T10:08:06Z</time>
      </trkpt>
      <trkpt lat="48.36717" lon="2.76324">
        <ele>101.4</ele>
        <time>2018-04-14T10:08:07Z</time>
      </trkpt>
      <trkpt lat="48.36717" lon="2.76333">
        <ele>101.3</ele>
        <time>2018-04-14T10:08:08Z</time>
      </trkpt>
      <trkpt lat="48.36719" lon="2.76342">
        <ele>101.2</ele>
        <time>2018-04-14T10:08:09Z</time>
      </trkpt>
      <trkpt lat="48.36721" lon="2.76349">
        <ele>101.1</ele>
        <time>2018-04-14T10:08:10Z</time>
      </trkpt>
      <trkpt lat="48.36723" lon="2.76355">
        <ele>101.1</ele>
        <time>2018-04-14T10:08:11Z</time>
      </trkpt>
      <trkpt lat="48.36724" lon="2.7636">
        <ele>101</ele>
        <time>2018-04-14T10:08:12Z</time>
      </trkpt>
      <trkpt lat="48.36726" lon="2.76367">
        <ele>101</ele>
        <time>2018-04-14T10:08:13Z</time>
      </trkpt>
      <trkpt lat="48.36728" lon="2.76374">
        <ele>100.8</ele>
        <time>2018-04-14T10:08:14Z</time>
      </trkpt>
      <trkpt lat="48.3673" lon="2.76382">
        <ele>100.7</ele>
        <time>2018-04-14T10:08:15Z</time>
      </trkpt>
      <trkpt lat="48.3673" lon="2.7639">
        <ele>100.6</ele>
        <time>2018-04-14T10:08:16Z</time>
      </trkpt>
      <trkpt lat="48.36731" lon="2.76398">
        <ele>100.5</ele>
        <time>2018-04-14T10:08:17Z</time>
      </trkpt>
      <trkpt lat="48.36732" lon="2.76407">
        <ele>100.3</ele>
        <time>2018-04-14T10:08:18Z</time>
      </trkpt>
      <trkpt lat="48.36733" lon="2.76417">
        <ele>100.2</ele>
        <time>2018-04-14T10:08:19Z</time>
      </trkpt>
      <trkpt lat="48.36734" lon="2.76428">
        <ele>100</ele>
        <time>2018-04-14T10:08:20Z</time>
      </trkpt>
      <trkpt lat="48.36735" lon="2.76438">
        <ele>99.6</ele>
        <time>2018-04-14T10:08:21Z</time>
      </trkpt>
      <trkpt lat="48.36736" lon="2.76449">
        <ele>99.2</ele>
        <time>2018-04-14T10:08:22Z</time>
      </trkpt>
      <trkpt lat="48.36739" lon="2.76461">
        <ele>98.7</ele>
        <time>2018-04-14T10:08:23Z</time>
      </trkpt>
      <trkpt lat="48.36742" lon="2.76474">
        <ele>98.4</ele>
        <time>2018-04-14T10:08:24Z</time>
      </trkpt>
      <trkpt lat="48.36745" lon="2.76485">
        <ele>98.2</ele>
        <time>2018-04-14T10:08:25Z</time>
      </trkpt>
      <trkpt lat="48.36748" lon="2.76496">
        <ele>98.1</ele>
        <time>2018-04-14T10:08:26Z</time>
      </trkpt>
      <trkpt lat="48.3675" lon="2.76506">
        <ele>97.9</ele>
        <time>2018-04-14T10:08:27Z</time>
      </trkpt>
      <trkpt lat="48.36752" lon="2.76517">
        <ele>97.8</ele>
        <time>2018-04-14T10:08:28Z</time>
      </trkpt>
      <trkpt lat="48.36753" lon="2.76527">
        <ele>97.7</ele>
        <time>2018-04-14T10:08:29Z</time>
      </trkpt>
      <trkpt lat="48.36756" lon="2.76537">
        <ele>97.7</ele>
        <time>2018-04-14T10:08:30Z</time>
      </trkpt>
      <trkpt lat="48.36758" lon="2.76546">
        <ele>97.6</ele>
        <time>2018-04-14T10:08:31Z</time>
      </trkpt>
      <trkpt lat="48.36761" lon="2.76555">
        <ele>97.6</ele>
        <time>2018-04-14T10:08:32Z</time>
      </trkpt>
      <trkpt lat="48.36763" lon="2.76563">
        <ele>97.5</ele>
        <time>2018-04-14T10:08:33Z</time>
      </trkpt>
      <trkpt lat="48.36765" lon="2.76572">
        <ele>97.4</ele>
        <time>2018-04-14T10:08:34Z</time>
      </trkpt>
      <trkpt lat="48.36767" lon="2.76581">
        <ele>97.3</ele>
        <time>2018-04-14T10:08:35Z</time>
      </trkpt>
      <trkpt lat="48.36769" lon="2.76591">
        <ele>97.3</ele>
        <time>2018-04-14T10:08:36Z</time>
      </trkpt>
      <trkpt lat="48.36773" lon="2.76603">
        <ele>97.2</ele>
        <time>2018-04-14T10:08:37Z</time>
      </trkpt>
      <trkpt lat="48.36777" lon="2.76616">
        <ele>97.1</ele>
        <time>2018-04-14T10:08:38Z</time>
      </trkpt>
      <trkpt lat="48.36779" lon="2.76626">
        <ele>97</ele>
        <time>2018-04-14T10:08:39Z</time>
      </trkpt>
      <trkpt lat="48.36782" lon="2.76635">
        <ele>97</ele>
        <time>2018-04-14T10:08:40Z</time>
      </trkpt>
      <trkpt lat="48.36784" lon="2.76643">
        <ele>96.9</ele>
        <time>2018-04-14T10:08:41Z</time>
      </trkpt>
      <trkpt lat="48.36787" lon="2.76651">
        <ele>96.8</ele>
        <time>2018-04-14T10:08:42Z</time>
      </trkpt>
      <trkpt lat="48.36791" lon="2.76661">
        <ele>96.6</ele>
        <time>2018-04-14T10:08:43Z</time>
      </trkpt>
      <trkpt lat="48.36793" lon="2.76669">
        <ele>96.5</ele>
        <time>2018-04-14T10:08:44Z</time>
      </trkpt>
      <trkpt lat="48.36796" lon="2.76677">
        <ele>96.3</ele>
        <time>2018-04-14T10:08:45Z</time>
      </trkpt>
      <trkpt lat="48.36799" lon="2.76686">
        <ele>96.1</ele>
        <time>2018-04-14T10:08:46Z</time>
      </trkpt>
      <trkpt lat="48.36804" lon="2.76696">
        <ele>96.1</ele>
        <time>2018-04-14T10:08:47Z</time>
      </trkpt>
      <trkpt lat="48.36808" lon="2.76703">
        <ele>96.3</ele>
        <time>2018-04-14T10:08:48Z</time>
      </trkpt>
      <trkpt lat="48.36812" lon="2.76709">
        <ele>96.5</ele>
        <time>2018-04-14T10:08:49Z</time>
      </trkpt>
      <trkpt lat="48.36814" lon="2.76716">
        <ele>96.7</ele>
        <time>2018-04-14T10:08:50Z</time>
      </trkpt>
      <trkpt lat="48.36816" lon="2.76722">
        <ele>97.1</ele>
        <time>2018-04-14T10:08:51Z</time>
      </trkpt>
      <trkpt lat="48.36818" lon="2.76731">
        <ele>97.5</ele>
        <time>2018-04-14T10:08:52Z</time>
      </trkpt>
      <trkpt lat="48.36819" lon="2.76738">
        <ele>97.9</ele>
        <time>2018-04-14T10:08:53Z</time>
      </trkpt>
      <trkpt lat="48.3682" lon="2.76744">
        <ele>98.2</ele>
        <time>2018-04-14T10:08:54Z</time>
      </trkpt>
      <trkpt lat="48.3682" lon="2.7675">
        <ele>98.4</ele>
        <time>2018-04-14T10:08:55Z</time>
      </trkpt>
      <trkpt lat="48.36821" lon="2.76757">
        <ele>98.6</ele>
        <time>2018-04-14T10:08:56Z</time>
      </trkpt>
      <trkpt lat="48.36821" lon="2.76768">
        <ele>98.7</ele>
        <time>2018-04-14T10:08:57Z</time>
      </trkpt>
      <trkpt lat="48.36822" lon="2.76776">
        <ele>98.8</ele>
        <time>2018-04-14T10:08:58Z</time>
      </trkpt>
      <trkpt lat="48.36822" lon="2.76786">
        <ele>99</ele>
        <time>2018-04-14T10:08:59Z</time>
      </trkpt>
      <trkpt lat="48.36823" lon="2.76794">
        <ele>99.1</ele>
        <time>2018-04-14T10:09:00Z</time>
      </trkpt>
      <trkpt lat="48.36824" lon="2.76803">
        <ele>99.1</ele>
        <time>2018-04-14T10:09:01Z</time>
      </trkpt>
      <trkpt lat="48.36826" lon="2.76812">
        <ele>99.1</ele>
        <time>2018-04-14T10:09:02Z</time>
      </trkpt>
      <trkpt lat="48.36827" lon="2.76819">
        <ele>99.1</ele>
        <time>2018-04-14T10:09:03Z</time>
      </trkpt>
      <trkpt lat="48.36829" lon="2.76826">
        <ele>99.1</ele>
        <time>2018-04-14T10:09:04Z</time>
      </trkpt>
      <trkpt lat="48.36831" lon="2.76832">
        <ele>99.2</ele>
        <time>2018-04-14T10:09:05Z</time>
      </trkpt>
      <trkpt lat="48.36833" lon="2.76841">
        <ele>99.2</ele>
        <time>2018-04-14T10:09:06Z</time>
      </trkpt>
      <trkpt lat="48.36835" lon="2.76849">
        <ele>99.2</ele>
        <time>2018-04-14T10:09:07Z</time>
      </trkpt>
      <trkpt lat="48.36837" lon="2.76856">
        <ele>99.2</ele>
        <time>2018-04-14T10:09:08Z</time>
      </trkpt>
      <trkpt lat="48.36841" lon="2.76866">
        <ele>99.3</ele>
        <time>2018-04-14T10:09:09Z</time>
      </trkpt>
      <trkpt lat="48.36843" lon="2.76872">
        <ele>99.3</ele>
        <time>2018-04-14T10:09:10Z</time>
      </trkpt>
      <trkpt lat="48.36847" lon="2.76881">
        <ele>99.4</ele>
        <time>2018-04-14T10:09:11Z</time>
      </trkpt>
      <trkpt lat="48.3685" lon="2.7689">
        <ele>99.4</ele>
        <time>2018-04-14T10:09:12Z</time>
      </trkpt>
      <trkpt lat="48.36852" lon="2.76897">
        <ele>99.5</ele>
        <time>2018-04-14T10:09:13Z</time>
      </trkpt>
      <trkpt lat="48.36854" lon="2.76903">
        <ele>99.5</ele>
        <time>2018-04-14T10:09:14Z</time>
      </trkpt>
      <trkpt lat="48.36855" lon="2.7691">
        <ele>99.6</ele>
        <time>2018-04-14T10:09:15Z</time>
      </trkpt>
      <trkpt lat="48.36858" lon="2.76918">
        <ele>99.7</ele>
        <time>2018-04-14T10:09:16Z</time>
      </trkpt>
      <trkpt lat="48.3686" lon="2.76927">
        <ele>99.8</ele>
        <time>2018-04-14T10:09:17Z</time>
      </trkpt>
      <trkpt lat="48.36861" lon="2.76935">
        <ele>100</ele>
        <time>2018-04-14T10:09:18Z</time>
      </trkpt>
      <trkpt lat="48.36862" lon="2.76943">
        <ele>100.3</ele>
        <time>2018-04-14T10:09:19Z</time>
      </trkpt>
      <trkpt lat="48.36864" lon="2.76951">
        <ele>100.8</ele>
        <time>2018-04-14T10:09:20Z</time>
      </trkpt>
      <trkpt lat="48.36865" lon="2.76958">
        <ele>101.2</ele>
        <time>2018-04-14T10:09:21Z</time>
      </trkpt>
      <trkpt lat="48.36868" lon="2.76966">
        <ele>101.6</ele>
        <time>2018-04-14T10:09:22Z</time>
      </trkpt>
      <trkpt lat="48.3687" lon="2.76976">
        <ele>101.8</ele>
        <time>2018-04-14T10:09:23Z</time>
      </trkpt>
      <trkpt lat="48.36872" lon="2.76984">
        <ele>101.9</ele>
        <time>2018-04-14T10:09:24Z</time>
      </trkpt>
      <trkpt lat="48.36874" lon="2.76991">
        <ele>102</ele>
        <time>2018-04-14T10:09:25Z</time>
      </trkpt>
      <trkpt lat="48.36876" lon="2.76999">
        <ele>102.1</ele>
        <time>2018-04-14T10:09:26Z</time>
      </trkpt>
      <trkpt lat="48.36878" lon="2.77006">
        <ele>102.2</ele>
        <time>2018-04-14T10:09:27Z</time>
      </trkpt>
      <trkpt lat="48.36881" lon="2.77013">
        <ele>102.7</ele>
        <time>2018-04-14T10:09:28Z</time>
      </trkpt>
      <trkpt lat="48.36884" lon="2.7702">
        <ele>103.1</ele>
        <time>2018-04-14T10:09:29Z</time>
      </trkpt>
      <trkpt lat="48.36886" lon="2.77025">
        <ele>103.4</ele>
        <time>2018-04-14T10:09:30Z</time>
      </trkpt>
      <trkpt lat="48.36889" lon="2.7703">
        <ele>103.7</ele>
        <time>2018-04-14T10:09:31Z</time>
      </trkpt>
      <trkpt lat="48.36892" lon="2.77035">
        <ele>104</ele>
        <time>2018-04-14T10:09:32Z</time>
      </trkpt>
      <trkpt lat="48.36896" lon="2.77041">
        <ele>104.4</ele>
        <time>2018-04-14T10:09:33Z</time>
      </trkpt>
      <trkpt lat="48.36899" lon="2.77046">
        <ele>104.8</ele>
        <time>2018-04-14T10:09:34Z</time>
      </trkpt>
      <trkpt lat="48.36902" lon="2.7705">
        <ele>105.1</ele>
        <time>2018-04-14T10:09:35Z</time>
      </trkpt>
      <trkpt lat="48.36905" lon="2.77055">
        <ele>105.4</ele>
        <time>2018-04-14T10:09:36Z</time>
      </trkpt>
      <trkpt lat="48.36909" lon="2.77059">
        <ele>105.6</ele>
        <time>2018-04-14T10:09:37Z</time>
      </trkpt>
      <trkpt lat="48.36913" lon="2.77062">
        <ele>105.8</ele>
        <time>2018-04-14T10:09:38Z</time>
      </trkpt>
      <trkpt lat="48.36916" lon="2.77066">
        <ele>105.9</ele>
        <time>2018-04-14T10:09:39Z</time>
      </trkpt>
      <trkpt lat="48.36918" lon="2.77069">
        <ele>106</ele>
        <time>2018-04-14T10:09:40Z</time>
      </trkpt>
      <trkpt lat="48.36921" lon="2.77074">
        <ele>106</ele>
        <time>2018-04-14T10:09:41Z</time>
      </trkpt>
      <trkpt lat="48.36925" lon="2.7708">
        <ele>105.8</ele>
        <time>2018-04-14T10:09:42Z</time>
      </trkpt>
      <trkpt lat="48.36929" lon="2.77086">
        <ele>105.7</ele>
        <time>2018-04-14T10:09:43Z</time>
      </trkpt>
      <trkpt lat="48.36931" lon="2.77093">
        <ele>105.5</ele>
        <time>2018-04-14T10:09:44Z</time>
      </trkpt>
      <trkpt lat="48.36933" lon="2.77099">
        <ele>105.6</ele>
        <time>2018-04-14T10:09:45Z</time>
      </trkpt>
      <trkpt lat="48.36935" lon="2.77105">
        <ele>105.4</ele>
        <time>2018-04-14T10:09:46Z</time>
      </trkpt>
      <trkpt lat="48.36937" lon="2.77112">
        <ele>105.3</ele>
        <time>2018-04-14T10:09:47Z</time>
      </trkpt>
      <trkpt lat="48.36939" lon="2.77117">
        <ele>105.1</ele>
        <time>2018-04-14T10:09:48Z</time>
      </trkpt>
      <trkpt lat="48.36943" lon="2.77123">
        <ele>104.8</ele>
        <time>2018-04-14T10:09:49Z</time>
      </trkpt>
      <trkpt lat="48.36947" lon="2.7713">
        <ele>104.8</ele>
        <time>2018-04-14T10:09:50Z</time>
      </trkpt>
      <trkpt lat="48.36951" lon="2.7714">
        <ele>104.9</ele>
        <time>2018-04-14T10:09:51Z</time>
      </trkpt>
      <trkpt lat="48.36954" lon="2.7715">
        <ele>104.9</ele>
        <time>2018-04-14T10:09:52Z</time>
      </trkpt>
      <trkpt lat="48.36958" lon="2.7716">
        <ele>104.9</ele>
        <time>2018-04-14T10:09:53Z</time>
      </trkpt>
      <trkpt lat="48.3696" lon="2.77168">
        <ele>104.9</ele>
        <time>2018-04-14T10:09:54Z</time>
      </trkpt>
      <trkpt lat="48.36962" lon="2.77173">
        <ele>104.9</ele>
        <time>2018-04-14T10:09:55Z</time>
      </trkpt>
      <trkpt lat="48.36964" lon="2.77178">
        <ele>104.9</ele>
        <time>2018-04-14T10:09:56Z</time>
      </trkpt>
      <trkpt lat="48.36966" lon="2.77186">
        <ele>105</ele>
        <time>2018-04-14T10:10:00Z</time>
      </trkpt>
      <trkpt lat="48.3697" lon="2.77191">
        <ele>105</ele>
        <time>2018-04-14T10:10:05Z</time>
      </trkpt>
      <trkpt lat="48.36977" lon="2.77204">
        <ele>105</ele>
        <time>2018-04-14T10:10:18Z</time>
      </trkpt>
      <trkpt lat="48.36981" lon="2.77207">
        <ele>104.9</ele>
        <time>2018-04-14T10:10:20Z</time>
      </trkpt>
      <trkpt lat="48.36983" lon="2.77213">
        <ele>104.9</ele>
        <time>2018-04-14T10:10:22Z</time>
      </trkpt>
      <trkpt lat="48.36985" lon="2.77218">
        <ele>104.9</ele>
        <time>2018-04-14T10:10:24Z</time>
      </trkpt>
      <trkpt lat="48.36986" lon="2.77224">
        <ele>104.9</ele>
        <time>2018-04-14T10:10:26Z</time>
      </trkpt>
      <trkpt lat="48.36987" lon="2.7723">
        <ele>104.9</ele>
        <time>2018-04-14T10:10:27Z</time>
      </trkpt>
      <trkpt lat="48.36989" lon="2.77235">
        <ele>104.8</ele>
        <time>2018-04-14T10:10:28Z</time>
      </trkpt>
      <trkpt lat="48.3699" lon="2.7724">
        <ele>104.8</ele>
        <time>2018-04-14T10:10:29Z</time>
      </trkpt>
      <trkpt lat="48.36992" lon="2.77246">
        <ele>104.8</ele>
        <time>2018-04-14T10:10:30Z</time>
      </trkpt>
      <trkpt lat="48.36993" lon="2.77252">
        <ele>104.7</ele>
        <time>2018-04-14T10:10:31Z</time>
      </trkpt>
      <trkpt lat="48.36994" lon="2.77257">
        <ele>104.7</ele>
        <time>2018-04-14T10:10:32Z</time>
      </trkpt>
      <trkpt lat="48.36995" lon="2.77262">
        <ele>104.7</ele>
        <time>2018-04-14T10:10:33Z</time>
      </trkpt>
      <trkpt lat="48.36997" lon="2.77268">
        <ele>104.6</ele>
        <time>2018-04-14T10:10:34Z</time>
      </trkpt>
      <trkpt lat="48.36999" lon="2.77275">
        <ele>104.6</ele>
        <time>2018-04-14T10:10:35Z</time>
      </trkpt>
      <trkpt lat="48.37001" lon="2.77281">
        <ele>104.5</ele>
        <time>2018-04-14T10:10:36Z</time>
      </trkpt>
      <trkpt lat="48.37004" lon="2.77289">
        <ele>104.3</ele>
        <time>2018-04-14T10:10:37Z</time>
      </trkpt>
      <trkpt lat="48.37006" lon="2.77298">
        <ele>103.5</ele>
        <time>2018-04-14T10:10:38Z</time>
      </trkpt>
      <trkpt lat="48.37007" lon="2.77306">
        <ele>102.6</ele>
        <time>2018-04-14T10:10:39Z</time>
      </trkpt>
      <trkpt lat="48.37008" lon="2.77312">
        <ele>102.3</ele>
        <time>2018-04-14T10:10:40Z</time>
      </trkpt>
      <trkpt lat="48.3701" lon="2.77318">
        <ele>102.2</ele>
        <time>2018-04-14T10:10:41Z</time>
      </trkpt>
      <trkpt lat="48.37011" lon="2.77322">
        <ele>102.1</ele>
        <time>2018-04-14T10:10:42Z</time>
      </trkpt>
      <trkpt lat="48.37012" lon="2.77326">
        <ele>102.1</ele>
        <time>2018-04-14T10:10:43Z</time>
      </trkpt>
      <trkpt lat="48.37013" lon="2.77332">
        <ele>102.2</ele>
        <time>2018-04-14T10:10:44Z</time>
      </trkpt>
      <trkpt lat="48.37014" lon="2.77337">
        <ele>102.5</ele>
        <time>2018-04-14T10:10:45Z</time>
      </trkpt>
      <trkpt lat="48.37015" lon="2.77342">
        <ele>102.8</ele>
        <time>2018-04-14T10:10:46Z</time>
      </trkpt>
      <trkpt lat="48.37015" lon="2.77347">
        <ele>103.2</ele>
        <time>2018-04-14T10:10:47Z</time>
      </trkpt>
      <trkpt lat="48.37016" lon="2.77352">
        <ele>103.5</ele>
        <time>2018-04-14T10:10:48Z</time>
      </trkpt>
      <trkpt lat="48.37016" lon="2.77359">
        <ele>103.5</ele>
        <time>2018-04-14T10:10:49Z</time>
      </trkpt>
      <trkpt lat="48.37018" lon="2.77365">
        <ele>103</ele>
        <time>2018-04-14T10:10:50Z</time>
      </trkpt>
      <trkpt lat="48.37019" lon="2.77371">
        <ele>102.4</ele>
        <time>2018-04-14T10:10:51Z</time>
      </trkpt>
      <trkpt lat="48.37021" lon="2.77377">
        <ele>102.1</ele>
        <time>2018-04-14T10:10:52Z</time>
      </trkpt>
      <trkpt lat="48.37022" lon="2.77385">
        <ele>102</ele>
        <time>2018-04-14T10:10:53Z</time>
      </trkpt>
      <trkpt lat="48.37023" lon="2.77393">
        <ele>101.9</ele>
        <time>2018-04-14T10:10:54Z</time>
      </trkpt>
      <trkpt lat="48.37025" lon="2.774">
        <ele>101.9</ele>
        <time>2018-04-14T10:10:55Z</time>
      </trkpt>
      <trkpt lat="48.37026" lon="2.77406">
        <ele>101.8</ele>
        <time>2018-04-14T10:10:56Z</time>
      </trkpt>
      <trkpt lat="48.37029" lon="2.77413">
        <ele>101.8</ele>
        <time>2018-04-14T10:10:57Z</time>
      </trkpt>
      <trkpt lat="48.37031" lon="2.7742">
        <ele>101.7</ele>
        <time>2018-04-14T10:10:58Z</time>
      </trkpt>
      <trkpt lat="48.37033" lon="2.77428">
        <ele>101.7</ele>
        <time>2018-04-14T10:10:59Z</time>
      </trkpt>
      <trkpt lat="48.37036" lon="2.77438">
        <ele>101.6</ele>
        <time>2018-04-14T10:11:00Z</time>
      </trkpt>
      <trkpt lat="48.37038" lon="2.77449">
        <ele>101.6</ele>
        <time>2018-04-14T10:11:01Z</time>
      </trkpt>
      <trkpt lat="48.37041" lon="2.77457">
        <ele>101.5</ele>
        <time>2018-04-14T10:11:02Z</time>
      </trkpt>
      <trkpt lat="48.37043" lon="2.77466">
        <ele>101.5</ele>
        <time>2018-04-14T10:11:03Z</time>
      </trkpt>
      <trkpt lat="48.37045" lon="2.77473">
        <ele>101.4</ele>
        <time>2018-04-14T10:11:04Z</time>
      </trkpt>
      <trkpt lat="48.37047" lon="2.77478">
        <ele>101.4</ele>
        <time>2018-04-14T10:11:05Z</time>
      </trkpt>
      <trkpt lat="48.37049" lon="2.77486">
        <ele>101.4</ele>
        <time>2018-04-14T10:11:07Z</time>
      </trkpt>
      <trkpt lat="48.3705" lon="2.7749">
        <ele>101.6</ele>
        <time>2018-04-14T10:11:08Z</time>
      </trkpt>
      <trkpt lat="48.3705" lon="2.77495">
        <ele>101.6</ele>
        <time>2018-04-14T10:11:09Z</time>
      </trkpt>
      <trkpt lat="48.37051" lon="2.77499">
        <ele>101.6</ele>
        <time>2018-04-14T10:11:10Z</time>
      </trkpt>
      <trkpt lat="48.37052" lon="2.77506">
        <ele>101.5</ele>
        <time>2018-04-14T10:11:11Z</time>
      </trkpt>
      <trkpt lat="48.37053" lon="2.77512">
        <ele>101.8</ele>
        <time>2018-04-14T10:11:12Z</time>
      </trkpt>
      <trkpt lat="48.37054" lon="2.77522">
        <ele>101.7</ele>
        <time>2018-04-14T10:11:13Z</time>
      </trkpt>
      <trkpt lat="48.37054" lon="2.77532">
        <ele>100.9</ele>
        <time>2018-04-14T10:11:14Z</time>
      </trkpt>
      <trkpt lat="48.37054" lon="2.77543">
        <ele>100.6</ele>
        <time>2018-04-14T10:11:15Z</time>
      </trkpt>
      <trkpt lat="48.37053" lon="2.77553">
        <ele>100.5</ele>
        <time>2018-04-14T10:11:16Z</time>
      </trkpt>
      <trkpt lat="48.37052" lon="2.77563">
        <ele>100.4</ele>
        <time>2018-04-14T10:11:17Z</time>
      </trkpt>
      <trkpt lat="48.37053" lon="2.77576">
        <ele>100.1</ele>
        <time>2018-04-14T10:11:18Z</time>
      </trkpt>
      <trkpt lat="48.37053" lon="2.77583">
        <ele>99.5</ele>
        <time>2018-04-14T10:11:19Z</time>
      </trkpt>
      <trkpt lat="48.37052" lon="2.77592">
        <ele>98.7</ele>
        <time>2018-04-14T10:11:20Z</time>
      </trkpt>
      <trkpt lat="48.37051" lon="2.77601">
        <ele>99.3</ele>
        <time>2018-04-14T10:11:21Z</time>
      </trkpt>
      <trkpt lat="48.3705" lon="2.7761">
        <ele>99.5</ele>
        <time>2018-04-14T10:11:22Z</time>
      </trkpt>
      <trkpt lat="48.37048" lon="2.77619">
        <ele>99.3</ele>
        <time>2018-04-14T10:11:23Z</time>
      </trkpt>
      <trkpt lat="48.37048" lon="2.77628">
        <ele>99</ele>
        <time>2018-04-14T10:11:24Z</time>
      </trkpt>
      <trkpt lat="48.37047" lon="2.77635">
        <ele>99</ele>
        <time>2018-04-14T10:11:25Z</time>
      </trkpt>
      <trkpt lat="48.37049" lon="2.7764">
        <ele>98.9</ele>
        <time>2018-04-14T10:11:26Z</time>
      </trkpt>
      <trkpt lat="48.37051" lon="2.77646">
        <ele>99</ele>
        <time>2018-04-14T10:11:27Z</time>
      </trkpt>
      <trkpt lat="48.37052" lon="2.77651">
        <ele>98.6</ele>
        <time>2018-04-14T10:11:28Z</time>
      </trkpt>
      <trkpt lat="48.37054" lon="2.77657">
        <ele>98.2</ele>
        <time>2018-04-14T10:11:29Z</time>
      </trkpt>
      <trkpt lat="48.37056" lon="2.7766">
        <ele>97.8</ele>
        <time>2018-04-14T10:11:30Z</time>
      </trkpt>
      <trkpt lat="48.37058" lon="2.77665">
        <ele>97.4</ele>
        <time>2018-04-14T10:11:31Z</time>
      </trkpt>
      <trkpt lat="48.37059" lon="2.7767">
        <ele>97</ele>
        <time>2018-04-14T10:11:32Z</time>
      </trkpt>
      <trkpt lat="48.3706" lon="2.77683">
        <ele>97.2</ele>
        <time>2018-04-14T10:11:34Z</time>
      </trkpt>
      <trkpt lat="48.37061" lon="2.77687">
        <ele>97.2</ele>
        <time>2018-04-14T10:11:35Z</time>
      </trkpt>
      <trkpt lat="48.37063" lon="2.77697">
        <ele>97.5</ele>
        <time>2018-04-14T10:11:36Z</time>
      </trkpt>
      <trkpt lat="48.37064" lon="2.77705">
        <ele>97.7</ele>
        <time>2018-04-14T10:11:37Z</time>
      </trkpt>
      <trkpt lat="48.37066" lon="2.77713">
        <ele>97.8</ele>
        <time>2018-04-14T10:11:38Z</time>
      </trkpt>
      <trkpt lat="48.37067" lon="2.77721">
        <ele>97.9</ele>
        <time>2018-04-14T10:11:39Z</time>
      </trkpt>
      <trkpt lat="48.37067" lon="2.77726">
        <ele>97.9</ele>
        <time>2018-04-14T10:11:40Z</time>
      </trkpt>
      <trkpt lat="48.37067" lon="2.7773">
        <ele>98</ele>
        <time>2018-04-14T10:11:41Z</time>
      </trkpt>
      <trkpt lat="48.37068" lon="2.77735">
        <ele>98</ele>
        <time>2018-04-14T10:11:42Z</time>
      </trkpt>
      <trkpt lat="48.37069" lon="2.77742">
        <ele>97.8</ele>
        <time>2018-04-14T10:11:43Z</time>
      </trkpt>
      <trkpt lat="48.3707" lon="2.77748">
        <ele>97.2</ele>
        <time>2018-04-14T10:11:44Z</time>
      </trkpt>
      <trkpt lat="48.3707" lon="2.7776">
        <ele>96.6</ele>
        <time>2018-04-14T10:11:45Z</time>
      </trkpt>
      <trkpt lat="48.3707" lon="2.77765">
        <ele>96.5</ele>
        <time>2018-04-14T10:11:46Z</time>
      </trkpt>
      <trkpt lat="48.3707" lon="2.7777">
        <ele>96.6</ele>
        <time>2018-04-14T10:11:47Z</time>
      </trkpt>
      <trkpt lat="48.37072" lon="2.77781">
        <ele>96.7</ele>
        <time>2018-04-14T10:11:48Z</time>
      </trkpt>
      <trkpt lat="48.37073" lon="2.77787">
        <ele>96.8</ele>
        <time>2018-04-14T10:11:49Z</time>
      </trkpt>
      <trkpt lat="48.37074" lon="2.77793">
        <ele>96.9</ele>
        <time>2018-04-14T10:11:50Z</time>
      </trkpt>
      <trkpt lat="48.37077" lon="2.77806">
        <ele>97.1</ele>
        <time>2018-04-14T10:11:51Z</time>
      </trkpt>
      <trkpt lat="48.37078" lon="2.77811">
        <ele>97.1</ele>
        <time>2018-04-14T10:11:52Z</time>
      </trkpt>
      <trkpt lat="48.37081" lon="2.77819">
        <ele>97.2</ele>
        <time>2018-04-14T10:11:53Z</time>
      </trkpt>
      <trkpt lat="48.37084" lon="2.77828">
        <ele>97.4</ele>
        <time>2018-04-14T10:11:54Z</time>
      </trkpt>
      <trkpt lat="48.37086" lon="2.77836">
        <ele>97.5</ele>
        <time>2018-04-14T10:11:55Z</time>
      </trkpt>
      <trkpt lat="48.37089" lon="2.77844">
        <ele>97.7</ele>
        <time>2018-04-14T10:11:56Z</time>
      </trkpt>
      <trkpt lat="48.3709" lon="2.77855">
        <ele>97.8</ele>
        <time>2018-04-14T10:11:57Z</time>
      </trkpt>
      <trkpt lat="48.37091" lon="2.77863">
        <ele>97.9</ele>
        <time>2018-04-14T10:11:58Z</time>
      </trkpt>
      <trkpt lat="48.37093" lon="2.77869">
        <ele>98</ele>
        <time>2018-04-14T10:11:59Z</time>
      </trkpt>
      <trkpt lat="48.37095" lon="2.77877">
        <ele>98.1</ele>
        <time>2018-04-14T10:12:00Z</time>
      </trkpt>
      <trkpt lat="48.37097" lon="2.77885">
        <ele>98.3</ele>
        <time>2018-04-14T10:12:01Z</time>
      </trkpt>
      <trkpt lat="48.371" lon="2.77892">
        <ele>98.4</ele>
        <time>2018-04-14T10:12:02Z</time>
      </trkpt>
      <trkpt lat="48.37102" lon="2.779">
        <ele>98.5</ele>
        <time>2018-04-14T10:12:03Z</time>
      </trkpt>
      <trkpt lat="48.37106" lon="2.77911">
        <ele>98.7</ele>
        <time>2018-04-14T10:12:04Z</time>
      </trkpt>
      <trkpt lat="48.37108" lon="2.77919">
        <ele>98.8</ele>
        <time>2018-04-14T10:12:06Z</time>
      </trkpt>
      <trkpt lat="48.37107" lon="2.77922">
        <ele>98.8</ele>
        <time>2018-04-14T10:12:14Z</time>
      </trkpt>
      <trkpt lat="48.37107" lon="2.77925">
        <ele>98.9</ele>
        <time>2018-04-14T10:12:15Z</time>
      </trkpt>
      <trkpt lat="48.37107" lon="2.7793">
        <ele>98.9</ele>
        <time>2018-04-14T10:12:16Z</time>
      </trkpt>
      <trkpt lat="48.37107" lon="2.77935">
        <ele>99</ele>
        <time>2018-04-14T10:12:18Z</time>
      </trkpt>
      <trkpt lat="48.37105" lon="2.77932">
        <ele>99</ele>
        <time>2018-04-14T10:12:55Z</time>
      </trkpt>
      <trkpt lat="48.37103" lon="2.77936">
        <ele>99.1</ele>
        <time>2018-04-14T10:13:20Z</time>
      </trkpt>
      <trkpt lat="48.37104" lon="2.77932">
        <ele>99.1</ele>
        <time>2018-04-14T10:13:26Z</time>
      </trkpt>
      <trkpt lat="48.37105" lon="2.77927">
        <ele>99.2</ele>
        <time>2018-04-14T10:13:33Z</time>
      </trkpt>
      <trkpt lat="48.37107" lon="2.7793">
        <ele>99.2</ele>
        <time>2018-04-14T10:13:41Z</time>
      </trkpt>
      <trkpt lat="48.37106" lon="2.77935">
        <ele>99.3</ele>
        <time>2018-04-14T10:13:46Z</time>
      </trkpt>
      <trkpt lat="48.37107" lon="2.77939">
        <ele>99.3</ele>
        <time>2018-04-14T10:13:50Z</time>
      </trkpt>
      <trkpt lat="48.37108" lon="2.77946">
        <ele>99.4</ele>
        <time>2018-04-14T10:13:52Z</time>
      </trkpt>
      <trkpt lat="48.37109" lon="2.77951">
        <ele>99.5</ele>
        <time>2018-04-14T10:13:53Z</time>
      </trkpt>
      <trkpt lat="48.3711" lon="2.77959">
        <ele>99.6</ele>
        <time>2018-04-14T10:13:54Z</time>
      </trkpt>
      <trkpt lat="48.3711" lon="2.77965">
        <ele>99.6</ele>
        <time>2018-04-14T10:13:55Z</time>
      </trkpt>
      <trkpt lat="48.37111" lon="2.77969">
        <ele>99.7</ele>
        <time>2018-04-14T10:13:56Z</time>
      </trkpt>
      <trkpt lat="48.37112" lon="2.77975">
        <ele>99.8</ele>
        <time>2018-04-14T10:13:57Z</time>
      </trkpt>
      <trkpt lat="48.37113" lon="2.77981">
        <ele>99.9</ele>
        <time>2018-04-14T10:13:58Z</time>
      </trkpt>
      <trkpt lat="48.37114" lon="2.77987">
        <ele>100</ele>
        <time>2018-04-14T10:13:59Z</time>
      </trkpt>
      <trkpt lat="48.37115" lon="2.77996">
        <ele>100.2</ele>
        <time>2018-04-14T10:14:00Z</time>
      </trkpt>
      <trkpt lat="48.37116" lon="2.78003">
        <ele>100.3</ele>
        <time>2018-04-14T10:14:01Z</time>
      </trkpt>
      <trkpt lat="48.37117" lon="2.7801">
        <ele>100.4</ele>
        <time>2018-04-14T10:14:02Z</time>
      </trkpt>
      <trkpt lat="48.37118" lon="2.78019">
        <ele>100.6</ele>
        <time>2018-04-14T10:14:03Z</time>
      </trkpt>
      <trkpt lat="48.3712" lon="2.78027">
        <ele>100.7</ele>
        <time>2018-04-14T10:14:04Z</time>
      </trkpt>
      <trkpt lat="48.37122" lon="2.78033">
        <ele>100.8</ele>
        <time>2018-04-14T10:14:05Z</time>
      </trkpt>
      <trkpt lat="48.37124" lon="2.7804">
        <ele>100.9</ele>
        <time>2018-04-14T10:14:06Z</time>
      </trkpt>
      <trkpt lat="48.37126" lon="2.78047">
        <ele>101.1</ele>
        <time>2018-04-14T10:14:07Z</time>
      </trkpt>
      <trkpt lat="48.37127" lon="2.78053">
        <ele>101.1</ele>
        <time>2018-04-14T10:14:08Z</time>
      </trkpt>
      <trkpt lat="48.37129" lon="2.7806">
        <ele>101.3</ele>
        <time>2018-04-14T10:14:09Z</time>
      </trkpt>
      <trkpt lat="48.3713" lon="2.78065">
        <ele>101.3</ele>
        <time>2018-04-14T10:14:10Z</time>
      </trkpt>
      <trkpt lat="48.37132" lon="2.78072">
        <ele>101.5</ele>
        <time>2018-04-14T10:14:11Z</time>
      </trkpt>
      <trkpt lat="48.37134" lon="2.78081">
        <ele>101.6</ele>
        <time>2018-04-14T10:14:12Z</time>
      </trkpt>
      <trkpt lat="48.37135" lon="2.78088">
        <ele>101.7</ele>
        <time>2018-04-14T10:14:13Z</time>
      </trkpt>
      <trkpt lat="48.37136" lon="2.78094">
        <ele>101.8</ele>
        <time>2018-04-14T10:14:14Z</time>
      </trkpt>
      <trkpt lat="48.37138" lon="2.781">
        <ele>101.8</ele>
        <time>2018-04-14T10:14:15Z</time>
      </trkpt>
      <trkpt lat="48.3714" lon="2.78105">
        <ele>101.9</ele>
        <time>2018-04-14T10:14:16Z</time>
      </trkpt>
      <trkpt lat="48.37141" lon="2.78111">
        <ele>102</ele>
        <time>2018-04-14T10:14:17Z</time>
      </trkpt>
      <trkpt lat="48.37142" lon="2.78118">
        <ele>102</ele>
        <time>2018-04-14T10:14:18Z</time>
      </trkpt>
      <trkpt lat="48.37143" lon="2.78124">
        <ele>102.1</ele>
        <time>2018-04-14T10:14:19Z</time>
      </trkpt>
      <trkpt lat="48.37145" lon="2.78128">
        <ele>102.2</ele>
        <time>2018-04-14T10:14:20Z</time>
      </trkpt>
      <trkpt lat="48.37147" lon="2.78136">
        <ele>102.3</ele>
        <time>2018-04-14T10:14:21Z</time>
      </trkpt>
      <trkpt lat="48.37149" lon="2.78146">
        <ele>102.5</ele>
        <time>2018-04-14T10:14:22Z</time>
      </trkpt>
      <trkpt lat="48.37148" lon="2.78151">
        <ele>102.6</ele>
        <time>2018-04-14T10:14:23Z</time>
      </trkpt>
      <trkpt lat="48.37149" lon="2.78158">
        <ele>102.7</ele>
        <time>2018-04-14T10:14:24Z</time>
      </trkpt>
      <trkpt lat="48.3715" lon="2.78163">
        <ele>102.8</ele>
        <time>2018-04-14T10:14:25Z</time>
      </trkpt>
      <trkpt lat="48.37151" lon="2.7817">
        <ele>102.8</ele>
        <time>2018-04-14T10:14:26Z</time>
      </trkpt>
      <trkpt lat="48.37155" lon="2.78175">
        <ele>102.9</ele>
        <time>2018-04-14T10:14:27Z</time>
      </trkpt>
      <trkpt lat="48.37161" lon="2.78183">
        <ele>102.9</ele>
        <time>2018-04-14T10:14:28Z</time>
      </trkpt>
      <trkpt lat="48.37165" lon="2.78191">
        <ele>102.4</ele>
        <time>2018-04-14T10:14:29Z</time>
      </trkpt>
      <trkpt lat="48.37169" lon="2.78197">
        <ele>103</ele>
        <time>2018-04-14T10:14:30Z</time>
      </trkpt>
      <trkpt lat="48.37174" lon="2.78204">
        <ele>102.8</ele>
        <time>2018-04-14T10:14:31Z</time>
      </trkpt>
      <trkpt lat="48.37179" lon="2.78212">
        <ele>102.7</ele>
        <time>2018-04-14T10:14:32Z</time>
      </trkpt>
      <trkpt lat="48.37183" lon="2.78219">
        <ele>102.5</ele>
        <time>2018-04-14T10:14:33Z</time>
      </trkpt>
      <trkpt lat="48.37187" lon="2.78226">
        <ele>102.3</ele>
        <time>2018-04-14T10:14:34Z</time>
      </trkpt>
      <trkpt lat="48.37189" lon="2.78233">
        <ele>102</ele>
        <time>2018-04-14T10:14:35Z</time>
      </trkpt>
      <trkpt lat="48.37192" lon="2.78239">
        <ele>101.4</ele>
        <time>2018-04-14T10:14:36Z</time>
      </trkpt>
      <trkpt lat="48.37194" lon="2.78246">
        <ele>100.6</ele>
        <time>2018-04-14T10:14:37Z</time>
      </trkpt>
      <trkpt lat="48.37197" lon="2.78251">
        <ele>100.2</ele>
        <time>2018-04-14T10:14:38Z</time>
      </trkpt>
      <trkpt lat="48.372" lon="2.78256">
        <ele>100</ele>
        <time>2018-04-14T10:14:39Z</time>
      </trkpt>
      <trkpt lat="48.37202" lon="2.78261">
        <ele>99.9</ele>
        <time>2018-04-14T10:14:40Z</time>
      </trkpt>
      <trkpt lat="48.37204" lon="2.78267">
        <ele>99.9</ele>
        <time>2018-04-14T10:14:41Z</time>
      </trkpt>
      <trkpt lat="48.37207" lon="2.78272">
        <ele>99.8</ele>
        <time>2018-04-14T10:14:42Z</time>
      </trkpt>
      <trkpt lat="48.37209" lon="2.78278">
        <ele>99.7</ele>
        <time>2018-04-14T10:14:43Z</time>
      </trkpt>
      <trkpt lat="48.37211" lon="2.78282">
        <ele>99.6</ele>
        <time>2018-04-14T10:14:44Z</time>
      </trkpt>
      <trkpt lat="48.37213" lon="2.78286">
        <ele>99.5</ele>
        <time>2018-04-14T10:14:45Z</time>
      </trkpt>
      <trkpt lat="48.37215" lon="2.78291">
        <ele>99.5</ele>
        <time>2018-04-14T10:14:46Z</time>
      </trkpt>
      <trkpt lat="48.37217" lon="2.78297">
        <ele>99.4</ele>
        <time>2018-04-14T10:14:47Z</time>
      </trkpt>
      <trkpt lat="48.37219" lon="2.78301">
        <ele>99.3</ele>
        <time>2018-04-14T10:14:48Z</time>
      </trkpt>
      <trkpt lat="48.37221" lon="2.78305">
        <ele>99.2</ele>
        <time>2018-04-14T10:14:49Z</time>
      </trkpt>
      <trkpt lat="48.37223" lon="2.78309">
        <ele>99.1</ele>
        <time>2018-04-14T10:14:50Z</time>
      </trkpt>
      <trkpt lat="48.37225" lon="2.78314">
        <ele>99</ele>
        <time>2018-04-14T10:14:51Z</time>
      </trkpt>
      <trkpt lat="48.37229" lon="2.78322">
        <ele>98.9</ele>
        <time>2018-04-14T10:14:53Z</time>
      </trkpt>
      <trkpt lat="48.37232" lon="2.78326">
        <ele>98.8</ele>
        <time>2018-04-14T10:14:54Z</time>
      </trkpt>
      <trkpt lat="48.37234" lon="2.7833">
        <ele>98.8</ele>
        <time>2018-04-14T10:14:55Z</time>
      </trkpt>
      <trkpt lat="48.37237" lon="2.78335">
        <ele>98.8</ele>
        <time>2018-04-14T10:14:57Z</time>
      </trkpt>
      <trkpt lat="48.37241" lon="2.7834">
        <ele>99</ele>
        <time>2018-04-14T10:14:59Z</time>
      </trkpt>
      <trkpt lat="48.37245" lon="2.78344">
        <ele>99.6</ele>
        <time>2018-04-14T10:15:01Z</time>
      </trkpt>
      <trkpt lat="48.37247" lon="2.78347">
        <ele>99.9</ele>
        <time>2018-04-14T10:15:02Z</time>
      </trkpt>
      <trkpt lat="48.3725" lon="2.78352">
        <ele>100.1</ele>
        <time>2018-04-14T10:15:03Z</time>
      </trkpt>
      <trkpt lat="48.37253" lon="2.78357">
        <ele>100.2</ele>
        <time>2018-04-14T10:15:04Z</time>
      </trkpt>
      <trkpt lat="48.37256" lon="2.78363">
        <ele>100.2</ele>
        <time>2018-04-14T10:15:05Z</time>
      </trkpt>
      <trkpt lat="48.37258" lon="2.78369">
        <ele>100.2</ele>
        <time>2018-04-14T10:15:06Z</time>
      </trkpt>
      <trkpt lat="48.3726" lon="2.78374">
        <ele>100.2</ele>
        <time>2018-04-14T10:15:07Z</time>
      </trkpt>
      <trkpt lat="48.37262" lon="2.78378">
        <ele>100.3</ele>
        <time>2018-04-14T10:15:08Z</time>
      </trkpt>
      <trkpt lat="48.37264" lon="2.78382">
        <ele>100.6</ele>
        <time>2018-04-14T10:15:09Z</time>
      </trkpt>
      <trkpt lat="48.37267" lon="2.78388">
        <ele>101.2</ele>
        <time>2018-04-14T10:15:11Z</time>
      </trkpt>
      <trkpt lat="48.37269" lon="2.78392">
        <ele>101.8</ele>
        <time>2018-04-14T10:15:12Z</time>
      </trkpt>
      <trkpt lat="48.3727" lon="2.78396">
        <ele>101.9</ele>
        <time>2018-04-14T10:15:13Z</time>
      </trkpt>
      <trkpt lat="48.37271" lon="2.784">
        <ele>101.8</ele>
        <time>2018-04-14T10:15:14Z</time>
      </trkpt>
      <trkpt lat="48.37273" lon="2.78405">
        <ele>101.7</ele>
        <time>2018-04-14T10:15:15Z</time>
      </trkpt>
      <trkpt lat="48.37275" lon="2.78409">
        <ele>101.5</ele>
        <time>2018-04-14T10:15:16Z</time>
      </trkpt>
      <trkpt lat="48.37276" lon="2.78414">
        <ele>101.3</ele>
        <time>2018-04-14T10:15:17Z</time>
      </trkpt>
      <trkpt lat="48.37277" lon="2.78419">
        <ele>101.2</ele>
        <time>2018-04-14T10:15:18Z</time>
      </trkpt>
      <trkpt lat="48.37278" lon="2.78425">
        <ele>101</ele>
        <time>2018-04-14T10:15:19Z</time>
      </trkpt>
      <trkpt lat="48.37278" lon="2.78434">
        <ele>100.8</ele>
        <time>2018-04-14T10:15:20Z</time>
      </trkpt>
      <trkpt lat="48.37279" lon="2.78444">
        <ele>100.5</ele>
        <time>2018-04-14T10:15:21Z</time>
      </trkpt>
      <trkpt lat="48.3728" lon="2.78451">
        <ele>100.3</ele>
        <time>2018-04-14T10:15:22Z</time>
      </trkpt>
      <trkpt lat="48.37281" lon="2.78458">
        <ele>100.2</ele>
        <time>2018-04-14T10:15:23Z</time>
      </trkpt>
      <trkpt lat="48.37282" lon="2.78466">
        <ele>100</ele>
        <time>2018-04-14T10:15:24Z</time>
      </trkpt>
      <trkpt lat="48.37283" lon="2.78475">
        <ele>99.8</ele>
        <time>2018-04-14T10:15:25Z</time>
      </trkpt>
      <trkpt lat="48.37283" lon="2.78483">
        <ele>99.6</ele>
        <time>2018-04-14T10:15:26Z</time>
      </trkpt>
      <trkpt lat="48.37284" lon="2.7849">
        <ele>99.4</ele>
        <time>2018-04-14T10:15:27Z</time>
      </trkpt>
      <trkpt lat="48.37284" lon="2.78497">
        <ele>99.3</ele>
        <time>2018-04-14T10:15:28Z</time>
      </trkpt>
      <trkpt lat="48.37285" lon="2.78505">
        <ele>99.1</ele>
        <time>2018-04-14T10:15:29Z</time>
      </trkpt>
      <trkpt lat="48.37286" lon="2.78513">
        <ele>98.9</ele>
        <time>2018-04-14T10:15:30Z</time>
      </trkpt>
      <trkpt lat="48.37288" lon="2.7852">
        <ele>98.7</ele>
        <time>2018-04-14T10:15:31Z</time>
      </trkpt>
      <trkpt lat="48.3729" lon="2.78528">
        <ele>98.5</ele>
        <time>2018-04-14T10:15:32Z</time>
      </trkpt>
      <trkpt lat="48.37292" lon="2.78534">
        <ele>98.2</ele>
        <time>2018-04-14T10:15:33Z</time>
      </trkpt>
      <trkpt lat="48.37294" lon="2.78539">
        <ele>98</ele>
        <time>2018-04-14T10:15:34Z</time>
      </trkpt>
      <trkpt lat="48.37296" lon="2.78544">
        <ele>98.1</ele>
        <time>2018-04-14T10:15:35Z</time>
      </trkpt>
      <trkpt lat="48.37297" lon="2.78549">
        <ele>98.3</ele>
        <time>2018-04-14T10:15:36Z</time>
      </trkpt>
      <trkpt lat="48.37298" lon="2.78555">
        <ele>98.4</ele>
        <time>2018-04-14T10:15:37Z</time>
      </trkpt>
      <trkpt lat="48.37299" lon="2.78562">
        <ele>98.6</ele>
        <time>2018-04-14T10:15:38Z</time>
      </trkpt>
      <trkpt lat="48.37301" lon="2.78568">
        <ele>98.9</ele>
        <time>2018-04-14T10:15:39Z</time>
      </trkpt>
      <trkpt lat="48.37303" lon="2.78576">
        <ele>99.1</ele>
        <time>2018-04-14T10:15:40Z</time>
      </trkpt>
      <trkpt lat="48.37303" lon="2.78581">
        <ele>99.2</ele>
        <time>2018-04-14T10:15:41Z</time>
      </trkpt>
      <trkpt lat="48.37304" lon="2.78587">
        <ele>99.3</ele>
        <time>2018-04-14T10:15:42Z</time>
      </trkpt>
      <trkpt lat="48.37306" lon="2.78594">
        <ele>99.4</ele>
        <time>2018-04-14T10:15:43Z</time>
      </trkpt>
      <trkpt lat="48.37308" lon="2.786">
        <ele>99.5</ele>
        <time>2018-04-14T10:15:44Z</time>
      </trkpt>
      <trkpt lat="48.3731" lon="2.78606">
        <ele>99.6</ele>
        <time>2018-04-14T10:15:45Z</time>
      </trkpt>
      <trkpt lat="48.37312" lon="2.78612">
        <ele>99.7</ele>
        <time>2018-04-14T10:15:46Z</time>
      </trkpt>
      <trkpt lat="48.37312" lon="2.78618">
        <ele>99.7</ele>
        <time>2018-04-14T10:15:47Z</time>
      </trkpt>
      <trkpt lat="48.37313" lon="2.78627">
        <ele>99.8</ele>
        <time>2018-04-14T10:15:48Z</time>
      </trkpt>
      <trkpt lat="48.37313" lon="2.78631">
        <ele>99.9</ele>
        <time>2018-04-14T10:15:49Z</time>
      </trkpt>
      <trkpt lat="48.37314" lon="2.78636">
        <ele>100</ele>
        <time>2018-04-14T10:15:50Z</time>
      </trkpt>
      <trkpt lat="48.37316" lon="2.78644">
        <ele>99.9</ele>
        <time>2018-04-14T10:15:52Z</time>
      </trkpt>
      <trkpt lat="48.37317" lon="2.78649">
        <ele>99.9</ele>
        <time>2018-04-14T10:15:53Z</time>
      </trkpt>
      <trkpt lat="48.37319" lon="2.78654">
        <ele>99.8</ele>
        <time>2018-04-14T10:15:54Z</time>
      </trkpt>
      <trkpt lat="48.37321" lon="2.7866">
        <ele>99.8</ele>
        <time>2018-04-14T10:15:55Z</time>
      </trkpt>
      <trkpt lat="48.37323" lon="2.78665">
        <ele>99.7</ele>
        <time>2018-04-14T10:15:56Z</time>
      </trkpt>
      <trkpt lat="48.37325" lon="2.78671">
        <ele>99.6</ele>
        <time>2018-04-14T10:15:57Z</time>
      </trkpt>
      <trkpt lat="48.37326" lon="2.78676">
        <ele>99.6</ele>
        <time>2018-04-14T10:15:58Z</time>
      </trkpt>
      <trkpt lat="48.37328" lon="2.78683">
        <ele>99.5</ele>
        <time>2018-04-14T10:15:59Z</time>
      </trkpt>
      <trkpt lat="48.3733" lon="2.78689">
        <ele>99.4</ele>
        <time>2018-04-14T10:16:00Z</time>
      </trkpt>
      <trkpt lat="48.37332" lon="2.78696">
        <ele>99.3</ele>
        <time>2018-04-14T10:16:01Z</time>
      </trkpt>
      <trkpt lat="48.37335" lon="2.78702">
        <ele>99.3</ele>
        <time>2018-04-14T10:16:02Z</time>
      </trkpt>
      <trkpt lat="48.37336" lon="2.78707">
        <ele>99.2</ele>
        <time>2018-04-14T10:16:03Z</time>
      </trkpt>
      <trkpt lat="48.37338" lon="2.78713">
        <ele>99.2</ele>
        <time>2018-04-14T10:16:04Z</time>
      </trkpt>
      <trkpt lat="48.3734" lon="2.78718">
        <ele>99.1</ele>
        <time>2018-04-14T10:16:05Z</time>
      </trkpt>
      <trkpt lat="48.37341" lon="2.78723">
        <ele>99.1</ele>
        <time>2018-04-14T10:16:06Z</time>
      </trkpt>
      <trkpt lat="48.37341" lon="2.78728">
        <ele>98.9</ele>
        <time>2018-04-14T10:16:07Z</time>
      </trkpt>
      <trkpt lat="48.37341" lon="2.78733">
        <ele>98.7</ele>
        <time>2018-04-14T10:16:08Z</time>
      </trkpt>
      <trkpt lat="48.3734" lon="2.78743">
        <ele>98.2</ele>
        <time>2018-04-14T10:16:10Z</time>
      </trkpt>
      <trkpt lat="48.37339" lon="2.78748">
        <ele>98</ele>
        <time>2018-04-14T10:16:11Z</time>
      </trkpt>
      <trkpt lat="48.37338" lon="2.78754">
        <ele>97.8</ele>
        <time>2018-04-14T10:16:13Z</time>
      </trkpt>
      <trkpt lat="48.37336" lon="2.78758">
        <ele>97.6</ele>
        <time>2018-04-14T10:16:15Z</time>
      </trkpt>
      <trkpt lat="48.37339" lon="2.78779">
        <ele>96.6</ele>
        <time>2018-04-14T10:16:26Z</time>
      </trkpt>
      <trkpt lat="48.37341" lon="2.78783">
        <ele>96.3</ele>
        <time>2018-04-14T10:16:31Z</time>
      </trkpt>
      <trkpt lat="48.37346" lon="2.78787">
        <ele>95.8</ele>
        <time>2018-04-14T10:16:33Z</time>
      </trkpt>
      <trkpt lat="48.37349" lon="2.78785">
        <ele>95.5</ele>
        <time>2018-04-14T10:16:38Z</time>
      </trkpt>
      <trkpt lat="48.37351" lon="2.78781">
        <ele>95.2</ele>
        <time>2018-04-14T10:16:47Z</time>
      </trkpt>
      <trkpt lat="48.37353" lon="2.78782">
        <ele>95</ele>
        <time>2018-04-14T10:17:02Z</time>
      </trkpt>
      <trkpt lat="48.37356" lon="2.78782">
        <ele>95</ele>
        <time>2018-04-14T10:17:23Z</time>
      </trkpt>
      <trkpt lat="48.37356" lon="2.78788">
        <ele>95</ele>
        <time>2018-04-14T10:17:34Z</time>
      </trkpt>
      <trkpt lat="48.37354" lon="2.78791">
        <ele>95.1</ele>
        <time>2018-04-14T10:17:36Z</time>
      </trkpt>
      <trkpt lat="48.37352" lon="2.78797">
        <ele>95.1</ele>
        <time>2018-04-14T10:17:38Z</time>
      </trkpt>
      <trkpt lat="48.37349" lon="2.788">
        <ele>95.2</ele>
        <time>2018-04-14T10:17:39Z</time>
      </trkpt>
      <trkpt lat="48.37347" lon="2.78805">
        <ele>95.3</ele>
        <time>2018-04-14T10:17:41Z</time>
      </trkpt>
      <trkpt lat="48.37345" lon="2.78808">
        <ele>95.4</ele>
        <time>2018-04-14T10:17:44Z</time>
      </trkpt>
      <trkpt lat="48.37342" lon="2.78811">
        <ele>95.5</ele>
        <time>2018-04-14T10:17:47Z</time>
      </trkpt>
      <trkpt lat="48.37339" lon="2.78816">
        <ele>95.7</ele>
        <time>2018-04-14T10:17:50Z</time>
      </trkpt>
      <trkpt lat="48.37336" lon="2.78821">
        <ele>95.9</ele>
        <time>2018-04-14T10:17:52Z</time>
      </trkpt>
      <trkpt lat="48.37333" lon="2.78826">
        <ele>96</ele>
        <time>2018-04-14T10:17:54Z</time>
      </trkpt>
      <trkpt lat="48.37331" lon="2.78828">
        <ele>96.1</ele>
        <time>2018-04-14T10:17:55Z</time>
      </trkpt>
      <trkpt lat="48.37329" lon="2.78831">
        <ele>96.1</ele>
        <time>2018-04-14T10:17:56Z</time>
      </trkpt>
      <trkpt lat="48.37327" lon="2.78834">
        <ele>96.2</ele>
        <time>2018-04-14T10:17:57Z</time>
      </trkpt>
      <trkpt lat="48.37325" lon="2.78838">
        <ele>96.3</ele>
        <time>2018-04-14T10:17:58Z</time>
      </trkpt>
      <trkpt lat="48.37323" lon="2.78841">
        <ele>96.3</ele>
        <time>2018-04-14T10:17:59Z</time>
      </trkpt>
      <trkpt lat="48.37319" lon="2.78847">
        <ele>96.5</ele>
        <time>2018-04-14T10:18:01Z</time>
      </trkpt>
      <trkpt lat="48.37315" lon="2.78851">
        <ele>96.6</ele>
        <time>2018-04-14T10:18:03Z</time>
      </trkpt>
      <trkpt lat="48.37311" lon="2.78857">
        <ele>96.9</ele>
        <time>2018-04-14T10:18:05Z</time>
      </trkpt>
      <trkpt lat="48.37309" lon="2.7886">
        <ele>97.1</ele>
        <time>2018-04-14T10:18:06Z</time>
      </trkpt>
      <trkpt lat="48.37306" lon="2.78863">
        <ele>97.3</ele>
        <time>2018-04-14T10:18:07Z</time>
      </trkpt>
      <trkpt lat="48.37301" lon="2.78868">
        <ele>97.5</ele>
        <time>2018-04-14T10:18:09Z</time>
      </trkpt>
      <trkpt lat="48.37298" lon="2.78872">
        <ele>97.7</ele>
        <time>2018-04-14T10:18:10Z</time>
      </trkpt>
      <trkpt lat="48.37295" lon="2.78876">
        <ele>97.9</ele>
        <time>2018-04-14T10:18:11Z</time>
      </trkpt>
      <trkpt lat="48.37292" lon="2.78879">
        <ele>98.1</ele>
        <time>2018-04-14T10:18:12Z</time>
      </trkpt>
      <trkpt lat="48.37288" lon="2.78883">
        <ele>98.4</ele>
        <time>2018-04-14T10:18:14Z</time>
      </trkpt>
      <trkpt lat="48.37284" lon="2.78887">
        <ele>98.6</ele>
        <time>2018-04-14T10:18:15Z</time>
      </trkpt>
      <trkpt lat="48.37282" lon="2.78889">
        <ele>98.8</ele>
        <time>2018-04-14T10:18:16Z</time>
      </trkpt>
      <trkpt lat="48.3728" lon="2.78892">
        <ele>99</ele>
        <time>2018-04-14T10:18:17Z</time>
      </trkpt>
      <trkpt lat="48.37277" lon="2.78896">
        <ele>99.2</ele>
        <time>2018-04-14T10:18:18Z</time>
      </trkpt>
      <trkpt lat="48.37274" lon="2.78898">
        <ele>99.4</ele>
        <time>2018-04-14T10:18:19Z</time>
      </trkpt>
      <trkpt lat="48.37271" lon="2.789">
        <ele>99.5</ele>
        <time>2018-04-14T10:18:20Z</time>
      </trkpt>
      <trkpt lat="48.37269" lon="2.78903">
        <ele>99.7</ele>
        <time>2018-04-14T10:18:21Z</time>
      </trkpt>
      <trkpt lat="48.37265" lon="2.78908">
        <ele>99.8</ele>
        <time>2018-04-14T10:18:22Z</time>
      </trkpt>
      <trkpt lat="48.37262" lon="2.78911">
        <ele>99.9</ele>
        <time>2018-04-14T10:18:23Z</time>
      </trkpt>
      <trkpt lat="48.3726" lon="2.78914">
        <ele>100</ele>
        <time>2018-04-14T10:18:24Z</time>
      </trkpt>
      <trkpt lat="48.37257" lon="2.78916">
        <ele>100</ele>
        <time>2018-04-14T10:18:25Z</time>
      </trkpt>
      <trkpt lat="48.37255" lon="2.78919">
        <ele>100.1</ele>
        <time>2018-04-14T10:18:26Z</time>
      </trkpt>
      <trkpt lat="48.37253" lon="2.78922">
        <ele>100.1</ele>
        <time>2018-04-14T10:18:27Z</time>
      </trkpt>
      <trkpt lat="48.37248" lon="2.78927">
        <ele>100.3</ele>
        <time>2018-04-14T10:18:29Z</time>
      </trkpt>
      <trkpt lat="48.37246" lon="2.7893">
        <ele>100.4</ele>
        <time>2018-04-14T10:18:30Z</time>
      </trkpt>
      <trkpt lat="48.37244" lon="2.78932">
        <ele>100.4</ele>
        <time>2018-04-14T10:18:31Z</time>
      </trkpt>
      <trkpt lat="48.37242" lon="2.78935">
        <ele>100.5</ele>
        <time>2018-04-14T10:18:32Z</time>
      </trkpt>
      <trkpt lat="48.3724" lon="2.78938">
        <ele>100.5</ele>
        <time>2018-04-14T10:18:33Z</time>
      </trkpt>
      <trkpt lat="48.37236" lon="2.78943">
        <ele>100.6</ele>
        <time>2018-04-14T10:18:35Z</time>
      </trkpt>
      <trkpt lat="48.37234" lon="2.78947">
        <ele>100.6</ele>
        <time>2018-04-14T10:18:37Z</time>
      </trkpt>
      <trkpt lat="48.37232" lon="2.78951">
        <ele>100.7</ele>
        <time>2018-04-14T10:18:39Z</time>
      </trkpt>
      <trkpt lat="48.3723" lon="2.78956">
        <ele>100.8</ele>
        <time>2018-04-14T10:18:41Z</time>
      </trkpt>
      <trkpt lat="48.37228" lon="2.7896">
        <ele>100.9</ele>
        <time>2018-04-14T10:18:42Z</time>
      </trkpt>
      <trkpt lat="48.37225" lon="2.78964">
        <ele>101</ele>
        <time>2018-04-14T10:18:43Z</time>
      </trkpt>
      <trkpt lat="48.37223" lon="2.78968">
        <ele>101.1</ele>
        <time>2018-04-14T10:18:44Z</time>
      </trkpt>
      <trkpt lat="48.37221" lon="2.78972">
        <ele>101.3</ele>
        <time>2018-04-14T10:18:45Z</time>
      </trkpt>
      <trkpt lat="48.37218" lon="2.78978">
        <ele>101.5</ele>
        <time>2018-04-14T10:18:47Z</time>
      </trkpt>
      <trkpt lat="48.37215" lon="2.78982">
        <ele>101.6</ele>
        <time>2018-04-14T10:18:48Z</time>
      </trkpt>
      <trkpt lat="48.37212" lon="2.78985">
        <ele>101.7</ele>
        <time>2018-04-14T10:18:49Z</time>
      </trkpt>
      <trkpt lat="48.3721" lon="2.78989">
        <ele>101.8</ele>
        <time>2018-04-14T10:18:50Z</time>
      </trkpt>
      <trkpt lat="48.37208" lon="2.78992">
        <ele>101.8</ele>
        <time>2018-04-14T10:18:51Z</time>
      </trkpt>
      <trkpt lat="48.37205" lon="2.78997">
        <ele>101.9</ele>
        <time>2018-04-14T10:18:52Z</time>
      </trkpt>
      <trkpt lat="48.37202" lon="2.79002">
        <ele>102</ele>
        <time>2018-04-14T10:18:53Z</time>
      </trkpt>
      <trkpt lat="48.37197" lon="2.79007">
        <ele>102</ele>
        <time>2018-04-14T10:18:55Z</time>
      </trkpt>
      <trkpt lat="48.37194" lon="2.79012">
        <ele>102</ele>
        <time>2018-04-14T10:18:56Z</time>
      </trkpt>
      <trkpt lat="48.37191" lon="2.79016">
        <ele>102.1</ele>
        <time>2018-04-14T10:18:57Z</time>
      </trkpt>
      <trkpt lat="48.37188" lon="2.79022">
        <ele>102.2</ele>
        <time>2018-04-14T10:18:58Z</time>
      </trkpt>
      <trkpt lat="48.37185" lon="2.79025">
        <ele>102.3</ele>
        <time>2018-04-14T10:18:59Z</time>
      </trkpt>
      <trkpt lat="48.37183" lon="2.79029">
        <ele>102.4</ele>
        <time>2018-04-14T10:19:00Z</time>
      </trkpt>
      <trkpt lat="48.3718" lon="2.79033">
        <ele>102.5</ele>
        <time>2018-04-14T10:19:01Z</time>
      </trkpt>
      <trkpt lat="48.37177" lon="2.79037">
        <ele>102.6</ele>
        <time>2018-04-14T10:19:02Z</time>
      </trkpt>
      <trkpt lat="48.37174" lon="2.79041">
        <ele>102.7</ele>
        <time>2018-04-14T10:19:03Z</time>
      </trkpt>
      <trkpt lat="48.37171" lon="2.79045">
        <ele>102.9</ele>
        <time>2018-04-14T10:19:04Z</time>
      </trkpt>
      <trkpt lat="48.37168" lon="2.79047">
        <ele>103</ele>
        <time>2018-04-14T10:19:05Z</time>
      </trkpt>
      <trkpt lat="48.37165" lon="2.7905">
        <ele>103.1</ele>
        <time>2018-04-14T10:19:06Z</time>
      </trkpt>
      <trkpt lat="48.37162" lon="2.79054">
        <ele>103.2</ele>
        <time>2018-04-14T10:19:08Z</time>
      </trkpt>
      <trkpt lat="48.37159" lon="2.79059">
        <ele>103.3</ele>
        <time>2018-04-14T10:19:10Z</time>
      </trkpt>
      <trkpt lat="48.37155" lon="2.79064">
        <ele>103.3</ele>
        <time>2018-04-14T10:19:12Z</time>
      </trkpt>
      <trkpt lat="48.37153" lon="2.79068">
        <ele>103.4</ele>
        <time>2018-04-14T10:19:13Z</time>
      </trkpt>
      <trkpt lat="48.37152" lon="2.79071">
        <ele>103.4</ele>
        <time>2018-04-14T10:19:14Z</time>
      </trkpt>
      <trkpt lat="48.37149" lon="2.79076">
        <ele>103.4</ele>
        <time>2018-04-14T10:19:16Z</time>
      </trkpt>
      <trkpt lat="48.37147" lon="2.7908">
        <ele>103.5</ele>
        <time>2018-04-14T10:19:17Z</time>
      </trkpt>
      <trkpt lat="48.37145" lon="2.79083">
        <ele>103.4</ele>
        <time>2018-04-14T10:19:18Z</time>
      </trkpt>
      <trkpt lat="48.37143" lon="2.79087">
        <ele>103.4</ele>
        <time>2018-04-14T10:19:19Z</time>
      </trkpt>
      <trkpt lat="48.37141" lon="2.79091">
        <ele>103.4</ele>
        <time>2018-04-14T10:19:20Z</time>
      </trkpt>
      <trkpt lat="48.37137" lon="2.79096">
        <ele>103.2</ele>
        <time>2018-04-14T10:19:22Z</time>
      </trkpt>
      <trkpt lat="48.37134" lon="2.79101">
        <ele>103.1</ele>
        <time>2018-04-14T10:19:23Z</time>
      </trkpt>
      <trkpt lat="48.37131" lon="2.79107">
        <ele>103.1</ele>
        <time>2018-04-14T10:19:24Z</time>
      </trkpt>
      <trkpt lat="48.37128" lon="2.79112">
        <ele>103</ele>
        <time>2018-04-14T10:19:25Z</time>
      </trkpt>
      <trkpt lat="48.37126" lon="2.79115">
        <ele>102.9</ele>
        <time>2018-04-14T10:19:26Z</time>
      </trkpt>
      <trkpt lat="48.37122" lon="2.79121">
        <ele>102.8</ele>
        <time>2018-04-14T10:19:27Z</time>
      </trkpt>
      <trkpt lat="48.3712" lon="2.79125">
        <ele>102.6</ele>
        <time>2018-04-14T10:19:28Z</time>
      </trkpt>
      <trkpt lat="48.37118" lon="2.79128">
        <ele>102.5</ele>
        <time>2018-04-14T10:19:29Z</time>
      </trkpt>
      <trkpt lat="48.37115" lon="2.7913">
        <ele>102.4</ele>
        <time>2018-04-14T10:19:30Z</time>
      </trkpt>
      <trkpt lat="48.37112" lon="2.79133">
        <ele>102.2</ele>
        <time>2018-04-14T10:19:31Z</time>
      </trkpt>
      <trkpt lat="48.37108" lon="2.7914">
        <ele>102</ele>
        <time>2018-04-14T10:19:32Z</time>
      </trkpt>
      <trkpt lat="48.37104" lon="2.79146">
        <ele>101.7</ele>
        <time>2018-04-14T10:19:33Z</time>
      </trkpt>
      <trkpt lat="48.37101" lon="2.79151">
        <ele>101.6</ele>
        <time>2018-04-14T10:19:34Z</time>
      </trkpt>
      <trkpt lat="48.37097" lon="2.79157">
        <ele>101.4</ele>
        <time>2018-04-14T10:19:35Z</time>
      </trkpt>
      <trkpt lat="48.37094" lon="2.79162">
        <ele>101.3</ele>
        <time>2018-04-14T10:19:36Z</time>
      </trkpt>
      <trkpt lat="48.37091" lon="2.79166">
        <ele>101.1</ele>
        <time>2018-04-14T10:19:37Z</time>
      </trkpt>
      <trkpt lat="48.37088" lon="2.79173">
        <ele>101</ele>
        <time>2018-04-14T10:19:39Z</time>
      </trkpt>
      <trkpt lat="48.37086" lon="2.79178">
        <ele>101</ele>
        <time>2018-04-14T10:19:40Z</time>
      </trkpt>
      <trkpt lat="48.37084" lon="2.79182">
        <ele>101</ele>
        <time>2018-04-14T10:19:41Z</time>
      </trkpt>
      <trkpt lat="48.37083" lon="2.79187">
        <ele>100.9</ele>
        <time>2018-04-14T10:19:42Z</time>
      </trkpt>
      <trkpt lat="48.37081" lon="2.79191">
        <ele>100.7</ele>
        <time>2018-04-14T10:19:43Z</time>
      </trkpt>
      <trkpt lat="48.37079" lon="2.79196">
        <ele>100.6</ele>
        <time>2018-04-14T10:19:44Z</time>
      </trkpt>
      <trkpt lat="48.37078" lon="2.792">
        <ele>100.4</ele>
        <time>2018-04-14T10:19:45Z</time>
      </trkpt>
      <trkpt lat="48.37077" lon="2.79205">
        <ele>100.3</ele>
        <time>2018-04-14T10:19:46Z</time>
      </trkpt>
      <trkpt lat="48.37075" lon="2.79211">
        <ele>100.2</ele>
        <time>2018-04-14T10:19:47Z</time>
      </trkpt>
      <trkpt lat="48.37074" lon="2.79217">
        <ele>100</ele>
        <time>2018-04-14T10:19:48Z</time>
      </trkpt>
      <trkpt lat="48.37073" lon="2.79223">
        <ele>99.9</ele>
        <time>2018-04-14T10:19:49Z</time>
      </trkpt>
      <trkpt lat="48.37072" lon="2.79229">
        <ele>99.8</ele>
        <time>2018-04-14T10:19:50Z</time>
      </trkpt>
      <trkpt lat="48.37071" lon="2.79233">
        <ele>99.7</ele>
        <time>2018-04-14T10:19:51Z</time>
      </trkpt>
      <trkpt lat="48.3707" lon="2.79238">
        <ele>99.6</ele>
        <time>2018-04-14T10:19:52Z</time>
      </trkpt>
      <trkpt lat="48.37069" lon="2.79242">
        <ele>99.5</ele>
        <time>2018-04-14T10:19:53Z</time>
      </trkpt>
      <trkpt lat="48.37069" lon="2.79246">
        <ele>99.4</ele>
        <time>2018-04-14T10:19:54Z</time>
      </trkpt>
      <trkpt lat="48.37067" lon="2.79254">
        <ele>99.3</ele>
        <time>2018-04-14T10:19:56Z</time>
      </trkpt>
      <trkpt lat="48.37064" lon="2.79262">
        <ele>99.2</ele>
        <time>2018-04-14T10:19:58Z</time>
      </trkpt>
      <trkpt lat="48.37061" lon="2.79268">
        <ele>99.1</ele>
        <time>2018-04-14T10:19:59Z</time>
      </trkpt>
      <trkpt lat="48.37059" lon="2.79273">
        <ele>99</ele>
        <time>2018-04-14T10:20:00Z</time>
      </trkpt>
      <trkpt lat="48.37057" lon="2.79278">
        <ele>99</ele>
        <time>2018-04-14T10:20:01Z</time>
      </trkpt>
      <trkpt lat="48.37054" lon="2.79284">
        <ele>98.8</ele>
        <time>2018-04-14T10:20:02Z</time>
      </trkpt>
      <trkpt lat="48.37053" lon="2.79291">
        <ele>98.8</ele>
        <time>2018-04-14T10:20:03Z</time>
      </trkpt>
      <trkpt lat="48.37052" lon="2.793">
        <ele>98.9</ele>
        <time>2018-04-14T10:20:04Z</time>
      </trkpt>
      <trkpt lat="48.37051" lon="2.79307">
        <ele>99</ele>
        <time>2018-04-14T10:20:05Z</time>
      </trkpt>
      <trkpt lat="48.3705" lon="2.79314">
        <ele>99.1</ele>
        <time>2018-04-14T10:20:06Z</time>
      </trkpt>
      <trkpt lat="48.37048" lon="2.79325">
        <ele>99.2</ele>
        <time>2018-04-14T10:20:08Z</time>
      </trkpt>
      <trkpt lat="48.37047" lon="2.79331">
        <ele>99.2</ele>
        <time>2018-04-14T10:20:09Z</time>
      </trkpt>
      <trkpt lat="48.37045" lon="2.79338">
        <ele>99.1</ele>
        <time>2018-04-14T10:20:10Z</time>
      </trkpt>
      <trkpt lat="48.37043" lon="2.79346">
        <ele>99.1</ele>
        <time>2018-04-14T10:20:11Z</time>
      </trkpt>
      <trkpt lat="48.37041" lon="2.79352">
        <ele>99.1</ele>
        <time>2018-04-14T10:20:12Z</time>
      </trkpt>
      <trkpt lat="48.3704" lon="2.7936">
        <ele>99</ele>
        <time>2018-04-14T10:20:13Z</time>
      </trkpt>
      <trkpt lat="48.37038" lon="2.79368">
        <ele>99</ele>
        <time>2018-04-14T10:20:14Z</time>
      </trkpt>
      <trkpt lat="48.37037" lon="2.79374">
        <ele>98.9</ele>
        <time>2018-04-14T10:20:15Z</time>
      </trkpt>
      <trkpt lat="48.37035" lon="2.7938">
        <ele>98.8</ele>
        <time>2018-04-14T10:20:16Z</time>
      </trkpt>
      <trkpt lat="48.37034" lon="2.79384">
        <ele>98.7</ele>
        <time>2018-04-14T10:20:17Z</time>
      </trkpt>
      <trkpt lat="48.37031" lon="2.7939">
        <ele>98.6</ele>
        <time>2018-04-14T10:20:18Z</time>
      </trkpt>
      <trkpt lat="48.37028" lon="2.79395">
        <ele>98.4</ele>
        <time>2018-04-14T10:20:19Z</time>
      </trkpt>
      <trkpt lat="48.37025" lon="2.79401">
        <ele>98.2</ele>
        <time>2018-04-14T10:20:20Z</time>
      </trkpt>
      <trkpt lat="48.37022" lon="2.79406">
        <ele>98</ele>
        <time>2018-04-14T10:20:21Z</time>
      </trkpt>
      <trkpt lat="48.3702" lon="2.7941">
        <ele>97.8</ele>
        <time>2018-04-14T10:20:22Z</time>
      </trkpt>
      <trkpt lat="48.37018" lon="2.79415">
        <ele>97.7</ele>
        <time>2018-04-14T10:20:23Z</time>
      </trkpt>
      <trkpt lat="48.37016" lon="2.7942">
        <ele>97.6</ele>
        <time>2018-04-14T10:20:24Z</time>
      </trkpt>
      <trkpt lat="48.37014" lon="2.79425">
        <ele>97.4</ele>
        <time>2018-04-14T10:20:25Z</time>
      </trkpt>
      <trkpt lat="48.37011" lon="2.79432">
        <ele>97.3</ele>
        <time>2018-04-14T10:20:26Z</time>
      </trkpt>
      <trkpt lat="48.37008" lon="2.79438">
        <ele>97.1</ele>
        <time>2018-04-14T10:20:27Z</time>
      </trkpt>
      <trkpt lat="48.37004" lon="2.79442">
        <ele>97</ele>
        <time>2018-04-14T10:20:28Z</time>
      </trkpt>
      <trkpt lat="48.37002" lon="2.79447">
        <ele>97</ele>
        <time>2018-04-14T10:20:29Z</time>
      </trkpt>
      <trkpt lat="48.36999" lon="2.79451">
        <ele>96.9</ele>
        <time>2018-04-14T10:20:30Z</time>
      </trkpt>
      <trkpt lat="48.36996" lon="2.79456">
        <ele>96.9</ele>
        <time>2018-04-14T10:20:31Z</time>
      </trkpt>
      <trkpt lat="48.36992" lon="2.79461">
        <ele>96.8</ele>
        <time>2018-04-14T10:20:32Z</time>
      </trkpt>
      <trkpt lat="48.36989" lon="2.79465">
        <ele>96.8</ele>
        <time>2018-04-14T10:20:33Z</time>
      </trkpt>
      <trkpt lat="48.36985" lon="2.79471">
        <ele>96.8</ele>
        <time>2018-04-14T10:20:34Z</time>
      </trkpt>
      <trkpt lat="48.36981" lon="2.79477">
        <ele>96.8</ele>
        <time>2018-04-14T10:20:35Z</time>
      </trkpt>
      <trkpt lat="48.36978" lon="2.79483">
        <ele>96.8</ele>
        <time>2018-04-14T10:20:36Z</time>
      </trkpt>
      <trkpt lat="48.36974" lon="2.79489">
        <ele>96.9</ele>
        <time>2018-04-14T10:20:37Z</time>
      </trkpt>
      <trkpt lat="48.3697" lon="2.79494">
        <ele>96.9</ele>
        <time>2018-04-14T10:20:38Z</time>
      </trkpt>
      <trkpt lat="48.36967" lon="2.79499">
        <ele>96.9</ele>
        <time>2018-04-14T10:20:39Z</time>
      </trkpt>
      <trkpt lat="48.36964" lon="2.79505">
        <ele>97</ele>
        <time>2018-04-14T10:20:40Z</time>
      </trkpt>
      <trkpt lat="48.36962" lon="2.79511">
        <ele>97</ele>
        <time>2018-04-14T10:20:41Z</time>
      </trkpt>
      <trkpt lat="48.36961" lon="2.79517">
        <ele>97</ele>
        <time>2018-04-14T10:20:42Z</time>
      </trkpt>
      <trkpt lat="48.36958" lon="2.79524">
        <ele>97.1</ele>
        <time>2018-04-14T10:20:43Z</time>
      </trkpt>
      <trkpt lat="48.36956" lon="2.79533">
        <ele>97.2</ele>
        <time>2018-04-14T10:20:44Z</time>
      </trkpt>
      <trkpt lat="48.36955" lon="2.79539">
        <ele>97.4</ele>
        <time>2018-04-14T10:20:45Z</time>
      </trkpt>
      <trkpt lat="48.36953" lon="2.79547">
        <ele>97.5</ele>
        <time>2018-04-14T10:20:46Z</time>
      </trkpt>
      <trkpt lat="48.36951" lon="2.79553">
        <ele>97.7</ele>
        <time>2018-04-14T10:20:47Z</time>
      </trkpt>
      <trkpt lat="48.36949" lon="2.79562">
        <ele>98</ele>
        <time>2018-04-14T10:20:48Z</time>
      </trkpt>
      <trkpt lat="48.36947" lon="2.79571">
        <ele>98.3</ele>
        <time>2018-04-14T10:20:49Z</time>
      </trkpt>
      <trkpt lat="48.36944" lon="2.79578">
        <ele>98.6</ele>
        <time>2018-04-14T10:20:50Z</time>
      </trkpt>
      <trkpt lat="48.36942" lon="2.79585">
        <ele>98.9</ele>
        <time>2018-04-14T10:20:51Z</time>
      </trkpt>
      <trkpt lat="48.3694" lon="2.79592">
        <ele>99.2</ele>
        <time>2018-04-14T10:20:52Z</time>
      </trkpt>
      <trkpt lat="48.36938" lon="2.79599">
        <ele>99.4</ele>
        <time>2018-04-14T10:20:53Z</time>
      </trkpt>
      <trkpt lat="48.36936" lon="2.79607">
        <ele>99.6</ele>
        <time>2018-04-14T10:20:54Z</time>
      </trkpt>
      <trkpt lat="48.36934" lon="2.79614">
        <ele>99.5</ele>
        <time>2018-04-14T10:20:55Z</time>
      </trkpt>
      <trkpt lat="48.36932" lon="2.79622">
        <ele>99.5</ele>
        <time>2018-04-14T10:20:56Z</time>
      </trkpt>
      <trkpt lat="48.3693" lon="2.79627">
        <ele>99.4</ele>
        <time>2018-04-14T10:20:57Z</time>
      </trkpt>
      <trkpt lat="48.36928" lon="2.79634">
        <ele>99.2</ele>
        <time>2018-04-14T10:20:58Z</time>
      </trkpt>
      <trkpt lat="48.36926" lon="2.79641">
        <ele>99.1</ele>
        <time>2018-04-14T10:20:59Z</time>
      </trkpt>
      <trkpt lat="48.36924" lon="2.79649">
        <ele>98.9</ele>
        <time>2018-04-14T10:21:00Z</time>
      </trkpt>
      <trkpt lat="48.36922" lon="2.79657">
        <ele>98.7</ele>
        <time>2018-04-14T10:21:01Z</time>
      </trkpt>
      <trkpt lat="48.3692" lon="2.79664">
        <ele>98.6</ele>
        <time>2018-04-14T10:21:02Z</time>
      </trkpt>
      <trkpt lat="48.36918" lon="2.79671">
        <ele>98.5</ele>
        <time>2018-04-14T10:21:03Z</time>
      </trkpt>
      <trkpt lat="48.36917" lon="2.79677">
        <ele>98.4</ele>
        <time>2018-04-14T10:21:04Z</time>
      </trkpt>
      <trkpt lat="48.36915" lon="2.79686">
        <ele>98.3</ele>
        <time>2018-04-14T10:21:05Z</time>
      </trkpt>
      <trkpt lat="48.36913" lon="2.79693">
        <ele>98.3</ele>
        <time>2018-04-14T10:21:06Z</time>
      </trkpt>
      <trkpt lat="48.36911" lon="2.79703">
        <ele>98.2</ele>
        <time>2018-04-14T10:21:07Z</time>
      </trkpt>
      <trkpt lat="48.36908" lon="2.79711">
        <ele>98.2</ele>
        <time>2018-04-14T10:21:08Z</time>
      </trkpt>
      <trkpt lat="48.36906" lon="2.7972">
        <ele>98.3</ele>
        <time>2018-04-14T10:21:09Z</time>
      </trkpt>
      <trkpt lat="48.36906" lon="2.79727">
        <ele>98.3</ele>
        <time>2018-04-14T10:21:10Z</time>
      </trkpt>
      <trkpt lat="48.36904" lon="2.79735">
        <ele>98.4</ele>
        <time>2018-04-14T10:21:11Z</time>
      </trkpt>
      <trkpt lat="48.36903" lon="2.79745">
        <ele>98.4</ele>
        <time>2018-04-14T10:21:12Z</time>
      </trkpt>
      <trkpt lat="48.36902" lon="2.79755">
        <ele>98.4</ele>
        <time>2018-04-14T10:21:13Z</time>
      </trkpt>
      <trkpt lat="48.369" lon="2.79764">
        <ele>98.4</ele>
        <time>2018-04-14T10:21:14Z</time>
      </trkpt>
      <trkpt lat="48.36899" lon="2.79773">
        <ele>98.4</ele>
        <time>2018-04-14T10:21:15Z</time>
      </trkpt>
      <trkpt lat="48.36898" lon="2.79782">
        <ele>98.4</ele>
        <time>2018-04-14T10:21:16Z</time>
      </trkpt>
      <trkpt lat="48.36897" lon="2.79792">
        <ele>98.3</ele>
        <time>2018-04-14T10:21:17Z</time>
      </trkpt>
      <trkpt lat="48.36896" lon="2.79801">
        <ele>98.3</ele>
        <time>2018-04-14T10:21:18Z</time>
      </trkpt>
      <trkpt lat="48.36895" lon="2.7981">
        <ele>98.2</ele>
        <time>2018-04-14T10:21:19Z</time>
      </trkpt>
      <trkpt lat="48.36894" lon="2.79818">
        <ele>98.1</ele>
        <time>2018-04-14T10:21:20Z</time>
      </trkpt>
      <trkpt lat="48.36893" lon="2.79826">
        <ele>98</ele>
        <time>2018-04-14T10:21:21Z</time>
      </trkpt>
      <trkpt lat="48.36893" lon="2.79832">
        <ele>98.4</ele>
        <time>2018-04-14T10:21:22Z</time>
      </trkpt>
      <trkpt lat="48.36891" lon="2.79838">
        <ele>98.5</ele>
        <time>2018-04-14T10:21:23Z</time>
      </trkpt>
      <trkpt lat="48.36889" lon="2.79845">
        <ele>98.7</ele>
        <time>2018-04-14T10:21:24Z</time>
      </trkpt>
      <trkpt lat="48.36887" lon="2.79851">
        <ele>98.8</ele>
        <time>2018-04-14T10:21:25Z</time>
      </trkpt>
      <trkpt lat="48.36886" lon="2.79857">
        <ele>99</ele>
        <time>2018-04-14T10:21:26Z</time>
      </trkpt>
      <trkpt lat="48.36883" lon="2.79864">
        <ele>99</ele>
        <time>2018-04-14T10:21:27Z</time>
      </trkpt>
      <trkpt lat="48.36881" lon="2.79872">
        <ele>99.1</ele>
        <time>2018-04-14T10:21:28Z</time>
      </trkpt>
      <trkpt lat="48.3688" lon="2.79879">
        <ele>99.2</ele>
        <time>2018-04-14T10:21:29Z</time>
      </trkpt>
      <trkpt lat="48.36878" lon="2.79884">
        <ele>99.2</ele>
        <time>2018-04-14T10:21:30Z</time>
      </trkpt>
      <trkpt lat="48.36875" lon="2.79891">
        <ele>99.3</ele>
        <time>2018-04-14T10:21:31Z</time>
      </trkpt>
      <trkpt lat="48.36873" lon="2.79898">
        <ele>99.4</ele>
        <time>2018-04-14T10:21:32Z</time>
      </trkpt>
      <trkpt lat="48.36872" lon="2.79906">
        <ele>99.5</ele>
        <time>2018-04-14T10:21:33Z</time>
      </trkpt>
      <trkpt lat="48.36872" lon="2.79914">
        <ele>99.5</ele>
        <time>2018-04-14T10:21:34Z</time>
      </trkpt>
      <trkpt lat="48.36872" lon="2.79921">
        <ele>99.6</ele>
        <time>2018-04-14T10:21:35Z</time>
      </trkpt>
      <trkpt lat="48.36873" lon="2.79928">
        <ele>99.7</ele>
        <time>2018-04-14T10:21:36Z</time>
      </trkpt>
      <trkpt lat="48.36874" lon="2.79932">
        <ele>99.7</ele>
        <time>2018-04-14T10:21:37Z</time>
      </trkpt>
      <trkpt lat="48.36877" lon="2.79936">
        <ele>99.8</ele>
        <time>2018-04-14T10:21:38Z</time>
      </trkpt>
      <trkpt lat="48.36878" lon="2.79941">
        <ele>99.8</ele>
        <time>2018-04-14T10:21:39Z</time>
      </trkpt>
      <trkpt lat="48.3688" lon="2.79945">
        <ele>99.9</ele>
        <time>2018-04-14T10:21:40Z</time>
      </trkpt>
      <trkpt lat="48.36884" lon="2.79953">
        <ele>100</ele>
        <time>2018-04-14T10:21:41Z</time>
      </trkpt>
      <trkpt lat="48.36887" lon="2.79958">
        <ele>99.9</ele>
        <time>2018-04-14T10:21:42Z</time>
      </trkpt>
      <trkpt lat="48.36891" lon="2.79965">
        <ele>99.9</ele>
        <time>2018-04-14T10:21:43Z</time>
      </trkpt>
      <trkpt lat="48.36893" lon="2.79969">
        <ele>99.9</ele>
        <time>2018-04-14T10:21:44Z</time>
      </trkpt>
      <trkpt lat="48.36897" lon="2.79975">
        <ele>99.8</ele>
        <time>2018-04-14T10:21:45Z</time>
      </trkpt>
      <trkpt lat="48.36901" lon="2.79983">
        <ele>99.8</ele>
        <time>2018-04-14T10:21:46Z</time>
      </trkpt>
      <trkpt lat="48.36904" lon="2.79989">
        <ele>99.8</ele>
        <time>2018-04-14T10:21:47Z</time>
      </trkpt>
      <trkpt lat="48.36906" lon="2.79991">
        <ele>99.7</ele>
        <time>2018-04-14T10:21:48Z</time>
      </trkpt>
      <trkpt lat="48.3691" lon="2.79998">
        <ele>99.7</ele>
        <time>2018-04-14T10:21:49Z</time>
      </trkpt>
      <trkpt lat="48.36912" lon="2.80004">
        <ele>99.7</ele>
        <time>2018-04-14T10:21:50Z</time>
      </trkpt>
      <trkpt lat="48.36913" lon="2.8001">
        <ele>99.6</ele>
        <time>2018-04-14T10:21:51Z</time>
      </trkpt>
      <trkpt lat="48.36914" lon="2.80018">
        <ele>99.5</ele>
        <time>2018-04-14T10:21:52Z</time>
      </trkpt>
      <trkpt lat="48.36913" lon="2.80026">
        <ele>99.5</ele>
        <time>2018-04-14T10:21:53Z</time>
      </trkpt>
      <trkpt lat="48.36913" lon="2.80035">
        <ele>99.4</ele>
        <time>2018-04-14T10:21:54Z</time>
      </trkpt>
      <trkpt lat="48.36915" lon="2.80043">
        <ele>99.4</ele>
        <time>2018-04-14T10:21:55Z</time>
      </trkpt>
      <trkpt lat="48.36915" lon="2.8005">
        <ele>99.3</ele>
        <time>2018-04-14T10:21:56Z</time>
      </trkpt>
      <trkpt lat="48.36917" lon="2.80056">
        <ele>99.3</ele>
        <time>2018-04-14T10:21:57Z</time>
      </trkpt>
      <trkpt lat="48.36918" lon="2.80061">
        <ele>99.3</ele>
        <time>2018-04-14T10:21:58Z</time>
      </trkpt>
      <trkpt lat="48.36919" lon="2.80064">
        <ele>99.3</ele>
        <time>2018-04-14T10:21:59Z</time>
      </trkpt>
      <trkpt lat="48.36921" lon="2.80069">
        <ele>99.3</ele>
        <time>2018-04-14T10:22:00Z</time>
      </trkpt>
      <trkpt lat="48.36922" lon="2.80075">
        <ele>99.3</ele>
        <time>2018-04-14T10:22:01Z</time>
      </trkpt>
      <trkpt lat="48.36923" lon="2.8008">
        <ele>99.4</ele>
        <time>2018-04-14T10:22:02Z</time>
      </trkpt>
      <trkpt lat="48.36924" lon="2.80086">
        <ele>99.4</ele>
        <time>2018-04-14T10:22:03Z</time>
      </trkpt>
      <trkpt lat="48.36925" lon="2.80092">
        <ele>99.4</ele>
        <time>2018-04-14T10:22:04Z</time>
      </trkpt>
      <trkpt lat="48.36926" lon="2.801">
        <ele>99.5</ele>
        <time>2018-04-14T10:22:05Z</time>
      </trkpt>
      <trkpt lat="48.36927" lon="2.80106">
        <ele>99.5</ele>
        <time>2018-04-14T10:22:06Z</time>
      </trkpt>
      <trkpt lat="48.36928" lon="2.80112">
        <ele>99.5</ele>
        <time>2018-04-14T10:22:07Z</time>
      </trkpt>
      <trkpt lat="48.36929" lon="2.80122">
        <ele>99.6</ele>
        <time>2018-04-14T10:22:08Z</time>
      </trkpt>
      <trkpt lat="48.3693" lon="2.80129">
        <ele>99.6</ele>
        <time>2018-04-14T10:22:09Z</time>
      </trkpt>
      <trkpt lat="48.36931" lon="2.80135">
        <ele>99.7</ele>
        <time>2018-04-14T10:22:10Z</time>
      </trkpt>
      <trkpt lat="48.36932" lon="2.80142">
        <ele>99.7</ele>
        <time>2018-04-14T10:22:11Z</time>
      </trkpt>
      <trkpt lat="48.36933" lon="2.80149">
        <ele>99.8</ele>
        <time>2018-04-14T10:22:12Z</time>
      </trkpt>
      <trkpt lat="48.36932" lon="2.80157">
        <ele>99.9</ele>
        <time>2018-04-14T10:22:13Z</time>
      </trkpt>
      <trkpt lat="48.36932" lon="2.80163">
        <ele>99.9</ele>
        <time>2018-04-14T10:22:14Z</time>
      </trkpt>
      <trkpt lat="48.36931" lon="2.80167">
        <ele>99.9</ele>
        <time>2018-04-14T10:22:15Z</time>
      </trkpt>
      <trkpt lat="48.36932" lon="2.80172">
        <ele>99.8</ele>
        <time>2018-04-14T10:22:16Z</time>
      </trkpt>
      <trkpt lat="48.36934" lon="2.8018">
        <ele>99.6</ele>
        <time>2018-04-14T10:22:17Z</time>
      </trkpt>
      <trkpt lat="48.36935" lon="2.80185">
        <ele>99.5</ele>
        <time>2018-04-14T10:22:18Z</time>
      </trkpt>
      <trkpt lat="48.36936" lon="2.8019">
        <ele>99.5</ele>
        <time>2018-04-14T10:22:19Z</time>
      </trkpt>
      <trkpt lat="48.36937" lon="2.80194">
        <ele>99.4</ele>
        <time>2018-04-14T10:22:20Z</time>
      </trkpt>
      <trkpt lat="48.36941" lon="2.80201">
        <ele>99.3</ele>
        <time>2018-04-14T10:22:21Z</time>
      </trkpt>
      <trkpt lat="48.36943" lon="2.80205">
        <ele>99.2</ele>
        <time>2018-04-14T10:22:22Z</time>
      </trkpt>
      <trkpt lat="48.36944" lon="2.8021">
        <ele>99.1</ele>
        <time>2018-04-14T10:22:23Z</time>
      </trkpt>
      <trkpt lat="48.36947" lon="2.80212">
        <ele>99</ele>
        <time>2018-04-14T10:22:24Z</time>
      </trkpt>
      <trkpt lat="48.3695" lon="2.80216">
        <ele>98</ele>
        <time>2018-04-14T10:22:25Z</time>
      </trkpt>
      <trkpt lat="48.36953" lon="2.8022">
        <ele>98</ele>
        <time>2018-04-14T10:22:26Z</time>
      </trkpt>
      <trkpt lat="48.36958" lon="2.80226">
        <ele>98</ele>
        <time>2018-04-14T10:22:27Z</time>
      </trkpt>
      <trkpt lat="48.36967" lon="2.80232">
        <ele>97.8</ele>
        <time>2018-04-14T10:22:28Z</time>
      </trkpt>
      <trkpt lat="48.36971" lon="2.80236">
        <ele>98.7</ele>
        <time>2018-04-14T10:22:29Z</time>
      </trkpt>
      <trkpt lat="48.36974" lon="2.80239">
        <ele>99.2</ele>
        <time>2018-04-14T10:22:30Z</time>
      </trkpt>
      <trkpt lat="48.36977" lon="2.80242">
        <ele>99.3</ele>
        <time>2018-04-14T10:22:31Z</time>
      </trkpt>
      <trkpt lat="48.36982" lon="2.80246">
        <ele>99.5</ele>
        <time>2018-04-14T10:22:32Z</time>
      </trkpt>
      <trkpt lat="48.36984" lon="2.80248">
        <ele>99.7</ele>
        <time>2018-04-14T10:22:33Z</time>
      </trkpt>
      <trkpt lat="48.36988" lon="2.80251">
        <ele>99.9</ele>
        <time>2018-04-14T10:22:34Z</time>
      </trkpt>
      <trkpt lat="48.36993" lon="2.80255">
        <ele>100.1</ele>
        <time>2018-04-14T10:22:35Z</time>
      </trkpt>
      <trkpt lat="48.36997" lon="2.80258">
        <ele>100.3</ele>
        <time>2018-04-14T10:22:36Z</time>
      </trkpt>
      <trkpt lat="48.37001" lon="2.80262">
        <ele>100.4</ele>
        <time>2018-04-14T10:22:37Z</time>
      </trkpt>
      <trkpt lat="48.37005" lon="2.80265">
        <ele>100.3</ele>
        <time>2018-04-14T10:22:38Z</time>
      </trkpt>
      <trkpt lat="48.3701" lon="2.8027">
        <ele>100</ele>
        <time>2018-04-14T10:22:39Z</time>
      </trkpt>
      <trkpt lat="48.37014" lon="2.80272">
        <ele>99.6</ele>
        <time>2018-04-14T10:22:40Z</time>
      </trkpt>
      <trkpt lat="48.37017" lon="2.80275">
        <ele>99.1</ele>
        <time>2018-04-14T10:22:41Z</time>
      </trkpt>
      <trkpt lat="48.3702" lon="2.80278">
        <ele>98.5</ele>
        <time>2018-04-14T10:22:42Z</time>
      </trkpt>
      <trkpt lat="48.37025" lon="2.80278">
        <ele>98</ele>
        <time>2018-04-14T10:22:43Z</time>
      </trkpt>
      <trkpt lat="48.37028" lon="2.80276">
        <ele>97.5</ele>
        <time>2018-04-14T10:22:44Z</time>
      </trkpt>
      <trkpt lat="48.37031" lon="2.80275">
        <ele>97.3</ele>
        <time>2018-04-14T10:22:45Z</time>
      </trkpt>
      <trkpt lat="48.37035" lon="2.80274">
        <ele>97.2</ele>
        <time>2018-04-14T10:22:46Z</time>
      </trkpt>
      <trkpt lat="48.37041" lon="2.80273">
        <ele>97</ele>
        <time>2018-04-14T10:22:47Z</time>
      </trkpt>
      <trkpt lat="48.37047" lon="2.80273">
        <ele>96.9</ele>
        <time>2018-04-14T10:22:48Z</time>
      </trkpt>
      <trkpt lat="48.37052" lon="2.80274">
        <ele>96.8</ele>
        <time>2018-04-14T10:22:49Z</time>
      </trkpt>
      <trkpt lat="48.37056" lon="2.80274">
        <ele>96.7</ele>
        <time>2018-04-14T10:22:50Z</time>
      </trkpt>
      <trkpt lat="48.3706" lon="2.80276">
        <ele>96.7</ele>
        <time>2018-04-14T10:22:51Z</time>
      </trkpt>
      <trkpt lat="48.37064" lon="2.80277">
        <ele>96.6</ele>
        <time>2018-04-14T10:22:52Z</time>
      </trkpt>
      <trkpt lat="48.37068" lon="2.80279">
        <ele>96.7</ele>
        <time>2018-04-14T10:22:53Z</time>
      </trkpt>
      <trkpt lat="48.37073" lon="2.80281">
        <ele>96.8</ele>
        <time>2018-04-14T10:22:54Z</time>
      </trkpt>
      <trkpt lat="48.37076" lon="2.80285">
        <ele>96.9</ele>
        <time>2018-04-14T10:22:55Z</time>
      </trkpt>
      <trkpt lat="48.37079" lon="2.8029">
        <ele>95.1</ele>
        <time>2018-04-14T10:22:56Z</time>
      </trkpt>
      <trkpt lat="48.37079" lon="2.80296">
        <ele>93.9</ele>
        <time>2018-04-14T10:22:57Z</time>
      </trkpt>
      <trkpt lat="48.3708" lon="2.80301">
        <ele>92.9</ele>
        <time>2018-04-14T10:22:58Z</time>
      </trkpt>
      <trkpt lat="48.37082" lon="2.80312">
        <ele>90.4</ele>
        <time>2018-04-14T10:23:00Z</time>
      </trkpt>
      <trkpt lat="48.37084" lon="2.8032">
        <ele>88.5</ele>
        <time>2018-04-14T10:23:01Z</time>
      </trkpt>
      <trkpt lat="48.37086" lon="2.80325">
        <ele>87.4</ele>
        <time>2018-04-14T10:23:02Z</time>
      </trkpt>
      <trkpt lat="48.37087" lon="2.80331">
        <ele>86.1</ele>
        <time>2018-04-14T10:23:03Z</time>
      </trkpt>
      <trkpt lat="48.37089" lon="2.80337">
        <ele>84.7</ele>
        <time>2018-04-14T10:23:04Z</time>
      </trkpt>
      <trkpt lat="48.37092" lon="2.80341">
        <ele>83.5</ele>
        <time>2018-04-14T10:23:05Z</time>
      </trkpt>
      <trkpt lat="48.37094" lon="2.80345">
        <ele>82.5</ele>
        <time>2018-04-14T10:23:06Z</time>
      </trkpt>
      <trkpt lat="48.37097" lon="2.80349">
        <ele>81.2</ele>
        <time>2018-04-14T10:23:08Z</time>
      </trkpt>
      <trkpt lat="48.371" lon="2.80352">
        <ele>80</ele>
        <time>2018-04-14T10:23:10Z</time>
      </trkpt>
      <trkpt lat="48.37097" lon="2.80351">
        <ele>79.8</ele>
        <time>2018-04-14T10:23:18Z</time>
      </trkpt>
      <trkpt lat="48.371" lon="2.8035">
        <ele>79.7</ele>
        <time>2018-04-14T10:23:49Z</time>
      </trkpt>
      <trkpt lat="48.37102" lon="2.8035">
        <ele>79.7</ele>
        <time>2018-04-14T10:23:53Z</time>
      </trkpt>
      <trkpt lat="48.37105" lon="2.80353">
        <ele>79.6</ele>
        <time>2018-04-14T10:23:59Z</time>
      </trkpt>
      <trkpt lat="48.37108" lon="2.80357">
        <ele>79.5</ele>
        <time>2018-04-14T10:24:03Z</time>
      </trkpt>
      <trkpt lat="48.3711" lon="2.80361">
        <ele>79.4</ele>
        <time>2018-04-14T10:24:05Z</time>
      </trkpt>
      <trkpt lat="48.3711" lon="2.80365">
        <ele>79.8</ele>
        <time>2018-04-14T10:24:07Z</time>
      </trkpt>
      <trkpt lat="48.37109" lon="2.80369">
        <ele>80.2</ele>
        <time>2018-04-14T10:24:12Z</time>
      </trkpt>
      <trkpt lat="48.3711" lon="2.80372">
        <ele>80.7</ele>
        <time>2018-04-14T10:24:40Z</time>
      </trkpt>
      <trkpt lat="48.37111" lon="2.80377">
        <ele>81.1</ele>
        <time>2018-04-14T10:24:52Z</time>
      </trkpt>
      <trkpt lat="48.37111" lon="2.80381">
        <ele>81.7</ele>
        <time>2018-04-14T10:24:59Z</time>
      </trkpt>
      <trkpt lat="48.37108" lon="2.80383">
        <ele>82.3</ele>
        <time>2018-04-14T10:25:38Z</time>
      </trkpt>
      <trkpt lat="48.37111" lon="2.80384">
        <ele>82.8</ele>
        <time>2018-04-14T10:27:17Z</time>
      </trkpt>
      <trkpt lat="48.37109" lon="2.8038">
        <ele>83.5</ele>
        <time>2018-04-14T10:27:23Z</time>
      </trkpt>
      <trkpt lat="48.37109" lon="2.80384">
        <ele>84</ele>
        <time>2018-04-14T10:27:37Z</time>
      </trkpt>
    </trkseg>
  </trk>
</gpx>